<?xml version='1.0' encoding='UTF-8'?><gpx version="1.1" creator="JPX - https://github.com/jenetics/jpx" xmlns="http://www.topografix.com/GPX/1/1"><trk><trkseg><trkpt lat="44.5114262806" lon="11.338669148935617"><ele>39.0</ele><time>2026-04-18T08:23:16Z</time></trkpt><trkpt lat="44.511564748379456" lon="11.338714213030794"><ele>39.0</ele><time>2026-04-18T08:23:18Z</time></trkpt><trkpt lat="44.511650239017456" lon="11.338718598220344"><ele>39.0</ele><time>2026-04-18T08:23:19Z</time></trkpt><trkpt lat="44.51171882137601" lon="11.33874545326639"><ele>39.0</ele><time>2026-04-18T08:23:20Z</time></trkpt><trkpt lat="44.511782989974094" lon="11.338767326582412"><ele>39.0</ele><time>2026-04-18T08:23:21Z</time></trkpt><trkpt lat="44.51186301143186" lon="11.338792810940454"><ele>39.0</ele><time>2026-04-18T08:23:22Z</time></trkpt><trkpt lat="44.51193947846538" lon="11.338820246402838"><ele>39.0</ele><time>2026-04-18T08:23:23Z</time></trkpt><trkpt lat="44.51201860551645" lon="11.338832813594657"><ele>39.0</ele><time>2026-04-18T08:23:24Z</time></trkpt><trkpt lat="44.51208964954952" lon="11.338843822935653"><ele>39.0</ele><time>2026-04-18T08:23:25Z</time></trkpt><trkpt lat="44.51215780811989" lon="11.338857869259007"><ele>39.0</ele><time>2026-04-18T08:23:26Z</time></trkpt><trkpt lat="44.512238779410474" lon="11.338866767613872"><ele>39.0</ele><time>2026-04-18T08:23:27Z</time></trkpt><trkpt lat="44.51238655688714" lon="11.338928682837832"><ele>39.166666666666664</ele><time>2026-04-18T08:23:29Z</time></trkpt><trkpt lat="44.51247611343736" lon="11.338952271536234"><ele>39.333333333333336</ele><time>2026-04-18T08:23:30Z</time></trkpt><trkpt lat="44.51255737799683" lon="11.33897293996411"><ele>39.5</ele><time>2026-04-18T08:23:31Z</time></trkpt><trkpt lat="44.51263778366435" lon="11.33899324269206"><ele>39.66666666666667</ele><time>2026-04-18T08:23:32Z</time></trkpt><trkpt lat="44.51271645318721" lon="11.339007873712525"><ele>39.833333333333336</ele><time>2026-04-18T08:23:33Z</time></trkpt><trkpt lat="44.512788883654345" lon="11.339025143026687"><ele>40.0</ele><time>2026-04-18T08:23:34Z</time></trkpt><trkpt lat="44.51285251095896" lon="11.339039658285307"><ele>40.0</ele><time>2026-04-18T08:23:35Z</time></trkpt><trkpt lat="44.51292472996003" lon="11.33905124452402"><ele>40.0</ele><time>2026-04-18T08:23:36Z</time></trkpt><trkpt lat="44.51303369293051" lon="11.339099134921625"><ele>40.0</ele><time>2026-04-18T08:23:38Z</time></trkpt><trkpt lat="44.513099903452286" lon="11.339115151711432"><ele>40.0</ele><time>2026-04-18T08:23:39Z</time></trkpt><trkpt lat="44.513213029245335" lon="11.339143882072422"><ele>40.0</ele><time>2026-04-18T08:23:41Z</time></trkpt><trkpt lat="44.513288173435626" lon="11.33917011125945"><ele>40.0</ele><time>2026-04-18T08:23:43Z</time></trkpt><trkpt lat="44.51336400230668" lon="11.339201335920576"><ele>40.0</ele><time>2026-04-18T08:23:45.999Z</time></trkpt><trkpt lat="44.51343208725028" lon="11.339227882295893"><ele>40.0</ele><time>2026-04-18T08:23:47.998Z</time></trkpt><trkpt lat="44.51345482985657" lon="11.339354322849658"><ele>40.0</ele><time>2026-04-18T08:23:49.998Z</time></trkpt><trkpt lat="44.513390399318894" lon="11.339445927140979"><ele>40.0</ele><time>2026-04-18T08:23:50.998Z</time></trkpt><trkpt lat="44.51334284109044" lon="11.339533116449045"><ele>40.0</ele><time>2026-04-18T08:23:51.998Z</time></trkpt><trkpt lat="44.513295808790225" lon="11.339621465552945"><ele>40.0</ele><time>2026-04-18T08:23:52.998Z</time></trkpt><trkpt lat="44.51325444630189" lon="11.33972242732082"><ele>40.5</ele><time>2026-04-18T08:23:53.998Z</time></trkpt><trkpt lat="44.513189817329796" lon="11.339920688476802"><ele>41.0</ele><time>2026-04-18T08:23:55.999Z</time></trkpt><trkpt lat="44.51315885526479" lon="11.340021991548777"><ele>41.5</ele><time>2026-04-18T08:23:56.999Z</time></trkpt><trkpt lat="44.51311158443295" lon="11.34016717389603"><ele>42.0</ele><time>2026-04-18T08:23:57.999Z</time></trkpt><trkpt lat="44.51307498056862" lon="11.340338058631835"><ele>42.0</ele><time>2026-04-18T08:23:59.999Z</time></trkpt><trkpt lat="44.513057897086156" lon="11.34044089803716"><ele>42.0</ele><time>2026-04-18T08:24:00.999Z</time></trkpt><trkpt lat="44.51304166261845" lon="11.340552380430758"><ele>42.0</ele><time>2026-04-18T08:24:01.999Z</time></trkpt><trkpt lat="44.51305171659508" lon="11.340647570102801"><ele>42.0</ele><time>2026-04-18T08:24:02.999Z</time></trkpt><trkpt lat="44.51302886053833" lon="11.340750204484035"><ele>42.0</ele><time>2026-04-18T08:24:03.999Z</time></trkpt><trkpt lat="44.51301354089054" lon="11.34083872689077"><ele>42.0</ele><time>2026-04-18T08:24:04.999Z</time></trkpt><trkpt lat="44.512989614476766" lon="11.341006093706932"><ele>42.400000000000006</ele><time>2026-04-18T08:24:06.999Z</time></trkpt><trkpt lat="44.51294319466082" lon="11.341132366083981"><ele>42.800000000000004</ele><time>2026-04-18T08:24:08.999Z</time></trkpt><trkpt lat="44.51284347437258" lon="11.341240385774757"><ele>43.2</ele><time>2026-04-18T08:24:10.999Z</time></trkpt><trkpt lat="44.51275053027641" lon="11.34134045361112"><ele>43.6</ele><time>2026-04-18T08:24:12.999Z</time></trkpt><trkpt lat="44.51268198202792" lon="11.34136366246872"><ele>44.0</ele><time>2026-04-18T08:24:13.999Z</time></trkpt><trkpt lat="44.51257849193349" lon="11.341427337676441"><ele>44.0</ele><time>2026-04-18T08:24:15.999Z</time></trkpt><trkpt lat="44.512505140851204" lon="11.341433301242501"><ele>44.0</ele><time>2026-04-18T08:24:16.999Z</time></trkpt><trkpt lat="44.512439308810485" lon="11.341434893194482"><ele>44.0</ele><time>2026-04-18T08:24:17.999Z</time></trkpt><trkpt lat="44.5122780818393" lon="11.34139519479653"><ele>44.0</ele><time>2026-04-18T08:24:19.999Z</time></trkpt><trkpt lat="44.51220617703119" lon="11.34134688769637"><ele>44.0</ele><time>2026-04-18T08:24:20.999Z</time></trkpt><trkpt lat="44.51213974559786" lon="11.34136558823726"><ele>44.0</ele><time>2026-04-18T08:24:21.999Z</time></trkpt><trkpt lat="44.51207505830909" lon="11.341330495073539"><ele>44.0</ele><time>2026-04-18T08:24:22.999Z</time></trkpt><trkpt lat="44.51195876434551" lon="11.341291972027895"><ele>44.0</ele><time>2026-04-18T08:24:24.999Z</time></trkpt><trkpt lat="44.511876962625806" lon="11.341254649179753"><ele>44.0</ele><time>2026-04-18T08:24:26.999Z</time></trkpt><trkpt lat="44.51175980508233" lon="11.341436704211409"><ele>43.75</ele><time>2026-04-18T08:24:29.999Z</time></trkpt><trkpt lat="44.511736833316085" lon="11.34160064694726"><ele>43.5</ele><time>2026-04-18T08:24:31.999Z</time></trkpt><trkpt lat="44.51172435916781" lon="11.341689671209062"><ele>43.25</ele><time>2026-04-18T08:24:32.999Z</time></trkpt><trkpt lat="44.51168795230348" lon="11.341862157438033"><ele>43.0</ele><time>2026-04-18T08:24:34.999Z</time></trkpt><trkpt lat="44.511680631875045" lon="11.342055110460251"><ele>43.0</ele><time>2026-04-18T08:24:36.999Z</time></trkpt><trkpt lat="44.51166601766175" lon="11.34220792920559"><ele>43.0</ele><time>2026-04-18T08:24:38.999Z</time></trkpt><trkpt lat="44.51163742339377" lon="11.342356473803756"><ele>43.0</ele><time>2026-04-18T08:24:40.999Z</time></trkpt><trkpt lat="44.51163229434772" lon="11.342447720390835"><ele>43.0</ele><time>2026-04-18T08:24:42.999Z</time></trkpt><trkpt lat="44.511622748135665" lon="11.342537250916525"><ele>43.0</ele><time>2026-04-18T08:24:46.999Z</time></trkpt><trkpt lat="44.51159020397837" lon="11.34266227760546"><ele>43.0</ele><time>2026-04-18T08:25:10.999Z</time></trkpt><trkpt lat="44.5115714561138" lon="11.342804395692584"><ele>43.16666666666667</ele><time>2026-04-18T08:25:12.999Z</time></trkpt><trkpt lat="44.511558493447" lon="11.342902659068063"><ele>43.333333333333336</ele><time>2026-04-18T08:25:13.999Z</time></trkpt><trkpt lat="44.51154486594521" lon="11.343005962263307"><ele>43.5</ele><time>2026-04-18T08:25:14.999Z</time></trkpt><trkpt lat="44.51153061272605" lon="11.343114008675991"><ele>43.666666666666664</ele><time>2026-04-18T08:25:15.999Z</time></trkpt><trkpt lat="44.511516057937044" lon="11.343224341882259"><ele>43.83333333333333</ele><time>2026-04-18T08:25:16.999Z</time></trkpt><trkpt lat="44.511504476911625" lon="11.343322186999682"><ele>44.0</ele><time>2026-04-18T08:25:17.999Z</time></trkpt><trkpt lat="44.51149157494368" lon="11.343426504086606"><ele>44.2</ele><time>2026-04-18T08:25:19Z</time></trkpt><trkpt lat="44.511479274835565" lon="11.343525954932886"><ele>44.400000000000006</ele><time>2026-04-18T08:25:20Z</time></trkpt><trkpt lat="44.51146500168098" lon="11.343641116789218"><ele>44.6</ele><time>2026-04-18T08:25:21Z</time></trkpt><trkpt lat="44.51145788134294" lon="11.343832346421799"><ele>44.8</ele><time>2026-04-18T08:25:23Z</time></trkpt><trkpt lat="44.51144199123958" lon="11.343958242782461"><ele>45.0</ele><time>2026-04-18T08:25:24Z</time></trkpt><trkpt lat="44.51142383830588" lon="11.34407361897581"><ele>45.333333333333336</ele><time>2026-04-18T08:25:25Z</time></trkpt><trkpt lat="44.511402355339655" lon="11.344191875215307"><ele>45.666666666666664</ele><time>2026-04-18T08:25:26Z</time></trkpt><trkpt lat="44.51138551886386" lon="11.344304605397118"><ele>46.0</ele><time>2026-04-18T08:25:27Z</time></trkpt><trkpt lat="44.511370173118834" lon="11.344423269375145"><ele>46.33333333333333</ele><time>2026-04-18T08:25:28Z</time></trkpt><trkpt lat="44.511354838479576" lon="11.344519226616061"><ele>46.666666666666664</ele><time>2026-04-18T08:25:29Z</time></trkpt><trkpt lat="44.51134582576394" lon="11.344613959497604"><ele>47.0</ele><time>2026-04-18T08:25:30Z</time></trkpt><trkpt lat="44.51132897955439" lon="11.344719999299034"><ele>47.166666666666664</ele><time>2026-04-18T08:25:32Z</time></trkpt><trkpt lat="44.51131453333428" lon="11.344822258322315"><ele>47.33333333333333</ele><time>2026-04-18T08:25:34Z</time></trkpt><trkpt lat="44.511301490812365" lon="11.344920280753954"><ele>47.5</ele><time>2026-04-18T08:25:36Z</time></trkpt><trkpt lat="44.51129948811055" lon="11.345025110833983"><ele>47.666666666666664</ele><time>2026-04-18T08:25:38Z</time></trkpt><trkpt lat="44.51128639023317" lon="11.345134817118549"><ele>47.833333333333336</ele><time>2026-04-18T08:25:40Z</time></trkpt><trkpt lat="44.511265970244295" lon="11.345239440496506"><ele>48.0</ele><time>2026-04-18T08:25:41Z</time></trkpt><trkpt lat="44.51124899332236" lon="11.345376659981357"><ele>48.0</ele><time>2026-04-18T08:25:43Z</time></trkpt><trkpt lat="44.51123684559364" lon="11.345495227026385"><ele>48.0</ele><time>2026-04-18T08:25:45Z</time></trkpt><trkpt lat="44.51120340741916" lon="11.34561558804078"><ele>48.0</ele><time>2026-04-18T08:25:47Z</time></trkpt><trkpt lat="44.51118999976499" lon="11.345725859725864"><ele>48.0</ele><time>2026-04-18T08:25:49Z</time></trkpt><trkpt lat="44.511178407868975" lon="11.345828973030702"><ele>48.0</ele><time>2026-04-18T08:25:51Z</time></trkpt><trkpt lat="44.5111701377484" lon="11.345920525597133"><ele>48.0</ele><time>2026-04-18T08:25:54.998Z</time></trkpt><trkpt lat="44.511156524973025" lon="11.34600979180881"><ele>47.599999999999994</ele><time>2026-04-18T08:26:00.998Z</time></trkpt><trkpt lat="44.51112486993945" lon="11.346178322867486"><ele>47.199999999999996</ele><time>2026-04-18T08:26:07.998Z</time></trkpt><trkpt lat="44.51111187787445" lon="11.34631283242908"><ele>46.8</ele><time>2026-04-18T08:26:09.998Z</time></trkpt><trkpt lat="44.5110895658753" lon="11.346416982629417"><ele>46.4</ele><time>2026-04-18T08:26:12.999Z</time></trkpt><trkpt lat="44.51107255823642" lon="11.346527192949676"><ele>46.0</ele><time>2026-04-18T08:26:15.999Z</time></trkpt><trkpt lat="44.51105606304895" lon="11.346630339795515"><ele>46.66666666666667</ele><time>2026-04-18T08:26:17.999Z</time></trkpt><trkpt lat="44.51103952666251" lon="11.346723516242738"><ele>47.333333333333336</ele><time>2026-04-18T08:26:19.999Z</time></trkpt><trkpt lat="44.51102463831077" lon="11.346819682648944"><ele>48.0</ele><time>2026-04-18T08:26:21.999Z</time></trkpt><trkpt lat="44.51101719529111" lon="11.346938699122497"><ele>48.66666666666667</ele><time>2026-04-18T08:26:23.999Z</time></trkpt><trkpt lat="44.51099944796039" lon="11.347074670141872"><ele>49.333333333333336</ele><time>2026-04-18T08:26:25.999Z</time></trkpt><trkpt lat="44.510977862717205" lon="11.347212927508789"><ele>50.0</ele><time>2026-04-18T08:26:27.999Z</time></trkpt><trkpt lat="44.510956616946196" lon="11.347345550813218"><ele>50.333333333333336</ele><time>2026-04-18T08:26:29.999Z</time></trkpt><trkpt lat="44.51094820678042" lon="11.347439464712359"><ele>50.66666666666667</ele><time>2026-04-18T08:26:30.999Z</time></trkpt><trkpt lat="44.51092750377706" lon="11.347536517433241"><ele>51.0</ele><time>2026-04-18T08:26:31.999Z</time></trkpt><trkpt lat="44.51091305091175" lon="11.347652902660919"><ele>51.33333333333333</ele><time>2026-04-18T08:26:32.999Z</time></trkpt><trkpt lat="44.51089686681894" lon="11.347779016089989"><ele>51.666666666666664</ele><time>2026-04-18T08:26:33.999Z</time></trkpt><trkpt lat="44.510885808393894" lon="11.347897603349447"><ele>52.0</ele><time>2026-04-18T08:26:34.999Z</time></trkpt><trkpt lat="44.510860521294134" lon="11.348062235923065"><ele>52.0</ele><time>2026-04-18T08:26:36.999Z</time></trkpt><trkpt lat="44.51084485309166" lon="11.348184329431614"><ele>52.0</ele><time>2026-04-18T08:26:37.999Z</time></trkpt><trkpt lat="44.51082902040996" lon="11.348302352378502"><ele>52.0</ele><time>2026-04-18T08:26:38.999Z</time></trkpt><trkpt lat="44.51081339419512" lon="11.348419340534043"><ele>52.0</ele><time>2026-04-18T08:26:39.999Z</time></trkpt><trkpt lat="44.510794701792264" lon="11.34855928422913"><ele>52.0</ele><time>2026-04-18T08:26:40.999Z</time></trkpt><trkpt lat="44.51077524169599" lon="11.348704975292963"><ele>52.0</ele><time>2026-04-18T08:26:41.999Z</time></trkpt><trkpt lat="44.510762921652656" lon="11.348850182365428"><ele>52.0</ele><time>2026-04-18T08:26:42.999Z</time></trkpt><trkpt lat="44.51074061777841" lon="11.34898881875281"><ele>52.0</ele><time>2026-04-18T08:26:43.999Z</time></trkpt><trkpt lat="44.510722658036784" lon="11.349112724774217"><ele>52.0</ele><time>2026-04-18T08:26:44.999Z</time></trkpt><trkpt lat="44.510706397238934" lon="11.349233650043"><ele>52.0</ele><time>2026-04-18T08:26:45.999Z</time></trkpt><trkpt lat="44.510690301145594" lon="11.349351826766561"><ele>51.166666666666664</ele><time>2026-04-18T08:26:46.999Z</time></trkpt><trkpt lat="44.51067365201968" lon="11.349460384291465"><ele>50.33333333333333</ele><time>2026-04-18T08:26:47.999Z</time></trkpt><trkpt lat="44.51065841447331" lon="11.349583839007217"><ele>49.5</ele><time>2026-04-18T08:26:48.999Z</time></trkpt><trkpt lat="44.51064195811255" lon="11.34971003175458"><ele>48.666666666666664</ele><time>2026-04-18T08:26:50Z</time></trkpt><trkpt lat="44.5106283871534" lon="11.349825130964412"><ele>47.83333333333333</ele><time>2026-04-18T08:26:51Z</time></trkpt><trkpt lat="44.510612267527186" lon="11.349958237823255"><ele>47.0</ele><time>2026-04-18T08:26:52Z</time></trkpt><trkpt lat="44.51059795843943" lon="11.350083941826997"><ele>46.666666666666664</ele><time>2026-04-18T08:26:53Z</time></trkpt><trkpt lat="44.510581563567506" lon="11.350211316596756"><ele>46.33333333333333</ele><time>2026-04-18T08:26:54Z</time></trkpt><trkpt lat="44.5105652017185" lon="11.350330408574527"><ele>46.0</ele><time>2026-04-18T08:26:55Z</time></trkpt><trkpt lat="44.5105499006081" lon="11.350448853057783"><ele>45.666666666666664</ele><time>2026-04-18T08:26:56Z</time></trkpt><trkpt lat="44.51053404773059" lon="11.350569217137974"><ele>45.333333333333336</ele><time>2026-04-18T08:26:57Z</time></trkpt><trkpt lat="44.51051701809749" lon="11.350696284543968"><ele>45.0</ele><time>2026-04-18T08:26:58Z</time></trkpt><trkpt lat="44.51049997835017" lon="11.350826355575514"><ele>45.0</ele><time>2026-04-18T08:26:59Z</time></trkpt><trkpt lat="44.51048427440312" lon="11.350957586242366"><ele>45.0</ele><time>2026-04-18T08:27:00Z</time></trkpt><trkpt lat="44.51046919034954" lon="11.351085916273208"><ele>45.0</ele><time>2026-04-18T08:27:01Z</time></trkpt><trkpt lat="44.51044680337178" lon="11.351207665113629"><ele>45.0</ele><time>2026-04-18T08:27:02Z</time></trkpt><trkpt lat="44.51043088333049" lon="11.351329942308663"><ele>45.0</ele><time>2026-04-18T08:27:03Z</time></trkpt><trkpt lat="44.51041612248675" lon="11.351437176594867"><ele>45.0</ele><time>2026-04-18T08:27:04Z</time></trkpt><trkpt lat="44.51040339370161" lon="11.351548549163743"><ele>45.0</ele><time>2026-04-18T08:27:05Z</time></trkpt><trkpt lat="44.51038723679635" lon="11.35166701581492"><ele>45.0</ele><time>2026-04-18T08:27:06Z</time></trkpt><trkpt lat="44.51037467983966" lon="11.351769679976817"><ele>45.0</ele><time>2026-04-18T08:27:07Z</time></trkpt><trkpt lat="44.51036479797822" lon="11.351865529238093"><ele>45.0</ele><time>2026-04-18T08:27:08Z</time></trkpt><trkpt lat="44.510341203238916" lon="11.35196208925361"><ele>45.0</ele><time>2026-04-18T08:27:09Z</time></trkpt><trkpt lat="44.51032939902816" lon="11.352055580038739"><ele>45.0</ele><time>2026-04-18T08:27:10Z</time></trkpt><trkpt lat="44.510320493804294" lon="11.352142970955391"><ele>45.0</ele><time>2026-04-18T08:27:11Z</time></trkpt><trkpt lat="44.51030613690568" lon="11.35224543855681"><ele>45.166666666666664</ele><time>2026-04-18T08:27:12Z</time></trkpt><trkpt lat="44.51029578308561" lon="11.352337483628709"><ele>45.333333333333336</ele><time>2026-04-18T08:27:13Z</time></trkpt><trkpt lat="44.51028358299827" lon="11.352431156706396"><ele>45.5</ele><time>2026-04-18T08:27:14Z</time></trkpt><trkpt lat="44.51025385395845" lon="11.352531657095955"><ele>45.66666666666667</ele><time>2026-04-18T08:27:15Z</time></trkpt><trkpt lat="44.510236971553375" lon="11.352640122331959"><ele>45.833333333333336</ele><time>2026-04-18T08:27:16Z</time></trkpt><trkpt lat="44.51022453644522" lon="11.35275178296032"><ele>46.0</ele><time>2026-04-18T08:27:17Z</time></trkpt><trkpt lat="44.51021609751863" lon="11.352889874673187"><ele>46.0</ele><time>2026-04-18T08:27:18Z</time></trkpt><trkpt lat="44.51020150264901" lon="11.353016620575694"><ele>46.0</ele><time>2026-04-18T08:27:19Z</time></trkpt><trkpt lat="44.510189453795114" lon="11.353124421790705"><ele>46.0</ele><time>2026-04-18T08:27:20Z</time></trkpt><trkpt lat="44.510171493739456" lon="11.353238381539075"><ele>46.0</ele><time>2026-04-18T08:27:21Z</time></trkpt><trkpt lat="44.51016096071957" lon="11.353334061693863"><ele>46.0</ele><time>2026-04-18T08:27:22Z</time></trkpt><trkpt lat="44.51014850531146" lon="11.353438756325195"><ele>46.0</ele><time>2026-04-18T08:27:23Z</time></trkpt><trkpt lat="44.510139102795264" lon="11.353537123735876"><ele>45.833333333333336</ele><time>2026-04-18T08:27:24Z</time></trkpt><trkpt lat="44.51012342537486" lon="11.353648990401542"><ele>45.66666666666667</ele><time>2026-04-18T08:27:25Z</time></trkpt><trkpt lat="44.510106926714904" lon="11.353757322379009"><ele>45.5</ele><time>2026-04-18T08:27:26Z</time></trkpt><trkpt lat="44.510088967410056" lon="11.35387125585655"><ele>45.333333333333336</ele><time>2026-04-18T08:27:27Z</time></trkpt><trkpt lat="44.51007242383442" lon="11.353988212324168"><ele>45.166666666666664</ele><time>2026-04-18T08:27:28Z</time></trkpt><trkpt lat="44.510055607848805" lon="11.354107274395087"><ele>45.0</ele><time>2026-04-18T08:27:29Z</time></trkpt><trkpt lat="44.51003858969146" lon="11.354222077239275"><ele>45.0</ele><time>2026-04-18T08:27:30Z</time></trkpt><trkpt lat="44.51002549538441" lon="11.3543349885491"><ele>45.0</ele><time>2026-04-18T08:27:31Z</time></trkpt><trkpt lat="44.510010020711434" lon="11.354455356393862"><ele>45.0</ele><time>2026-04-18T08:27:32Z</time></trkpt><trkpt lat="44.50999514304564" lon="11.354573800572888"><ele>45.0</ele><time>2026-04-18T08:27:33Z</time></trkpt><trkpt lat="44.50997995168226" lon="11.354695570659494"><ele>45.0</ele><time>2026-04-18T08:27:34Z</time></trkpt><trkpt lat="44.50996841258994" lon="11.354813361536978"><ele>45.0</ele><time>2026-04-18T08:27:35Z</time></trkpt><trkpt lat="44.50995266389436" lon="11.354926504288763"><ele>45.0</ele><time>2026-04-18T08:27:36Z</time></trkpt><trkpt lat="44.50993393586082" lon="11.35504108665152"><ele>45.0</ele><time>2026-04-18T08:27:37Z</time></trkpt><trkpt lat="44.509916004840896" lon="11.355147229615952"><ele>45.0</ele><time>2026-04-18T08:27:38Z</time></trkpt><trkpt lat="44.509897432498164" lon="11.355253655061228"><ele>45.0</ele><time>2026-04-18T08:27:39Z</time></trkpt><trkpt lat="44.509880978257264" lon="11.355358436285336"><ele>45.0</ele><time>2026-04-18T08:27:40Z</time></trkpt><trkpt lat="44.509866859569144" lon="11.355462481965887"><ele>45.0</ele><time>2026-04-18T08:27:41Z</time></trkpt><trkpt lat="44.50985530524469" lon="11.355565219999546"><ele>45.0</ele><time>2026-04-18T08:27:42Z</time></trkpt><trkpt lat="44.509838457784696" lon="11.355671226270946"><ele>45.0</ele><time>2026-04-18T08:27:43Z</time></trkpt><trkpt lat="44.50982720640979" lon="11.355776733321141"><ele>45.0</ele><time>2026-04-18T08:27:44Z</time></trkpt><trkpt lat="44.50981451260894" lon="11.355871594789011"><ele>45.0</ele><time>2026-04-18T08:27:45Z</time></trkpt><trkpt lat="44.50979923724805" lon="11.355987466025999"><ele>45.0</ele><time>2026-04-18T08:27:46Z</time></trkpt><trkpt lat="44.509788591161666" lon="11.3560865591285"><ele>45.0</ele><time>2026-04-18T08:27:47Z</time></trkpt><trkpt lat="44.50977956107194" lon="11.356185059210649"><ele>45.0</ele><time>2026-04-18T08:27:48Z</time></trkpt><trkpt lat="44.50977099061911" lon="11.356349577089967"><ele>44.5</ele><time>2026-04-18T08:27:50Z</time></trkpt><trkpt lat="44.50972222728087" lon="11.356487660859043"><ele>44.0</ele><time>2026-04-18T08:27:52Z</time></trkpt><trkpt lat="44.50989450833885" lon="11.356655612180004"><ele>43.5</ele><time>2026-04-18T08:27:56Z</time></trkpt><trkpt lat="44.50996433692237" lon="11.356683394514006"><ele>43.0</ele><time>2026-04-18T08:27:57Z</time></trkpt><trkpt lat="44.510033466667025" lon="11.356715362108654"><ele>43.0</ele><time>2026-04-18T08:27:58Z</time></trkpt><trkpt lat="44.51009526523982" lon="11.356748500560855"><ele>43.0</ele><time>2026-04-18T08:27:59Z</time></trkpt><trkpt lat="44.51021486596796" lon="11.356803409541183"><ele>43.0</ele><time>2026-04-18T08:28:00.998Z</time></trkpt><trkpt lat="44.51034652542412" lon="11.356857108389985"><ele>43.0</ele><time>2026-04-18T08:28:02.998Z</time></trkpt><trkpt lat="44.510456796621646" lon="11.356885716256988"><ele>43.0</ele><time>2026-04-18T08:28:04.998Z</time></trkpt><trkpt lat="44.510525497102925" lon="11.356947526987213"><ele>42.25</ele><time>2026-04-18T08:28:06.998Z</time></trkpt><trkpt lat="44.51048773466751" lon="11.357210720045217"><ele>41.5</ele><time>2026-04-18T08:28:08.998Z</time></trkpt><trkpt lat="44.51047720338976" lon="11.357328938071609"><ele>40.75</ele><time>2026-04-18T08:28:09.998Z</time></trkpt><trkpt lat="44.51046916423688" lon="11.35745072685061"><ele>40.0</ele><time>2026-04-18T08:28:10.998Z</time></trkpt><trkpt lat="44.51045496273142" lon="11.357569608178022"><ele>40.0</ele><time>2026-04-18T08:28:11.998Z</time></trkpt><trkpt lat="44.51044388352176" lon="11.357684680930078"><ele>40.0</ele><time>2026-04-18T08:28:12.998Z</time></trkpt><trkpt lat="44.51043548049076" lon="11.35779444157061"><ele>40.0</ele><time>2026-04-18T08:28:13.998Z</time></trkpt><trkpt lat="44.510449446212775" lon="11.35789963728854"><ele>40.0</ele><time>2026-04-18T08:28:14.998Z</time></trkpt><trkpt lat="44.510446058282156" lon="11.357991404890548"><ele>40.0</ele><time>2026-04-18T08:28:15.999Z</time></trkpt><trkpt lat="44.510474935893534" lon="11.358129056962213"><ele>40.0</ele><time>2026-04-18T08:28:17.999Z</time></trkpt><trkpt lat="44.51046060861274" lon="11.358231159577786"><ele>40.16666666666667</ele><time>2026-04-18T08:29:24Z</time></trkpt><trkpt lat="44.51045689431613" lon="11.35832461972165"><ele>40.333333333333336</ele><time>2026-04-18T08:29:26Z</time></trkpt><trkpt lat="44.51045468178671" lon="11.358482326009273"><ele>40.5</ele><time>2026-04-18T08:29:28Z</time></trkpt><trkpt lat="44.51045016817056" lon="11.358592276463765"><ele>40.666666666666664</ele><time>2026-04-18T08:29:29Z</time></trkpt><trkpt lat="44.51044116599719" lon="11.358718545461677"><ele>40.83333333333333</ele><time>2026-04-18T08:29:30Z</time></trkpt><trkpt lat="44.510432463541505" lon="11.358855549740719"><ele>41.0</ele><time>2026-04-18T08:29:31Z</time></trkpt><trkpt lat="44.51042210637397" lon="11.358994641394391"><ele>41.0</ele><time>2026-04-18T08:29:32Z</time></trkpt><trkpt lat="44.51042192241659" lon="11.359123892419623"><ele>41.0</ele><time>2026-04-18T08:29:33Z</time></trkpt><trkpt lat="44.51041218393394" lon="11.359254869275228"><ele>41.0</ele><time>2026-04-18T08:29:34Z</time></trkpt><trkpt lat="44.51040283701071" lon="11.35938905952342"><ele>41.0</ele><time>2026-04-18T08:29:35Z</time></trkpt><trkpt lat="44.51039248985995" lon="11.359523798694246"><ele>41.0</ele><time>2026-04-18T08:29:36Z</time></trkpt><trkpt lat="44.510383087987414" lon="11.359655284345385"><ele>40.599999999999994</ele><time>2026-04-18T08:29:37Z</time></trkpt><trkpt lat="44.51037128508987" lon="11.35979269041928"><ele>40.199999999999996</ele><time>2026-04-18T08:29:38Z</time></trkpt><trkpt lat="44.510355104464715" lon="11.359930553684915"><ele>39.8</ele><time>2026-04-18T08:29:39Z</time></trkpt><trkpt lat="44.51033549635744" lon="11.360056343152339"><ele>39.4</ele><time>2026-04-18T08:29:40Z</time></trkpt><trkpt lat="44.51031092854608" lon="11.360178042277216"><ele>39.0</ele><time>2026-04-18T08:29:41Z</time></trkpt><trkpt lat="44.51028528063659" lon="11.360306165411497"><ele>39.0</ele><time>2026-04-18T08:29:42Z</time></trkpt><trkpt lat="44.51025805128407" lon="11.360432534221884"><ele>39.0</ele><time>2026-04-18T08:29:43Z</time></trkpt><trkpt lat="44.51022108408685" lon="11.36055910182381"><ele>39.0</ele><time>2026-04-18T08:29:44Z</time></trkpt><trkpt lat="44.51018487228474" lon="11.360679019054304"><ele>39.0</ele><time>2026-04-18T08:29:45.001Z</time></trkpt><trkpt lat="44.510143863810924" lon="11.360798397715241"><ele>39.0</ele><time>2026-04-18T08:29:46.001Z</time></trkpt><trkpt lat="44.51009958850407" lon="11.360914771984799"><ele>39.285714285714285</ele><time>2026-04-18T08:29:47.001Z</time></trkpt><trkpt lat="44.51005511264588" lon="11.361015751314232"><ele>39.57142857142857</ele><time>2026-04-18T08:29:48.001Z</time></trkpt><trkpt lat="44.51001955439419" lon="11.361098011647144"><ele>39.857142857142854</ele><time>2026-04-18T08:29:49.001Z</time></trkpt><trkpt lat="44.509981429190276" lon="11.361172455017252"><ele>40.14285714285714</ele><time>2026-04-18T08:29:50.001Z</time></trkpt><trkpt lat="44.509947173578226" lon="11.361254728407477"><ele>40.42857142857143</ele><time>2026-04-18T08:29:51.001Z</time></trkpt><trkpt lat="44.50990694112174" lon="11.361333048657276"><ele>40.71428571428571</ele><time>2026-04-18T08:29:52.001Z</time></trkpt><trkpt lat="44.5098625447871" lon="11.361416267061037"><ele>41.0</ele><time>2026-04-18T08:29:53.001Z</time></trkpt><trkpt lat="44.50982116688613" lon="11.361487996051954"><ele>41.33333333333333</ele><time>2026-04-18T08:29:54.001Z</time></trkpt><trkpt lat="44.50977673295849" lon="11.36155731961411"><ele>41.666666666666664</ele><time>2026-04-18T08:29:55.001Z</time></trkpt><trkpt lat="44.509701157591806" lon="11.361669570368777"><ele>42.0</ele><time>2026-04-18T08:29:57.001Z</time></trkpt><trkpt lat="44.50965159518465" lon="11.361725495090848"><ele>42.333333333333336</ele><time>2026-04-18T08:29:59.001Z</time></trkpt><trkpt lat="44.50959748308197" lon="11.361795796775292"><ele>42.66666666666667</ele><time>2026-04-18T08:30:02.001Z</time></trkpt><trkpt lat="44.50952678789812" lon="11.361890843548089"><ele>43.0</ele><time>2026-04-18T08:30:26Z</time></trkpt><trkpt lat="44.50944391000322" lon="11.361990256265095"><ele>43.0</ele><time>2026-04-18T08:30:28Z</time></trkpt><trkpt lat="44.50936323933296" lon="11.362087391205831"><ele>43.0</ele><time>2026-04-18T08:30:30Z</time></trkpt><trkpt lat="44.509279341301685" lon="11.362164714788504"><ele>43.0</ele><time>2026-04-18T08:30:32Z</time></trkpt><trkpt lat="44.50914829254403" lon="11.36206572804656"><ele>43.0</ele><time>2026-04-18T08:30:35Z</time></trkpt><trkpt lat="44.50911302194771" lon="11.361989524198888"><ele>43.0</ele><time>2026-04-18T08:30:36Z</time></trkpt><trkpt lat="44.509071718375125" lon="11.36190686498022"><ele>43.0</ele><time>2026-04-18T08:30:37Z</time></trkpt><trkpt lat="44.50903029419463" lon="11.361826087828998"><ele>43.0</ele><time>2026-04-18T08:30:38Z</time></trkpt><trkpt lat="44.50898641901153" lon="11.361740531239368"><ele>43.0</ele><time>2026-04-18T08:30:39Z</time></trkpt><trkpt lat="44.50894115094147" lon="11.361652258493384"><ele>43.0</ele><time>2026-04-18T08:30:40Z</time></trkpt><trkpt lat="44.508897255660315" lon="11.361567235604824"><ele>43.0</ele><time>2026-04-18T08:30:41Z</time></trkpt><trkpt lat="44.508851293651425" lon="11.361478308666413"><ele>43.0</ele><time>2026-04-18T08:30:42Z</time></trkpt><trkpt lat="44.508806828756164" lon="11.361392278336158"><ele>42.85714285714286</ele><time>2026-04-18T08:30:43Z</time></trkpt><trkpt lat="44.50876384595794" lon="11.36130911556827"><ele>42.714285714285715</ele><time>2026-04-18T08:30:44Z</time></trkpt><trkpt lat="44.50872275078983" lon="11.361229604910415"><ele>42.57142857142857</ele><time>2026-04-18T08:30:45Z</time></trkpt><trkpt lat="44.50869204456559" lon="11.36114642929047"><ele>42.42857142857143</ele><time>2026-04-18T08:30:46Z</time></trkpt><trkpt lat="44.50865217636928" lon="11.361069874074001"><ele>42.285714285714285</ele><time>2026-04-18T08:30:47Z</time></trkpt><trkpt lat="44.508612910690736" lon="11.36099530966418"><ele>42.142857142857146</ele><time>2026-04-18T08:30:48Z</time></trkpt><trkpt lat="44.508573901608614" lon="11.360918469264712"><ele>42.0</ele><time>2026-04-18T08:30:49Z</time></trkpt><trkpt lat="44.50851433494119" lon="11.360791206031179"><ele>43.0</ele><time>2026-04-18T08:30:51Z</time></trkpt><trkpt lat="44.50844481571488" lon="11.360693626150777"><ele>44.0</ele><time>2026-04-18T08:30:53Z</time></trkpt><trkpt lat="44.508345519308364" lon="11.360721545098892"><ele>45.0</ele><time>2026-04-18T08:30:55Z</time></trkpt><trkpt lat="44.50824110897657" lon="11.360814503882347"><ele>46.0</ele><time>2026-04-18T08:30:57Z</time></trkpt><trkpt lat="44.50818665930572" lon="11.360866341337992"><ele>47.0</ele><time>2026-04-18T08:30:58Z</time></trkpt><trkpt lat="44.50813125493332" lon="11.360927802853267"><ele>47.0</ele><time>2026-04-18T08:30:59Z</time></trkpt><trkpt lat="44.50806021012487" lon="11.360991467922046"><ele>47.0</ele><time>2026-04-18T08:31:00Z</time></trkpt><trkpt lat="44.507988361392314" lon="11.361053012838255"><ele>47.0</ele><time>2026-04-18T08:31:01Z</time></trkpt><trkpt lat="44.50792338873762" lon="11.361109665697537"><ele>47.0</ele><time>2026-04-18T08:31:02Z</time></trkpt><trkpt lat="44.50786513878079" lon="11.361187142463992"><ele>47.0</ele><time>2026-04-18T08:31:03Z</time></trkpt><trkpt lat="44.50780103918275" lon="11.361248397171678"><ele>47.0</ele><time>2026-04-18T08:31:04Z</time></trkpt><trkpt lat="44.50773304737506" lon="11.361316176778786"><ele>47.2</ele><time>2026-04-18T08:31:05Z</time></trkpt><trkpt lat="44.50766633646969" lon="11.361385144237541"><ele>47.400000000000006</ele><time>2026-04-18T08:31:06.001Z</time></trkpt><trkpt lat="44.50759376515542" lon="11.3614548996037"><ele>47.599999999999994</ele><time>2026-04-18T08:31:07.001Z</time></trkpt><trkpt lat="44.50750567476771" lon="11.36151520730012"><ele>47.8</ele><time>2026-04-18T08:31:08.001Z</time></trkpt><trkpt lat="44.50741939633551" lon="11.361596970816443"><ele>48.0</ele><time>2026-04-18T08:31:09.001Z</time></trkpt><trkpt lat="44.5073400738018" lon="11.361668704409807"><ele>48.0</ele><time>2026-04-18T08:31:10.001Z</time></trkpt><trkpt lat="44.507272690691046" lon="11.361746489926201"><ele>48.0</ele><time>2026-04-18T08:31:11.001Z</time></trkpt><trkpt lat="44.50719964598468" lon="11.361826413948025"><ele>48.0</ele><time>2026-04-18T08:31:12.001Z</time></trkpt><trkpt lat="44.507114939749876" lon="11.3618827448668"><ele>48.0</ele><time>2026-04-18T08:31:13.001Z</time></trkpt><trkpt lat="44.50704087570554" lon="11.361967352234693"><ele>48.0</ele><time>2026-04-18T08:31:14.001Z</time></trkpt><trkpt lat="44.50696253045892" lon="11.362048822675005"><ele>47.8</ele><time>2026-04-18T08:31:15.001Z</time></trkpt><trkpt lat="44.50688491004867" lon="11.362124399214851"><ele>47.599999999999994</ele><time>2026-04-18T08:31:16.001Z</time></trkpt><trkpt lat="44.50680523487743" lon="11.362201556540217"><ele>47.400000000000006</ele><time>2026-04-18T08:31:17.001Z</time></trkpt><trkpt lat="44.506727309850355" lon="11.36227507110444"><ele>47.2</ele><time>2026-04-18T08:31:18.001Z</time></trkpt><trkpt lat="44.50664720825563" lon="11.3623498144563"><ele>47.0</ele><time>2026-04-18T08:31:19.001Z</time></trkpt><trkpt lat="44.50656414571615" lon="11.362418979294073"><ele>47.0</ele><time>2026-04-18T08:31:20.001Z</time></trkpt><trkpt lat="44.506481042519745" lon="11.362482445277529"><ele>47.0</ele><time>2026-04-18T08:31:21.001Z</time></trkpt><trkpt lat="44.506399519578835" lon="11.362549788286755"><ele>47.0</ele><time>2026-04-18T08:31:22.001Z</time></trkpt><trkpt lat="44.50632591398012" lon="11.362633222479152"><ele>47.0</ele><time>2026-04-18T08:31:23.001Z</time></trkpt><trkpt lat="44.5062436886514" lon="11.362700226872994"><ele>47.0</ele><time>2026-04-18T08:31:24.001Z</time></trkpt><trkpt lat="44.506168532761976" lon="11.362762290224987"><ele>47.0</ele><time>2026-04-18T08:31:25.001Z</time></trkpt><trkpt lat="44.50609344414032" lon="11.36282443054707"><ele>47.0</ele><time>2026-04-18T08:31:26.001Z</time></trkpt><trkpt lat="44.506025128895914" lon="11.362878918195705"><ele>47.0</ele><time>2026-04-18T08:31:27.001Z</time></trkpt><trkpt lat="44.505957914365815" lon="11.362938970105592"><ele>47.0</ele><time>2026-04-18T08:31:28.001Z</time></trkpt><trkpt lat="44.505894928729646" lon="11.363003824562337"><ele>47.0</ele><time>2026-04-18T08:31:29.001Z</time></trkpt><trkpt lat="44.50583098997761" lon="11.363074286219051"><ele>47.0</ele><time>2026-04-18T08:31:30.001Z</time></trkpt><trkpt lat="44.505762010385446" lon="11.36315130479142"><ele>47.0</ele><time>2026-04-18T08:31:31.001Z</time></trkpt><trkpt lat="44.50567723720103" lon="11.363210903746598"><ele>47.0</ele><time>2026-04-18T08:31:32.001Z</time></trkpt><trkpt lat="44.50560476003375" lon="11.363302432348219"><ele>47.0</ele><time>2026-04-18T08:31:33.001Z</time></trkpt><trkpt lat="44.50551847061483" lon="11.36337672495739"><ele>47.0</ele><time>2026-04-18T08:31:34.001Z</time></trkpt><trkpt lat="44.50542941403056" lon="11.363458009969893"><ele>47.0</ele><time>2026-04-18T08:31:35.001Z</time></trkpt><trkpt lat="44.5053462067136" lon="11.363533976555065"><ele>47.0</ele><time>2026-04-18T08:31:36.001Z</time></trkpt><trkpt lat="44.50526227999859" lon="11.363614613182387"><ele>47.0</ele><time>2026-04-18T08:31:37.001Z</time></trkpt><trkpt lat="44.50518167854516" lon="11.36369398733008"><ele>47.0</ele><time>2026-04-18T08:31:38.001Z</time></trkpt><trkpt lat="44.50510292492147" lon="11.363766804163127"><ele>47.0</ele><time>2026-04-18T08:31:39.001Z</time></trkpt><trkpt lat="44.505024997972264" lon="11.363841952047235"><ele>47.0</ele><time>2026-04-18T08:31:40.001Z</time></trkpt><trkpt lat="44.50494930330631" lon="11.363916383457974"><ele>47.0</ele><time>2026-04-18T08:31:41.001Z</time></trkpt><trkpt lat="44.504880489353326" lon="11.363992768602708"><ele>47.0</ele><time>2026-04-18T08:31:42.001Z</time></trkpt><trkpt lat="44.5048118750947" lon="11.364072576373902"><ele>47.0</ele><time>2026-04-18T08:31:43.001Z</time></trkpt><trkpt lat="44.50474235080417" lon="11.364143404518972"><ele>47.0</ele><time>2026-04-18T08:31:44.001Z</time></trkpt><trkpt lat="44.5046738039043" lon="11.364213972736113"><ele>47.0</ele><time>2026-04-18T08:31:45.001Z</time></trkpt><trkpt lat="44.504600866079294" lon="11.364284208888218"><ele>47.0</ele><time>2026-04-18T08:31:46.001Z</time></trkpt><trkpt lat="44.50453584722338" lon="11.364350373483235"><ele>47.666666666666664</ele><time>2026-04-18T08:31:47.001Z</time></trkpt><trkpt lat="44.5044749097581" lon="11.36441178584984"><ele>48.33333333333333</ele><time>2026-04-18T08:31:48.001Z</time></trkpt><trkpt lat="44.504425193067746" lon="11.364467054192456"><ele>49.0</ele><time>2026-04-18T08:31:49.001Z</time></trkpt><trkpt lat="44.504339934187826" lon="11.36454020515056"><ele>49.666666666666664</ele><time>2026-04-18T08:31:51.001Z</time></trkpt><trkpt lat="44.50429566342454" lon="11.36460422367417"><ele>50.333333333333336</ele><time>2026-04-18T08:31:53.001Z</time></trkpt><trkpt lat="44.50422644505744" lon="11.364679846364858"><ele>51.0</ele><time>2026-04-18T08:33:12.001Z</time></trkpt><trkpt lat="44.50415655049311" lon="11.364769219414127"><ele>51.199999999999996</ele><time>2026-04-18T08:33:15.001Z</time></trkpt><trkpt lat="44.504099238419855" lon="11.364830273911618"><ele>51.4</ele><time>2026-04-18T08:33:17.001Z</time></trkpt><trkpt lat="44.504024043818234" lon="11.364900063058727"><ele>51.6</ele><time>2026-04-18T08:33:19.001Z</time></trkpt><trkpt lat="44.50394631140626" lon="11.364971578480809"><ele>51.8</ele><time>2026-04-18T08:33:21.001Z</time></trkpt><trkpt lat="44.503866450696805" lon="11.365046170949975"><ele>52.0</ele><time>2026-04-18T08:33:23.001Z</time></trkpt><trkpt lat="44.50376986656545" lon="11.365136231845115"><ele>51.400000000000006</ele><time>2026-04-18T08:33:25.001Z</time></trkpt><trkpt lat="44.50367018892777" lon="11.365232921296208"><ele>50.800000000000004</ele><time>2026-04-18T08:33:27.001Z</time></trkpt><trkpt lat="44.50362011282382" lon="11.365292978921405"><ele>50.2</ele><time>2026-04-18T08:33:28.001Z</time></trkpt><trkpt lat="44.50351311340544" lon="11.365404475922844"><ele>49.6</ele><time>2026-04-18T08:33:30.001Z</time></trkpt><trkpt lat="44.50345488951914" lon="11.365458157411796"><ele>49.0</ele><time>2026-04-18T08:33:31.001Z</time></trkpt><trkpt lat="44.50340085230147" lon="11.36551711136602"><ele>48.83333333333333</ele><time>2026-04-18T08:33:32.001Z</time></trkpt><trkpt lat="44.50334233270624" lon="11.365572621206457"><ele>48.666666666666664</ele><time>2026-04-18T08:33:33.001Z</time></trkpt><trkpt lat="44.503237704580705" lon="11.365694442285792"><ele>48.5</ele><time>2026-04-18T08:33:35.001Z</time></trkpt><trkpt lat="44.50316569517325" lon="11.365741861695112"><ele>48.33333333333333</ele><time>2026-04-18T08:33:37.001Z</time></trkpt><trkpt lat="44.50310811629605" lon="11.365806059930305"><ele>48.166666666666664</ele><time>2026-04-18T08:33:39.001Z</time></trkpt><trkpt lat="44.50305626429305" lon="11.36586285200078"><ele>48.0</ele><time>2026-04-18T08:33:41.001Z</time></trkpt><trkpt lat="44.502988073799216" lon="11.36593275017824"><ele>48.0</ele><time>2026-04-18T08:33:44.001Z</time></trkpt><trkpt lat="44.502935671391114" lon="11.365991583475484"><ele>48.0</ele><time>2026-04-18T08:33:47.001Z</time></trkpt><trkpt lat="44.502854544071944" lon="11.36603041038314"><ele>48.0</ele><time>2026-04-18T08:34:30Z</time></trkpt><trkpt lat="44.50278822293793" lon="11.36610844505891"><ele>48.0</ele><time>2026-04-18T08:34:32Z</time></trkpt><trkpt lat="44.502703778163195" lon="11.366231585961389"><ele>48.0</ele><time>2026-04-18T08:34:34Z</time></trkpt><trkpt lat="44.502602414064135" lon="11.366346074491704"><ele>48.14285714285714</ele><time>2026-04-18T08:34:36Z</time></trkpt><trkpt lat="44.5025488155966" lon="11.366401974526417"><ele>48.285714285714285</ele><time>2026-04-18T08:34:37Z</time></trkpt><trkpt lat="44.502498915949865" lon="11.366458266357606"><ele>48.42857142857143</ele><time>2026-04-18T08:34:38Z</time></trkpt><trkpt lat="44.50244658896885" lon="11.366513915403898"><ele>48.57142857142857</ele><time>2026-04-18T08:34:39Z</time></trkpt><trkpt lat="44.502388707065435" lon="11.36658722241614"><ele>48.714285714285715</ele><time>2026-04-18T08:34:40Z</time></trkpt><trkpt lat="44.502332454374944" lon="11.366665713663412"><ele>48.857142857142854</ele><time>2026-04-18T08:34:41Z</time></trkpt><trkpt lat="44.50226760710346" lon="11.366745812682828"><ele>49.0</ele><time>2026-04-18T08:34:42Z</time></trkpt><trkpt lat="44.502221543433514" lon="11.366834419252099"><ele>48.99999999999999</ele><time>2026-04-18T08:34:43Z</time></trkpt><trkpt lat="44.502173595048085" lon="11.366915035279598"><ele>49.0</ele><time>2026-04-18T08:34:44Z</time></trkpt><trkpt lat="44.50213196919772" lon="11.36701547736767"><ele>49.0</ele><time>2026-04-18T08:34:45.001Z</time></trkpt><trkpt lat="44.502088296931326" lon="11.36712917556633"><ele>49.0</ele><time>2026-04-18T08:34:46.001Z</time></trkpt><trkpt lat="44.502043507555186" lon="11.367235213141173"><ele>48.99999999999999</ele><time>2026-04-18T08:34:47.001Z</time></trkpt><trkpt lat="44.50200635871452" lon="11.367344797900302"><ele>49.0</ele><time>2026-04-18T08:34:48.001Z</time></trkpt><trkpt lat="44.501945059614606" lon="11.367430376447212"><ele>49.33333333333333</ele><time>2026-04-18T08:34:49.001Z</time></trkpt><trkpt lat="44.50190791803956" lon="11.36753346383699"><ele>49.666666666666664</ele><time>2026-04-18T08:34:50.001Z</time></trkpt><trkpt lat="44.50187234345072" lon="11.367638327817884"><ele>50.0</ele><time>2026-04-18T08:34:51.001Z</time></trkpt><trkpt lat="44.50183597701218" lon="11.367754785851272"><ele>50.33333333333333</ele><time>2026-04-18T08:34:52.001Z</time></trkpt><trkpt lat="44.501800683654146" lon="11.367865357038008"><ele>50.666666666666664</ele><time>2026-04-18T08:34:53.001Z</time></trkpt><trkpt lat="44.50176350354075" lon="11.367979720198308"><ele>51.0</ele><time>2026-04-18T08:34:54.001Z</time></trkpt><trkpt lat="44.5017270706652" lon="11.368092764419625"><ele>51.0</ele><time>2026-04-18T08:34:55.001Z</time></trkpt><trkpt lat="44.5016865287843" lon="11.36821417025926"><ele>51.0</ele><time>2026-04-18T08:34:56.001Z</time></trkpt><trkpt lat="44.501649906624266" lon="11.368327529105835"><ele>51.0</ele><time>2026-04-18T08:34:57.001Z</time></trkpt><trkpt lat="44.50161467182547" lon="11.368438388743073"><ele>51.0</ele><time>2026-04-18T08:34:58.001Z</time></trkpt><trkpt lat="44.5015832519505" lon="11.368543342818713"><ele>51.0</ele><time>2026-04-18T08:34:59.001Z</time></trkpt><trkpt lat="44.5015451589113" lon="11.368650974539472"><ele>51.0</ele><time>2026-04-18T08:35:00.001Z</time></trkpt><trkpt lat="44.50150877989033" lon="11.368757353005053"><ele>51.166666666666664</ele><time>2026-04-18T08:35:01.001Z</time></trkpt><trkpt lat="44.50147328379672" lon="11.368861197515608"><ele>51.33333333333333</ele><time>2026-04-18T08:35:02.001Z</time></trkpt><trkpt lat="44.5014350388159" lon="11.368962042305103"><ele>51.5</ele><time>2026-04-18T08:35:03.001Z</time></trkpt><trkpt lat="44.50140613470624" lon="11.369058817321646"><ele>51.666666666666664</ele><time>2026-04-18T08:35:04.001Z</time></trkpt><trkpt lat="44.50138314148822" lon="11.369148272560947"><ele>51.83333333333333</ele><time>2026-04-18T08:35:05.001Z</time></trkpt><trkpt lat="44.50135368394153" lon="11.369232681138172"><ele>52.0</ele><time>2026-04-18T08:35:06.001Z</time></trkpt><trkpt lat="44.5013033566628" lon="11.369390146843331"><ele>52.25</ele><time>2026-04-18T08:35:08.001Z</time></trkpt><trkpt lat="44.50124864040235" lon="11.369537980011202"><ele>52.5</ele><time>2026-04-18T08:35:10.001Z</time></trkpt><trkpt lat="44.501159919905504" lon="11.369605146096962"><ele>52.75</ele><time>2026-04-18T08:35:12.001Z</time></trkpt><trkpt lat="44.501112344832244" lon="11.369739838338047"><ele>53.0</ele><time>2026-04-18T08:35:14.001Z</time></trkpt><trkpt lat="44.501090970981764" lon="11.369917735597268"><ele>53.00000000000001</ele><time>2026-04-18T08:35:16.001Z</time></trkpt><trkpt lat="44.50105160862816" lon="11.370002864638156"><ele>53.0</ele><time>2026-04-18T08:35:17.001Z</time></trkpt><trkpt lat="44.50101890583398" lon="11.370089345144182"><ele>53.0</ele><time>2026-04-18T08:35:18.001Z</time></trkpt><trkpt lat="44.500983336893356" lon="11.370183568018914"><ele>53.0</ele><time>2026-04-18T08:35:19.001Z</time></trkpt><trkpt lat="44.50094121293678" lon="11.370295155320818"><ele>53.00000000000001</ele><time>2026-04-18T08:35:20.001Z</time></trkpt><trkpt lat="44.5008987737068" lon="11.370417656556233"><ele>53.0</ele><time>2026-04-18T08:35:21.001Z</time></trkpt><trkpt lat="44.500854783934166" lon="11.370532827376413"><ele>53.2</ele><time>2026-04-18T08:35:22.001Z</time></trkpt><trkpt lat="44.500812127583856" lon="11.370641005041492"><ele>53.4</ele><time>2026-04-18T08:35:23.001Z</time></trkpt><trkpt lat="44.500767342169404" lon="11.37076227494386"><ele>53.60000000000001</ele><time>2026-04-18T08:35:24.001Z</time></trkpt><trkpt lat="44.500717448358664" lon="11.370887500712477"><ele>53.800000000000004</ele><time>2026-04-18T08:35:25.001Z</time></trkpt><trkpt lat="44.50067944498949" lon="11.370992793998157"><ele>54.0</ele><time>2026-04-18T08:35:26.001Z</time></trkpt><trkpt lat="44.50062956533654" lon="11.371100622840887"><ele>54.0</ele><time>2026-04-18T08:35:27.001Z</time></trkpt><trkpt lat="44.500588080067985" lon="11.371225000989913"><ele>54.00000000000001</ele><time>2026-04-18T08:35:28.001Z</time></trkpt><trkpt lat="44.50054565669216" lon="11.371324805589026"><ele>54.00000000000001</ele><time>2026-04-18T08:35:29.001Z</time></trkpt><trkpt lat="44.50049576906122" lon="11.37145173621665"><ele>54.0</ele><time>2026-04-18T08:35:31.001Z</time></trkpt><trkpt lat="44.50044798395681" lon="11.371544549044733"><ele>54.0</ele><time>2026-04-18T08:35:34.001Z</time></trkpt><trkpt lat="44.50040897339395" lon="11.37165936938785"><ele>53.666666666666664</ele><time>2026-04-18T08:35:44.001Z</time></trkpt><trkpt lat="44.500357119333955" lon="11.371786457368627"><ele>53.33333333333333</ele><time>2026-04-18T08:35:46.001Z</time></trkpt><trkpt lat="44.500300923015395" lon="11.371936891394848"><ele>53.0</ele><time>2026-04-18T08:35:48.001Z</time></trkpt><trkpt lat="44.500257377463655" lon="11.372021190156392"><ele>52.666666666666664</ele><time>2026-04-18T08:35:49.002Z</time></trkpt><trkpt lat="44.50022644187778" lon="11.372108901942704"><ele>52.33333333333333</ele><time>2026-04-18T08:35:50.002Z</time></trkpt><trkpt lat="44.500193848235455" lon="11.372192329225303"><ele>52.0</ele><time>2026-04-18T08:35:51.002Z</time></trkpt><trkpt lat="44.50015880270927" lon="11.37227557099786"><ele>51.99999999999999</ele><time>2026-04-18T08:35:52.002Z</time></trkpt><trkpt lat="44.50012624421987" lon="11.372354989747041"><ele>52.0</ele><time>2026-04-18T08:35:53.002Z</time></trkpt><trkpt lat="44.50006635271148" lon="11.372505896292555"><ele>52.0</ele><time>2026-04-18T08:35:55.002Z</time></trkpt><trkpt lat="44.50000780434876" lon="11.37263590678784"><ele>52.0</ele><time>2026-04-18T08:35:57.002Z</time></trkpt><trkpt lat="44.499973792285246" lon="11.372728004381843"><ele>51.99999999999999</ele><time>2026-04-18T08:35:59.002Z</time></trkpt><trkpt lat="44.499930694135166" lon="11.37281802662927"><ele>52.0</ele><time>2026-04-18T08:36:02.002Z</time></trkpt><trkpt lat="44.499895568368096" lon="11.372925911030068"><ele>51.8</ele><time>2026-04-18T08:36:46Z</time></trkpt><trkpt lat="44.49984829927666" lon="11.373051521575592"><ele>51.6</ele><time>2026-04-18T08:36:48Z</time></trkpt><trkpt lat="44.49979036970415" lon="11.373196010360815"><ele>51.4</ele><time>2026-04-18T08:36:50Z</time></trkpt><trkpt lat="44.49972838409985" lon="11.373336565544152"><ele>51.199999999999996</ele><time>2026-04-18T08:36:52Z</time></trkpt><trkpt lat="44.49968221711497" lon="11.37341215027198"><ele>51.0</ele><time>2026-04-18T08:36:53Z</time></trkpt><trkpt lat="44.49964488878935" lon="11.373507125777692"><ele>51.0</ele><time>2026-04-18T08:36:54Z</time></trkpt><trkpt lat="44.499606301767905" lon="11.37360751729859"><ele>51.0</ele><time>2026-04-18T08:36:55Z</time></trkpt><trkpt lat="44.49957060873281" lon="11.37370054107964"><ele>51.0</ele><time>2026-04-18T08:36:56Z</time></trkpt><trkpt lat="44.4995367111709" lon="11.373789549273418"><ele>51.0</ele><time>2026-04-18T08:36:57Z</time></trkpt><trkpt lat="44.4995053224317" lon="11.373872780359966"><ele>51.0</ele><time>2026-04-18T08:36:58Z</time></trkpt><trkpt lat="44.49945047678933" lon="11.374014277840773"><ele>51.0</ele><time>2026-04-18T08:37:00Z</time></trkpt><trkpt lat="44.49939685669972" lon="11.374140527678533"><ele>50.666666666666664</ele><time>2026-04-18T08:37:02Z</time></trkpt><trkpt lat="44.499351130795766" lon="11.374243176097483"><ele>50.33333333333333</ele><time>2026-04-18T08:37:04Z</time></trkpt><trkpt lat="44.49932044663306" lon="11.374334815743552"><ele>50.0</ele><time>2026-04-18T08:37:06.001Z</time></trkpt><trkpt lat="44.49927495730547" lon="11.374453551869511"><ele>49.666666666666664</ele><time>2026-04-18T08:37:08.001Z</time></trkpt><trkpt lat="44.49920466029716" lon="11.374520511533696"><ele>49.33333333333333</ele><time>2026-04-18T08:37:10.001Z</time></trkpt><trkpt lat="44.49913834593767" lon="11.374526128385453"><ele>49.0</ele><time>2026-04-18T08:37:12.001Z</time></trkpt><trkpt lat="44.49906672164485" lon="11.374528320406744"><ele>49.0</ele><time>2026-04-18T08:37:14.001Z</time></trkpt><trkpt lat="44.498997415787905" lon="11.374546292892475"><ele>49.0</ele><time>2026-04-18T08:37:16.001Z</time></trkpt><trkpt lat="44.49894007251324" lon="11.37467405665721"><ele>49.0</ele><time>2026-04-18T08:37:17.001Z</time></trkpt><trkpt lat="44.498969339478" lon="11.374842886222146"><ele>49.0</ele><time>2026-04-18T08:37:19.001Z</time></trkpt><trkpt lat="44.498951518843974" lon="11.374930370802938"><ele>49.0</ele><time>2026-04-18T08:37:20.001Z</time></trkpt><trkpt lat="44.4989507625299" lon="11.375075418960503"><ele>49.166666666666664</ele><time>2026-04-18T08:37:22.001Z</time></trkpt><trkpt lat="44.49894361058304" lon="11.375228709924368"><ele>49.33333333333333</ele><time>2026-04-18T08:37:24.001Z</time></trkpt><trkpt lat="44.498935063858745" lon="11.375362458942405"><ele>49.5</ele><time>2026-04-18T08:37:26.001Z</time></trkpt><trkpt lat="44.49892867493717" lon="11.375459892310033"><ele>49.66666666666667</ele><time>2026-04-18T08:37:28.001Z</time></trkpt><trkpt lat="44.49892229838011" lon="11.375557468100597"><ele>49.833333333333336</ele><time>2026-04-18T08:37:30.001Z</time></trkpt><trkpt lat="44.49891550819993" lon="11.3756613732913"><ele>50.0</ele><time>2026-04-18T08:37:33.001Z</time></trkpt><trkpt lat="44.49890956975648" lon="11.375752244954883"><ele>49.66666666666667</ele><time>2026-04-18T08:37:36.001Z</time></trkpt><trkpt lat="44.49890054542695" lon="11.375890337664844"><ele>49.333333333333336</ele><time>2026-04-18T08:37:39.001Z</time></trkpt><trkpt lat="44.49890102951478" lon="11.376001999198355"><ele>49.0</ele><time>2026-04-18T08:37:41.001Z</time></trkpt><trkpt lat="44.498895538760266" lon="11.376093005195843"><ele>48.66666666666667</ele><time>2026-04-18T08:37:43.001Z</time></trkpt><trkpt lat="44.498884024092966" lon="11.37621326650966"><ele>48.333333333333336</ele><time>2026-04-18T08:37:45.001Z</time></trkpt><trkpt lat="44.498875989663304" lon="11.376334882173193"><ele>48.0</ele><time>2026-04-18T08:37:47.001Z</time></trkpt><trkpt lat="44.49882886368483" lon="11.376409243658678"><ele>47.599999999999994</ele><time>2026-04-18T08:37:49.001Z</time></trkpt><trkpt lat="44.49876935814209" lon="11.376485490781347"><ele>47.199999999999996</ele><time>2026-04-18T08:37:51.001Z</time></trkpt><trkpt lat="44.49882132442079" lon="11.376601677304098"><ele>46.8</ele><time>2026-04-18T08:37:52.001Z</time></trkpt><trkpt lat="44.49893573981337" lon="11.376679336608488"><ele>46.4</ele><time>2026-04-18T08:37:54.001Z</time></trkpt><trkpt lat="44.49900464026538" lon="11.376740725807931"><ele>46.0</ele><time>2026-04-18T08:37:55.001Z</time></trkpt><trkpt lat="44.49907094753257" lon="11.376812475136392"><ele>46.0</ele><time>2026-04-18T08:37:56.001Z</time></trkpt><trkpt lat="44.49913075316604" lon="11.376887381396411"><ele>46.0</ele><time>2026-04-18T08:37:57.001Z</time></trkpt><trkpt lat="44.4991774435307" lon="11.376972136512927"><ele>46.0</ele><time>2026-04-18T08:37:58.001Z</time></trkpt><trkpt lat="44.49921791209044" lon="11.3770699160724"><ele>46.0</ele><time>2026-04-18T08:37:59.001Z</time></trkpt><trkpt lat="44.49925637104501" lon="11.377175439533325"><ele>46.0</ele><time>2026-04-18T08:38:00.001Z</time></trkpt><trkpt lat="44.4992895930068" lon="11.377297963085422"><ele>46.0</ele><time>2026-04-18T08:38:01.001Z</time></trkpt><trkpt lat="44.49931567591108" lon="11.377413224718655"><ele>45.833333333333336</ele><time>2026-04-18T08:38:02.001Z</time></trkpt><trkpt lat="44.49934329161595" lon="11.37752630382258"><ele>45.66666666666667</ele><time>2026-04-18T08:38:03.001Z</time></trkpt><trkpt lat="44.4993750086612" lon="11.377636884718743"><ele>45.5</ele><time>2026-04-18T08:38:04.002Z</time></trkpt><trkpt lat="44.49942167572272" lon="11.377742181020304"><ele>45.333333333333336</ele><time>2026-04-18T08:38:05.002Z</time></trkpt><trkpt lat="44.49947938619782" lon="11.377843814705281"><ele>45.166666666666664</ele><time>2026-04-18T08:38:06.002Z</time></trkpt><trkpt lat="44.49955469613192" lon="11.377930832997835"><ele>45.0</ele><time>2026-04-18T08:38:07.002Z</time></trkpt><trkpt lat="44.49964346939555" lon="11.378007043047198"><ele>44.8</ele><time>2026-04-18T08:38:08.002Z</time></trkpt><trkpt lat="44.4997336393059" lon="11.378077285652877"><ele>44.6</ele><time>2026-04-18T08:38:09.002Z</time></trkpt><trkpt lat="44.49982210305612" lon="11.378143971857291"><ele>44.400000000000006</ele><time>2026-04-18T08:38:10.002Z</time></trkpt><trkpt lat="44.499915955679" lon="11.378204294818671"><ele>44.2</ele><time>2026-04-18T08:38:11.002Z</time></trkpt><trkpt lat="44.50000969275387" lon="11.378271827753547"><ele>44.0</ele><time>2026-04-18T08:38:12.002Z</time></trkpt><trkpt lat="44.500100022558975" lon="11.37834018774768"><ele>44.0</ele><time>2026-04-18T08:38:13.002Z</time></trkpt><trkpt lat="44.500187125115374" lon="11.378407866811745"><ele>44.0</ele><time>2026-04-18T08:38:14.002Z</time></trkpt><trkpt lat="44.50027611725639" lon="11.378469328745291"><ele>44.0</ele><time>2026-04-18T08:38:15.002Z</time></trkpt><trkpt lat="44.50036885313123" lon="11.378534112174677"><ele>44.0</ele><time>2026-04-18T08:38:16.002Z</time></trkpt><trkpt lat="44.500458830335624" lon="11.378593611302058"><ele>44.0</ele><time>2026-04-18T08:38:17.002Z</time></trkpt><trkpt lat="44.50055031211663" lon="11.378654028682531"><ele>43.800000000000004</ele><time>2026-04-18T08:38:18.002Z</time></trkpt><trkpt lat="44.500638631916964" lon="11.378725551038858"><ele>43.6</ele><time>2026-04-18T08:38:19.002Z</time></trkpt><trkpt lat="44.50071701109079" lon="11.378814668753733"><ele>43.4</ele><time>2026-04-18T08:38:20.002Z</time></trkpt><trkpt lat="44.500784822010225" lon="11.378917033554133"><ele>43.2</ele><time>2026-04-18T08:38:21.002Z</time></trkpt><trkpt lat="44.50083898635961" lon="11.379026176362972"><ele>43.0</ele><time>2026-04-18T08:38:22.002Z</time></trkpt><trkpt lat="44.50089920065714" lon="11.379144406911966"><ele>43.4</ele><time>2026-04-18T08:38:23.002Z</time></trkpt><trkpt lat="44.50095252747736" lon="11.379271241165965"><ele>43.8</ele><time>2026-04-18T08:38:24.002Z</time></trkpt><trkpt lat="44.50100311001056" lon="11.379392835446897"><ele>44.2</ele><time>2026-04-18T08:38:25.002Z</time></trkpt><trkpt lat="44.50105745228505" lon="11.379523846094074"><ele>44.6</ele><time>2026-04-18T08:38:26.002Z</time></trkpt><trkpt lat="44.50111427173869" lon="11.379654360518332"><ele>45.0</ele><time>2026-04-18T08:38:27.002Z</time></trkpt><trkpt lat="44.50117113995265" lon="11.379778620938115"><ele>45.6</ele><time>2026-04-18T08:38:28.002Z</time></trkpt><trkpt lat="44.501227434997226" lon="11.37990463314995"><ele>46.2</ele><time>2026-04-18T08:38:29.002Z</time></trkpt><trkpt lat="44.501279708548644" lon="11.380022725701473"><ele>46.8</ele><time>2026-04-18T08:38:30Z</time></trkpt><trkpt lat="44.501330773236845" lon="11.3801325718341"><ele>47.4</ele><time>2026-04-18T08:38:31Z</time></trkpt><trkpt lat="44.501382518236184" lon="11.380245588707407"><ele>48.0</ele><time>2026-04-18T08:38:32Z</time></trkpt><trkpt lat="44.501436610026104" lon="11.380357466914516"><ele>48.2</ele><time>2026-04-18T08:38:33Z</time></trkpt><trkpt lat="44.50148994186038" lon="11.38047179080435"><ele>48.4</ele><time>2026-04-18T08:38:34Z</time></trkpt><trkpt lat="44.50152820116209" lon="11.380579536736589"><ele>48.6</ele><time>2026-04-18T08:38:35Z</time></trkpt><trkpt lat="44.501554750598686" lon="11.380670775290582"><ele>48.800000000000004</ele><time>2026-04-18T08:38:36Z</time></trkpt><trkpt lat="44.50158727336831" lon="11.380798360138922"><ele>49.0</ele><time>2026-04-18T08:38:38Z</time></trkpt><trkpt lat="44.50162585090414" lon="11.380963614389069"><ele>48.99999999999999</ele><time>2026-04-18T08:38:40Z</time></trkpt><trkpt lat="44.50165452293256" lon="11.381066837321544"><ele>49.0</ele><time>2026-04-18T08:38:41Z</time></trkpt><trkpt lat="44.50168126449089" lon="11.38117370800578"><ele>49.0</ele><time>2026-04-18T08:38:42Z</time></trkpt><trkpt lat="44.50172625693376" lon="11.381291699792577"><ele>49.0</ele><time>2026-04-18T08:38:43Z</time></trkpt><trkpt lat="44.50177912557858" lon="11.381406562727067"><ele>48.99999999999999</ele><time>2026-04-18T08:38:44Z</time></trkpt><trkpt lat="44.50182558979435" lon="11.381516326874188"><ele>49.0</ele><time>2026-04-18T08:38:45Z</time></trkpt><trkpt lat="44.50188097011206" lon="11.381614900241937"><ele>48.400000000000006</ele><time>2026-04-18T08:38:46Z</time></trkpt><trkpt lat="44.50195398638744" lon="11.381708683350642"><ele>47.8</ele><time>2026-04-18T08:38:47Z</time></trkpt><trkpt lat="44.502028747357095" lon="11.381812758668447"><ele>47.2</ele><time>2026-04-18T08:38:48Z</time></trkpt><trkpt lat="44.50210748611723" lon="11.381922717428544"><ele>46.599999999999994</ele><time>2026-04-18T08:38:49Z</time></trkpt><trkpt lat="44.50217833733398" lon="11.382029641335933"><ele>46.0</ele><time>2026-04-18T08:38:50Z</time></trkpt><trkpt lat="44.50224324259231" lon="11.382155649181852"><ele>46.5</ele><time>2026-04-18T08:38:51Z</time></trkpt><trkpt lat="44.50230687132598" lon="11.382293758202662"><ele>47.0</ele><time>2026-04-18T08:38:52Z</time></trkpt><trkpt lat="44.50236938019635" lon="11.382434005346417"><ele>47.5</ele><time>2026-04-18T08:38:53Z</time></trkpt><trkpt lat="44.50243633989481" lon="11.382582818421218"><ele>48.0</ele><time>2026-04-18T08:38:54Z</time></trkpt><trkpt lat="44.50250261782358" lon="11.382731164222132"><ele>48.0</ele><time>2026-04-18T08:38:55Z</time></trkpt><trkpt lat="44.50256880406465" lon="11.38287734973083"><ele>48.0</ele><time>2026-04-18T08:38:56Z</time></trkpt><trkpt lat="44.50263482296521" lon="11.383022401142098"><ele>48.0</ele><time>2026-04-18T08:38:57Z</time></trkpt><trkpt lat="44.50270338218734" lon="11.383172943131239"><ele>48.0</ele><time>2026-04-18T08:38:58Z</time></trkpt><trkpt lat="44.50277501219483" lon="11.383330314474577"><ele>48.0</ele><time>2026-04-18T08:38:59Z</time></trkpt><trkpt lat="44.50284511174225" lon="11.383486757731044"><ele>48.0</ele><time>2026-04-18T08:39:00Z</time></trkpt><trkpt lat="44.502917035109064" lon="11.383648487711326"><ele>48.0</ele><time>2026-04-18T08:39:01Z</time></trkpt><trkpt lat="44.50298731994495" lon="11.383812777115084"><ele>48.0</ele><time>2026-04-18T08:39:02Z</time></trkpt><trkpt lat="44.50306255486845" lon="11.38397876697883"><ele>47.75</ele><time>2026-04-18T08:39:03Z</time></trkpt><trkpt lat="44.50314227199785" lon="11.384150174092646"><ele>47.5</ele><time>2026-04-18T08:39:04Z</time></trkpt><trkpt lat="44.50322886210813" lon="11.384325563375006"><ele>47.25</ele><time>2026-04-18T08:39:05Z</time></trkpt><trkpt lat="44.50330734987145" lon="11.38450075182629"><ele>47.0</ele><time>2026-04-18T08:39:06Z</time></trkpt><trkpt lat="44.5033864565904" lon="11.384676868844025"><ele>46.5</ele><time>2026-04-18T08:39:07Z</time></trkpt><trkpt lat="44.50346418351828" lon="11.384851656538695"><ele>46.0</ele><time>2026-04-18T08:39:08Z</time></trkpt><trkpt lat="44.50354121833654" lon="11.385025238437875"><ele>45.5</ele><time>2026-04-18T08:39:09Z</time></trkpt><trkpt lat="44.503608756382334" lon="11.385208515627168"><ele>45.0</ele><time>2026-04-18T08:39:10Z</time></trkpt><trkpt lat="44.50366416897294" lon="11.385396030195226"><ele>45.0</ele><time>2026-04-18T08:39:11Z</time></trkpt><trkpt lat="44.50371822097665" lon="11.385587485542464"><ele>45.0</ele><time>2026-04-18T08:39:12Z</time></trkpt><trkpt lat="44.50375866989892" lon="11.385778369210854"><ele>45.0</ele><time>2026-04-18T08:39:13Z</time></trkpt><trkpt lat="44.50379274479053" lon="11.385976528364488"><ele>45.0</ele><time>2026-04-18T08:39:14Z</time></trkpt><trkpt lat="44.50381516153285" lon="11.386175367705171"><ele>45.0</ele><time>2026-04-18T08:39:15Z</time></trkpt><trkpt lat="44.50383465363227" lon="11.386379059539832"><ele>45.0</ele><time>2026-04-18T08:39:16Z</time></trkpt><trkpt lat="44.503853628994484" lon="11.386580629705298"><ele>45.0</ele><time>2026-04-18T08:39:17Z</time></trkpt><trkpt lat="44.50387186058115" lon="11.386778825885859"><ele>45.0</ele><time>2026-04-18T08:39:18.001Z</time></trkpt><trkpt lat="44.50390231828604" lon="11.386975412821833"><ele>45.0</ele><time>2026-04-18T08:39:19.001Z</time></trkpt><trkpt lat="44.50392241932249" lon="11.387166982484674"><ele>45.0</ele><time>2026-04-18T08:39:20.001Z</time></trkpt><trkpt lat="44.50394068287803" lon="11.387354824169723"><ele>45.0</ele><time>2026-04-18T08:39:21.001Z</time></trkpt><trkpt lat="44.5039597861087" lon="11.387534110799429"><ele>45.0</ele><time>2026-04-18T08:39:22.001Z</time></trkpt><trkpt lat="44.50397614740302" lon="11.387704307151564"><ele>45.0</ele><time>2026-04-18T08:39:23.001Z</time></trkpt><trkpt lat="44.50399014228708" lon="11.38785736200103"><ele>45.0</ele><time>2026-04-18T08:39:24.001Z</time></trkpt><trkpt lat="44.50400430626043" lon="11.388005762912798"><ele>45.0</ele><time>2026-04-18T08:39:25.001Z</time></trkpt><trkpt lat="44.5040203118085" lon="11.388156954943167"><ele>45.0</ele><time>2026-04-18T08:39:26.001Z</time></trkpt><trkpt lat="44.504041880737056" lon="11.388297637269481"><ele>45.0</ele><time>2026-04-18T08:39:27.001Z</time></trkpt><trkpt lat="44.504052704048675" lon="11.388417389180908"><ele>45.0</ele><time>2026-04-18T08:39:28.001Z</time></trkpt><trkpt lat="44.50406428854399" lon="11.388522975876233"><ele>45.0</ele><time>2026-04-18T08:39:29.001Z</time></trkpt><trkpt lat="44.50406959336747" lon="11.388613584560288"><ele>45.0</ele><time>2026-04-18T08:39:30.001Z</time></trkpt><trkpt lat="44.50408237588389" lon="11.388749235864001"><ele>45.0</ele><time>2026-04-18T08:39:32.001Z</time></trkpt><trkpt lat="44.504062408151604" lon="11.388835456680575"><ele>45.0</ele><time>2026-04-18T08:39:33.001Z</time></trkpt><trkpt lat="44.503996449483644" lon="11.38891068079945"><ele>45.0</ele><time>2026-04-18T08:39:34.001Z</time></trkpt><trkpt lat="44.50397364586502" lon="11.389021285071301"><ele>45.0</ele><time>2026-04-18T08:39:35.001Z</time></trkpt><trkpt lat="44.50398049770813" lon="11.389135697394233"><ele>45.0</ele><time>2026-04-18T08:39:36.001Z</time></trkpt><trkpt lat="44.50400955212656" lon="11.38923164176796"><ele>45.0</ele><time>2026-04-18T08:39:37.001Z</time></trkpt><trkpt lat="44.50404700609441" lon="11.389331625866705"><ele>45.0</ele><time>2026-04-18T08:39:38.001Z</time></trkpt><trkpt lat="44.50410102408932" lon="11.389399005047204"><ele>45.0</ele><time>2026-04-18T08:39:39.001Z</time></trkpt><trkpt lat="44.50416200358132" lon="11.389472681334484"><ele>45.0</ele><time>2026-04-18T08:39:40.001Z</time></trkpt><trkpt lat="44.50417633089365" lon="11.38957862059308"><ele>44.8</ele><time>2026-04-18T08:39:41.001Z</time></trkpt><trkpt lat="44.50419619047538" lon="11.389696253655412"><ele>44.6</ele><time>2026-04-18T08:39:42.001Z</time></trkpt><trkpt lat="44.50420402626492" lon="11.389820560738409"><ele>44.400000000000006</ele><time>2026-04-18T08:39:43.001Z</time></trkpt><trkpt lat="44.50422492956079" lon="11.389967016422405"><ele>44.2</ele><time>2026-04-18T08:39:44.001Z</time></trkpt><trkpt lat="44.50424179496937" lon="11.39011588003503"><ele>44.0</ele><time>2026-04-18T08:39:45.001Z</time></trkpt><trkpt lat="44.50425456917109" lon="11.39027269103363"><ele>44.0</ele><time>2026-04-18T08:39:46.001Z</time></trkpt><trkpt lat="44.50427614800378" lon="11.390437157141745"><ele>44.0</ele><time>2026-04-18T08:39:47.001Z</time></trkpt><trkpt lat="44.50429913178704" lon="11.390613768321305"><ele>44.0</ele><time>2026-04-18T08:39:48.001Z</time></trkpt><trkpt lat="44.50432027106537" lon="11.390787589929072"><ele>44.0</ele><time>2026-04-18T08:39:49.001Z</time></trkpt><trkpt lat="44.504341567769366" lon="11.390972140720676"><ele>44.0</ele><time>2026-04-18T08:39:50.001Z</time></trkpt><trkpt lat="44.50436470705189" lon="11.391154425488415"><ele>44.0</ele><time>2026-04-18T08:39:51.001Z</time></trkpt><trkpt lat="44.504387259393624" lon="11.39134322463395"><ele>44.0</ele><time>2026-04-18T08:39:52.001Z</time></trkpt><trkpt lat="44.504409758064" lon="11.391543155385017"><ele>44.0</ele><time>2026-04-18T08:39:53.001Z</time></trkpt><trkpt lat="44.50444099278338" lon="11.391757729193651"><ele>44.0</ele><time>2026-04-18T08:39:54.001Z</time></trkpt><trkpt lat="44.504460122093995" lon="11.391974249406417"><ele>44.0</ele><time>2026-04-18T08:39:55.001Z</time></trkpt><trkpt lat="44.504479009931806" lon="11.392189236281808"><ele>44.0</ele><time>2026-04-18T08:39:56.001Z</time></trkpt><trkpt lat="44.50451242889003" lon="11.39241033357303"><ele>44.0</ele><time>2026-04-18T08:39:57.001Z</time></trkpt><trkpt lat="44.50453589431422" lon="11.392620653897833"><ele>44.0</ele><time>2026-04-18T08:39:58.001Z</time></trkpt><trkpt lat="44.50455858800582" lon="11.392823762134006"><ele>44.0</ele><time>2026-04-18T08:39:59.001Z</time></trkpt><trkpt lat="44.50457768502782" lon="11.393028965251007"><ele>44.0</ele><time>2026-04-18T08:40:00.001Z</time></trkpt><trkpt lat="44.50459797683085" lon="11.393238596446144"><ele>44.0</ele><time>2026-04-18T08:40:01.001Z</time></trkpt><trkpt lat="44.50462629545004" lon="11.393451632127464"><ele>44.0</ele><time>2026-04-18T08:40:02.001Z</time></trkpt><trkpt lat="44.50464772908109" lon="11.393654872146708"><ele>44.0</ele><time>2026-04-18T08:40:03.001Z</time></trkpt><trkpt lat="44.50467052705372" lon="11.393853835226194"><ele>44.0</ele><time>2026-04-18T08:40:04.001Z</time></trkpt><trkpt lat="44.504687060849086" lon="11.394030022606021"><ele>43.25</ele><time>2026-04-18T08:40:05.001Z</time></trkpt><trkpt lat="44.504704533140014" lon="11.394206008428924"><ele>42.5</ele><time>2026-04-18T08:40:06.001Z</time></trkpt><trkpt lat="44.50471894288315" lon="11.394374333185452"><ele>41.75</ele><time>2026-04-18T08:40:07.001Z</time></trkpt><trkpt lat="44.50472885677991" lon="11.394530546609358"><ele>41.0</ele><time>2026-04-18T08:40:08.001Z</time></trkpt><trkpt lat="44.50474468018316" lon="11.394677495932818"><ele>41.0</ele><time>2026-04-18T08:40:09.001Z</time></trkpt><trkpt lat="44.50475245700621" lon="11.394831782031188"><ele>41.0</ele><time>2026-04-18T08:40:10.001Z</time></trkpt><trkpt lat="44.50476212110159" lon="11.394985443575072"><ele>41.0</ele><time>2026-04-18T08:40:11.001Z</time></trkpt><trkpt lat="44.50477528765894" lon="11.395139141757559"><ele>41.0</ele><time>2026-04-18T08:40:12.001Z</time></trkpt><trkpt lat="44.504785498222226" lon="11.395299410598241"><ele>41.0</ele><time>2026-04-18T08:40:13.001Z</time></trkpt><trkpt lat="44.504796111077454" lon="11.39544926589417"><ele>41.0</ele><time>2026-04-18T08:40:14.001Z</time></trkpt><trkpt lat="44.504802708993495" lon="11.39560627846497"><ele>41.0</ele><time>2026-04-18T08:40:15.002Z</time></trkpt><trkpt lat="44.50482823005321" lon="11.395749239786868"><ele>41.0</ele><time>2026-04-18T08:40:16.002Z</time></trkpt><trkpt lat="44.50483632774097" lon="11.395893196546963"><ele>41.0</ele><time>2026-04-18T08:40:17.002Z</time></trkpt><trkpt lat="44.50483979303279" lon="11.396027190896659"><ele>41.0</ele><time>2026-04-18T08:40:18.002Z</time></trkpt><trkpt lat="44.504843237527076" lon="11.39615358940166"><ele>41.0</ele><time>2026-04-18T08:40:19.002Z</time></trkpt><trkpt lat="44.50484370000753" lon="11.396279923268137"><ele>41.0</ele><time>2026-04-18T08:40:20.002Z</time></trkpt><trkpt lat="44.50484783142073" lon="11.396396486908632"><ele>41.0</ele><time>2026-04-18T08:40:21.002Z</time></trkpt><trkpt lat="44.50484871952418" lon="11.396486128883486"><ele>41.0</ele><time>2026-04-18T08:40:22.002Z</time></trkpt><trkpt lat="44.50484731401027" lon="11.396594490589145"><ele>41.0</ele><time>2026-04-18T08:40:24.002Z</time></trkpt><trkpt lat="44.50485354873833" lon="11.39668451142787"><ele>41.0</ele><time>2026-04-18T08:40:27.002Z</time></trkpt><trkpt lat="44.50485673449058" lon="11.396803558438085"><ele>41.166666666666664</ele><time>2026-04-18T08:40:31.002Z</time></trkpt><trkpt lat="44.50482156874294" lon="11.396931124341972"><ele>41.33333333333333</ele><time>2026-04-18T08:40:34.002Z</time></trkpt><trkpt lat="44.5047841913154" lon="11.397006401924182"><ele>41.5</ele><time>2026-04-18T08:40:35.002Z</time></trkpt><trkpt lat="44.504739694645515" lon="11.397087490562908"><ele>41.666666666666664</ele><time>2026-04-18T08:40:35.999Z</time></trkpt><trkpt lat="44.504714027908555" lon="11.397184232322578"><ele>41.833333333333336</ele><time>2026-04-18T08:40:36.999Z</time></trkpt><trkpt lat="44.50468152411801" lon="11.397281596705824"><ele>42.0</ele><time>2026-04-18T08:40:37.999Z</time></trkpt><trkpt lat="44.50470017866429" lon="11.397388636618333"><ele>42.166666666666664</ele><time>2026-04-18T08:40:38.999Z</time></trkpt><trkpt lat="44.50474819867587" lon="11.397482602552364"><ele>42.333333333333336</ele><time>2026-04-18T08:40:39.999Z</time></trkpt><trkpt lat="44.50478966971857" lon="11.397566027879506"><ele>42.5</ele><time>2026-04-18T08:40:40.999Z</time></trkpt><trkpt lat="44.504837061963286" lon="11.397652413713585"><ele>42.66666666666667</ele><time>2026-04-18T08:40:41.999Z</time></trkpt><trkpt lat="44.504853750607374" lon="11.397779409857458"><ele>42.833333333333336</ele><time>2026-04-18T08:40:42.999Z</time></trkpt><trkpt lat="44.50485949729513" lon="11.397917906323585"><ele>43.0</ele><time>2026-04-18T08:40:43.999Z</time></trkpt><trkpt lat="44.5048605267115" lon="11.39806406473486"><ele>42.599999999999994</ele><time>2026-04-18T08:40:44.999Z</time></trkpt><trkpt lat="44.504865160075774" lon="11.398209009147502"><ele>42.199999999999996</ele><time>2026-04-18T08:40:45.999Z</time></trkpt><trkpt lat="44.50485116404349" lon="11.398349775376541"><ele>41.8</ele><time>2026-04-18T08:40:46.999Z</time></trkpt><trkpt lat="44.50485351978993" lon="11.398494854068167"><ele>41.4</ele><time>2026-04-18T08:40:47.999Z</time></trkpt><trkpt lat="44.50485024500281" lon="11.398650455347358"><ele>41.0</ele><time>2026-04-18T08:40:48.999Z</time></trkpt><trkpt lat="44.50485447506675" lon="11.398797855019563"><ele>41.0</ele><time>2026-04-18T08:40:50Z</time></trkpt><trkpt lat="44.50485453418866" lon="11.398944338478694"><ele>41.0</ele><time>2026-04-18T08:40:51Z</time></trkpt><trkpt lat="44.50484737626931" lon="11.399094053559454"><ele>41.0</ele><time>2026-04-18T08:40:52Z</time></trkpt><trkpt lat="44.50484411044507" lon="11.399236395161225"><ele>41.0</ele><time>2026-04-18T08:40:53Z</time></trkpt><trkpt lat="44.5048415403604" lon="11.399382866176504"><ele>41.0</ele><time>2026-04-18T08:40:54Z</time></trkpt><trkpt lat="44.50484054946086" lon="11.39952731769214"><ele>41.0</ele><time>2026-04-18T08:40:55Z</time></trkpt><trkpt lat="44.50483919050848" lon="11.399670487013484"><ele>41.0</ele><time>2026-04-18T08:40:56Z</time></trkpt><trkpt lat="44.50483797960646" lon="11.399814857409023"><ele>41.0</ele><time>2026-04-18T08:40:57Z</time></trkpt><trkpt lat="44.50483937276672" lon="11.39995704754206"><ele>41.0</ele><time>2026-04-18T08:40:58Z</time></trkpt><trkpt lat="44.50483714386636" lon="11.400105946125848"><ele>41.0</ele><time>2026-04-18T08:40:59Z</time></trkpt><trkpt lat="44.50484003727928" lon="11.400258455299047"><ele>41.0</ele><time>2026-04-18T08:41:00Z</time></trkpt><trkpt lat="44.504842442404836" lon="11.40040855282563"><ele>41.0</ele><time>2026-04-18T08:41:01Z</time></trkpt><trkpt lat="44.50484226350418" lon="11.400565895065736"><ele>41.0</ele><time>2026-04-18T08:41:02Z</time></trkpt><trkpt lat="44.50484320362176" lon="11.400721504274587"><ele>41.0</ele><time>2026-04-18T08:41:03Z</time></trkpt><trkpt lat="44.50483129249753" lon="11.400879807705794"><ele>41.0</ele><time>2026-04-18T08:41:04Z</time></trkpt><trkpt lat="44.504832684837744" lon="11.401039000140841"><ele>41.0</ele><time>2026-04-18T08:41:05Z</time></trkpt><trkpt lat="44.50483523375395" lon="11.401198489981608"><ele>41.0</ele><time>2026-04-18T08:41:06Z</time></trkpt><trkpt lat="44.50483573125799" lon="11.401359116717071"><ele>41.0</ele><time>2026-04-18T08:41:07Z</time></trkpt><trkpt lat="44.50482741445158" lon="11.401517778156945"><ele>41.0</ele><time>2026-04-18T08:41:08Z</time></trkpt><trkpt lat="44.504825416831906" lon="11.401686290119326"><ele>41.0</ele><time>2026-04-18T08:41:09Z</time></trkpt><trkpt lat="44.5048243026125" lon="11.401849454446916"><ele>41.0</ele><time>2026-04-18T08:41:10Z</time></trkpt><trkpt lat="44.50482253418552" lon="11.402005767034762"><ele>41.0</ele><time>2026-04-18T08:41:11Z</time></trkpt><trkpt lat="44.50482911241608" lon="11.40213249716404"><ele>41.0</ele><time>2026-04-18T08:41:12Z</time></trkpt><trkpt lat="44.5048318934472" lon="11.402231498333633"><ele>41.0</ele><time>2026-04-18T08:41:13Z</time></trkpt><trkpt lat="44.504832779026444" lon="11.402342795613523"><ele>41.0</ele><time>2026-04-18T08:41:15Z</time></trkpt><trkpt lat="44.504837981582" lon="11.40244971405609"><ele>41.0</ele><time>2026-04-18T08:41:20Z</time></trkpt><trkpt lat="44.504790917944234" lon="11.402509068495247"><ele>41.0</ele><time>2026-04-18T08:41:22Z</time></trkpt><trkpt lat="44.504734065969025" lon="11.402569860543563"><ele>41.0</ele><time>2026-04-18T08:41:24Z</time></trkpt><trkpt lat="44.50463302520538" lon="11.402598682854894"><ele>41.0</ele><time>2026-04-18T08:41:26Z</time></trkpt><trkpt lat="44.50455376663732" lon="11.402589234274469"><ele>41.0</ele><time>2026-04-18T08:41:28.001Z</time></trkpt><trkpt lat="44.50444768769795" lon="11.402537666466703"><ele>41.666666666666664</ele><time>2026-04-18T08:41:30.001Z</time></trkpt><trkpt lat="44.50438362883787" lon="11.40249184234842"><ele>42.33333333333333</ele><time>2026-04-18T08:41:31.001Z</time></trkpt><trkpt lat="44.504318936307996" lon="11.402457150488507"><ele>43.0</ele><time>2026-04-18T08:41:32.001Z</time></trkpt><trkpt lat="44.50424933251946" lon="11.402423279151662"><ele>43.666666666666664</ele><time>2026-04-18T08:41:33.001Z</time></trkpt><trkpt lat="44.504189185931914" lon="11.402389898702644"><ele>44.333333333333336</ele><time>2026-04-18T08:41:34.001Z</time></trkpt><trkpt lat="44.504075001089475" lon="11.402323611409578"><ele>45.0</ele><time>2026-04-18T08:41:36.001Z</time></trkpt><trkpt lat="44.50395705375553" lon="11.402247715494584"><ele>45.0</ele><time>2026-04-18T08:41:38.001Z</time></trkpt><trkpt lat="44.50388705261943" lon="11.402204981816759"><ele>45.0</ele><time>2026-04-18T08:41:39.001Z</time></trkpt><trkpt lat="44.50381455730824" lon="11.402162838840788"><ele>45.0</ele><time>2026-04-18T08:41:40.001Z</time></trkpt><trkpt lat="44.5037426054443" lon="11.402127259449696"><ele>45.0</ele><time>2026-04-18T08:41:41.001Z</time></trkpt><trkpt lat="44.503660910126534" lon="11.402088309044169"><ele>45.0</ele><time>2026-04-18T08:41:42.001Z</time></trkpt><trkpt lat="44.50359330296526" lon="11.402043092800982"><ele>45.0</ele><time>2026-04-18T08:41:43.001Z</time></trkpt><trkpt lat="44.50352657639925" lon="11.40200365800552"><ele>44.666666666666664</ele><time>2026-04-18T08:41:44.001Z</time></trkpt><trkpt lat="44.503461457779146" lon="11.401965739071768"><ele>44.333333333333336</ele><time>2026-04-18T08:41:45.001Z</time></trkpt><trkpt lat="44.50339397393948" lon="11.4019250706285"><ele>44.0</ele><time>2026-04-18T08:41:46.001Z</time></trkpt><trkpt lat="44.50333122245531" lon="11.401887875479575"><ele>43.66666666666667</ele><time>2026-04-18T08:41:47.001Z</time></trkpt><trkpt lat="44.50325827222571" lon="11.401842725845519"><ele>43.333333333333336</ele><time>2026-04-18T08:41:48.001Z</time></trkpt><trkpt lat="44.50317971870465" lon="11.40179579788979"><ele>43.0</ele><time>2026-04-18T08:41:49.001Z</time></trkpt><trkpt lat="44.503102625774986" lon="11.401746169730693"><ele>43.0</ele><time>2026-04-18T08:41:50.001Z</time></trkpt><trkpt lat="44.50302620550339" lon="11.401699672302561"><ele>43.0</ele><time>2026-04-18T08:41:51.001Z</time></trkpt><trkpt lat="44.50295007677417" lon="11.401655068628632"><ele>43.0</ele><time>2026-04-18T08:41:52.001Z</time></trkpt><trkpt lat="44.502890820909194" lon="11.401622011425456"><ele>43.0</ele><time>2026-04-18T08:41:53.001Z</time></trkpt><trkpt lat="44.50280200983519" lon="11.401566766954366"><ele>43.0</ele><time>2026-04-18T08:41:55.001Z</time></trkpt><trkpt lat="44.50273553494466" lon="11.401529023550037"><ele>43.0</ele><time>2026-04-18T08:41:57.001Z</time></trkpt><trkpt lat="44.502672762615845" lon="11.401493283044555"><ele>43.2</ele><time>2026-04-18T08:42:01.001Z</time></trkpt><trkpt lat="44.502612238825705" lon="11.401454067954074"><ele>43.4</ele><time>2026-04-18T08:42:05.001Z</time></trkpt><trkpt lat="44.50253175090642" lon="11.401521571605967"><ele>43.6</ele><time>2026-04-18T08:42:06.001Z</time></trkpt><trkpt lat="44.50248143261394" lon="11.401712763343504"><ele>43.800000000000004</ele><time>2026-04-18T08:42:08.001Z</time></trkpt><trkpt lat="44.50244785282141" lon="11.401841429391043"><ele>44.0</ele><time>2026-04-18T08:42:09.001Z</time></trkpt><trkpt lat="44.502411597831966" lon="11.401990126379754"><ele>44.0</ele><time>2026-04-18T08:42:10.001Z</time></trkpt><trkpt lat="44.50237885989299" lon="11.402160114034647"><ele>44.0</ele><time>2026-04-18T08:42:11.001Z</time></trkpt><trkpt lat="44.50230619209369" lon="11.402312069321601"><ele>44.0</ele><time>2026-04-18T08:42:12.001Z</time></trkpt><trkpt lat="44.5022491319503" lon="11.40247014671902"><ele>44.0</ele><time>2026-04-18T08:42:13.001Z</time></trkpt><trkpt lat="44.50220098022744" lon="11.402613027983886"><ele>43.800000000000004</ele><time>2026-04-18T08:42:14.001Z</time></trkpt><trkpt lat="44.50217322583075" lon="11.402755277257729"><ele>43.6</ele><time>2026-04-18T08:42:15.001Z</time></trkpt><trkpt lat="44.50218036512813" lon="11.402896732568193"><ele>43.4</ele><time>2026-04-18T08:42:16.001Z</time></trkpt><trkpt lat="44.502192236069405" lon="11.40299975827281"><ele>43.2</ele><time>2026-04-18T08:42:17.001Z</time></trkpt><trkpt lat="44.50219193074094" lon="11.403164531588718"><ele>43.0</ele><time>2026-04-18T08:42:19.001Z</time></trkpt><trkpt lat="44.50215496694853" lon="11.403244160025919"><ele>43.0</ele><time>2026-04-18T08:42:20.002Z</time></trkpt><trkpt lat="44.50211479884168" lon="11.403334407858036"><ele>43.0</ele><time>2026-04-18T08:42:21.002Z</time></trkpt><trkpt lat="44.50209568870017" lon="11.403445009034504"><ele>43.0</ele><time>2026-04-18T08:42:22.002Z</time></trkpt><trkpt lat="44.50209309874122" lon="11.403550043954422"><ele>43.0</ele><time>2026-04-18T08:42:23.002Z</time></trkpt><trkpt lat="44.50209470800651" lon="11.403657872459455"><ele>43.0</ele><time>2026-04-18T08:42:24.002Z</time></trkpt><trkpt lat="44.50210094421165" lon="11.403755356882806"><ele>43.0</ele><time>2026-04-18T08:42:25.002Z</time></trkpt><trkpt lat="44.50210456690273" lon="11.403923103441"><ele>43.4</ele><time>2026-04-18T08:42:27.002Z</time></trkpt><trkpt lat="44.50208724462006" lon="11.404088226013371"><ele>43.8</ele><time>2026-04-18T08:42:29.002Z</time></trkpt><trkpt lat="44.50204280746175" lon="11.404171405347553"><ele>44.2</ele><time>2026-04-18T08:42:30.002Z</time></trkpt><trkpt lat="44.502010107059874" lon="11.404273649662807"><ele>44.6</ele><time>2026-04-18T08:42:31.002Z</time></trkpt><trkpt lat="44.50197291859683" lon="11.404389926471556"><ele>45.0</ele><time>2026-04-18T08:42:32.002Z</time></trkpt><trkpt lat="44.50193458220229" lon="11.404509792633274"><ele>45.0</ele><time>2026-04-18T08:42:33.002Z</time></trkpt><trkpt lat="44.501897613204356" lon="11.40462605282982"><ele>45.0</ele><time>2026-04-18T08:42:34.002Z</time></trkpt><trkpt lat="44.50186159014512" lon="11.404740205800072"><ele>45.0</ele><time>2026-04-18T08:42:35.002Z</time></trkpt><trkpt lat="44.501826321857884" lon="11.404851966864143"><ele>45.0</ele><time>2026-04-18T08:42:36.002Z</time></trkpt><trkpt lat="44.501793262036415" lon="11.404956729635364"><ele>45.0</ele><time>2026-04-18T08:42:37.002Z</time></trkpt><trkpt lat="44.501764743186186" lon="11.405047102565696"><ele>45.0</ele><time>2026-04-18T08:42:38.002Z</time></trkpt><trkpt lat="44.50172247131644" lon="11.40518105728556"><ele>45.0</ele><time>2026-04-18T08:42:40.002Z</time></trkpt><trkpt lat="44.50169474321925" lon="11.405323863618756"><ele>45.0</ele><time>2026-04-18T08:42:41.999Z</time></trkpt><trkpt lat="44.501648463647385" lon="11.405452111590995"><ele>45.0</ele><time>2026-04-18T08:42:43.999Z</time></trkpt><trkpt lat="44.501607944104435" lon="11.405600786682074"><ele>45.0</ele><time>2026-04-18T08:42:45.999Z</time></trkpt><trkpt lat="44.501490070669966" lon="11.405662934509996"><ele>45.0</ele><time>2026-04-18T08:42:47.999Z</time></trkpt><trkpt lat="44.501410133353545" lon="11.405630311887249"><ele>45.0</ele><time>2026-04-18T08:42:48.999Z</time></trkpt><trkpt lat="44.50133466322505" lon="11.405566583750382"><ele>45.0</ele><time>2026-04-18T08:42:49.999Z</time></trkpt><trkpt lat="44.50124871288214" lon="11.405515493857006"><ele>45.0</ele><time>2026-04-18T08:42:50.999Z</time></trkpt><trkpt lat="44.5011576528745" lon="11.405463707983277"><ele>45.0</ele><time>2026-04-18T08:42:51.999Z</time></trkpt><trkpt lat="44.50106142659924" lon="11.405407321660327"><ele>45.0</ele><time>2026-04-18T08:42:52.999Z</time></trkpt><trkpt lat="44.500963387844436" lon="11.405342731517907"><ele>45.4</ele><time>2026-04-18T08:42:53.999Z</time></trkpt><trkpt lat="44.500859561039164" lon="11.40527788551124"><ele>45.8</ele><time>2026-04-18T08:42:54.999Z</time></trkpt><trkpt lat="44.50076936202044" lon="11.40522558947637"><ele>46.2</ele><time>2026-04-18T08:42:56Z</time></trkpt><trkpt lat="44.500681840489044" lon="11.405168861649132"><ele>46.6</ele><time>2026-04-18T08:42:57Z</time></trkpt><trkpt lat="44.50059488492464" lon="11.405113647203526"><ele>47.0</ele><time>2026-04-18T08:42:58Z</time></trkpt><trkpt lat="44.500510990920304" lon="11.40506577134854"><ele>47.0</ele><time>2026-04-18T08:42:59Z</time></trkpt><trkpt lat="44.50041792079438" lon="11.405012111950533"><ele>47.0</ele><time>2026-04-18T08:43:00Z</time></trkpt><trkpt lat="44.50032427748192" lon="11.404958007940087"><ele>47.0</ele><time>2026-04-18T08:43:01Z</time></trkpt><trkpt lat="44.50022776559332" lon="11.404902195167601"><ele>47.0</ele><time>2026-04-18T08:43:02Z</time></trkpt><trkpt lat="44.50012883794483" lon="11.404843675232184"><ele>47.0</ele><time>2026-04-18T08:43:03Z</time></trkpt><trkpt lat="44.50003749250826" lon="11.404786631275343"><ele>47.2</ele><time>2026-04-18T08:43:04Z</time></trkpt><trkpt lat="44.499942580533286" lon="11.40472809171218"><ele>47.400000000000006</ele><time>2026-04-18T08:43:05Z</time></trkpt><trkpt lat="44.49985042452844" lon="11.404671071835509"><ele>47.599999999999994</ele><time>2026-04-18T08:43:06Z</time></trkpt><trkpt lat="44.49975800825754" lon="11.404613464676373"><ele>47.8</ele><time>2026-04-18T08:43:07Z</time></trkpt><trkpt lat="44.49967121883427" lon="11.404561503189349"><ele>48.0</ele><time>2026-04-18T08:43:08Z</time></trkpt><trkpt lat="44.49958364854669" lon="11.404507106498606"><ele>47.599999999999994</ele><time>2026-04-18T08:43:09Z</time></trkpt><trkpt lat="44.499490713272245" lon="11.404451089401958"><ele>47.199999999999996</ele><time>2026-04-18T08:43:10Z</time></trkpt><trkpt lat="44.499391951095205" lon="11.404394815620726"><ele>46.8</ele><time>2026-04-18T08:43:11Z</time></trkpt><trkpt lat="44.499287709875446" lon="11.404329644935403"><ele>46.4</ele><time>2026-04-18T08:43:12Z</time></trkpt><trkpt lat="44.499182507274746" lon="11.404266280848393"><ele>46.0</ele><time>2026-04-18T08:43:13Z</time></trkpt><trkpt lat="44.49907927143838" lon="11.404202387797527"><ele>46.0</ele><time>2026-04-18T08:43:14Z</time></trkpt><trkpt lat="44.49897341450861" lon="11.404138601458317"><ele>46.0</ele><time>2026-04-18T08:43:15Z</time></trkpt><trkpt lat="44.49886212888019" lon="11.404071327016942"><ele>46.0</ele><time>2026-04-18T08:43:16Z</time></trkpt><trkpt lat="44.498749724666524" lon="11.40400297771795"><ele>46.0</ele><time>2026-04-18T08:43:17Z</time></trkpt><trkpt lat="44.498640144418" lon="11.40393344002534"><ele>46.0</ele><time>2026-04-18T08:43:18Z</time></trkpt><trkpt lat="44.498528106926905" lon="11.403868095409322"><ele>46.0</ele><time>2026-04-18T08:43:19Z</time></trkpt><trkpt lat="44.49841759956567" lon="11.403800014281693"><ele>46.0</ele><time>2026-04-18T08:43:20Z</time></trkpt><trkpt lat="44.498314708561026" lon="11.403736069199343"><ele>46.0</ele><time>2026-04-18T08:43:21Z</time></trkpt><trkpt lat="44.498211549388024" lon="11.403674536192403"><ele>46.0</ele><time>2026-04-18T08:43:22Z</time></trkpt><trkpt lat="44.49811660530026" lon="11.403613744100817"><ele>46.0</ele><time>2026-04-18T08:43:23Z</time></trkpt><trkpt lat="44.49801547963452" lon="11.403552127597202"><ele>46.0</ele><time>2026-04-18T08:43:24Z</time></trkpt><trkpt lat="44.497918390143134" lon="11.403498849876787"><ele>46.0</ele><time>2026-04-18T08:43:25Z</time></trkpt><trkpt lat="44.49783167050336" lon="11.403444202279317"><ele>46.0</ele><time>2026-04-18T08:43:26Z</time></trkpt><trkpt lat="44.49776542139728" lon="11.403404069261137"><ele>46.199999999999996</ele><time>2026-04-18T08:43:27Z</time></trkpt><trkpt lat="44.49770913148343" lon="11.403359939077225"><ele>46.4</ele><time>2026-04-18T08:43:28Z</time></trkpt><trkpt lat="44.497584825021754" lon="11.403286022773438"><ele>46.6</ele><time>2026-04-18T08:43:30Z</time></trkpt><trkpt lat="44.49750714025623" lon="11.40323705776773"><ele>46.8</ele><time>2026-04-18T08:43:31Z</time></trkpt><trkpt lat="44.497417741513864" lon="11.403185594264084"><ele>47.0</ele><time>2026-04-18T08:43:32Z</time></trkpt><trkpt lat="44.49731789542908" lon="11.403127496175074"><ele>47.0</ele><time>2026-04-18T08:43:33Z</time></trkpt><trkpt lat="44.49721442441889" lon="11.403071036490207"><ele>47.0</ele><time>2026-04-18T08:43:34Z</time></trkpt><trkpt lat="44.49711667745307" lon="11.403009090846215"><ele>47.0</ele><time>2026-04-18T08:43:35.001Z</time></trkpt><trkpt lat="44.49701793149423" lon="11.402945205815401"><ele>47.0</ele><time>2026-04-18T08:43:36.001Z</time></trkpt><trkpt lat="44.49691715918693" lon="11.40288899707195"><ele>47.0</ele><time>2026-04-18T08:43:37.001Z</time></trkpt><trkpt lat="44.4968232900798" lon="11.402834449370207"><ele>47.33333333333333</ele><time>2026-04-18T08:43:38.001Z</time></trkpt><trkpt lat="44.49673344797305" lon="11.402779407848543"><ele>47.666666666666664</ele><time>2026-04-18T08:43:39.001Z</time></trkpt><trkpt lat="44.496643761691736" lon="11.40273380780083"><ele>48.0</ele><time>2026-04-18T08:43:40.001Z</time></trkpt><trkpt lat="44.4965674536421" lon="11.402684641193487"><ele>48.33333333333333</ele><time>2026-04-18T08:43:41.001Z</time></trkpt><trkpt lat="44.49649241351112" lon="11.402640159660981"><ele>48.666666666666664</ele><time>2026-04-18T08:43:42.001Z</time></trkpt><trkpt lat="44.496418754062375" lon="11.402597431579057"><ele>49.0</ele><time>2026-04-18T08:43:43.001Z</time></trkpt><trkpt lat="44.49634607551802" lon="11.402552771625219"><ele>49.0</ele><time>2026-04-18T08:43:44.001Z</time></trkpt><trkpt lat="44.496275140924126" lon="11.40251008775156"><ele>49.0</ele><time>2026-04-18T08:43:45.001Z</time></trkpt><trkpt lat="44.496215323450684" lon="11.402477904102616"><ele>49.0</ele><time>2026-04-18T08:43:46.001Z</time></trkpt><trkpt lat="44.4961467143395" lon="11.402440367937698"><ele>49.0</ele><time>2026-04-18T08:43:47.001Z</time></trkpt><trkpt lat="44.49608073237988" lon="11.402404388486366"><ele>49.0</ele><time>2026-04-18T08:43:48.001Z</time></trkpt><trkpt lat="44.49601166278167" lon="11.40237171908445"><ele>49.0</ele><time>2026-04-18T08:43:49.001Z</time></trkpt><trkpt lat="44.49594216712071" lon="11.402335296979834"><ele>49.0</ele><time>2026-04-18T08:43:50.001Z</time></trkpt><trkpt lat="44.49586839821414" lon="11.402295437225659"><ele>48.99999999999999</ele><time>2026-04-18T08:43:51.001Z</time></trkpt><trkpt lat="44.49578542890439" lon="11.402253862096376"><ele>49.0</ele><time>2026-04-18T08:43:52.001Z</time></trkpt><trkpt lat="44.49569922144104" lon="11.402203859146"><ele>49.0</ele><time>2026-04-18T08:43:53.001Z</time></trkpt><trkpt lat="44.49561891792066" lon="11.402155455357052"><ele>49.0</ele><time>2026-04-18T08:43:54.001Z</time></trkpt><trkpt lat="44.49554522771455" lon="11.402109621324724"><ele>48.99999999999999</ele><time>2026-04-18T08:43:55.001Z</time></trkpt><trkpt lat="44.49547756572395" lon="11.40207717826468"><ele>49.0</ele><time>2026-04-18T08:43:56.001Z</time></trkpt><trkpt lat="44.49537612107412" lon="11.402020123671033"><ele>49.400000000000006</ele><time>2026-04-18T08:43:58.001Z</time></trkpt><trkpt lat="44.495294872492906" lon="11.40197336176722"><ele>49.8</ele><time>2026-04-18T08:44:00.001Z</time></trkpt><trkpt lat="44.49520382120029" lon="11.401919237897697"><ele>50.2</ele><time>2026-04-18T08:44:02.001Z</time></trkpt><trkpt lat="44.4950910973919" lon="11.401845776362684"><ele>50.599999999999994</ele><time>2026-04-18T08:44:04.001Z</time></trkpt><trkpt lat="44.49502647199588" lon="11.401801500074665"><ele>51.0</ele><time>2026-04-18T08:44:05.001Z</time></trkpt><trkpt lat="44.49496029478421" lon="11.401758170401894"><ele>51.0</ele><time>2026-04-18T08:44:06.001Z</time></trkpt><trkpt lat="44.49489162015486" lon="11.401719319626613"><ele>51.0</ele><time>2026-04-18T08:44:07.001Z</time></trkpt><trkpt lat="44.49483172174679" lon="11.401674477367397"><ele>51.0</ele><time>2026-04-18T08:44:08.001Z</time></trkpt><trkpt lat="44.49476589276247" lon="11.401634322381131"><ele>51.0</ele><time>2026-04-18T08:44:09.001Z</time></trkpt><trkpt lat="44.49469858350135" lon="11.401594365043858"><ele>51.0</ele><time>2026-04-18T08:44:10.001Z</time></trkpt><trkpt lat="44.494631673812556" lon="11.401547626171805"><ele>51.0</ele><time>2026-04-18T08:44:11.001Z</time></trkpt><trkpt lat="44.49456739018689" lon="11.40150825564749"><ele>51.0</ele><time>2026-04-18T08:44:12.001Z</time></trkpt><trkpt lat="44.49450589976132" lon="11.40146683984149"><ele>51.0</ele><time>2026-04-18T08:44:13.001Z</time></trkpt><trkpt lat="44.49444502962726" lon="11.40142771180705"><ele>51.0</ele><time>2026-04-18T08:44:14.001Z</time></trkpt><trkpt lat="44.494385417529834" lon="11.401391826483305"><ele>51.0</ele><time>2026-04-18T08:44:15.001Z</time></trkpt><trkpt lat="44.49432750843701" lon="11.401356379932222"><ele>51.0</ele><time>2026-04-18T08:44:16.001Z</time></trkpt><trkpt lat="44.49426101676542" lon="11.401312805592916"><ele>51.0</ele><time>2026-04-18T08:44:17.001Z</time></trkpt><trkpt lat="44.4941966498777" lon="11.401265164531731"><ele>51.0</ele><time>2026-04-18T08:44:18.001Z</time></trkpt><trkpt lat="44.494124460289136" lon="11.401213390148197"><ele>51.0</ele><time>2026-04-18T08:44:19.001Z</time></trkpt><trkpt lat="44.49405220607183" lon="11.401167388764225"><ele>51.0</ele><time>2026-04-18T08:44:20.001Z</time></trkpt><trkpt lat="44.4939787090008" lon="11.401119638704731"><ele>51.0</ele><time>2026-04-18T08:44:21.001Z</time></trkpt><trkpt lat="44.493901057461805" lon="11.401067199313216"><ele>51.0</ele><time>2026-04-18T08:44:22.001Z</time></trkpt><trkpt lat="44.493818171543694" lon="11.401009464659236"><ele>51.0</ele><time>2026-04-18T08:44:23.002Z</time></trkpt><trkpt lat="44.493741272710196" lon="11.400959872525727"><ele>51.0</ele><time>2026-04-18T08:44:24.002Z</time></trkpt><trkpt lat="44.493670006431" lon="11.400912888482395"><ele>51.0</ele><time>2026-04-18T08:44:25.002Z</time></trkpt><trkpt lat="44.49358904794523" lon="11.400863450505021"><ele>50.833333333333336</ele><time>2026-04-18T08:44:26.002Z</time></trkpt><trkpt lat="44.49351464838987" lon="11.400819644179371"><ele>50.66666666666667</ele><time>2026-04-18T08:44:27.002Z</time></trkpt><trkpt lat="44.49344370877255" lon="11.400775833363534"><ele>50.5</ele><time>2026-04-18T08:44:28.002Z</time></trkpt><trkpt lat="44.49337365636889" lon="11.40073178822808"><ele>50.333333333333336</ele><time>2026-04-18T08:44:29.002Z</time></trkpt><trkpt lat="44.49330495421526" lon="11.400685715743235"><ele>50.16666666666667</ele><time>2026-04-18T08:44:30.002Z</time></trkpt><trkpt lat="44.49323643791142" lon="11.400641715268788"><ele>50.0</ele><time>2026-04-18T08:44:31.002Z</time></trkpt><trkpt lat="44.493166871171255" lon="11.400597683521266"><ele>50.00000000000001</ele><time>2026-04-18T08:44:32.002Z</time></trkpt><trkpt lat="44.493092871902874" lon="11.400556372840258"><ele>50.0</ele><time>2026-04-18T08:44:33.002Z</time></trkpt><trkpt lat="44.49301551765022" lon="11.4005120417071"><ele>50.0</ele><time>2026-04-18T08:44:34.002Z</time></trkpt><trkpt lat="44.49293701211202" lon="11.400460341044447"><ele>50.0</ele><time>2026-04-18T08:44:35.002Z</time></trkpt><trkpt lat="44.492859671676456" lon="11.400413453494794"><ele>50.00000000000001</ele><time>2026-04-18T08:44:36.002Z</time></trkpt><trkpt lat="44.49278369340833" lon="11.400364810006927"><ele>50.0</ele><time>2026-04-18T08:44:37.002Z</time></trkpt><trkpt lat="44.49270844696772" lon="11.40031634092287"><ele>50.50000000000001</ele><time>2026-04-18T08:44:38.002Z</time></trkpt><trkpt lat="44.492630936705865" lon="11.400261132421914"><ele>51.0</ele><time>2026-04-18T08:44:39.002Z</time></trkpt><trkpt lat="44.49254636078221" lon="11.400208098916353"><ele>51.5</ele><time>2026-04-18T08:44:40.002Z</time></trkpt><trkpt lat="44.49246386776239" lon="11.400159343389218"><ele>52.0</ele><time>2026-04-18T08:44:41.002Z</time></trkpt><trkpt lat="44.49238663350796" lon="11.400108675724628"><ele>52.50000000000001</ele><time>2026-04-18T08:44:42.002Z</time></trkpt><trkpt lat="44.49230496976759" lon="11.400056700070763"><ele>53.0</ele><time>2026-04-18T08:44:43.002Z</time></trkpt><trkpt lat="44.492229014442174" lon="11.400004866418605"><ele>53.00000000000001</ele><time>2026-04-18T08:44:44.002Z</time></trkpt><trkpt lat="44.492154318777374" lon="11.399955191692584"><ele>53.0</ele><time>2026-04-18T08:44:45.002Z</time></trkpt><trkpt lat="44.49207849186286" lon="11.399906305338918"><ele>53.0</ele><time>2026-04-18T08:44:46.002Z</time></trkpt><trkpt lat="44.492001553104195" lon="11.399856863917769"><ele>53.0</ele><time>2026-04-18T08:44:47.002Z</time></trkpt><trkpt lat="44.49191973399238" lon="11.39981061035405"><ele>53.00000000000001</ele><time>2026-04-18T08:44:47.999Z</time></trkpt><trkpt lat="44.491839545891814" lon="11.399761358678504"><ele>53.0</ele><time>2026-04-18T08:44:48.999Z</time></trkpt><trkpt lat="44.49175787729405" lon="11.399714505533563"><ele>53.00000000000001</ele><time>2026-04-18T08:44:49.999Z</time></trkpt><trkpt lat="44.49168010670566" lon="11.39967059589442"><ele>53.0</ele><time>2026-04-18T08:44:50.999Z</time></trkpt><trkpt lat="44.49160527392017" lon="11.399628415879667"><ele>53.0</ele><time>2026-04-18T08:44:51.999Z</time></trkpt><trkpt lat="44.49152573984397" lon="11.399582489407646"><ele>53.0</ele><time>2026-04-18T08:44:53Z</time></trkpt><trkpt lat="44.49144556811327" lon="11.399534323399005"><ele>53.00000000000001</ele><time>2026-04-18T08:44:54Z</time></trkpt><trkpt lat="44.491367113139944" lon="11.399478480791627"><ele>53.0</ele><time>2026-04-18T08:44:55Z</time></trkpt><trkpt lat="44.49129383879653" lon="11.399427856696526"><ele>53.16666666666667</ele><time>2026-04-18T08:44:56Z</time></trkpt><trkpt lat="44.49121941858586" lon="11.39937549538916"><ele>53.333333333333336</ele><time>2026-04-18T08:44:57Z</time></trkpt><trkpt lat="44.49114865835592" lon="11.399325688994105"><ele>53.5</ele><time>2026-04-18T08:44:58Z</time></trkpt><trkpt lat="44.49107467454764" lon="11.399279955691707"><ele>53.66666666666667</ele><time>2026-04-18T08:44:59Z</time></trkpt><trkpt lat="44.49100471038134" lon="11.399235172240525"><ele>53.833333333333336</ele><time>2026-04-18T08:45:00Z</time></trkpt><trkpt lat="44.490937585961916" lon="11.399188300386532"><ele>54.0</ele><time>2026-04-18T08:45:01Z</time></trkpt><trkpt lat="44.490873265349066" lon="11.399150034412104"><ele>54.0</ele><time>2026-04-18T08:45:02Z</time></trkpt><trkpt lat="44.490815203248275" lon="11.39910614625159"><ele>54.0</ele><time>2026-04-18T08:45:03Z</time></trkpt><trkpt lat="44.49071835023761" lon="11.399038771304953"><ele>54.0</ele><time>2026-04-18T08:45:05Z</time></trkpt><trkpt lat="44.49064323340069" lon="11.398983817784298"><ele>54.0</ele><time>2026-04-18T08:45:08Z</time></trkpt><trkpt lat="44.49057997041219" lon="11.398930523154135"><ele>54.0</ele><time>2026-04-18T08:45:22Z</time></trkpt><trkpt lat="44.49049065583201" lon="11.398872479086652"><ele>54.0</ele><time>2026-04-18T08:45:24Z</time></trkpt><trkpt lat="44.490427499250195" lon="11.398832970644438"><ele>54.14285714285714</ele><time>2026-04-18T08:45:25Z</time></trkpt><trkpt lat="44.49036107749658" lon="11.398789263678859"><ele>54.285714285714285</ele><time>2026-04-18T08:45:26Z</time></trkpt><trkpt lat="44.490294352742964" lon="11.398742837350833"><ele>54.42857142857143</ele><time>2026-04-18T08:45:27Z</time></trkpt><trkpt lat="44.490226916857786" lon="11.398695407736684"><ele>54.57142857142857</ele><time>2026-04-18T08:45:28Z</time></trkpt><trkpt lat="44.49016357411281" lon="11.398647628798049"><ele>54.714285714285715</ele><time>2026-04-18T08:45:29Z</time></trkpt><trkpt lat="44.4901034764502" lon="11.39860055587167"><ele>54.857142857142854</ele><time>2026-04-18T08:45:30Z</time></trkpt><trkpt lat="44.49004605272194" lon="11.398555691984471"><ele>55.0</ele><time>2026-04-18T08:45:31Z</time></trkpt><trkpt lat="44.489937550301754" lon="11.39847524941937"><ele>54.99999999999999</ele><time>2026-04-18T08:45:33.001Z</time></trkpt><trkpt lat="44.48987672222159" lon="11.398440507841876"><ele>55.0</ele><time>2026-04-18T08:45:34.001Z</time></trkpt><trkpt lat="44.4898052115813" lon="11.39840759193235"><ele>55.0</ele><time>2026-04-18T08:45:35.001Z</time></trkpt><trkpt lat="44.48973087678257" lon="11.398384588594412"><ele>55.0</ele><time>2026-04-18T08:45:36.001Z</time></trkpt><trkpt lat="44.489649757762514" lon="11.39836958170465"><ele>54.99999999999999</ele><time>2026-04-18T08:45:37.001Z</time></trkpt><trkpt lat="44.48957168672622" lon="11.39833621697107"><ele>55.0</ele><time>2026-04-18T08:45:38.001Z</time></trkpt><trkpt lat="44.48950131057301" lon="11.398299219179494"><ele>54.99999999999999</ele><time>2026-04-18T08:45:39.001Z</time></trkpt><trkpt lat="44.489431573238576" lon="11.39825402233949"><ele>55.0</ele><time>2026-04-18T08:45:40.001Z</time></trkpt><trkpt lat="44.48935964916133" lon="11.398213876869537"><ele>55.0</ele><time>2026-04-18T08:45:41.001Z</time></trkpt><trkpt lat="44.48928260642861" lon="11.398167021451561"><ele>55.0</ele><time>2026-04-18T08:45:42.001Z</time></trkpt><trkpt lat="44.489201247834416" lon="11.398122617590483"><ele>54.99999999999999</ele><time>2026-04-18T08:45:43.001Z</time></trkpt><trkpt lat="44.48911704380013" lon="11.398076621952582"><ele>55.0</ele><time>2026-04-18T08:45:44.001Z</time></trkpt><trkpt lat="44.48904011888565" lon="11.398024283257051"><ele>54.83333333333333</ele><time>2026-04-18T08:45:45.001Z</time></trkpt><trkpt lat="44.48896223478353" lon="11.39797661536704"><ele>54.666666666666664</ele><time>2026-04-18T08:45:46.001Z</time></trkpt><trkpt lat="44.48888639007717" lon="11.39792580926673"><ele>54.5</ele><time>2026-04-18T08:45:47.001Z</time></trkpt><trkpt lat="44.48881098810083" lon="11.397877893383589"><ele>54.33333333333333</ele><time>2026-04-18T08:45:48.001Z</time></trkpt><trkpt lat="44.48873935049423" lon="11.397828690703156"><ele>54.166666666666664</ele><time>2026-04-18T08:45:49.022Z</time></trkpt><trkpt lat="44.48866661898367" lon="11.397783008566403"><ele>54.0</ele><time>2026-04-18T08:45:50.02Z</time></trkpt><trkpt lat="44.488595487568666" lon="11.3977393673459"><ele>54.0</ele><time>2026-04-18T08:45:51.02Z</time></trkpt><trkpt lat="44.48852793193364" lon="11.397694762848703"><ele>54.00000000000001</ele><time>2026-04-18T08:45:52.021Z</time></trkpt><trkpt lat="44.48847569553663" lon="11.397642028758725"><ele>54.00000000000001</ele><time>2026-04-18T08:45:53.001Z</time></trkpt><trkpt lat="44.48841485557053" lon="11.39755886979783"><ele>54.0</ele><time>2026-04-18T08:45:54.001Z</time></trkpt><trkpt lat="44.488418461360446" lon="11.397390942643613"><ele>54.0</ele><time>2026-04-18T08:45:56.001Z</time></trkpt><trkpt lat="44.48841929637926" lon="11.397238802871254"><ele>54.0</ele><time>2026-04-18T08:45:58.001Z</time></trkpt><trkpt lat="44.48835895541475" lon="11.39709455287608"><ele>54.00000000000001</ele><time>2026-04-18T08:46:00.001Z</time></trkpt><trkpt lat="44.48824781035247" lon="11.397000753887369"><ele>54.00000000000001</ele><time>2026-04-18T08:46:02.001Z</time></trkpt><trkpt lat="44.48817320118077" lon="11.397012748673344"><ele>54.0</ele><time>2026-04-18T08:46:03.001Z</time></trkpt><trkpt lat="44.48810707718205" lon="11.397046092020384"><ele>54.0</ele><time>2026-04-18T08:46:04.001Z</time></trkpt><trkpt lat="44.48803611096622" lon="11.397035654319524"><ele>54.0</ele><time>2026-04-18T08:46:05.001Z</time></trkpt><trkpt lat="44.48795697520157" lon="11.396996235252205"><ele>54.00000000000001</ele><time>2026-04-18T08:46:06.001Z</time></trkpt><trkpt lat="44.4878783302432" lon="11.39693994646867"><ele>54.00000000000001</ele><time>2026-04-18T08:46:07.001Z</time></trkpt><trkpt lat="44.48778475989931" lon="11.396877789297726"><ele>54.0</ele><time>2026-04-18T08:46:08.001Z</time></trkpt><trkpt lat="44.48768093988212" lon="11.396813186939214"><ele>54.0</ele><time>2026-04-18T08:46:09.001Z</time></trkpt><trkpt lat="44.48756518902217" lon="11.396739646466822"><ele>54.0</ele><time>2026-04-18T08:46:10.001Z</time></trkpt><trkpt lat="44.48743884187947" lon="11.396655685672995"><ele>54.0</ele><time>2026-04-18T08:46:11.001Z</time></trkpt><trkpt lat="44.487303787705734" lon="11.396567922549572"><ele>54.0</ele><time>2026-04-18T08:46:12.001Z</time></trkpt><trkpt lat="44.487170513010525" lon="11.396477590000863"><ele>54.0</ele><time>2026-04-18T08:46:13.001Z</time></trkpt><trkpt lat="44.48703642364634" lon="11.396382569552943"><ele>54.0</ele><time>2026-04-18T08:46:14.001Z</time></trkpt><trkpt lat="44.486901996139395" lon="11.396289195699861"><ele>54.0</ele><time>2026-04-18T08:46:15.001Z</time></trkpt><trkpt lat="44.486777101607785" lon="11.396204610784263"><ele>54.0</ele><time>2026-04-18T08:46:16.001Z</time></trkpt><trkpt lat="44.4866596800244" lon="11.396136511739769"><ele>54.0</ele><time>2026-04-18T08:46:17.002Z</time></trkpt><trkpt lat="44.48654200223926" lon="11.396098640672722"><ele>54.0</ele><time>2026-04-18T08:46:18.002Z</time></trkpt><trkpt lat="44.486423246896535" lon="11.396063204077528"><ele>54.0</ele><time>2026-04-18T08:46:19.002Z</time></trkpt><trkpt lat="44.486305307385365" lon="11.396039189134902"><ele>54.0</ele><time>2026-04-18T08:46:20.002Z</time></trkpt><trkpt lat="44.48619685303214" lon="11.396022711968552"><ele>54.0</ele><time>2026-04-18T08:46:21.002Z</time></trkpt><trkpt lat="44.48609520270109" lon="11.396007016914291"><ele>54.2</ele><time>2026-04-18T08:46:22.002Z</time></trkpt><trkpt lat="44.48599944473957" lon="11.39598883402439"><ele>54.400000000000006</ele><time>2026-04-18T08:46:23.002Z</time></trkpt><trkpt lat="44.48591294040741" lon="11.395975346519894"><ele>54.6</ele><time>2026-04-18T08:46:24.002Z</time></trkpt><trkpt lat="44.48582788631177" lon="11.395959206000253"><ele>54.8</ele><time>2026-04-18T08:46:25.002Z</time></trkpt><trkpt lat="44.48574317261595" lon="11.395930672567387"><ele>55.0</ele><time>2026-04-18T08:46:26.002Z</time></trkpt><trkpt lat="44.485646797465456" lon="11.3958874208844"><ele>55.0</ele><time>2026-04-18T08:46:27.002Z</time></trkpt><trkpt lat="44.485551387263676" lon="11.395832155780917"><ele>55.0</ele><time>2026-04-18T08:46:28.002Z</time></trkpt><trkpt lat="44.48545120586594" lon="11.395768763481643"><ele>55.0</ele><time>2026-04-18T08:46:29.002Z</time></trkpt><trkpt lat="44.48535396067409" lon="11.395709515829335"><ele>55.0</ele><time>2026-04-18T08:46:30.002Z</time></trkpt><trkpt lat="44.48525777308158" lon="11.395648608973405"><ele>55.0</ele><time>2026-04-18T08:46:31.002Z</time></trkpt><trkpt lat="44.48516272615309" lon="11.395587713722762"><ele>55.2</ele><time>2026-04-18T08:46:32.002Z</time></trkpt><trkpt lat="44.485070716984545" lon="11.395528839740999"><ele>55.4</ele><time>2026-04-18T08:46:33.002Z</time></trkpt><trkpt lat="44.484981392372106" lon="11.395471187220855"><ele>55.599999999999994</ele><time>2026-04-18T08:46:34.002Z</time></trkpt><trkpt lat="44.484895432996716" lon="11.39541552987537"><ele>55.8</ele><time>2026-04-18T08:46:35.002Z</time></trkpt><trkpt lat="44.484806864760344" lon="11.395359003054208"><ele>56.0</ele><time>2026-04-18T08:46:36.002Z</time></trkpt><trkpt lat="44.48472221314059" lon="11.39530306966133"><ele>56.16666666666667</ele><time>2026-04-18T08:46:37.002Z</time></trkpt><trkpt lat="44.48464017190564" lon="11.395251055886657"><ele>56.333333333333336</ele><time>2026-04-18T08:46:38.002Z</time></trkpt><trkpt lat="44.484557246646546" lon="11.395197618564133"><ele>56.5</ele><time>2026-04-18T08:46:39.002Z</time></trkpt><trkpt lat="44.48447678655222" lon="11.395146424737959"><ele>56.66666666666667</ele><time>2026-04-18T08:46:40.002Z</time></trkpt><trkpt lat="44.48440042759411" lon="11.395094060179314"><ele>56.833333333333336</ele><time>2026-04-18T08:46:41.002Z</time></trkpt><trkpt lat="44.48433012414643" lon="11.395049894868457"><ele>57.0</ele><time>2026-04-18T08:46:42.002Z</time></trkpt><trkpt lat="44.484267618272185" lon="11.395012950502174"><ele>57.166666666666664</ele><time>2026-04-18T08:46:43.002Z</time></trkpt><trkpt lat="44.48417502183108" lon="11.394957267976846"><ele>57.33333333333333</ele><time>2026-04-18T08:46:45.002Z</time></trkpt><trkpt lat="44.48408726697638" lon="11.394891111009157"><ele>57.5</ele><time>2026-04-18T08:46:47.002Z</time></trkpt><trkpt lat="44.484038142271615" lon="11.394831968479565"><ele>57.666666666666664</ele><time>2026-04-18T08:46:48.002Z</time></trkpt><trkpt lat="44.4839847397957" lon="11.39476957616539"><ele>57.83333333333333</ele><time>2026-04-18T08:46:49.002Z</time></trkpt><trkpt lat="44.483922140847035" lon="11.394729722620468"><ele>58.0</ele><time>2026-04-18T08:46:50.002Z</time></trkpt><trkpt lat="44.48384690378067" lon="11.394703606688584"><ele>58.0</ele><time>2026-04-18T08:46:51.002Z</time></trkpt><trkpt lat="44.483764581786815" lon="11.394677295137173"><ele>58.0</ele><time>2026-04-18T08:46:52.002Z</time></trkpt><trkpt lat="44.483676510597604" lon="11.39463211771777"><ele>58.0</ele><time>2026-04-18T08:46:53.002Z</time></trkpt><trkpt lat="44.483593535460685" lon="11.394582817468608"><ele>58.0</ele><time>2026-04-18T08:46:53.999Z</time></trkpt><trkpt lat="44.48350802503523" lon="11.394529022623965"><ele>58.0</ele><time>2026-04-18T08:46:54.999Z</time></trkpt><trkpt lat="44.48341736124685" lon="11.394472454767817"><ele>57.666666666666664</ele><time>2026-04-18T08:46:55.999Z</time></trkpt><trkpt lat="44.483329643806826" lon="11.394416283273468"><ele>57.33333333333333</ele><time>2026-04-18T08:46:56.999Z</time></trkpt><trkpt lat="44.48324680961188" lon="11.394365133965046"><ele>57.0</ele><time>2026-04-18T08:46:57.999Z</time></trkpt><trkpt lat="44.48316496075613" lon="11.394312959043535"><ele>56.66666666666667</ele><time>2026-04-18T08:46:58.999Z</time></trkpt><trkpt lat="44.48308497921723" lon="11.394263223453201"><ele>56.333333333333336</ele><time>2026-04-18T08:46:59.999Z</time></trkpt><trkpt lat="44.483008543431" lon="11.394216621300966"><ele>56.0</ele><time>2026-04-18T08:47:00.999Z</time></trkpt><trkpt lat="44.48293883550179" lon="11.394166383345553"><ele>56.42857142857143</ele><time>2026-04-18T08:47:01.999Z</time></trkpt><trkpt lat="44.48287190780591" lon="11.394117085548679"><ele>56.85714285714286</ele><time>2026-04-18T08:47:02.999Z</time></trkpt><trkpt lat="44.48280542765028" lon="11.394073775991007"><ele>57.285714285714285</ele><time>2026-04-18T08:47:03.999Z</time></trkpt><trkpt lat="44.48273709997403" lon="11.394030821982671"><ele>57.714285714285715</ele><time>2026-04-18T08:47:04.999Z</time></trkpt><trkpt lat="44.482670413167874" lon="11.393987536102548"><ele>58.142857142857146</ele><time>2026-04-18T08:47:05.999Z</time></trkpt><trkpt lat="44.48260810748054" lon="11.393946351334868"><ele>58.57142857142857</ele><time>2026-04-18T08:47:06.999Z</time></trkpt><trkpt lat="44.48254859282256" lon="11.393904202808232"><ele>59.0</ele><time>2026-04-18T08:47:07.999Z</time></trkpt><trkpt lat="44.48248598618911" lon="11.39386177686422"><ele>59.00000000000001</ele><time>2026-04-18T08:47:09Z</time></trkpt><trkpt lat="44.482419856721734" lon="11.393816181266782"><ele>59.0</ele><time>2026-04-18T08:47:10Z</time></trkpt><trkpt lat="44.48235018672614" lon="11.393772518063999"><ele>59.0</ele><time>2026-04-18T08:47:11Z</time></trkpt><trkpt lat="44.48227906211399" lon="11.393728159770097"><ele>59.0</ele><time>2026-04-18T08:47:12Z</time></trkpt><trkpt lat="44.48221053782701" lon="11.393686497006307"><ele>59.00000000000001</ele><time>2026-04-18T08:47:13Z</time></trkpt><trkpt lat="44.48214686268156" lon="11.393647095270818"><ele>59.0</ele><time>2026-04-18T08:47:14Z</time></trkpt><trkpt lat="44.48204718117099" lon="11.393577104033461"><ele>59.16666666666667</ele><time>2026-04-18T08:47:16Z</time></trkpt><trkpt lat="44.48196427010342" lon="11.393514783839706"><ele>59.333333333333336</ele><time>2026-04-18T08:47:18Z</time></trkpt><trkpt lat="44.481857333021246" lon="11.393437703683196"><ele>59.5</ele><time>2026-04-18T08:47:20Z</time></trkpt><trkpt lat="44.481784993718" lon="11.393415738317632"><ele>59.66666666666667</ele><time>2026-04-18T08:47:21Z</time></trkpt><trkpt lat="44.4817209900501" lon="11.393353727269318"><ele>59.833333333333336</ele><time>2026-04-18T08:47:22Z</time></trkpt><trkpt lat="44.481644006515566" lon="11.393313514883138"><ele>60.0</ele><time>2026-04-18T08:47:23Z</time></trkpt><trkpt lat="44.481559546726906" lon="11.393273066666488"><ele>60.0</ele><time>2026-04-18T08:47:24Z</time></trkpt><trkpt lat="44.48147798136244" lon="11.393225566294639"><ele>60.0</ele><time>2026-04-18T08:47:25Z</time></trkpt><trkpt lat="44.48139238436441" lon="11.39317380039181"><ele>60.0</ele><time>2026-04-18T08:47:26Z</time></trkpt><trkpt lat="44.48130417342413" lon="11.393117708180212"><ele>60.0</ele><time>2026-04-18T08:47:27Z</time></trkpt><trkpt lat="44.481213389359134" lon="11.393057516081127"><ele>60.0</ele><time>2026-04-18T08:47:28Z</time></trkpt><trkpt lat="44.48112597765018" lon="11.393001964872354"><ele>60.6</ele><time>2026-04-18T08:47:29Z</time></trkpt><trkpt lat="44.481040503570306" lon="11.39294681089764"><ele>61.2</ele><time>2026-04-18T08:47:30Z</time></trkpt><trkpt lat="44.48095306204239" lon="11.392889445993378"><ele>61.8</ele><time>2026-04-18T08:47:31Z</time></trkpt><trkpt lat="44.48086752174949" lon="11.392831885970484"><ele>62.4</ele><time>2026-04-18T08:47:32Z</time></trkpt><trkpt lat="44.48078025718868" lon="11.392775723473298"><ele>63.0</ele><time>2026-04-18T08:47:33Z</time></trkpt><trkpt lat="44.48069303852438" lon="11.392723099925005"><ele>63.0</ele><time>2026-04-18T08:47:34Z</time></trkpt><trkpt lat="44.480604529086975" lon="11.392669773421506"><ele>63.0</ele><time>2026-04-18T08:47:35Z</time></trkpt><trkpt lat="44.48050913955491" lon="11.392611547922195"><ele>63.0</ele><time>2026-04-18T08:47:36Z</time></trkpt><trkpt lat="44.48040765992882" lon="11.392552025427765"><ele>63.0</ele><time>2026-04-18T08:47:37Z</time></trkpt><trkpt lat="44.4803088030991" lon="11.39249607884456"><ele>63.0</ele><time>2026-04-18T08:47:38Z</time></trkpt><trkpt lat="44.48021539536756" lon="11.392436784433269"><ele>63.0</ele><time>2026-04-18T08:47:39Z</time></trkpt><trkpt lat="44.480122937759674" lon="11.392380891752014"><ele>63.0</ele><time>2026-04-18T08:47:40Z</time></trkpt><trkpt lat="44.480032506981985" lon="11.392325793272166"><ele>63.0</ele><time>2026-04-18T08:47:41Z</time></trkpt><trkpt lat="44.47994727461743" lon="11.392267747618604"><ele>63.0</ele><time>2026-04-18T08:47:42Z</time></trkpt><trkpt lat="44.47985513071542" lon="11.392211244041862"><ele>63.0</ele><time>2026-04-18T08:47:43Z</time></trkpt><trkpt lat="44.47976471941643" lon="11.392151011521742"><ele>63.599999999999994</ele><time>2026-04-18T08:47:44.001Z</time></trkpt><trkpt lat="44.47967207929309" lon="11.392093976556893"><ele>64.19999999999999</ele><time>2026-04-18T08:47:45.001Z</time></trkpt><trkpt lat="44.479585035267455" lon="11.392039770195316"><ele>64.8</ele><time>2026-04-18T08:47:46.001Z</time></trkpt><trkpt lat="44.479498168591014" lon="11.391989285885801"><ele>65.39999999999999</ele><time>2026-04-18T08:47:47.001Z</time></trkpt><trkpt lat="44.479408615634" lon="11.391931929398451"><ele>66.0</ele><time>2026-04-18T08:47:48.001Z</time></trkpt><trkpt lat="44.479331791032" lon="11.391876301083636"><ele>66.0</ele><time>2026-04-18T08:47:49.001Z</time></trkpt><trkpt lat="44.4792466178379" lon="11.391825951167135"><ele>66.0</ele><time>2026-04-18T08:47:50.001Z</time></trkpt><trkpt lat="44.47916078936611" lon="11.391769231931336"><ele>66.0</ele><time>2026-04-18T08:47:51.001Z</time></trkpt><trkpt lat="44.47908872298402" lon="11.391722622574223"><ele>66.0</ele><time>2026-04-18T08:47:52.001Z</time></trkpt><trkpt lat="44.479021733979955" lon="11.391680114628546"><ele>66.0</ele><time>2026-04-18T08:47:53.001Z</time></trkpt><trkpt lat="44.47895418211917" lon="11.39163719929022"><ele>66.0</ele><time>2026-04-18T08:47:54.001Z</time></trkpt><trkpt lat="44.47888109246575" lon="11.391590100181674"><ele>66.0</ele><time>2026-04-18T08:47:55.001Z</time></trkpt><trkpt lat="44.4788037656015" lon="11.391542264973193"><ele>66.0</ele><time>2026-04-18T08:47:56.001Z</time></trkpt><trkpt lat="44.478727756311685" lon="11.391493192671197"><ele>66.0</ele><time>2026-04-18T08:47:57.001Z</time></trkpt><trkpt lat="44.478654998970235" lon="11.391449527101075"><ele>66.0</ele><time>2026-04-18T08:47:58.001Z</time></trkpt><trkpt lat="44.478582740655916" lon="11.391408588963346"><ele>66.0</ele><time>2026-04-18T08:47:59.001Z</time></trkpt><trkpt lat="44.47851347666147" lon="11.391370242099091"><ele>66.0</ele><time>2026-04-18T08:48:00.001Z</time></trkpt><trkpt lat="44.47845002549167" lon="11.391334301166765"><ele>65.83333333333333</ele><time>2026-04-18T08:48:01.001Z</time></trkpt><trkpt lat="44.47834220558557" lon="11.391267705575595"><ele>65.66666666666667</ele><time>2026-04-18T08:48:03.001Z</time></trkpt><trkpt lat="44.47825498043559" lon="11.391198290220084"><ele>65.5</ele><time>2026-04-18T08:48:05.001Z</time></trkpt><trkpt lat="44.47817854445771" lon="11.391151313999234"><ele>65.33333333333334</ele><time>2026-04-18T08:48:07.001Z</time></trkpt><trkpt lat="44.47811274171589" lon="11.391109697552938"><ele>65.16666666666667</ele><time>2026-04-18T08:48:09.001Z</time></trkpt><trkpt lat="44.47804801201674" lon="11.391064281603756"><ele>65.0</ele><time>2026-04-18T08:48:11.001Z</time></trkpt><trkpt lat="44.47796661542298" lon="11.391026805844296"><ele>65.33333333333334</ele><time>2026-04-18T08:48:14.001Z</time></trkpt><trkpt lat="44.477902565120004" lon="11.390982648615859"><ele>65.66666666666667</ele><time>2026-04-18T08:49:19Z</time></trkpt><trkpt lat="44.47782189735731" lon="11.390922426256477"><ele>66.0</ele><time>2026-04-18T08:49:21Z</time></trkpt><trkpt lat="44.477706111779" lon="11.390830309890012"><ele>66.33333333333333</ele><time>2026-04-18T08:49:23Z</time></trkpt><trkpt lat="44.4776448818778" lon="11.39078164848049"><ele>66.66666666666666</ele><time>2026-04-18T08:49:24Z</time></trkpt><trkpt lat="44.47758334892313" lon="11.39073611289707"><ele>67.0</ele><time>2026-04-18T08:49:25Z</time></trkpt><trkpt lat="44.477525761737404" lon="11.390697027732395"><ele>67.0</ele><time>2026-04-18T08:49:26Z</time></trkpt><trkpt lat="44.47741378946904" lon="11.390626209346756"><ele>67.0</ele><time>2026-04-18T08:49:28Z</time></trkpt><trkpt lat="44.4773556656533" lon="11.390591988134545"><ele>67.0</ele><time>2026-04-18T08:49:29Z</time></trkpt><trkpt lat="44.477294960628036" lon="11.390551533629031"><ele>67.0</ele><time>2026-04-18T08:49:30Z</time></trkpt><trkpt lat="44.477225624315516" lon="11.390499409779048"><ele>67.0</ele><time>2026-04-18T08:49:31Z</time></trkpt><trkpt lat="44.47715023318265" lon="11.390444050795365"><ele>67.0</ele><time>2026-04-18T08:49:32.001Z</time></trkpt><trkpt lat="44.47706251049556" lon="11.390380753516652"><ele>67.0</ele><time>2026-04-18T08:49:33.001Z</time></trkpt><trkpt lat="44.47698382072309" lon="11.390323148744226"><ele>67.0</ele><time>2026-04-18T08:49:34.001Z</time></trkpt><trkpt lat="44.476908148929425" lon="11.390265378564829"><ele>67.0</ele><time>2026-04-18T08:49:35.001Z</time></trkpt><trkpt lat="44.47682668104924" lon="11.39022447311442"><ele>67.0</ele><time>2026-04-18T08:49:36.001Z</time></trkpt><trkpt lat="44.4767410250625" lon="11.390170034133941"><ele>67.0</ele><time>2026-04-18T08:49:37.001Z</time></trkpt><trkpt lat="44.476653708193425" lon="11.390112536499055"><ele>67.0</ele><time>2026-04-18T08:49:38.001Z</time></trkpt><trkpt lat="44.47656602695628" lon="11.39005573244968"><ele>67.0</ele><time>2026-04-18T08:49:39.001Z</time></trkpt><trkpt lat="44.4764788813694" lon="11.389996156889959"><ele>67.0</ele><time>2026-04-18T08:49:40.001Z</time></trkpt><trkpt lat="44.476394303811965" lon="11.38993317902749"><ele>67.0</ele><time>2026-04-18T08:49:41.001Z</time></trkpt><trkpt lat="44.47630963937977" lon="11.389873358242337"><ele>67.0</ele><time>2026-04-18T08:49:42.001Z</time></trkpt><trkpt lat="44.476234578108844" lon="11.38982159817989"><ele>67.33333333333333</ele><time>2026-04-18T08:49:43.001Z</time></trkpt><trkpt lat="44.47616041640409" lon="11.38976961487851"><ele>67.66666666666666</ele><time>2026-04-18T08:49:44.001Z</time></trkpt><trkpt lat="44.47607833540699" lon="11.38970919356535"><ele>68.0</ele><time>2026-04-18T08:49:45.001Z</time></trkpt><trkpt lat="44.47599963698226" lon="11.38964820043611"><ele>68.33333333333333</ele><time>2026-04-18T08:49:46.001Z</time></trkpt><trkpt lat="44.475928959357795" lon="11.389598442830927"><ele>68.66666666666667</ele><time>2026-04-18T08:49:47.001Z</time></trkpt><trkpt lat="44.475865060701935" lon="11.389553471776987"><ele>69.0</ele><time>2026-04-18T08:49:48.001Z</time></trkpt><trkpt lat="44.4758021121465" lon="11.389512361955543"><ele>69.0</ele><time>2026-04-18T08:49:49.001Z</time></trkpt><trkpt lat="44.47571181105736" lon="11.389434793032624"><ele>69.0</ele><time>2026-04-18T08:49:51.001Z</time></trkpt><trkpt lat="44.47563462927805" lon="11.38936992595698"><ele>69.0</ele><time>2026-04-18T08:49:53.001Z</time></trkpt><trkpt lat="44.47556383904275" lon="11.389319923850575"><ele>69.0</ele><time>2026-04-18T08:49:55.001Z</time></trkpt><trkpt lat="44.47549198455106" lon="11.389276965098464"><ele>69.0</ele><time>2026-04-18T08:50:21.002Z</time></trkpt><trkpt lat="44.4754182137519" lon="11.389219193665754"><ele>69.0</ele><time>2026-04-18T08:50:23.002Z</time></trkpt><trkpt lat="44.47535302040393" lon="11.389167053951327"><ele>69.33333333333333</ele><time>2026-04-18T08:50:25.002Z</time></trkpt><trkpt lat="44.475271143831904" lon="11.389100942599327"><ele>69.66666666666667</ele><time>2026-04-18T08:50:29.002Z</time></trkpt><trkpt lat="44.47518649355115" lon="11.389036638132273"><ele>70.0</ele><time>2026-04-18T08:50:32.002Z</time></trkpt><trkpt lat="44.47509311816574" lon="11.388967137960151"><ele>70.33333333333334</ele><time>2026-04-18T08:50:34.002Z</time></trkpt><trkpt lat="44.475028410862954" lon="11.3889303056476"><ele>70.66666666666667</ele><time>2026-04-18T08:50:35.002Z</time></trkpt><trkpt lat="44.4749605170801" lon="11.388898523523844"><ele>71.0</ele><time>2026-04-18T08:50:36.002Z</time></trkpt><trkpt lat="44.474887215551625" lon="11.388852187754503"><ele>70.83333333333334</ele><time>2026-04-18T08:50:38.002Z</time></trkpt><trkpt lat="44.474779332064585" lon="11.388767980189343"><ele>70.66666666666667</ele><time>2026-04-18T08:50:40.002Z</time></trkpt><trkpt lat="44.474717899488134" lon="11.388720580282653"><ele>70.5</ele><time>2026-04-18T08:50:41.002Z</time></trkpt><trkpt lat="44.47465251652041" lon="11.388671998960463"><ele>70.33333333333333</ele><time>2026-04-18T08:50:42.002Z</time></trkpt><trkpt lat="44.474585616508165" lon="11.388621812672158"><ele>70.16666666666666</ele><time>2026-04-18T08:50:43.002Z</time></trkpt><trkpt lat="44.47451532959077" lon="11.38856739072326"><ele>70.0</ele><time>2026-04-18T08:50:44.002Z</time></trkpt><trkpt lat="44.47445897447196" lon="11.388525671281618"><ele>69.8</ele><time>2026-04-18T08:50:45.002Z</time></trkpt><trkpt lat="44.47435301944888" lon="11.388443955017909"><ele>69.6</ele><time>2026-04-18T08:50:47.002Z</time></trkpt><trkpt lat="44.4742420661009" lon="11.388362370941326"><ele>69.4</ele><time>2026-04-18T08:50:49.002Z</time></trkpt><trkpt lat="44.4741780123731" lon="11.388314484867712"><ele>69.2</ele><time>2026-04-18T08:50:50.002Z</time></trkpt><trkpt lat="44.474116313122316" lon="11.38827547992867"><ele>69.0</ele><time>2026-04-18T08:50:51.002Z</time></trkpt><trkpt lat="44.47400902214238" lon="11.388201002069646"><ele>69.0</ele><time>2026-04-18T08:50:53.002Z</time></trkpt><trkpt lat="44.47391038259236" lon="11.388130076031485"><ele>69.0</ele><time>2026-04-18T08:50:55.003Z</time></trkpt><trkpt lat="44.4738441203831" lon="11.388079009991593"><ele>69.0</ele><time>2026-04-18T08:50:56.003Z</time></trkpt><trkpt lat="44.47377851419443" lon="11.388026733080956"><ele>69.0</ele><time>2026-04-18T08:50:57.003Z</time></trkpt><trkpt lat="44.47371299537956" lon="11.387976552715921"><ele>69.0</ele><time>2026-04-18T08:50:58.003Z</time></trkpt><trkpt lat="44.473649744873875" lon="11.387934027049958"><ele>69.0</ele><time>2026-04-18T08:50:59.003Z</time></trkpt><trkpt lat="44.4735873001165" lon="11.38789290425052"><ele>68.83333333333333</ele><time>2026-04-18T08:51:00.003Z</time></trkpt><trkpt lat="44.473516448163664" lon="11.387846340769581"><ele>68.66666666666667</ele><time>2026-04-18T08:51:01.003Z</time></trkpt><trkpt lat="44.47345071532017" lon="11.38779403704339"><ele>68.5</ele><time>2026-04-18T08:51:02.003Z</time></trkpt><trkpt lat="44.47338525271443" lon="11.387746603660238"><ele>68.33333333333334</ele><time>2026-04-18T08:51:03.003Z</time></trkpt><trkpt lat="44.473324927582155" lon="11.3877092349857"><ele>68.16666666666667</ele><time>2026-04-18T08:51:04.003Z</time></trkpt><trkpt lat="44.47325506859798" lon="11.387657095653886"><ele>68.0</ele><time>2026-04-18T08:51:05.003Z</time></trkpt><trkpt lat="44.4731770067875" lon="11.387604679069804"><ele>68.0</ele><time>2026-04-18T08:51:06.001Z</time></trkpt><trkpt lat="44.4730922437887" lon="11.387544439356079"><ele>68.0</ele><time>2026-04-18T08:51:07.001Z</time></trkpt><trkpt lat="44.473020464726915" lon="11.387487268095937"><ele>68.0</ele><time>2026-04-18T08:51:08.001Z</time></trkpt><trkpt lat="44.4729551199392" lon="11.387435629995366"><ele>68.0</ele><time>2026-04-18T08:51:09.001Z</time></trkpt><trkpt lat="44.4728946972664" lon="11.387391242905535"><ele>68.0</ele><time>2026-04-18T08:51:10.001Z</time></trkpt><trkpt lat="44.47280630325419" lon="11.38731725287602"><ele>68.0</ele><time>2026-04-18T08:51:12.001Z</time></trkpt><trkpt lat="44.472744119867485" lon="11.387269165726954"><ele>68.16666666666667</ele><time>2026-04-18T08:51:15.001Z</time></trkpt><trkpt lat="44.472692400682476" lon="11.387208495678415"><ele>68.33333333333334</ele><time>2026-04-18T08:51:24.001Z</time></trkpt><trkpt lat="44.47263077916426" lon="11.387150359968018"><ele>68.5</ele><time>2026-04-18T08:51:28.001Z</time></trkpt><trkpt lat="44.47257516045532" lon="11.387091591783147"><ele>68.66666666666667</ele><time>2026-04-18T08:51:39.001Z</time></trkpt><trkpt lat="44.47252070928873" lon="11.38702569322768"><ele>68.83333333333333</ele><time>2026-04-18T08:51:45.001Z</time></trkpt><trkpt lat="44.4724505509026" lon="11.386932706260717"><ele>69.0</ele><time>2026-04-18T08:51:48.001Z</time></trkpt><trkpt lat="44.472411008779126" lon="11.386831075349345"><ele>69.0</ele><time>2026-04-18T08:51:50.001Z</time></trkpt><trkpt lat="44.47237056813778" lon="11.386737960668388"><ele>69.0</ele><time>2026-04-18T08:51:52.001Z</time></trkpt><trkpt lat="44.47232969363883" lon="11.38666973481891"><ele>69.0</ele><time>2026-04-18T08:51:53.001Z</time></trkpt><trkpt lat="44.472287235338946" lon="11.386597427616643"><ele>69.0</ele><time>2026-04-18T08:51:54.001Z</time></trkpt><trkpt lat="44.47223126267419" lon="11.386553344045415"><ele>69.0</ele><time>2026-04-18T08:51:55.001Z</time></trkpt><trkpt lat="44.4721680182149" lon="11.386527597336576"><ele>69.0</ele><time>2026-04-18T08:51:56.001Z</time></trkpt><trkpt lat="44.472097801182414" lon="11.38652947448027"><ele>69.0</ele><time>2026-04-18T08:51:57.001Z</time></trkpt><trkpt lat="44.47202316135292" lon="11.386563487169507"><ele>68.8</ele><time>2026-04-18T08:51:58.001Z</time></trkpt><trkpt lat="44.47196123776863" lon="11.386623813561016"><ele>68.60000000000001</ele><time>2026-04-18T08:51:59.001Z</time></trkpt><trkpt lat="44.47191475926207" lon="11.386715532677048"><ele>68.4</ele><time>2026-04-18T08:52:00.001Z</time></trkpt><trkpt lat="44.4718850814914" lon="11.38691144137109"><ele>68.2</ele><time>2026-04-18T08:52:02.001Z</time></trkpt><trkpt lat="44.47189809093903" lon="11.387022955626046"><ele>68.0</ele><time>2026-04-18T08:52:03.001Z</time></trkpt><trkpt lat="44.47194302495742" lon="11.387124006700967"><ele>68.6</ele><time>2026-04-18T08:52:04.001Z</time></trkpt><trkpt lat="44.47195577218141" lon="11.387226370400361"><ele>69.19999999999999</ele><time>2026-04-18T08:52:05.001Z</time></trkpt><trkpt lat="44.47191443905473" lon="11.387353775037854"><ele>69.8</ele><time>2026-04-18T08:52:06.001Z</time></trkpt><trkpt lat="44.47187417290941" lon="11.387467784228285"><ele>70.39999999999999</ele><time>2026-04-18T08:52:07.001Z</time></trkpt><trkpt lat="44.47182830212869" lon="11.387595055337005"><ele>71.0</ele><time>2026-04-18T08:52:08.001Z</time></trkpt><trkpt lat="44.47178025006368" lon="11.387721173425808"><ele>71.0</ele><time>2026-04-18T08:52:09.001Z</time></trkpt><trkpt lat="44.47172373401461" lon="11.387843797677474"><ele>71.0</ele><time>2026-04-18T08:52:10.001Z</time></trkpt><trkpt lat="44.47166996529318" lon="11.387975700532165"><ele>71.0</ele><time>2026-04-18T08:52:11.001Z</time></trkpt><trkpt lat="44.47161419133677" lon="11.38811175195884"><ele>71.0</ele><time>2026-04-18T08:52:12.002Z</time></trkpt><trkpt lat="44.47155945998032" lon="11.388255698183826"><ele>71.0</ele><time>2026-04-18T08:52:13.002Z</time></trkpt><trkpt lat="44.471508201760535" lon="11.388393908992727"><ele>71.2</ele><time>2026-04-18T08:52:14.002Z</time></trkpt><trkpt lat="44.471458968099014" lon="11.388523779667283"><ele>71.39999999999999</ele><time>2026-04-18T08:52:15.002Z</time></trkpt><trkpt lat="44.47141191791276" lon="11.38865304035018"><ele>71.6</ele><time>2026-04-18T08:52:16.002Z</time></trkpt><trkpt lat="44.4713635968058" lon="11.388786878041875"><ele>71.8</ele><time>2026-04-18T08:52:17.002Z</time></trkpt><trkpt lat="44.47131628057127" lon="11.38892789141239"><ele>72.0</ele><time>2026-04-18T08:52:18.002Z</time></trkpt><trkpt lat="44.47126949887678" lon="11.389066086081334"><ele>72.6</ele><time>2026-04-18T08:52:19.002Z</time></trkpt><trkpt lat="44.4712077480969" lon="11.389191026451307"><ele>73.2</ele><time>2026-04-18T08:52:20.002Z</time></trkpt><trkpt lat="44.47116226929508" lon="11.389329814914"><ele>73.8</ele><time>2026-04-18T08:52:21.002Z</time></trkpt><trkpt lat="44.47111368451029" lon="11.389461444175081"><ele>74.4</ele><time>2026-04-18T08:52:22.002Z</time></trkpt><trkpt lat="44.4710625346252" lon="11.389598270545694"><ele>75.0</ele><time>2026-04-18T08:52:23.002Z</time></trkpt><trkpt lat="44.471007288991494" lon="11.389735254871137"><ele>75.25</ele><time>2026-04-18T08:52:24.002Z</time></trkpt><trkpt lat="44.470956489333766" lon="11.389876518209755"><ele>75.5</ele><time>2026-04-18T08:52:25.002Z</time></trkpt><trkpt lat="44.47090174518332" lon="11.39002089846096"><ele>75.75</ele><time>2026-04-18T08:52:26.002Z</time></trkpt><trkpt lat="44.47084420681295" lon="11.39016684333636"><ele>76.0</ele><time>2026-04-18T08:52:27.002Z</time></trkpt><trkpt lat="44.47078967776392" lon="11.39030769379392"><ele>76.0</ele><time>2026-04-18T08:52:28.002Z</time></trkpt><trkpt lat="44.47072367284237" lon="11.390438600331233"><ele>76.0</ele><time>2026-04-18T08:52:29.002Z</time></trkpt><trkpt lat="44.47066909729444" lon="11.390574437977907"><ele>76.0</ele><time>2026-04-18T08:52:30.002Z</time></trkpt><trkpt lat="44.47061563503305" lon="11.390710119076749"><ele>76.0</ele><time>2026-04-18T08:52:31.002Z</time></trkpt><trkpt lat="44.470564689774335" lon="11.390845310458666"><ele>76.0</ele><time>2026-04-18T08:52:32.002Z</time></trkpt><trkpt lat="44.4705093079328" lon="11.390982217994187"><ele>75.6</ele><time>2026-04-18T08:52:33.002Z</time></trkpt><trkpt lat="44.47045197338995" lon="11.39112326298036"><ele>75.19999999999999</ele><time>2026-04-18T08:52:34.002Z</time></trkpt><trkpt lat="44.470398185122576" lon="11.391261538195282"><ele>74.80000000000001</ele><time>2026-04-18T08:52:35.002Z</time></trkpt><trkpt lat="44.4703454225698" lon="11.391398460311276"><ele>74.4</ele><time>2026-04-18T08:52:36.002Z</time></trkpt><trkpt lat="44.47029605604019" lon="11.391531790740242"><ele>74.0</ele><time>2026-04-18T08:52:37.002Z</time></trkpt><trkpt lat="44.470245397345344" lon="11.391663741996252"><ele>73.8</ele><time>2026-04-18T08:52:38.002Z</time></trkpt><trkpt lat="44.470196446531105" lon="11.391794542950292"><ele>73.60000000000001</ele><time>2026-04-18T08:52:39.002Z</time></trkpt><trkpt lat="44.47014973582857" lon="11.391919788797214"><ele>73.4</ele><time>2026-04-18T08:52:40.002Z</time></trkpt><trkpt lat="44.47010529703162" lon="11.392044213324514"><ele>73.2</ele><time>2026-04-18T08:52:41.002Z</time></trkpt><trkpt lat="44.4700591670017" lon="11.392167478221612"><ele>73.0</ele><time>2026-04-18T08:52:42.002Z</time></trkpt><trkpt lat="44.47001566644173" lon="11.392287372768276"><ele>73.0</ele><time>2026-04-18T08:52:43.002Z</time></trkpt><trkpt lat="44.46997161054127" lon="11.392404391821753"><ele>73.0</ele><time>2026-04-18T08:52:44.002Z</time></trkpt><trkpt lat="44.4699304315225" lon="11.392517486943277"><ele>73.0</ele><time>2026-04-18T08:52:45.002Z</time></trkpt><trkpt lat="44.469887176436934" lon="11.392621734508833"><ele>73.0</ele><time>2026-04-18T08:52:46.002Z</time></trkpt><trkpt lat="44.46983703076128" lon="11.392719609649964"><ele>73.0</ele><time>2026-04-18T08:52:47.002Z</time></trkpt><trkpt lat="44.46978468178786" lon="11.392792376061998"><ele>73.0</ele><time>2026-04-18T08:52:48.002Z</time></trkpt><trkpt lat="44.46972722903157" lon="11.392849979543488"><ele>73.0</ele><time>2026-04-18T08:52:49.002Z</time></trkpt><trkpt lat="44.46962492319438" lon="11.392910970092089"><ele>73.0</ele><time>2026-04-18T08:52:51.002Z</time></trkpt><trkpt lat="44.469507078633065" lon="11.392943968381884"><ele>73.0</ele><time>2026-04-18T08:52:53.002Z</time></trkpt><trkpt lat="44.46943805852642" lon="11.39296243958176"><ele>73.0</ele><time>2026-04-18T08:52:54.002Z</time></trkpt><trkpt lat="44.469356552472384" lon="11.392992130717033"><ele>73.0</ele><time>2026-04-18T08:52:55.002Z</time></trkpt><trkpt lat="44.46926566147017" lon="11.39302831126956"><ele>72.8</ele><time>2026-04-18T08:52:56.002Z</time></trkpt><trkpt lat="44.469166527668975" lon="11.393076748206823"><ele>72.6</ele><time>2026-04-18T08:52:57.002Z</time></trkpt><trkpt lat="44.46905809842945" lon="11.393095909068888"><ele>72.4</ele><time>2026-04-18T08:52:58.003Z</time></trkpt><trkpt lat="44.46895607810833" lon="11.39314993671145"><ele>72.2</ele><time>2026-04-18T08:52:59.003Z</time></trkpt><trkpt lat="44.46886210724962" lon="11.393240527833077"><ele>72.0</ele><time>2026-04-18T08:53:00.003Z</time></trkpt><trkpt lat="44.46878649101189" lon="11.393367677111788"><ele>71.5</ele><time>2026-04-18T08:53:01.003Z</time></trkpt><trkpt lat="44.46873232710482" lon="11.393518502633965"><ele>71.0</ele><time>2026-04-18T08:53:02.003Z</time></trkpt><trkpt lat="44.4687128071662" lon="11.393680179376666"><ele>70.5</ele><time>2026-04-18T08:53:03.003Z</time></trkpt><trkpt lat="44.46871676517364" lon="11.393844459520404"><ele>70.0</ele><time>2026-04-18T08:53:04.003Z</time></trkpt><trkpt lat="44.46873378482483" lon="11.393990666758382"><ele>70.0</ele><time>2026-04-18T08:53:05.003Z</time></trkpt><trkpt lat="44.468739039965214" lon="11.394130694935123"><ele>70.0</ele><time>2026-04-18T08:53:06.003Z</time></trkpt><trkpt lat="44.46875108530569" lon="11.39426506814008"><ele>70.0</ele><time>2026-04-18T08:53:07.003Z</time></trkpt><trkpt lat="44.468790411829985" lon="11.394382684466388"><ele>70.0</ele><time>2026-04-18T08:53:08.003Z</time></trkpt><trkpt lat="44.468770707710284" lon="11.394523425542214"><ele>70.0</ele><time>2026-04-18T08:53:09.003Z</time></trkpt><trkpt lat="44.468770533848975" lon="11.394612009552562"><ele>69.2</ele><time>2026-04-18T08:53:10.003Z</time></trkpt><trkpt lat="44.46876117030679" lon="11.394713133468446"><ele>68.4</ele><time>2026-04-18T08:53:13.001Z</time></trkpt><trkpt lat="44.46874087467736" lon="11.394821652119811"><ele>67.6</ele><time>2026-04-18T08:53:16.001Z</time></trkpt><trkpt lat="44.468690324609824" lon="11.3949451685093"><ele>66.8</ele><time>2026-04-18T08:53:18.001Z</time></trkpt><trkpt lat="44.46863030185775" lon="11.395084065977185"><ele>66.0</ele><time>2026-04-18T08:53:20Z</time></trkpt><trkpt lat="44.4685490926826" lon="11.39512679025603"><ele>66.0</ele><time>2026-04-18T08:53:21Z</time></trkpt><trkpt lat="44.468488654973754" lon="11.395181350101744"><ele>66.0</ele><time>2026-04-18T08:53:22Z</time></trkpt><trkpt lat="44.4684324431682" lon="11.395227622440052"><ele>66.0</ele><time>2026-04-18T08:53:23Z</time></trkpt><trkpt lat="44.46837598441817" lon="11.395273855982373"><ele>66.0</ele><time>2026-04-18T08:53:24Z</time></trkpt><trkpt lat="44.46825784212283" lon="11.395366620869323"><ele>66.0</ele><time>2026-04-18T08:53:26Z</time></trkpt><trkpt lat="44.46819488095546" lon="11.395417124008864"><ele>66.0</ele><time>2026-04-18T08:53:27Z</time></trkpt><trkpt lat="44.468120725615464" lon="11.395472488535589"><ele>66.5</ele><time>2026-04-18T08:53:28Z</time></trkpt><trkpt lat="44.46805905528605" lon="11.395525299823472"><ele>67.0</ele><time>2026-04-18T08:53:29Z</time></trkpt><trkpt lat="44.467995052543955" lon="11.39557227456803"><ele>67.5</ele><time>2026-04-18T08:53:30Z</time></trkpt><trkpt lat="44.467931536939616" lon="11.395622739945027"><ele>68.0</ele><time>2026-04-18T08:53:31Z</time></trkpt><trkpt lat="44.46786256015228" lon="11.39568064737053"><ele>68.5</ele><time>2026-04-18T08:53:32Z</time></trkpt><trkpt lat="44.46779561457702" lon="11.395740300975424"><ele>69.0</ele><time>2026-04-18T08:53:33Z</time></trkpt><trkpt lat="44.46772964480457" lon="11.395797749103743"><ele>69.57142857142857</ele><time>2026-04-18T08:53:34Z</time></trkpt><trkpt lat="44.46766390405522" lon="11.395847278007338"><ele>70.14285714285715</ele><time>2026-04-18T08:53:35Z</time></trkpt><trkpt lat="44.46760486002648" lon="11.395898448598668"><ele>70.71428571428572</ele><time>2026-04-18T08:53:36.001Z</time></trkpt><trkpt lat="44.467544525822305" lon="11.395945145584115"><ele>71.28571428571429</ele><time>2026-04-18T08:53:37.001Z</time></trkpt><trkpt lat="44.467481903285936" lon="11.3959903049905"><ele>71.85714285714286</ele><time>2026-04-18T08:53:38.001Z</time></trkpt><trkpt lat="44.46742173259217" lon="11.396040508797716"><ele>72.42857142857143</ele><time>2026-04-18T08:53:39.001Z</time></trkpt><trkpt lat="44.46736244427966" lon="11.396096738529236"><ele>73.0</ele><time>2026-04-18T08:53:40.001Z</time></trkpt><trkpt lat="44.46729005101986" lon="11.396148840533984"><ele>73.0</ele><time>2026-04-18T08:53:41.001Z</time></trkpt><trkpt lat="44.46722923188723" lon="11.396196365679764"><ele>73.0</ele><time>2026-04-18T08:53:42.001Z</time></trkpt><trkpt lat="44.46717247034833" lon="11.39624307628579"><ele>73.0</ele><time>2026-04-18T08:53:43.001Z</time></trkpt><trkpt lat="44.46708053283027" lon="11.396320713979243"><ele>73.0</ele><time>2026-04-18T08:53:45.001Z</time></trkpt><trkpt lat="44.46698220743845" lon="11.396402575515019"><ele>73.0</ele><time>2026-04-18T08:53:47.001Z</time></trkpt><trkpt lat="44.466877086251195" lon="11.396487333519191"><ele>73.0</ele><time>2026-04-18T08:53:49.001Z</time></trkpt><trkpt lat="44.46680930970106" lon="11.396513048447686"><ele>73.0</ele><time>2026-04-18T08:53:50.001Z</time></trkpt><trkpt lat="44.4667510665732" lon="11.396583711734689"><ele>73.0</ele><time>2026-04-18T08:53:51.001Z</time></trkpt><trkpt lat="44.466681199757375" lon="11.396637092480914"><ele>73.0</ele><time>2026-04-18T08:53:52.001Z</time></trkpt><trkpt lat="44.466602849445486" lon="11.396681191423765"><ele>73.0</ele><time>2026-04-18T08:53:53.001Z</time></trkpt><trkpt lat="44.46653658674371" lon="11.396732089230785"><ele>73.0</ele><time>2026-04-18T08:53:54.001Z</time></trkpt><trkpt lat="44.466471907408625" lon="11.396782225764161"><ele>73.0</ele><time>2026-04-18T08:53:55.001Z</time></trkpt><trkpt lat="44.466409464159725" lon="11.396837236681252"><ele>73.0</ele><time>2026-04-18T08:53:56.001Z</time></trkpt><trkpt lat="44.46634723061425" lon="11.396899260765828"><ele>73.0</ele><time>2026-04-18T08:53:57.001Z</time></trkpt><trkpt lat="44.4662867597582" lon="11.3969615006735"><ele>73.0</ele><time>2026-04-18T08:53:58.001Z</time></trkpt><trkpt lat="44.46622640215962" lon="11.39703316250407"><ele>73.0</ele><time>2026-04-18T08:53:59.001Z</time></trkpt><trkpt lat="44.46616294640378" lon="11.397111315341634"><ele>73.0</ele><time>2026-04-18T08:54:00.001Z</time></trkpt><trkpt lat="44.46609601443035" lon="11.39719636976603"><ele>73.66666666666666</ele><time>2026-04-18T08:54:01.001Z</time></trkpt><trkpt lat="44.46603422229609" lon="11.397285692135412"><ele>74.33333333333333</ele><time>2026-04-18T08:54:02.001Z</time></trkpt><trkpt lat="44.46597467949458" lon="11.397368705923583"><ele>75.0</ele><time>2026-04-18T08:54:03.001Z</time></trkpt><trkpt lat="44.46591776738822" lon="11.397452728561024"><ele>75.66666666666667</ele><time>2026-04-18T08:54:04.001Z</time></trkpt><trkpt lat="44.46586026533902" lon="11.397536855515758"><ele>76.33333333333334</ele><time>2026-04-18T08:54:05.001Z</time></trkpt><trkpt lat="44.465811783203065" lon="11.397624300519972"><ele>77.0</ele><time>2026-04-18T08:54:06.001Z</time></trkpt><trkpt lat="44.46575603153121" lon="11.397698833952399"><ele>77.0</ele><time>2026-04-18T08:54:07.001Z</time></trkpt><trkpt lat="44.46570636931934" lon="11.397778745049623"><ele>77.0</ele><time>2026-04-18T08:54:08.001Z</time></trkpt><trkpt lat="44.46565469911451" lon="11.397859359645379"><ele>77.0</ele><time>2026-04-18T08:54:09.001Z</time></trkpt><trkpt lat="44.46560308672503" lon="11.397941970994701"><ele>77.0</ele><time>2026-04-18T08:54:10.001Z</time></trkpt><trkpt lat="44.46555642325791" lon="11.398022651018703"><ele>77.0</ele><time>2026-04-18T08:54:11.001Z</time></trkpt><trkpt lat="44.46550251418763" lon="11.398102619677159"><ele>77.0</ele><time>2026-04-18T08:54:12.001Z</time></trkpt><trkpt lat="44.46544881040849" lon="11.398182683356126"><ele>77.57142857142857</ele><time>2026-04-18T08:54:13.001Z</time></trkpt><trkpt lat="44.46539934348548" lon="11.39826304040795"><ele>78.14285714285714</ele><time>2026-04-18T08:54:14.001Z</time></trkpt><trkpt lat="44.46534502650052" lon="11.398343069966277"><ele>78.71428571428572</ele><time>2026-04-18T08:54:15.001Z</time></trkpt><trkpt lat="44.46529484789566" lon="11.398424068530872"><ele>79.28571428571428</ele><time>2026-04-18T08:54:16.001Z</time></trkpt><trkpt lat="44.465244653800035" lon="11.398497015444628"><ele>79.85714285714286</ele><time>2026-04-18T08:54:17.001Z</time></trkpt><trkpt lat="44.46520334624189" lon="11.398569440131968"><ele>80.42857142857143</ele><time>2026-04-18T08:54:18.001Z</time></trkpt><trkpt lat="44.465161513640595" lon="11.398635963336645"><ele>81.0</ele><time>2026-04-18T08:54:19.001Z</time></trkpt><trkpt lat="44.46507572511331" lon="11.398757626302215"><ele>80.2</ele><time>2026-04-18T08:54:21.001Z</time></trkpt><trkpt lat="44.46499008332547" lon="11.398892250356079"><ele>79.39999999999999</ele><time>2026-04-18T08:54:23.001Z</time></trkpt><trkpt lat="44.46494916640051" lon="11.398961407730047"><ele>78.6</ele><time>2026-04-18T08:54:24.001Z</time></trkpt><trkpt lat="44.46486902537288" lon="11.39908062085272"><ele>77.8</ele><time>2026-04-18T08:54:26.001Z</time></trkpt><trkpt lat="44.464811908641764" lon="11.399171708362124"><ele>77.0</ele><time>2026-04-18T08:54:28.001Z</time></trkpt><trkpt lat="44.46475772126508" lon="11.399272326455254"><ele>77.0</ele><time>2026-04-18T08:54:31.002Z</time></trkpt><trkpt lat="44.464701156327266" lon="11.399369409730586"><ele>77.0</ele><time>2026-04-18T08:54:44.002Z</time></trkpt><trkpt lat="44.46465784775389" lon="11.399454359148878"><ele>77.0</ele><time>2026-04-18T08:54:47.002Z</time></trkpt><trkpt lat="44.46461583262734" lon="11.399544971592654"><ele>77.0</ele><time>2026-04-18T08:54:50.002Z</time></trkpt><trkpt lat="44.46457540728434" lon="11.399631564281254"><ele>77.0</ele><time>2026-04-18T08:54:53.002Z</time></trkpt><trkpt lat="44.46453373325229" lon="11.399737049763134"><ele>77.0</ele><time>2026-04-18T08:54:55.002Z</time></trkpt><trkpt lat="44.46450067189379" lon="11.399813080748034"><ele>77.5</ele><time>2026-04-18T08:54:56.002Z</time></trkpt><trkpt lat="44.46446177181875" lon="11.399892977517586"><ele>78.0</ele><time>2026-04-18T08:54:57.002Z</time></trkpt><trkpt lat="44.464423442651096" lon="11.399978678698448"><ele>78.5</ele><time>2026-04-18T08:54:58.002Z</time></trkpt><trkpt lat="44.464378477159386" lon="11.400074701544463"><ele>79.0</ele><time>2026-04-18T08:54:59.002Z</time></trkpt><trkpt lat="44.46432750351796" lon="11.400173238381193"><ele>79.5</ele><time>2026-04-18T08:55:00.002Z</time></trkpt><trkpt lat="44.464261325634816" lon="11.400294451910346"><ele>80.0</ele><time>2026-04-18T08:55:01.002Z</time></trkpt><trkpt lat="44.46419687391393" lon="11.400407451323817"><ele>80.0</ele><time>2026-04-18T08:55:02.002Z</time></trkpt><trkpt lat="44.46413315281942" lon="11.400512431392007"><ele>80.0</ele><time>2026-04-18T08:55:03.002Z</time></trkpt><trkpt lat="44.464060680933144" lon="11.40062373071297"><ele>80.0</ele><time>2026-04-18T08:55:04.002Z</time></trkpt><trkpt lat="44.463982231265554" lon="11.400733973398182"><ele>80.0</ele><time>2026-04-18T08:55:05.002Z</time></trkpt><trkpt lat="44.46390708001062" lon="11.400835551456858"><ele>80.0</ele><time>2026-04-18T08:55:06.002Z</time></trkpt><trkpt lat="44.463829520122935" lon="11.400926395989778"><ele>80.16666666666667</ele><time>2026-04-18T08:55:07.002Z</time></trkpt><trkpt lat="44.46375601718678" lon="11.401014030225921"><ele>80.33333333333334</ele><time>2026-04-18T08:55:08.002Z</time></trkpt><trkpt lat="44.46368616481473" lon="11.40109524081307"><ele>80.5</ele><time>2026-04-18T08:55:09.002Z</time></trkpt><trkpt lat="44.46361822488152" lon="11.401176428884058"><ele>80.66666666666667</ele><time>2026-04-18T08:55:10.002Z</time></trkpt><trkpt lat="44.46355751167025" lon="11.401258949238732"><ele>80.83333333333333</ele><time>2026-04-18T08:55:11.002Z</time></trkpt><trkpt lat="44.463500349730644" lon="11.401338925954557"><ele>81.0</ele><time>2026-04-18T08:55:12.002Z</time></trkpt><trkpt lat="44.46344970753487" lon="11.401422044480775"><ele>80.5</ele><time>2026-04-18T08:55:13.002Z</time></trkpt><trkpt lat="44.46340281421515" lon="11.401506657460347"><ele>80.0</ele><time>2026-04-18T08:55:14.002Z</time></trkpt><trkpt lat="44.46335952770807" lon="11.401585787980537"><ele>79.5</ele><time>2026-04-18T08:55:15.002Z</time></trkpt><trkpt lat="44.4633201282357" lon="11.401662241907205"><ele>79.0</ele><time>2026-04-18T08:55:16.002Z</time></trkpt><trkpt lat="44.463285621009696" lon="11.401737710539155"><ele>78.5</ele><time>2026-04-18T08:55:17.002Z</time></trkpt><trkpt lat="44.46321849232739" lon="11.40187385943235"><ele>78.0</ele><time>2026-04-18T08:55:19Z</time></trkpt><trkpt lat="44.46316991728719" lon="11.401983801730314"><ele>78.0</ele><time>2026-04-18T08:55:21Z</time></trkpt><trkpt lat="44.46312749967365" lon="11.40207353740478"><ele>78.0</ele><time>2026-04-18T08:55:55.001Z</time></trkpt><trkpt lat="44.463078070515124" lon="11.402184040162144"><ele>78.0</ele><time>2026-04-18T08:55:57.001Z</time></trkpt><trkpt lat="44.463009627866704" lon="11.4023288536249"><ele>78.0</ele><time>2026-04-18T08:55:59.001Z</time></trkpt><trkpt lat="44.462970013342314" lon="11.402413086863524"><ele>78.0</ele><time>2026-04-18T08:56:00.001Z</time></trkpt><trkpt lat="44.46293046062643" lon="11.40249634084288"><ele>78.0</ele><time>2026-04-18T08:56:01.001Z</time></trkpt><trkpt lat="44.46288907813036" lon="11.402582339415664"><ele>78.0</ele><time>2026-04-18T08:56:02.001Z</time></trkpt><trkpt lat="44.46284683441406" lon="11.402673238216028"><ele>78.0</ele><time>2026-04-18T08:56:03.001Z</time></trkpt><trkpt lat="44.46280828757362" lon="11.4027603421012"><ele>78.0</ele><time>2026-04-18T08:56:04.001Z</time></trkpt><trkpt lat="44.46276657313404" lon="11.402851918965307"><ele>78.0</ele><time>2026-04-18T08:56:05.001Z</time></trkpt><trkpt lat="44.462725363862816" lon="11.40295250086346"><ele>78.0</ele><time>2026-04-18T08:56:06.001Z</time></trkpt><trkpt lat="44.46268117536416" lon="11.403055254905437"><ele>78.0</ele><time>2026-04-18T08:56:07.001Z</time></trkpt><trkpt lat="44.46263841577213" lon="11.403152113341374"><ele>78.14285714285715</ele><time>2026-04-18T08:56:08.001Z</time></trkpt><trkpt lat="44.46259571648926" lon="11.4032359678768"><ele>78.28571428571428</ele><time>2026-04-18T08:56:09.001Z</time></trkpt><trkpt lat="44.46255286021365" lon="11.403312242732548"><ele>78.42857142857143</ele><time>2026-04-18T08:56:10.001Z</time></trkpt><trkpt lat="44.46251033182405" lon="11.403379111970795"><ele>78.57142857142858</ele><time>2026-04-18T08:56:11.001Z</time></trkpt><trkpt lat="44.46246372100216" lon="11.403442560307258"><ele>78.71428571428572</ele><time>2026-04-18T08:56:12.001Z</time></trkpt><trkpt lat="44.462412558380336" lon="11.403500919087197"><ele>78.85714285714286</ele><time>2026-04-18T08:56:13.001Z</time></trkpt><trkpt lat="44.46235555198513" lon="11.403556529235669"><ele>79.0</ele><time>2026-04-18T08:56:14.001Z</time></trkpt><trkpt lat="44.46229076939991" lon="11.40361094127904"><ele>79.0</ele><time>2026-04-18T08:56:15.001Z</time></trkpt><trkpt lat="44.462220057132285" lon="11.403661024290011"><ele>79.0</ele><time>2026-04-18T08:56:16.001Z</time></trkpt><trkpt lat="44.462159361851285" lon="11.403706416295526"><ele>79.0</ele><time>2026-04-18T08:56:17.001Z</time></trkpt><trkpt lat="44.46207930935946" lon="11.403742458359439"><ele>79.0</ele><time>2026-04-18T08:56:18.001Z</time></trkpt><trkpt lat="44.461993311700816" lon="11.40377633515131"><ele>79.0</ele><time>2026-04-18T08:56:19.001Z</time></trkpt><trkpt lat="44.4619072501236" lon="11.40381604805519"><ele>79.0</ele><time>2026-04-18T08:56:20.001Z</time></trkpt><trkpt lat="44.46181964026316" lon="11.403859677651154"><ele>80.2</ele><time>2026-04-18T08:56:21.001Z</time></trkpt><trkpt lat="44.46172514517991" lon="11.403893809552082"><ele>81.4</ele><time>2026-04-18T08:56:22.001Z</time></trkpt><trkpt lat="44.461635033230074" lon="11.40393129366817"><ele>82.6</ele><time>2026-04-18T08:56:23.001Z</time></trkpt><trkpt lat="44.461531837092814" lon="11.403974219952909"><ele>83.8</ele><time>2026-04-18T08:56:24.001Z</time></trkpt><trkpt lat="44.461431286709605" lon="11.404014596187263"><ele>85.0</ele><time>2026-04-18T08:56:25.001Z</time></trkpt><trkpt lat="44.46133945289209" lon="11.404051990772526"><ele>85.0</ele><time>2026-04-18T08:56:26.001Z</time></trkpt><trkpt lat="44.461247775365145" lon="11.40409257012971"><ele>85.0</ele><time>2026-04-18T08:56:27.001Z</time></trkpt><trkpt lat="44.46116793519052" lon="11.404156296666306"><ele>85.0</ele><time>2026-04-18T08:56:28.001Z</time></trkpt><trkpt lat="44.46106710802444" lon="11.404182154775672"><ele>85.0</ele><time>2026-04-18T08:56:29.001Z</time></trkpt><trkpt lat="44.46097683871753" lon="11.404232113351044"><ele>85.0</ele><time>2026-04-18T08:56:30.001Z</time></trkpt><trkpt lat="44.460883233727664" lon="11.404283547970392"><ele>85.0</ele><time>2026-04-18T08:56:31.001Z</time></trkpt><trkpt lat="44.46078789900512" lon="11.404341670914691"><ele>85.0</ele><time>2026-04-18T08:56:32.001Z</time></trkpt><trkpt lat="44.46069535510731" lon="11.404401237236677"><ele>85.0</ele><time>2026-04-18T08:56:33.001Z</time></trkpt><trkpt lat="44.46060711906209" lon="11.404463050235279"><ele>85.0</ele><time>2026-04-18T08:56:34.001Z</time></trkpt><trkpt lat="44.460518370655876" lon="11.404529774060338"><ele>85.0</ele><time>2026-04-18T08:56:35.001Z</time></trkpt><trkpt lat="44.460439065922735" lon="11.404593247441563"><ele>85.4</ele><time>2026-04-18T08:56:36.001Z</time></trkpt><trkpt lat="44.4603559133254" lon="11.4046504947257"><ele>85.8</ele><time>2026-04-18T08:56:37.001Z</time></trkpt><trkpt lat="44.46027994636057" lon="11.404715786421962"><ele>86.19999999999999</ele><time>2026-04-18T08:56:38.001Z</time></trkpt><trkpt lat="44.46020117221367" lon="11.40478543931563"><ele>86.6</ele><time>2026-04-18T08:56:39.001Z</time></trkpt><trkpt lat="44.46012459885253" lon="11.40485871527403"><ele>87.0</ele><time>2026-04-18T08:56:40.001Z</time></trkpt><trkpt lat="44.46004543964415" lon="11.404926604730454"><ele>87.0</ele><time>2026-04-18T08:56:41.001Z</time></trkpt><trkpt lat="44.45995982115813" lon="11.4049900654123"><ele>87.0</ele><time>2026-04-18T08:56:42.001Z</time></trkpt><trkpt lat="44.45986673007207" lon="11.405050087511741"><ele>87.0</ele><time>2026-04-18T08:56:43.001Z</time></trkpt><trkpt lat="44.45976777452595" lon="11.405108869928329"><ele>87.0</ele><time>2026-04-18T08:56:44.001Z</time></trkpt><trkpt lat="44.45966414615603" lon="11.405164323368854"><ele>87.0</ele><time>2026-04-18T08:56:45.002Z</time></trkpt><trkpt lat="44.459555931466646" lon="11.405214067337903"><ele>87.75</ele><time>2026-04-18T08:56:46.002Z</time></trkpt><trkpt lat="44.459439973764766" lon="11.405252704263816"><ele>88.5</ele><time>2026-04-18T08:56:47.002Z</time></trkpt><trkpt lat="44.45932526522588" lon="11.405283186284654"><ele>89.25</ele><time>2026-04-18T08:56:48.002Z</time></trkpt><trkpt lat="44.4592136549101" lon="11.405307306008753"><ele>90.0</ele><time>2026-04-18T08:56:49.002Z</time></trkpt><trkpt lat="44.459102539810935" lon="11.405333336751097"><ele>90.0</ele><time>2026-04-18T08:56:50.002Z</time></trkpt><trkpt lat="44.4589944654707" lon="11.40535771168606"><ele>90.0</ele><time>2026-04-18T08:56:51.002Z</time></trkpt><trkpt lat="44.45888619133257" lon="11.405382197115753"><ele>90.0</ele><time>2026-04-18T08:56:52.002Z</time></trkpt><trkpt lat="44.45877742991225" lon="11.405406928130615"><ele>90.0</ele><time>2026-04-18T08:56:53.002Z</time></trkpt><trkpt lat="44.4586675891123" lon="11.405430058440484"><ele>90.0</ele><time>2026-04-18T08:56:54.002Z</time></trkpt><trkpt lat="44.45855976162153" lon="11.405454460062874"><ele>90.0</ele><time>2026-04-18T08:56:55.002Z</time></trkpt><trkpt lat="44.4584509510482" lon="11.405479331369582"><ele>90.0</ele><time>2026-04-18T08:56:56.002Z</time></trkpt><trkpt lat="44.45835459733583" lon="11.405501950165846"><ele>90.0</ele><time>2026-04-18T08:56:57.002Z</time></trkpt><trkpt lat="44.45826330556141" lon="11.405521972304957"><ele>90.0</ele><time>2026-04-18T08:56:58.002Z</time></trkpt><trkpt lat="44.458172633221544" lon="11.405540302472847"><ele>90.0</ele><time>2026-04-18T08:56:59.002Z</time></trkpt><trkpt lat="44.458088507879694" lon="11.405559186433164"><ele>89.6</ele><time>2026-04-18T08:57:00.002Z</time></trkpt><trkpt lat="44.45801181632853" lon="11.405581603053674"><ele>89.2</ele><time>2026-04-18T08:57:01.002Z</time></trkpt><trkpt lat="44.457937085873056" lon="11.405610321808036"><ele>88.80000000000001</ele><time>2026-04-18T08:57:02.002Z</time></trkpt><trkpt lat="44.45782510825241" lon="11.405665755867734"><ele>88.4</ele><time>2026-04-18T08:57:04.002Z</time></trkpt><trkpt lat="44.45772533603369" lon="11.40570662253528"><ele>88.0</ele><time>2026-04-18T08:57:06.002Z</time></trkpt><trkpt lat="44.45759505101586" lon="11.405737814347606"><ele>88.0</ele><time>2026-04-18T08:57:08.002Z</time></trkpt><trkpt lat="44.45752025878897" lon="11.40577633752269"><ele>88.0</ele><time>2026-04-18T08:57:09.002Z</time></trkpt><trkpt lat="44.457439094826704" lon="11.405809559572461"><ele>88.0</ele><time>2026-04-18T08:57:10.002Z</time></trkpt><trkpt lat="44.457355810473985" lon="11.405812575743989"><ele>88.0</ele><time>2026-04-18T08:57:11.002Z</time></trkpt><trkpt lat="44.45726036780267" lon="11.405793925603373"><ele>88.0</ele><time>2026-04-18T08:57:12.002Z</time></trkpt><trkpt lat="44.45715472667852" lon="11.405785141252816"><ele>87.75</ele><time>2026-04-18T08:57:13.002Z</time></trkpt><trkpt lat="44.457043005035686" lon="11.405794149708434"><ele>87.5</ele><time>2026-04-18T08:57:14.002Z</time></trkpt><trkpt lat="44.45692937099062" lon="11.405815892626663"><ele>87.25</ele><time>2026-04-18T08:57:15.002Z</time></trkpt><trkpt lat="44.456810936840995" lon="11.40583791130542"><ele>87.0</ele><time>2026-04-18T08:57:16.002Z</time></trkpt><trkpt lat="44.45669061760989" lon="11.40585812673663"><ele>87.0</ele><time>2026-04-18T08:57:17.002Z</time></trkpt><trkpt lat="44.456576800311446" lon="11.405880689112237"><ele>87.0</ele><time>2026-04-18T08:57:18.002Z</time></trkpt><trkpt lat="44.456465802429584" lon="11.405903946649893"><ele>87.0</ele><time>2026-04-18T08:57:19.002Z</time></trkpt><trkpt lat="44.45634869485987" lon="11.405933185033197"><ele>87.0</ele><time>2026-04-18T08:57:20.002Z</time></trkpt><trkpt lat="44.45623103001438" lon="11.405957644816013"><ele>87.5</ele><time>2026-04-18T08:57:21.002Z</time></trkpt><trkpt lat="44.45611361431321" lon="11.40598036591992"><ele>88.0</ele><time>2026-04-18T08:57:22.002Z</time></trkpt><trkpt lat="44.455991793302516" lon="11.406004407675285"><ele>88.5</ele><time>2026-04-18T08:57:23.002Z</time></trkpt><trkpt lat="44.455862703125995" lon="11.406033373007919"><ele>89.0</ele><time>2026-04-18T08:57:24Z</time></trkpt><trkpt lat="44.45573018926389" lon="11.406062422054738"><ele>89.0</ele><time>2026-04-18T08:57:25Z</time></trkpt><trkpt lat="44.4555985781585" lon="11.406088259452531"><ele>89.0</ele><time>2026-04-18T08:57:26Z</time></trkpt><trkpt lat="44.45546843179377" lon="11.406121534888632"><ele>89.0</ele><time>2026-04-18T08:57:27Z</time></trkpt><trkpt lat="44.45533640513362" lon="11.40615020042054"><ele>89.0</ele><time>2026-04-18T08:57:28Z</time></trkpt><trkpt lat="44.455205534077166" lon="11.406180554224814"><ele>88.25</ele><time>2026-04-18T08:57:29Z</time></trkpt><trkpt lat="44.45507271298376" lon="11.406213416623773"><ele>87.5</ele><time>2026-04-18T08:57:30Z</time></trkpt><trkpt lat="44.454936217361585" lon="11.406242957448317"><ele>86.75</ele><time>2026-04-18T08:57:31Z</time></trkpt><trkpt lat="44.454802326608565" lon="11.406281690628944"><ele>86.0</ele><time>2026-04-18T08:57:32Z</time></trkpt><trkpt lat="44.45467197287953" lon="11.406326201940066"><ele>85.25</ele><time>2026-04-18T08:57:33Z</time></trkpt><trkpt lat="44.45453858075206" lon="11.406375531100785"><ele>84.5</ele><time>2026-04-18T08:57:34Z</time></trkpt><trkpt lat="44.45440560673097" lon="11.406436883111413"><ele>83.75</ele><time>2026-04-18T08:57:35Z</time></trkpt><trkpt lat="44.454267794141344" lon="11.40650130750216"><ele>83.0</ele><time>2026-04-18T08:57:36Z</time></trkpt><trkpt lat="44.45413101924084" lon="11.406566319797623"><ele>83.0</ele><time>2026-04-18T08:57:37Z</time></trkpt><trkpt lat="44.45399465173525" lon="11.406633107707721"><ele>83.0</ele><time>2026-04-18T08:57:38Z</time></trkpt><trkpt lat="44.45386179185418" lon="11.40670499347166"><ele>83.0</ele><time>2026-04-18T08:57:39Z</time></trkpt><trkpt lat="44.45372962822704" lon="11.406771765372667"><ele>83.0</ele><time>2026-04-18T08:57:40Z</time></trkpt><trkpt lat="44.4535990163859" lon="11.406833570691743"><ele>84.0</ele><time>2026-04-18T08:57:41Z</time></trkpt><trkpt lat="44.453463570953886" lon="11.40690082641784"><ele>85.0</ele><time>2026-04-18T08:57:42Z</time></trkpt><trkpt lat="44.45332751596656" lon="11.406971987007612"><ele>86.0</ele><time>2026-04-18T08:57:43Z</time></trkpt><trkpt lat="44.45319202641246" lon="11.407039757960883"><ele>87.0</ele><time>2026-04-18T08:57:44Z</time></trkpt><trkpt lat="44.45305470065642" lon="11.407096728794995"><ele>86.75</ele><time>2026-04-18T08:57:45Z</time></trkpt><trkpt lat="44.45291501101567" lon="11.407142052543001"><ele>86.5</ele><time>2026-04-18T08:57:46Z</time></trkpt><trkpt lat="44.452781094859574" lon="11.407175652734502"><ele>86.25</ele><time>2026-04-18T08:57:47Z</time></trkpt><trkpt lat="44.452649739810596" lon="11.40720521774351"><ele>86.0</ele><time>2026-04-18T08:57:48Z</time></trkpt><trkpt lat="44.45251568622075" lon="11.40723148167101"><ele>86.0</ele><time>2026-04-18T08:57:49Z</time></trkpt><trkpt lat="44.45238817290933" lon="11.40725416851568"><ele>86.0</ele><time>2026-04-18T08:57:50Z</time></trkpt><trkpt lat="44.45226216604692" lon="11.407274061207994"><ele>86.0</ele><time>2026-04-18T08:57:51Z</time></trkpt><trkpt lat="44.45213723232797" lon="11.407285163779479"><ele>86.0</ele><time>2026-04-18T08:57:52Z</time></trkpt><trkpt lat="44.45201846753853" lon="11.407302285755298"><ele>85.8</ele><time>2026-04-18T08:57:53Z</time></trkpt><trkpt lat="44.451909784014255" lon="11.40731524163462"><ele>85.6</ele><time>2026-04-18T08:57:54Z</time></trkpt><trkpt lat="44.45180584410234" lon="11.407324962763955"><ele>85.4</ele><time>2026-04-18T08:57:55Z</time></trkpt><trkpt lat="44.45170642586059" lon="11.407344562527433"><ele>85.2</ele><time>2026-04-18T08:57:56Z</time></trkpt><trkpt lat="44.451615590358905" lon="11.407373845466145"><ele>85.0</ele><time>2026-04-18T08:57:57Z</time></trkpt><trkpt lat="44.451530816004095" lon="11.407407586121531"><ele>85.0</ele><time>2026-04-18T08:57:58Z</time></trkpt><trkpt lat="44.45143979428864" lon="11.40743324930985"><ele>85.0</ele><time>2026-04-18T08:57:59Z</time></trkpt><trkpt lat="44.45134427389762" lon="11.40742761105"><ele>85.0</ele><time>2026-04-18T08:58:00Z</time></trkpt><trkpt lat="44.451249660063375" lon="11.40741072877238"><ele>85.0</ele><time>2026-04-18T08:58:01Z</time></trkpt><trkpt lat="44.451152604824074" lon="11.407394762518049"><ele>85.0</ele><time>2026-04-18T08:58:02.001Z</time></trkpt><trkpt lat="44.45105119272222" lon="11.407395618599411"><ele>85.8</ele><time>2026-04-18T08:58:03.001Z</time></trkpt><trkpt lat="44.450952920546584" lon="11.407407699058593"><ele>86.6</ele><time>2026-04-18T08:58:04.001Z</time></trkpt><trkpt lat="44.45085403753581" lon="11.407424027974738"><ele>87.4</ele><time>2026-04-18T08:58:05.001Z</time></trkpt><trkpt lat="44.450752830547806" lon="11.407443908273711"><ele>88.2</ele><time>2026-04-18T08:58:06.001Z</time></trkpt><trkpt lat="44.45065031675523" lon="11.407459917173934"><ele>89.0</ele><time>2026-04-18T08:58:07.001Z</time></trkpt><trkpt lat="44.450544460951576" lon="11.40747684541427"><ele>89.80000000000001</ele><time>2026-04-18T08:58:08.001Z</time></trkpt><trkpt lat="44.450439717211964" lon="11.407488244890276"><ele>90.60000000000001</ele><time>2026-04-18T08:58:09.001Z</time></trkpt><trkpt lat="44.450328985011" lon="11.407502486406836"><ele>91.4</ele><time>2026-04-18T08:58:10.001Z</time></trkpt><trkpt lat="44.450220536420986" lon="11.407519111484403"><ele>92.2</ele><time>2026-04-18T08:58:11.001Z</time></trkpt><trkpt lat="44.45010950124782" lon="11.407536649304623"><ele>93.0</ele><time>2026-04-18T08:58:12.001Z</time></trkpt><trkpt lat="44.45000116896909" lon="11.40755554794644"><ele>93.0</ele><time>2026-04-18T08:58:13.001Z</time></trkpt><trkpt lat="44.44988684828273" lon="11.407572679288542"><ele>93.0</ele><time>2026-04-18T08:58:14.001Z</time></trkpt><trkpt lat="44.44977800495583" lon="11.407587437301173"><ele>93.0</ele><time>2026-04-18T08:58:15.001Z</time></trkpt><trkpt lat="44.44966974968527" lon="11.40760350641156"><ele>93.0</ele><time>2026-04-18T08:58:16.001Z</time></trkpt><trkpt lat="44.449569239824214" lon="11.407619793349868"><ele>93.0</ele><time>2026-04-18T08:58:17.001Z</time></trkpt><trkpt lat="44.44946977169871" lon="11.407656320714798"><ele>93.0</ele><time>2026-04-18T08:58:18.001Z</time></trkpt><trkpt lat="44.44938286178008" lon="11.407712022325924"><ele>93.0</ele><time>2026-04-18T08:58:19.001Z</time></trkpt><trkpt lat="44.449301087961594" lon="11.407775778456223"><ele>93.0</ele><time>2026-04-18T08:58:20.001Z</time></trkpt><trkpt lat="44.44926106085494" lon="11.407927113872951"><ele>93.0</ele><time>2026-04-18T08:58:21.001Z</time></trkpt><trkpt lat="44.44924924844548" lon="11.40806046777004"><ele>93.0</ele><time>2026-04-18T08:58:22.001Z</time></trkpt><trkpt lat="44.449213832941304" lon="11.408201817841086"><ele>93.2</ele><time>2026-04-18T08:58:23.001Z</time></trkpt><trkpt lat="44.44919287070686" lon="11.408343005440896"><ele>93.4</ele><time>2026-04-18T08:58:24.001Z</time></trkpt><trkpt lat="44.44918525225458" lon="11.408498779388404"><ele>93.60000000000001</ele><time>2026-04-18T08:58:25.001Z</time></trkpt><trkpt lat="44.44915964689662" lon="11.408645083442444"><ele>93.80000000000001</ele><time>2026-04-18T08:58:26.001Z</time></trkpt><trkpt lat="44.449137420426624" lon="11.408797463957088"><ele>94.0</ele><time>2026-04-18T08:58:27.001Z</time></trkpt><trkpt lat="44.44911205303096" lon="11.408948293222952"><ele>94.0</ele><time>2026-04-18T08:58:28.001Z</time></trkpt><trkpt lat="44.44909505224784" lon="11.409090352496992"><ele>94.0</ele><time>2026-04-18T08:58:29.001Z</time></trkpt><trkpt lat="44.44907333293136" lon="11.409238915897987"><ele>94.0</ele><time>2026-04-18T08:58:30.001Z</time></trkpt><trkpt lat="44.44903939941881" lon="11.409323003981317"><ele>94.0</ele><time>2026-04-18T08:58:31.001Z</time></trkpt><trkpt lat="44.44894915759233" lon="11.40942249262588"><ele>94.0</ele><time>2026-04-18T08:58:33.001Z</time></trkpt><trkpt lat="44.448845619329056" lon="11.40942397650232"><ele>93.6</ele><time>2026-04-18T08:58:34.001Z</time></trkpt><trkpt lat="44.44876846481608" lon="11.409393396575295"><ele>93.2</ele><time>2026-04-18T08:58:35.001Z</time></trkpt><trkpt lat="44.44866878237252" lon="11.409362018819362"><ele>92.8</ele><time>2026-04-18T08:58:36.001Z</time></trkpt><trkpt lat="44.448562761211114" lon="11.409324655842038"><ele>92.39999999999999</ele><time>2026-04-18T08:58:37.001Z</time></trkpt><trkpt lat="44.44844436247361" lon="11.409280010441954"><ele>92.0</ele><time>2026-04-18T08:58:38.001Z</time></trkpt><trkpt lat="44.44832178749609" lon="11.409242354009306"><ele>92.0</ele><time>2026-04-18T08:58:39.001Z</time></trkpt><trkpt lat="44.448191000111144" lon="11.40919202460048"><ele>92.0</ele><time>2026-04-18T08:58:40.001Z</time></trkpt><trkpt lat="44.44805153806071" lon="11.409143115419276"><ele>92.0</ele><time>2026-04-18T08:58:41.001Z</time></trkpt><trkpt lat="44.44790318879202" lon="11.409092754318824"><ele>92.0</ele><time>2026-04-18T08:58:42.001Z</time></trkpt><trkpt lat="44.44774633236046" lon="11.40904097071389"><ele>92.0</ele><time>2026-04-18T08:58:43.001Z</time></trkpt><trkpt lat="44.44758765736202" lon="11.408988764625448"><ele>92.0</ele><time>2026-04-18T08:58:44.001Z</time></trkpt><trkpt lat="44.44743199565095" lon="11.408936025644385"><ele>92.0</ele><time>2026-04-18T08:58:45.001Z</time></trkpt><trkpt lat="44.44727758888181" lon="11.408881242347833"><ele>93.0</ele><time>2026-04-18T08:58:46.001Z</time></trkpt><trkpt lat="44.447125051900876" lon="11.408824418899224"><ele>94.0</ele><time>2026-04-18T08:58:47.001Z</time></trkpt><trkpt lat="44.446967335821384" lon="11.408766041752868"><ele>95.0</ele><time>2026-04-18T08:58:48.001Z</time></trkpt><trkpt lat="44.44681854460089" lon="11.40871254816343"><ele>95.0</ele><time>2026-04-18T08:58:49.001Z</time></trkpt><trkpt lat="44.44667809121853" lon="11.408661693904397"><ele>95.0</ele><time>2026-04-18T08:58:50.001Z</time></trkpt><trkpt lat="44.44654818018339" lon="11.408614143501968"><ele>95.0</ele><time>2026-04-18T08:58:51.001Z</time></trkpt><trkpt lat="44.446425219728766" lon="11.408567456511417"><ele>95.0</ele><time>2026-04-18T08:58:52.002Z</time></trkpt><trkpt lat="44.44630189146637" lon="11.408527070209699"><ele>94.75</ele><time>2026-04-18T08:58:53.002Z</time></trkpt><trkpt lat="44.446181986198916" lon="11.408481474770745"><ele>94.5</ele><time>2026-04-18T08:58:54.002Z</time></trkpt><trkpt lat="44.446063998745046" lon="11.408431403049528"><ele>94.25</ele><time>2026-04-18T08:58:55.002Z</time></trkpt><trkpt lat="44.44594875154415" lon="11.408396913518537"><ele>94.0</ele><time>2026-04-18T08:58:56.002Z</time></trkpt><trkpt lat="44.44584406203316" lon="11.40834965327963"><ele>94.0</ele><time>2026-04-18T08:58:57.002Z</time></trkpt><trkpt lat="44.445731225718134" lon="11.408315298737195"><ele>94.0</ele><time>2026-04-18T08:58:58.002Z</time></trkpt><trkpt lat="44.44561497646864" lon="11.408278377386166"><ele>94.0</ele><time>2026-04-18T08:58:59.002Z</time></trkpt><trkpt lat="44.445502047581385" lon="11.408239128759948"><ele>94.0</ele><time>2026-04-18T08:59:00.002Z</time></trkpt><trkpt lat="44.445390470772814" lon="11.408200971150368"><ele>93.75</ele><time>2026-04-18T08:59:01.002Z</time></trkpt><trkpt lat="44.445265101167365" lon="11.408157450616311"><ele>93.5</ele><time>2026-04-18T08:59:02.002Z</time></trkpt><trkpt lat="44.44514205004455" lon="11.408114396547157"><ele>93.25</ele><time>2026-04-18T08:59:03.002Z</time></trkpt><trkpt lat="44.4450162055075" lon="11.408068918470152"><ele>93.0</ele><time>2026-04-18T08:59:04.002Z</time></trkpt><trkpt lat="44.4448951025687" lon="11.40802813763603"><ele>93.4</ele><time>2026-04-18T08:59:05.002Z</time></trkpt><trkpt lat="44.44478569125374" lon="11.407990741930165"><ele>93.80000000000001</ele><time>2026-04-18T08:59:06.002Z</time></trkpt><trkpt lat="44.44468678099941" lon="11.40795656763443"><ele>94.2</ele><time>2026-04-18T08:59:07.002Z</time></trkpt><trkpt lat="44.44459167916606" lon="11.407922989930011"><ele>94.6</ele><time>2026-04-18T08:59:08.002Z</time></trkpt><trkpt lat="44.444493443231764" lon="11.407890020821498"><ele>95.0</ele><time>2026-04-18T08:59:09.002Z</time></trkpt><trkpt lat="44.444394884836456" lon="11.407857842600231"><ele>95.0</ele><time>2026-04-18T08:59:10.002Z</time></trkpt><trkpt lat="44.4442989483114" lon="11.407824468451109"><ele>95.0</ele><time>2026-04-18T08:59:11.002Z</time></trkpt><trkpt lat="44.44421276444772" lon="11.407795761228464"><ele>95.0</ele><time>2026-04-18T08:59:12.002Z</time></trkpt><trkpt lat="44.44414209319847" lon="11.407774796801998"><ele>95.0</ele><time>2026-04-18T08:59:13.002Z</time></trkpt><trkpt lat="44.444063706956214" lon="11.407749291213092"><ele>95.0</ele><time>2026-04-18T08:59:14.002Z</time></trkpt><trkpt lat="44.44397310525954" lon="11.407721015345654"><ele>95.0</ele><time>2026-04-18T08:59:15.002Z</time></trkpt><trkpt lat="44.443868976538766" lon="11.407661208343802"><ele>94.0</ele><time>2026-04-18T08:59:16.002Z</time></trkpt><trkpt lat="44.44373910954072" lon="11.407615784470849"><ele>93.0</ele><time>2026-04-18T08:59:17.002Z</time></trkpt><trkpt lat="44.44359498983439" lon="11.407562342418942"><ele>92.0</ele><time>2026-04-18T08:59:18.002Z</time></trkpt><trkpt lat="44.44344610727389" lon="11.407513124200673"><ele>91.0</ele><time>2026-04-18T08:59:19.002Z</time></trkpt><trkpt lat="44.443301521955576" lon="11.407465993983669"><ele>91.0</ele><time>2026-04-18T08:59:20.002Z</time></trkpt><trkpt lat="44.443156043459396" lon="11.407418683218262"><ele>91.0</ele><time>2026-04-18T08:59:21.002Z</time></trkpt><trkpt lat="44.44301707073143" lon="11.40737519852399"><ele>91.0</ele><time>2026-04-18T08:59:22.002Z</time></trkpt><trkpt lat="44.44287987828395" lon="11.40732512739369"><ele>91.0</ele><time>2026-04-18T08:59:23.002Z</time></trkpt><trkpt lat="44.442744049692905" lon="11.407268681267121"><ele>90.5</ele><time>2026-04-18T08:59:24.002Z</time></trkpt><trkpt lat="44.44260549412949" lon="11.407210374656312"><ele>90.0</ele><time>2026-04-18T08:59:25.002Z</time></trkpt><trkpt lat="44.44246169716968" lon="11.407168633979937"><ele>89.5</ele><time>2026-04-18T08:59:26.002Z</time></trkpt><trkpt lat="44.44231469322354" lon="11.40712268167619"><ele>89.0</ele><time>2026-04-18T08:59:27.002Z</time></trkpt><trkpt lat="44.44216966307042" lon="11.407068926890119"><ele>89.25</ele><time>2026-04-18T08:59:28.002Z</time></trkpt><trkpt lat="44.44202379494714" lon="11.407016165453532"><ele>89.5</ele><time>2026-04-18T08:59:29.002Z</time></trkpt><trkpt lat="44.44187745915772" lon="11.4069664879111"><ele>89.75</ele><time>2026-04-18T08:59:30Z</time></trkpt><trkpt lat="44.44173385545255" lon="11.406916920457958"><ele>90.0</ele><time>2026-04-18T08:59:31Z</time></trkpt><trkpt lat="44.44159220789706" lon="11.406867848750416"><ele>90.0</ele><time>2026-04-18T08:59:32Z</time></trkpt><trkpt lat="44.441449444885016" lon="11.406818112879888"><ele>90.0</ele><time>2026-04-18T08:59:33Z</time></trkpt><trkpt lat="44.44130978118785" lon="11.406768511324039"><ele>90.0</ele><time>2026-04-18T08:59:34Z</time></trkpt><trkpt lat="44.44117845981187" lon="11.406721389899836"><ele>90.0</ele><time>2026-04-18T08:59:35Z</time></trkpt><trkpt lat="44.44105497957024" lon="11.406673289141843"><ele>89.4</ele><time>2026-04-18T08:59:36Z</time></trkpt><trkpt lat="44.44094794980951" lon="11.406639931633919"><ele>88.8</ele><time>2026-04-18T08:59:37Z</time></trkpt><trkpt lat="44.44083274663556" lon="11.406657857297823"><ele>88.19999999999999</ele><time>2026-04-18T08:59:38Z</time></trkpt><trkpt lat="44.44075473739488" lon="11.406724383465123"><ele>87.6</ele><time>2026-04-18T08:59:39Z</time></trkpt><trkpt lat="44.4406905057663" lon="11.406840416558857"><ele>87.0</ele><time>2026-04-18T08:59:40Z</time></trkpt><trkpt lat="44.44063782773074" lon="11.406985515249184"><ele>87.0</ele><time>2026-04-18T08:59:41Z</time></trkpt><trkpt lat="44.44058678861058" lon="11.407152586340779"><ele>87.0</ele><time>2026-04-18T08:59:42Z</time></trkpt><trkpt lat="44.440529258400474" lon="11.407315571070201"><ele>87.0</ele><time>2026-04-18T08:59:43Z</time></trkpt><trkpt lat="44.440471711324186" lon="11.407474064022274"><ele>87.0</ele><time>2026-04-18T08:59:44Z</time></trkpt><trkpt lat="44.44042024013286" lon="11.407629324753584"><ele>87.0</ele><time>2026-04-18T08:59:45Z</time></trkpt><trkpt lat="44.44037030004049" lon="11.407791891510593"><ele>87.0</ele><time>2026-04-18T08:59:46Z</time></trkpt><trkpt lat="44.440311544256474" lon="11.407964240860293"><ele>87.0</ele><time>2026-04-18T08:59:47Z</time></trkpt><trkpt lat="44.44025088479231" lon="11.408130954882207"><ele>87.0</ele><time>2026-04-18T08:59:48Z</time></trkpt><trkpt lat="44.44020060212389" lon="11.408286355695916"><ele>87.0</ele><time>2026-04-18T08:59:49Z</time></trkpt><trkpt lat="44.44014311494831" lon="11.408403222133622"><ele>87.0</ele><time>2026-04-18T08:59:50Z</time></trkpt><trkpt lat="44.44009521900069" lon="11.408524003830385"><ele>87.0</ele><time>2026-04-18T08:59:51Z</time></trkpt><trkpt lat="44.44000368931586" lon="11.408601101719661"><ele>87.0</ele><time>2026-04-18T08:59:52Z</time></trkpt><trkpt lat="44.43989098064469" lon="11.408641043353573"><ele>87.0</ele><time>2026-04-18T08:59:53Z</time></trkpt><trkpt lat="44.43976647731113" lon="11.408642586191174"><ele>87.0</ele><time>2026-04-18T08:59:54Z</time></trkpt><trkpt lat="44.439636066639494" lon="11.408635135795569"><ele>87.0</ele><time>2026-04-18T08:59:55Z</time></trkpt><trkpt lat="44.4394934893471" lon="11.408619674161105"><ele>87.0</ele><time>2026-04-18T08:59:56Z</time></trkpt><trkpt lat="44.439344093423735" lon="11.408596004847816"><ele>87.0</ele><time>2026-04-18T08:59:57Z</time></trkpt><trkpt lat="44.43918870710331" lon="11.408569988638975"><ele>86.25</ele><time>2026-04-18T08:59:58Z</time></trkpt><trkpt lat="44.439044954155825" lon="11.408547109787547"><ele>85.5</ele><time>2026-04-18T08:59:59Z</time></trkpt><trkpt lat="44.43892980451287" lon="11.40852319170062"><ele>84.75</ele><time>2026-04-18T09:00:00Z</time></trkpt><trkpt lat="44.43880472665251" lon="11.408498641108723"><ele>84.0</ele><time>2026-04-18T09:00:01Z</time></trkpt><trkpt lat="44.43866596958239" lon="11.408463921627064"><ele>83.75</ele><time>2026-04-18T09:00:02Z</time></trkpt><trkpt lat="44.43851940109455" lon="11.408420937380777"><ele>83.5</ele><time>2026-04-18T09:00:03Z</time></trkpt><trkpt lat="44.438380303320905" lon="11.408380593077581"><ele>83.25</ele><time>2026-04-18T09:00:04Z</time></trkpt><trkpt lat="44.438249807756215" lon="11.408341128978124"><ele>83.0</ele><time>2026-04-18T09:00:05Z</time></trkpt><trkpt lat="44.438119853391235" lon="11.408300302102823"><ele>83.0</ele><time>2026-04-18T09:00:06Z</time></trkpt><trkpt lat="44.43799243639104" lon="11.408262514767618"><ele>83.0</ele><time>2026-04-18T09:00:07Z</time></trkpt><trkpt lat="44.43786778572293" lon="11.408222241070405"><ele>83.0</ele><time>2026-04-18T09:00:08.001Z</time></trkpt><trkpt lat="44.437750495737895" lon="11.408182758900256"><ele>83.0</ele><time>2026-04-18T09:00:09.001Z</time></trkpt><trkpt lat="44.4376385973639" lon="11.408141984694273"><ele>83.0</ele><time>2026-04-18T09:00:10.001Z</time></trkpt><trkpt lat="44.43753186747125" lon="11.408098854271234"><ele>83.0</ele><time>2026-04-18T09:00:11.001Z</time></trkpt><trkpt lat="44.4374356934732" lon="11.408057681286877"><ele>83.0</ele><time>2026-04-18T09:00:12.001Z</time></trkpt><trkpt lat="44.43734270841372" lon="11.408014420576412"><ele>83.0</ele><time>2026-04-18T09:00:13.001Z</time></trkpt><trkpt lat="44.43725152765903" lon="11.407968656099916"><ele>83.0</ele><time>2026-04-18T09:00:14.001Z</time></trkpt><trkpt lat="44.437160502627755" lon="11.407919172332758"><ele>82.4</ele><time>2026-04-18T09:00:15.001Z</time></trkpt><trkpt lat="44.43706411503621" lon="11.407864886100008"><ele>81.80000000000001</ele><time>2026-04-18T09:00:16.001Z</time></trkpt><trkpt lat="44.43696910155073" lon="11.407809843603344"><ele>81.2</ele><time>2026-04-18T09:00:17.001Z</time></trkpt><trkpt lat="44.43687706848278" lon="11.407748011148758"><ele>80.6</ele><time>2026-04-18T09:00:18.001Z</time></trkpt><trkpt lat="44.43678685760789" lon="11.40767847547077"><ele>80.0</ele><time>2026-04-18T09:00:19.001Z</time></trkpt><trkpt lat="44.43670488072431" lon="11.407602885767956"><ele>80.0</ele><time>2026-04-18T09:00:20.001Z</time></trkpt><trkpt lat="44.43662561291251" lon="11.407514348557266"><ele>80.0</ele><time>2026-04-18T09:00:21.001Z</time></trkpt><trkpt lat="44.436546916307314" lon="11.407419138619364"><ele>80.0</ele><time>2026-04-18T09:00:22.001Z</time></trkpt><trkpt lat="44.43646790032809" lon="11.407320791773778"><ele>80.0</ele><time>2026-04-18T09:00:23.001Z</time></trkpt><trkpt lat="44.43639745573244" lon="11.407223013858674"><ele>80.0</ele><time>2026-04-18T09:00:24.001Z</time></trkpt><trkpt lat="44.436323313600504" lon="11.407117582047068"><ele>80.75</ele><time>2026-04-18T09:00:25.001Z</time></trkpt><trkpt lat="44.436234430873306" lon="11.407001152807705"><ele>81.5</ele><time>2026-04-18T09:00:26.001Z</time></trkpt><trkpt lat="44.43614746503977" lon="11.406882483933858"><ele>82.25</ele><time>2026-04-18T09:00:27.001Z</time></trkpt><trkpt lat="44.436064948043736" lon="11.406767507879165"><ele>83.0</ele><time>2026-04-18T09:00:28.001Z</time></trkpt><trkpt lat="44.43598575350554" lon="11.40664082241732"><ele>83.0</ele><time>2026-04-18T09:00:29.001Z</time></trkpt><trkpt lat="44.43591300435878" lon="11.406511711321818"><ele>83.0</ele><time>2026-04-18T09:00:30.001Z</time></trkpt><trkpt lat="44.435842324915875" lon="11.406385002208541"><ele>83.0</ele><time>2026-04-18T09:00:31.001Z</time></trkpt><trkpt lat="44.435769922656306" lon="11.406263521191969"><ele>83.0</ele><time>2026-04-18T09:00:32.001Z</time></trkpt><trkpt lat="44.435696353860244" lon="11.406147422379282"><ele>83.4</ele><time>2026-04-18T09:00:33.001Z</time></trkpt><trkpt lat="44.43562182096296" lon="11.40603169452237"><ele>83.80000000000001</ele><time>2026-04-18T09:00:34.001Z</time></trkpt><trkpt lat="44.435548492759956" lon="11.405918918224264"><ele>84.2</ele><time>2026-04-18T09:00:35.001Z</time></trkpt><trkpt lat="44.43546791512606" lon="11.405809842292593"><ele>84.6</ele><time>2026-04-18T09:00:36.001Z</time></trkpt><trkpt lat="44.435381640409894" lon="11.405705760796424"><ele>85.0</ele><time>2026-04-18T09:00:37.001Z</time></trkpt><trkpt lat="44.435288980505405" lon="11.405613180627274"><ele>86.0</ele><time>2026-04-18T09:00:38.001Z</time></trkpt><trkpt lat="44.435190271776534" lon="11.405531171813339"><ele>87.0</ele><time>2026-04-18T09:00:39.001Z</time></trkpt><trkpt lat="44.435081825660575" lon="11.405463664662268"><ele>88.0</ele><time>2026-04-18T09:00:40.001Z</time></trkpt><trkpt lat="44.434974149773346" lon="11.405400692238997"><ele>89.0</ele><time>2026-04-18T09:00:41.001Z</time></trkpt><trkpt lat="44.43486413224259" lon="11.405338200790148"><ele>89.0</ele><time>2026-04-18T09:00:42.001Z</time></trkpt><trkpt lat="44.434754201744155" lon="11.40527897630869"><ele>89.0</ele><time>2026-04-18T09:00:43.001Z</time></trkpt><trkpt lat="44.43464884999565" lon="11.405224388862798"><ele>89.0</ele><time>2026-04-18T09:00:44.001Z</time></trkpt><trkpt lat="44.43454946307239" lon="11.405170459421553"><ele>89.0</ele><time>2026-04-18T09:00:45.001Z</time></trkpt><trkpt lat="44.434457032730094" lon="11.4051182405551"><ele>89.0</ele><time>2026-04-18T09:00:46.001Z</time></trkpt><trkpt lat="44.43436285427081" lon="11.405060219225126"><ele>90.2</ele><time>2026-04-18T09:00:47.001Z</time></trkpt><trkpt lat="44.434270017532064" lon="11.404997263361782"><ele>91.4</ele><time>2026-04-18T09:00:48.001Z</time></trkpt><trkpt lat="44.4341789690886" lon="11.404925534220258"><ele>92.6</ele><time>2026-04-18T09:00:49.001Z</time></trkpt><trkpt lat="44.434085438337014" lon="11.404855313558777"><ele>93.8</ele><time>2026-04-18T09:00:50.001Z</time></trkpt><trkpt lat="44.43399419012505" lon="11.404777232900782"><ele>95.0</ele><time>2026-04-18T09:00:51.001Z</time></trkpt><trkpt lat="44.43390061064516" lon="11.40469122101312"><ele>95.75</ele><time>2026-04-18T09:00:52.001Z</time></trkpt><trkpt lat="44.43380019876179" lon="11.404609010657197"><ele>96.5</ele><time>2026-04-18T09:00:53.001Z</time></trkpt><trkpt lat="44.43370156719365" lon="11.404522658894443"><ele>97.25</ele><time>2026-04-18T09:00:54.001Z</time></trkpt><trkpt lat="44.433599435949866" lon="11.404428459304315"><ele>98.0</ele><time>2026-04-18T09:00:55.001Z</time></trkpt><trkpt lat="44.43349889196965" lon="11.404336404408756"><ele>98.0</ele><time>2026-04-18T09:00:56.001Z</time></trkpt><trkpt lat="44.43339934509522" lon="11.404245808605955"><ele>98.0</ele><time>2026-04-18T09:00:57.002Z</time></trkpt><trkpt lat="44.43329884881455" lon="11.40415451517876"><ele>98.0</ele><time>2026-04-18T09:00:58.002Z</time></trkpt><trkpt lat="44.43320042885044" lon="11.404064114085685"><ele>98.0</ele><time>2026-04-18T09:00:59.002Z</time></trkpt><trkpt lat="44.433105963873516" lon="11.40397526489993"><ele>98.0</ele><time>2026-04-18T09:01:00.002Z</time></trkpt><trkpt lat="44.43301069829096" lon="11.403884204000722"><ele>98.0</ele><time>2026-04-18T09:01:01.002Z</time></trkpt><trkpt lat="44.43291549096539" lon="11.403797432724241"><ele>98.0</ele><time>2026-04-18T09:01:02.002Z</time></trkpt><trkpt lat="44.432823599275736" lon="11.403719592830862"><ele>98.0</ele><time>2026-04-18T09:01:03.002Z</time></trkpt><trkpt lat="44.43272732290329" lon="11.40364554018276"><ele>98.0</ele><time>2026-04-18T09:01:04.002Z</time></trkpt><trkpt lat="44.43262280683451" lon="11.403569052252703"><ele>96.25</ele><time>2026-04-18T09:01:05.002Z</time></trkpt><trkpt lat="44.43252435810865" lon="11.403493244269486"><ele>94.5</ele><time>2026-04-18T09:01:06.002Z</time></trkpt><trkpt lat="44.432432844508234" lon="11.403407341694738"><ele>92.75</ele><time>2026-04-18T09:01:07.002Z</time></trkpt><trkpt lat="44.43234088108521" lon="11.403307205532988"><ele>91.0</ele><time>2026-04-18T09:01:08.002Z</time></trkpt><trkpt lat="44.43225386809782" lon="11.403186548076013"><ele>91.0</ele><time>2026-04-18T09:01:09.002Z</time></trkpt><trkpt lat="44.43217053712929" lon="11.403048370342976"><ele>91.0</ele><time>2026-04-18T09:01:10.002Z</time></trkpt><trkpt lat="44.43207761929393" lon="11.402910353569103"><ele>91.0</ele><time>2026-04-18T09:01:11.002Z</time></trkpt><trkpt lat="44.43197567729941" lon="11.402788792713576"><ele>91.0</ele><time>2026-04-18T09:01:12.002Z</time></trkpt><trkpt lat="44.4318733947928" lon="11.402683590196208"><ele>91.25</ele><time>2026-04-18T09:01:13.002Z</time></trkpt><trkpt lat="44.43176878466131" lon="11.402582478156573"><ele>91.5</ele><time>2026-04-18T09:01:14.002Z</time></trkpt><trkpt lat="44.43166352768937" lon="11.402477186481216"><ele>91.75</ele><time>2026-04-18T09:01:15.002Z</time></trkpt><trkpt lat="44.431551244156836" lon="11.402385103905047"><ele>92.0</ele><time>2026-04-18T09:01:16.002Z</time></trkpt><trkpt lat="44.43143927181766" lon="11.402297226224816"><ele>92.0</ele><time>2026-04-18T09:01:17.002Z</time></trkpt><trkpt lat="44.431329463193684" lon="11.402205792450356"><ele>92.0</ele><time>2026-04-18T09:01:18.002Z</time></trkpt><trkpt lat="44.431221949887224" lon="11.402115300366228"><ele>92.0</ele><time>2026-04-18T09:01:19.002Z</time></trkpt><trkpt lat="44.43110842909385" lon="11.402030382933408"><ele>92.0</ele><time>2026-04-18T09:01:20.002Z</time></trkpt><trkpt lat="44.43098929124542" lon="11.401945648350328"><ele>91.75</ele><time>2026-04-18T09:01:21.002Z</time></trkpt><trkpt lat="44.43086755572864" lon="11.401857570779587"><ele>91.5</ele><time>2026-04-18T09:01:22.002Z</time></trkpt><trkpt lat="44.43074819154944" lon="11.401767159485734"><ele>91.25</ele><time>2026-04-18T09:01:23.002Z</time></trkpt><trkpt lat="44.43063184127274" lon="11.401671985061645"><ele>91.0</ele><time>2026-04-18T09:01:24.002Z</time></trkpt><trkpt lat="44.43051500128037" lon="11.401578381002542"><ele>90.75</ele><time>2026-04-18T09:01:25.002Z</time></trkpt><trkpt lat="44.430404527871985" lon="11.401487056663646"><ele>90.5</ele><time>2026-04-18T09:01:26.002Z</time></trkpt><trkpt lat="44.43029609494515" lon="11.401397375257563"><ele>90.25</ele><time>2026-04-18T09:01:27.002Z</time></trkpt><trkpt lat="44.43019181459477" lon="11.401305000928883"><ele>90.0</ele><time>2026-04-18T09:01:28.002Z</time></trkpt><trkpt lat="44.430087805243936" lon="11.401216724184149"><ele>90.0</ele><time>2026-04-18T09:01:29.002Z</time></trkpt><trkpt lat="44.429988214931434" lon="11.401126835255727"><ele>90.0</ele><time>2026-04-18T09:01:30.002Z</time></trkpt><trkpt lat="44.42988610478515" lon="11.401039446398343"><ele>90.0</ele><time>2026-04-18T09:01:31.002Z</time></trkpt><trkpt lat="44.429786373410174" lon="11.400949520116432"><ele>90.0</ele><time>2026-04-18T09:01:32.002Z</time></trkpt><trkpt lat="44.42969013212267" lon="11.400865918461236"><ele>90.2</ele><time>2026-04-18T09:01:33.002Z</time></trkpt><trkpt lat="44.42959567447694" lon="11.400783116282005"><ele>90.4</ele><time>2026-04-18T09:01:34.002Z</time></trkpt><trkpt lat="44.42949921212563" lon="11.40069931036354"><ele>90.6</ele><time>2026-04-18T09:01:35.002Z</time></trkpt><trkpt lat="44.42940712505372" lon="11.400611512181408"><ele>90.8</ele><time>2026-04-18T09:01:36Z</time></trkpt><trkpt lat="44.42931363034419" lon="11.400526594850898"><ele>91.0</ele><time>2026-04-18T09:01:37Z</time></trkpt><trkpt lat="44.42921918291191" lon="11.40044363807727"><ele>91.0</ele><time>2026-04-18T09:01:38Z</time></trkpt><trkpt lat="44.42912844241202" lon="11.400365218000553"><ele>91.0</ele><time>2026-04-18T09:01:39Z</time></trkpt><trkpt lat="44.42903802138858" lon="11.400289165020208"><ele>91.0</ele><time>2026-04-18T09:01:40Z</time></trkpt><trkpt lat="44.42894482794024" lon="11.400209615676022"><ele>91.0</ele><time>2026-04-18T09:01:41Z</time></trkpt><trkpt lat="44.42884866538712" lon="11.400128891807583"><ele>91.0</ele><time>2026-04-18T09:01:42Z</time></trkpt><trkpt lat="44.42874510651254" lon="11.400046737713783"><ele>91.25</ele><time>2026-04-18T09:01:43Z</time></trkpt><trkpt lat="44.42863791326014" lon="11.399969459387151"><ele>91.5</ele><time>2026-04-18T09:01:44Z</time></trkpt><trkpt lat="44.428519708894584" lon="11.399908761208788"><ele>91.75</ele><time>2026-04-18T09:01:45Z</time></trkpt><trkpt lat="44.42839553565868" lon="11.399858743370913"><ele>92.0</ele><time>2026-04-18T09:01:46Z</time></trkpt><trkpt lat="44.42826790030183" lon="11.399805132259509"><ele>92.0</ele><time>2026-04-18T09:01:47Z</time></trkpt><trkpt lat="44.42814102280242" lon="11.399748698184693"><ele>92.0</ele><time>2026-04-18T09:01:48Z</time></trkpt><trkpt lat="44.4280143165096" lon="11.399696562376624"><ele>92.0</ele><time>2026-04-18T09:01:49Z</time></trkpt><trkpt lat="44.427889046181775" lon="11.399639179429284"><ele>92.0</ele><time>2026-04-18T09:01:50Z</time></trkpt><trkpt lat="44.42776641759732" lon="11.399574442451495"><ele>91.8</ele><time>2026-04-18T09:01:51Z</time></trkpt><trkpt lat="44.42764456746864" lon="11.399501838320992"><ele>91.6</ele><time>2026-04-18T09:01:52Z</time></trkpt><trkpt lat="44.4275329627268" lon="11.399432971896305"><ele>91.39999999999999</ele><time>2026-04-18T09:01:53Z</time></trkpt><trkpt lat="44.42743974210687" lon="11.399371291590155"><ele>91.19999999999999</ele><time>2026-04-18T09:01:54Z</time></trkpt><trkpt lat="44.42735743257419" lon="11.399326823508739"><ele>91.0</ele><time>2026-04-18T09:01:55Z</time></trkpt><trkpt lat="44.4272764509732" lon="11.39931281799132"><ele>91.0</ele><time>2026-04-18T09:01:56Z</time></trkpt><trkpt lat="44.42719195708165" lon="11.39936012065386"><ele>91.0</ele><time>2026-04-18T09:01:57Z</time></trkpt><trkpt lat="44.427131919330016" lon="11.399453595777148"><ele>91.0</ele><time>2026-04-18T09:01:58Z</time></trkpt><trkpt lat="44.427072866049805" lon="11.399602867190096"><ele>91.0</ele><time>2026-04-18T09:01:59Z</time></trkpt><trkpt lat="44.42702119313823" lon="11.399767569641162"><ele>91.0</ele><time>2026-04-18T09:02:00Z</time></trkpt><trkpt lat="44.426933658588325" lon="11.39992412583737"><ele>91.25</ele><time>2026-04-18T09:02:01Z</time></trkpt><trkpt lat="44.426852635523645" lon="11.400073021980562"><ele>91.5</ele><time>2026-04-18T09:02:02Z</time></trkpt><trkpt lat="44.42676486486321" lon="11.400207953449897"><ele>91.75</ele><time>2026-04-18T09:02:03Z</time></trkpt><trkpt lat="44.42667189280081" lon="11.400329065757253"><ele>92.0</ele><time>2026-04-18T09:02:04Z</time></trkpt><trkpt lat="44.4265712471416" lon="11.400436527197572"><ele>92.25</ele><time>2026-04-18T09:02:05Z</time></trkpt><trkpt lat="44.426469457620826" lon="11.400530295084025"><ele>92.5</ele><time>2026-04-18T09:02:06Z</time></trkpt><trkpt lat="44.426370376239866" lon="11.400629771766644"><ele>92.75</ele><time>2026-04-18T09:02:07Z</time></trkpt><trkpt lat="44.42625539942646" lon="11.40069594631522"><ele>93.0</ele><time>2026-04-18T09:02:08Z</time></trkpt><trkpt lat="44.42613472745944" lon="11.400752256876709"><ele>92.5</ele><time>2026-04-18T09:02:09Z</time></trkpt><trkpt lat="44.42601100505698" lon="11.400799518138262"><ele>92.0</ele><time>2026-04-18T09:02:10Z</time></trkpt><trkpt lat="44.425887403052236" lon="11.400829857761499"><ele>91.5</ele><time>2026-04-18T09:02:11Z</time></trkpt><trkpt lat="44.425769511156425" lon="11.40083721481899"><ele>91.0</ele><time>2026-04-18T09:02:12Z</time></trkpt><trkpt lat="44.42564526720205" lon="11.400828320857341"><ele>91.0</ele><time>2026-04-18T09:02:13Z</time></trkpt><trkpt lat="44.425519941251615" lon="11.400805421807362"><ele>91.0</ele><time>2026-04-18T09:02:14Z</time></trkpt><trkpt lat="44.42539258534465" lon="11.400770339190512"><ele>91.0</ele><time>2026-04-18T09:02:15.001Z</time></trkpt><trkpt lat="44.42525891296063" lon="11.400720568701809"><ele>91.0</ele><time>2026-04-18T09:02:16.001Z</time></trkpt><trkpt lat="44.42512083636031" lon="11.400671127572407"><ele>91.33333333333333</ele><time>2026-04-18T09:02:17.001Z</time></trkpt><trkpt lat="44.42497957954586" lon="11.400622687822798"><ele>91.66666666666667</ele><time>2026-04-18T09:02:18.001Z</time></trkpt><trkpt lat="44.424831669119314" lon="11.400570741731752"><ele>92.0</ele><time>2026-04-18T09:02:19.001Z</time></trkpt><trkpt lat="44.424681847063944" lon="11.400518779139642"><ele>92.0</ele><time>2026-04-18T09:02:20.001Z</time></trkpt><trkpt lat="44.424534182850046" lon="11.400467567842197"><ele>92.0</ele><time>2026-04-18T09:02:21.001Z</time></trkpt><trkpt lat="44.42439573179469" lon="11.400429643925392"><ele>92.0</ele><time>2026-04-18T09:02:22.001Z</time></trkpt><trkpt lat="44.42425891612048" lon="11.400370471853476"><ele>92.0</ele><time>2026-04-18T09:02:23.001Z</time></trkpt><trkpt lat="44.424122696857154" lon="11.40030085077634"><ele>92.0</ele><time>2026-04-18T09:02:24.001Z</time></trkpt><trkpt lat="44.4239862942781" lon="11.400215392542028"><ele>92.0</ele><time>2026-04-18T09:02:25.001Z</time></trkpt><trkpt lat="44.42385626673208" lon="11.400120132642627"><ele>92.0</ele><time>2026-04-18T09:02:26.001Z</time></trkpt><trkpt lat="44.423738364403526" lon="11.40002428069643"><ele>92.0</ele><time>2026-04-18T09:02:27.001Z</time></trkpt><trkpt lat="44.42362229334922" lon="11.399912989457562"><ele>92.75</ele><time>2026-04-18T09:02:28.001Z</time></trkpt><trkpt lat="44.423510415819976" lon="11.399808222323756"><ele>93.5</ele><time>2026-04-18T09:02:29.001Z</time></trkpt><trkpt lat="44.42339638854693" lon="11.399705238161872"><ele>94.25</ele><time>2026-04-18T09:02:30.001Z</time></trkpt><trkpt lat="44.42328440479976" lon="11.399605517206954"><ele>95.0</ele><time>2026-04-18T09:02:31.001Z</time></trkpt><trkpt lat="44.42317732716021" lon="11.39950826218539"><ele>95.0</ele><time>2026-04-18T09:02:32.001Z</time></trkpt><trkpt lat="44.423087741378986" lon="11.39940618398004"><ele>95.0</ele><time>2026-04-18T09:02:33.001Z</time></trkpt><trkpt lat="44.42300583751813" lon="11.399286499024983"><ele>95.0</ele><time>2026-04-18T09:02:34.001Z</time></trkpt><trkpt lat="44.422932272839454" lon="11.39913800756519"><ele>95.0</ele><time>2026-04-18T09:02:35.001Z</time></trkpt><trkpt lat="44.4228662240137" lon="11.398980499397325"><ele>96.25</ele><time>2026-04-18T09:02:36.001Z</time></trkpt><trkpt lat="44.42281797758904" lon="11.39880995010537"><ele>97.5</ele><time>2026-04-18T09:02:37.001Z</time></trkpt><trkpt lat="44.42277567590259" lon="11.39862780323824"><ele>98.75</ele><time>2026-04-18T09:02:38.001Z</time></trkpt><trkpt lat="44.42273517592374" lon="11.398440547029697"><ele>100.0</ele><time>2026-04-18T09:02:39.001Z</time></trkpt><trkpt lat="44.42270426249907" lon="11.398264103631412"><ele>100.0</ele><time>2026-04-18T09:02:40.001Z</time></trkpt><trkpt lat="44.422674468241446" lon="11.39808710882149"><ele>100.0</ele><time>2026-04-18T09:02:41.001Z</time></trkpt><trkpt lat="44.42265009362382" lon="11.397923922461224"><ele>100.0</ele><time>2026-04-18T09:02:42.001Z</time></trkpt><trkpt lat="44.422624210993355" lon="11.39775429721271"><ele>100.0</ele><time>2026-04-18T09:02:43.001Z</time></trkpt><trkpt lat="44.422608528364336" lon="11.397596040297966"><ele>100.25</ele><time>2026-04-18T09:02:44.001Z</time></trkpt><trkpt lat="44.422581484452245" lon="11.397439611792887"><ele>100.5</ele><time>2026-04-18T09:02:45.001Z</time></trkpt><trkpt lat="44.42254110066746" lon="11.397296664665063"><ele>100.75</ele><time>2026-04-18T09:02:46.001Z</time></trkpt><trkpt lat="44.42249316170308" lon="11.397150708607425"><ele>101.0</ele><time>2026-04-18T09:02:47.001Z</time></trkpt><trkpt lat="44.42243524325891" lon="11.397012135090442"><ele>101.0</ele><time>2026-04-18T09:02:48.001Z</time></trkpt><trkpt lat="44.422370025256306" lon="11.39686742729666"><ele>101.0</ele><time>2026-04-18T09:02:49.001Z</time></trkpt><trkpt lat="44.422299590830775" lon="11.396723073876657"><ele>101.0</ele><time>2026-04-18T09:02:50.001Z</time></trkpt><trkpt lat="44.4222194716354" lon="11.396585956199386"><ele>101.0</ele><time>2026-04-18T09:02:51.001Z</time></trkpt><trkpt lat="44.42213330135005" lon="11.39645758326532"><ele>101.0</ele><time>2026-04-18T09:02:52.001Z</time></trkpt><trkpt lat="44.42203846321716" lon="11.396340049583051"><ele>101.0</ele><time>2026-04-18T09:02:53.001Z</time></trkpt><trkpt lat="44.42193664138963" lon="11.396228866718202"><ele>101.0</ele><time>2026-04-18T09:02:54.001Z</time></trkpt><trkpt lat="44.42182920689914" lon="11.396121414734289"><ele>101.0</ele><time>2026-04-18T09:02:55.001Z</time></trkpt><trkpt lat="44.42171398336592" lon="11.396022024694558"><ele>101.75</ele><time>2026-04-18T09:02:56.001Z</time></trkpt><trkpt lat="44.42158800720536" lon="11.395932526517244"><ele>102.5</ele><time>2026-04-18T09:02:57.001Z</time></trkpt><trkpt lat="44.42146425079482" lon="11.395836192612556"><ele>103.25</ele><time>2026-04-18T09:02:58.001Z</time></trkpt><trkpt lat="44.42133933166632" lon="11.39574098620846"><ele>104.0</ele><time>2026-04-18T09:02:59.001Z</time></trkpt><trkpt lat="44.42121325294415" lon="11.395640391796768"><ele>104.0</ele><time>2026-04-18T09:03:00.001Z</time></trkpt><trkpt lat="44.42108833396844" lon="11.395536801758999"><ele>104.0</ele><time>2026-04-18T09:03:01.001Z</time></trkpt><trkpt lat="44.42096513547782" lon="11.395433135836988"><ele>104.0</ele><time>2026-04-18T09:03:02.001Z</time></trkpt><trkpt lat="44.420849973657056" lon="11.395323270097402"><ele>104.0</ele><time>2026-04-18T09:03:03.001Z</time></trkpt><trkpt lat="44.42074435056809" lon="11.39520852778938"><ele>103.75</ele><time>2026-04-18T09:03:04.001Z</time></trkpt><trkpt lat="44.420651659049106" lon="11.39507975664558"><ele>103.5</ele><time>2026-04-18T09:03:05.002Z</time></trkpt><trkpt lat="44.420550465838105" lon="11.394952466141822"><ele>103.25</ele><time>2026-04-18T09:03:06.002Z</time></trkpt><trkpt lat="44.420441590504055" lon="11.394850266312803"><ele>103.0</ele><time>2026-04-18T09:03:07.002Z</time></trkpt><trkpt lat="44.42031732934779" lon="11.394781230010206"><ele>103.0</ele><time>2026-04-18T09:03:08.002Z</time></trkpt><trkpt lat="44.42019012524296" lon="11.394732626488707"><ele>103.0</ele><time>2026-04-18T09:03:09.002Z</time></trkpt><trkpt lat="44.420054943751175" lon="11.394688483921898"><ele>103.0</ele><time>2026-04-18T09:03:10.002Z</time></trkpt><trkpt lat="44.4199188899443" lon="11.394663729479323"><ele>103.0</ele><time>2026-04-18T09:03:11.002Z</time></trkpt><trkpt lat="44.41978411280004" lon="11.394653842819261"><ele>104.25</ele><time>2026-04-18T09:03:12.002Z</time></trkpt><trkpt lat="44.41964390950137" lon="11.394651760548138"><ele>105.5</ele><time>2026-04-18T09:03:13.002Z</time></trkpt><trkpt lat="44.41950927775574" lon="11.394649244265578"><ele>106.75</ele><time>2026-04-18T09:03:14.002Z</time></trkpt><trkpt lat="44.41937501799633" lon="11.394626091633837"><ele>108.0</ele><time>2026-04-18T09:03:15.002Z</time></trkpt><trkpt lat="44.41923637169221" lon="11.394579139924529"><ele>108.0</ele><time>2026-04-18T09:03:16.002Z</time></trkpt><trkpt lat="44.419105964393786" lon="11.394503851241284"><ele>108.0</ele><time>2026-04-18T09:03:17.002Z</time></trkpt><trkpt lat="44.41897057025671" lon="11.394413044539057"><ele>108.0</ele><time>2026-04-18T09:03:18.002Z</time></trkpt><trkpt lat="44.41883539693725" lon="11.39431134512523"><ele>108.0</ele><time>2026-04-18T09:03:19.002Z</time></trkpt><trkpt lat="44.41870788397895" lon="11.394199627133311"><ele>107.0</ele><time>2026-04-18T09:03:20.002Z</time></trkpt><trkpt lat="44.41858165605367" lon="11.394077476443663"><ele>106.0</ele><time>2026-04-18T09:03:21.002Z</time></trkpt><trkpt lat="44.418462819426594" lon="11.39394945830918"><ele>105.0</ele><time>2026-04-18T09:03:22.002Z</time></trkpt><trkpt lat="44.418349956159766" lon="11.39380563148505"><ele>107.33333333333334</ele><time>2026-04-18T09:03:23.002Z</time></trkpt><trkpt lat="44.41823677190334" lon="11.393646122305391"><ele>109.66666666666667</ele><time>2026-04-18T09:03:24.002Z</time></trkpt><trkpt lat="44.41812324366797" lon="11.393502191008519"><ele>112.0</ele><time>2026-04-18T09:03:25.002Z</time></trkpt><trkpt lat="44.418003820524966" lon="11.393375859090021"><ele>111.5</ele><time>2026-04-18T09:03:26.002Z</time></trkpt><trkpt lat="44.41789045158937" lon="11.393256290998309"><ele>111.0</ele><time>2026-04-18T09:03:27.002Z</time></trkpt><trkpt lat="44.41777585916105" lon="11.393139528662097"><ele>110.5</ele><time>2026-04-18T09:03:28.002Z</time></trkpt><trkpt lat="44.41765944967019" lon="11.39303146393657"><ele>110.0</ele><time>2026-04-18T09:03:29.002Z</time></trkpt><trkpt lat="44.41754423485722" lon="11.392933723127927"><ele>110.0</ele><time>2026-04-18T09:03:30.002Z</time></trkpt><trkpt lat="44.41743142967029" lon="11.392841009056566"><ele>110.0</ele><time>2026-04-18T09:03:31.002Z</time></trkpt><trkpt lat="44.41730941642342" lon="11.392750959392137"><ele>110.0</ele><time>2026-04-18T09:03:32.002Z</time></trkpt><trkpt lat="44.417187403756046" lon="11.392665176600204"><ele>110.0</ele><time>2026-04-18T09:03:33.002Z</time></trkpt><trkpt lat="44.41705633890234" lon="11.392590934098546"><ele>109.0</ele><time>2026-04-18T09:03:34.002Z</time></trkpt><trkpt lat="44.41692134069267" lon="11.392524690151253"><ele>108.0</ele><time>2026-04-18T09:03:35.002Z</time></trkpt><trkpt lat="44.41678050924055" lon="11.392460802877164"><ele>107.0</ele><time>2026-04-18T09:03:36.002Z</time></trkpt><trkpt lat="44.41664359278697" lon="11.392396861263105"><ele>106.0</ele><time>2026-04-18T09:03:37.002Z</time></trkpt><trkpt lat="44.416508317366436" lon="11.392334142249059"><ele>106.0</ele><time>2026-04-18T09:03:38.002Z</time></trkpt><trkpt lat="44.4163799916498" lon="11.392262791861558"><ele>106.0</ele><time>2026-04-18T09:03:39.002Z</time></trkpt><trkpt lat="44.41625129033933" lon="11.392184574967118"><ele>106.0</ele><time>2026-04-18T09:03:40.002Z</time></trkpt><trkpt lat="44.416122865127086" lon="11.392102548725791"><ele>106.0</ele><time>2026-04-18T09:03:41.002Z</time></trkpt><trkpt lat="44.41599792227546" lon="11.392018628120116"><ele>107.0</ele><time>2026-04-18T09:03:41.999Z</time></trkpt><trkpt lat="44.41587992534398" lon="11.391933759002065"><ele>108.0</ele><time>2026-04-18T09:03:42.999Z</time></trkpt><trkpt lat="44.415753672732386" lon="11.391839107387774"><ele>109.0</ele><time>2026-04-18T09:03:43.999Z</time></trkpt><trkpt lat="44.41563326640608" lon="11.391735678934053"><ele>110.0</ele><time>2026-04-18T09:03:44.999Z</time></trkpt><trkpt lat="44.41551615291129" lon="11.3916382065242"><ele>109.25</ele><time>2026-04-18T09:03:45.999Z</time></trkpt><trkpt lat="44.415394467385475" lon="11.391551770881597"><ele>108.5</ele><time>2026-04-18T09:03:46.999Z</time></trkpt><trkpt lat="44.41526704466964" lon="11.391469506581672"><ele>107.75</ele><time>2026-04-18T09:03:47.999Z</time></trkpt><trkpt lat="44.415142680346115" lon="11.39139198311973"><ele>107.0</ele><time>2026-04-18T09:03:48.999Z</time></trkpt><trkpt lat="44.415019713267085" lon="11.39131436062075"><ele>107.25</ele><time>2026-04-18T09:03:49.999Z</time></trkpt><trkpt lat="44.414900927199966" lon="11.391228290659594"><ele>107.5</ele><time>2026-04-18T09:03:50.999Z</time></trkpt><trkpt lat="44.41478939459592" lon="11.391119496399334"><ele>107.75</ele><time>2026-04-18T09:03:51.999Z</time></trkpt><trkpt lat="44.414682082719885" lon="11.390997269411205"><ele>108.0</ele><time>2026-04-18T09:03:53Z</time></trkpt><trkpt lat="44.41457089310799" lon="11.390876625855995"><ele>108.0</ele><time>2026-04-18T09:03:54Z</time></trkpt><trkpt lat="44.414454361219676" lon="11.39077747647494"><ele>108.0</ele><time>2026-04-18T09:03:55Z</time></trkpt><trkpt lat="44.41432094164474" lon="11.390704999929019"><ele>108.0</ele><time>2026-04-18T09:03:56Z</time></trkpt><trkpt lat="44.4141871483058" lon="11.390647486505308"><ele>108.0</ele><time>2026-04-18T09:03:57Z</time></trkpt><trkpt lat="44.41406431859165" lon="11.390600521540016"><ele>108.0</ele><time>2026-04-18T09:03:58Z</time></trkpt><trkpt lat="44.41394854306953" lon="11.390564739157904"><ele>108.00000000000001</ele><time>2026-04-18T09:03:59Z</time></trkpt><trkpt lat="44.41384836146948" lon="11.390531709484394"><ele>108.00000000000001</ele><time>2026-04-18T09:04:00Z</time></trkpt><trkpt lat="44.413756095450616" lon="11.39050214861797"><ele>108.0</ele><time>2026-04-18T09:04:01Z</time></trkpt><trkpt lat="44.413666588710534" lon="11.390474740157783"><ele>108.0</ele><time>2026-04-18T09:04:02Z</time></trkpt><trkpt lat="44.41357814250366" lon="11.390453813773563"><ele>109.2</ele><time>2026-04-18T09:04:03Z</time></trkpt><trkpt lat="44.41349472460513" lon="11.390423500660695"><ele>110.4</ele><time>2026-04-18T09:04:04Z</time></trkpt><trkpt lat="44.41340860014665" lon="11.390397975312535"><ele>111.60000000000001</ele><time>2026-04-18T09:04:05Z</time></trkpt><trkpt lat="44.41332046432697" lon="11.390371830537216"><ele>112.80000000000001</ele><time>2026-04-18T09:04:06Z</time></trkpt><trkpt lat="44.41323430145602" lon="11.39034125388393"><ele>114.0</ele><time>2026-04-18T09:04:07Z</time></trkpt><trkpt lat="44.41313986743689" lon="11.390314401222575"><ele>114.0</ele><time>2026-04-18T09:04:08Z</time></trkpt><trkpt lat="44.413036829323744" lon="11.390281997285939"><ele>114.0</ele><time>2026-04-18T09:04:09Z</time></trkpt><trkpt lat="44.412930418106434" lon="11.390249441785189"><ele>114.0</ele><time>2026-04-18T09:04:10Z</time></trkpt><trkpt lat="44.412833621917386" lon="11.39021258261717"><ele>114.0</ele><time>2026-04-18T09:04:11Z</time></trkpt><trkpt lat="44.41273187054302" lon="11.390177368352164"><ele>114.0</ele><time>2026-04-18T09:04:12Z</time></trkpt><trkpt lat="44.412641449658885" lon="11.390147090929554"><ele>112.4</ele><time>2026-04-18T09:04:13Z</time></trkpt><trkpt lat="44.41254624021702" lon="11.390110329007427"><ele>110.80000000000001</ele><time>2026-04-18T09:04:14Z</time></trkpt><trkpt lat="44.412452155464344" lon="11.390075288702347"><ele>109.19999999999999</ele><time>2026-04-18T09:04:15Z</time></trkpt><trkpt lat="44.41235481184913" lon="11.390041266952307"><ele>107.6</ele><time>2026-04-18T09:04:16Z</time></trkpt><trkpt lat="44.41225916880078" lon="11.390006555589547"><ele>106.0</ele><time>2026-04-18T09:04:17Z</time></trkpt><trkpt lat="44.41216016434397" lon="11.389967346473142"><ele>106.25</ele><time>2026-04-18T09:04:18Z</time></trkpt><trkpt lat="44.41206459591099" lon="11.389932320711186"><ele>106.5</ele><time>2026-04-18T09:04:19Z</time></trkpt><trkpt lat="44.411955867094015" lon="11.389900829138092"><ele>106.75</ele><time>2026-04-18T09:04:20Z</time></trkpt><trkpt lat="44.41184138961291" lon="11.389864072897522"><ele>107.0</ele><time>2026-04-18T09:04:21Z</time></trkpt><trkpt lat="44.411719161363465" lon="11.38982511430027"><ele>107.0</ele><time>2026-04-18T09:04:22Z</time></trkpt><trkpt lat="44.41159618329423" lon="11.389794385738362"><ele>107.0</ele><time>2026-04-18T09:04:23Z</time></trkpt><trkpt lat="44.4114570999163" lon="11.389811314532118"><ele>107.0</ele><time>2026-04-18T09:04:24Z</time></trkpt><trkpt lat="44.41135248643014" lon="11.389842568857096"><ele>107.0</ele><time>2026-04-18T09:04:25Z</time></trkpt><trkpt lat="44.4112259177888" lon="11.389896074155041"><ele>107.75</ele><time>2026-04-18T09:04:26Z</time></trkpt><trkpt lat="44.4110990300027" lon="11.389959648866961"><ele>108.5</ele><time>2026-04-18T09:04:27Z</time></trkpt><trkpt lat="44.41097378029027" lon="11.39002191280684"><ele>109.25</ele><time>2026-04-18T09:04:28Z</time></trkpt><trkpt lat="44.41085072131668" lon="11.390083971306229"><ele>110.0</ele><time>2026-04-18T09:04:29.001Z</time></trkpt><trkpt lat="44.41073927635313" lon="11.390144292433996"><ele>109.99999999999999</ele><time>2026-04-18T09:04:30.001Z</time></trkpt><trkpt lat="44.41063777445155" lon="11.390192158554923"><ele>110.0</ele><time>2026-04-18T09:04:31.001Z</time></trkpt><trkpt lat="44.41055455326696" lon="11.390234727909561"><ele>110.0</ele><time>2026-04-18T09:04:32.001Z</time></trkpt><trkpt lat="44.410482821502676" lon="11.39027888380702"><ele>110.0</ele><time>2026-04-18T09:04:33.001Z</time></trkpt><trkpt lat="44.41041267589519" lon="11.39031460793617"><ele>109.99999999999999</ele><time>2026-04-18T09:04:34.001Z</time></trkpt><trkpt lat="44.410346132344635" lon="11.390350083206409"><ele>110.0</ele><time>2026-04-18T09:04:35.001Z</time></trkpt><trkpt lat="44.4102866583224" lon="11.390387388165047"><ele>109.83333333333333</ele><time>2026-04-18T09:04:36.001Z</time></trkpt><trkpt lat="44.410227220991736" lon="11.390423004121045"><ele>109.66666666666666</ele><time>2026-04-18T09:04:37.001Z</time></trkpt><trkpt lat="44.410133235586095" lon="11.390470604463918"><ele>109.5</ele><time>2026-04-18T09:04:39.001Z</time></trkpt><trkpt lat="44.41002995689183" lon="11.3905271972533"><ele>109.33333333333334</ele><time>2026-04-18T09:04:41.001Z</time></trkpt><trkpt lat="44.409959690296276" lon="11.390560557094558"><ele>109.16666666666667</ele><time>2026-04-18T09:04:43.001Z</time></trkpt><trkpt lat="44.409888935680314" lon="11.39062219830049"><ele>109.0</ele><time>2026-04-18T09:06:19.001Z</time></trkpt><trkpt lat="44.40978841108683" lon="11.390685195761575"><ele>108.80000000000001</ele><time>2026-04-18T09:06:21.001Z</time></trkpt><trkpt lat="44.40972170309174" lon="11.390745041293085"><ele>108.60000000000001</ele><time>2026-04-18T09:06:22.001Z</time></trkpt><trkpt lat="44.40965206535761" lon="11.39081093211588"><ele>108.4</ele><time>2026-04-18T09:06:23.001Z</time></trkpt><trkpt lat="44.40957743022971" lon="11.3908851695894"><ele>108.2</ele><time>2026-04-18T09:06:24.001Z</time></trkpt><trkpt lat="44.4094934008054" lon="11.390968751317203"><ele>108.0</ele><time>2026-04-18T09:06:25.001Z</time></trkpt><trkpt lat="44.40940760183085" lon="11.391054319838142"><ele>109.0</ele><time>2026-04-18T09:06:26.001Z</time></trkpt><trkpt lat="44.40930975333068" lon="11.391152572178028"><ele>110.00000000000001</ele><time>2026-04-18T09:06:27.001Z</time></trkpt><trkpt lat="44.40922226978573" lon="11.39124041624537"><ele>111.00000000000001</ele><time>2026-04-18T09:06:28.001Z</time></trkpt><trkpt lat="44.40913870482892" lon="11.391324325834868"><ele>112.0</ele><time>2026-04-18T09:06:29.001Z</time></trkpt><trkpt lat="44.4090573799718" lon="11.391408835760076"><ele>113.0</ele><time>2026-04-18T09:06:30.001Z</time></trkpt><trkpt lat="44.40897733349948" lon="11.391493315360526"><ele>113.0</ele><time>2026-04-18T09:06:31.001Z</time></trkpt><trkpt lat="44.40890026466214" lon="11.391581246920536"><ele>113.00000000000001</ele><time>2026-04-18T09:06:32.001Z</time></trkpt><trkpt lat="44.408806588607874" lon="11.39164982359717"><ele>113.00000000000001</ele><time>2026-04-18T09:06:33.001Z</time></trkpt><trkpt lat="44.40871979739669" lon="11.391737303847606"><ele>113.0</ele><time>2026-04-18T09:06:34.001Z</time></trkpt><trkpt lat="44.40864066960511" lon="11.391829796688274"><ele>113.0</ele><time>2026-04-18T09:06:35.001Z</time></trkpt><trkpt lat="44.40856222397277" lon="11.391923683938014"><ele>112.80000000000001</ele><time>2026-04-18T09:06:36.001Z</time></trkpt><trkpt lat="44.408478013178495" lon="11.392020607975121"><ele>112.60000000000001</ele><time>2026-04-18T09:06:37.001Z</time></trkpt><trkpt lat="44.408394642792224" lon="11.392111670303361"><ele>112.39999999999999</ele><time>2026-04-18T09:06:38.001Z</time></trkpt><trkpt lat="44.40831149264483" lon="11.392183328074635"><ele>112.19999999999999</ele><time>2026-04-18T09:06:39.001Z</time></trkpt><trkpt lat="44.408215797295554" lon="11.39225471327958"><ele>112.0</ele><time>2026-04-18T09:06:40.001Z</time></trkpt><trkpt lat="44.408115012512795" lon="11.392314982291596"><ele>112.0</ele><time>2026-04-18T09:06:41.001Z</time></trkpt><trkpt lat="44.40800209080718" lon="11.392333900196997"><ele>112.0</ele><time>2026-04-18T09:06:42.001Z</time></trkpt><trkpt lat="44.407894127981876" lon="11.392317124538927"><ele>112.0</ele><time>2026-04-18T09:06:43.001Z</time></trkpt><trkpt lat="44.40777972110387" lon="11.392269857969826"><ele>112.0</ele><time>2026-04-18T09:06:44.001Z</time></trkpt><trkpt lat="44.40767498404152" lon="11.392182218970516"><ele>112.0</ele><time>2026-04-18T09:06:45.001Z</time></trkpt><trkpt lat="44.40755723250426" lon="11.392091648505076"><ele>112.0</ele><time>2026-04-18T09:06:46.001Z</time></trkpt><trkpt lat="44.40742654590522" lon="11.39200473035785"><ele>112.0</ele><time>2026-04-18T09:06:47.001Z</time></trkpt><trkpt lat="44.407279202316346" lon="11.391923950827099"><ele>112.0</ele><time>2026-04-18T09:06:48.001Z</time></trkpt><trkpt lat="44.407131840870676" lon="11.391843560531862"><ele>112.0</ele><time>2026-04-18T09:06:49.001Z</time></trkpt><trkpt lat="44.40699265961636" lon="11.391773238915443"><ele>112.0</ele><time>2026-04-18T09:06:50.001Z</time></trkpt><trkpt lat="44.40685377650942" lon="11.391680483882194"><ele>112.0</ele><time>2026-04-18T09:06:51.001Z</time></trkpt><trkpt lat="44.40670754266115" lon="11.391574671691496"><ele>112.0</ele><time>2026-04-18T09:06:52.001Z</time></trkpt><trkpt lat="44.406572884903575" lon="11.39145733545674"><ele>112.0</ele><time>2026-04-18T09:06:53.001Z</time></trkpt><trkpt lat="44.40642727396013" lon="11.391345424938173"><ele>112.0</ele><time>2026-04-18T09:06:54.001Z</time></trkpt><trkpt lat="44.406278737992466" lon="11.391269934022946"><ele>115.0</ele><time>2026-04-18T09:06:55.001Z</time></trkpt><trkpt lat="44.406127250089504" lon="11.391231256915203"><ele>118.0</ele><time>2026-04-18T09:06:56.001Z</time></trkpt><trkpt lat="44.40597175617207" lon="11.39123023802416"><ele>121.0</ele><time>2026-04-18T09:06:57.001Z</time></trkpt><trkpt lat="44.405837739119576" lon="11.391240340701039"><ele>124.0</ele><time>2026-04-18T09:06:58.001Z</time></trkpt><trkpt lat="44.405728974556126" lon="11.391262566067377"><ele>124.0</ele><time>2026-04-18T09:06:59.001Z</time></trkpt><trkpt lat="44.405630072777676" lon="11.391286693238236"><ele>124.0</ele><time>2026-04-18T09:07:00.001Z</time></trkpt><trkpt lat="44.405533278475616" lon="11.391377119000655"><ele>124.0</ele><time>2026-04-18T09:07:01.001Z</time></trkpt><trkpt lat="44.40546541890234" lon="11.391451712468422"><ele>124.0</ele><time>2026-04-18T09:07:02.001Z</time></trkpt><trkpt lat="44.40541789275923" lon="11.391593967593263"><ele>124.0</ele><time>2026-04-18T09:07:03.001Z</time></trkpt><trkpt lat="44.405386983121126" lon="11.391750043912033"><ele>121.0</ele><time>2026-04-18T09:07:04.002Z</time></trkpt><trkpt lat="44.4053524091894" lon="11.39191147883296"><ele>118.0</ele><time>2026-04-18T09:07:05.002Z</time></trkpt><trkpt lat="44.40531619922919" lon="11.392083120629005"><ele>115.0</ele><time>2026-04-18T09:07:06.002Z</time></trkpt><trkpt lat="44.4052771065398" lon="11.39225192774865"><ele>112.0</ele><time>2026-04-18T09:07:07.002Z</time></trkpt><trkpt lat="44.40523755778091" lon="11.392454007229043"><ele>111.75</ele><time>2026-04-18T09:07:08.002Z</time></trkpt><trkpt lat="44.405170200911186" lon="11.392630472352206"><ele>111.5</ele><time>2026-04-18T09:07:09.002Z</time></trkpt><trkpt lat="44.40511265817791" lon="11.392804095312288"><ele>111.25</ele><time>2026-04-18T09:07:10.002Z</time></trkpt><trkpt lat="44.405060839085365" lon="11.392979654790748"><ele>111.0</ele><time>2026-04-18T09:07:11.002Z</time></trkpt><trkpt lat="44.405007919969144" lon="11.393147722307232"><ele>111.0</ele><time>2026-04-18T09:07:12.002Z</time></trkpt><trkpt lat="44.40494254345446" lon="11.393302905100695"><ele>111.0</ele><time>2026-04-18T09:07:13.002Z</time></trkpt><trkpt lat="44.40485875531752" lon="11.393438645228908"><ele>111.0</ele><time>2026-04-18T09:07:14.002Z</time></trkpt><trkpt lat="44.40476260726377" lon="11.393540182900376"><ele>111.0</ele><time>2026-04-18T09:07:15.002Z</time></trkpt><trkpt lat="44.40466061450535" lon="11.393619764796535"><ele>111.0</ele><time>2026-04-18T09:07:16.002Z</time></trkpt><trkpt lat="44.40454519468518" lon="11.39367568813655"><ele>111.0</ele><time>2026-04-18T09:07:17.002Z</time></trkpt><trkpt lat="44.404425865684956" lon="11.39371136947112"><ele>111.0</ele><time>2026-04-18T09:07:18.002Z</time></trkpt><trkpt lat="44.40429966511898" lon="11.393722096046872"><ele>111.0</ele><time>2026-04-18T09:07:19.002Z</time></trkpt><trkpt lat="44.40417661202133" lon="11.393703080365531"><ele>111.0</ele><time>2026-04-18T09:07:20.002Z</time></trkpt><trkpt lat="44.40405680725124" lon="11.39365696879076"><ele>111.0</ele><time>2026-04-18T09:07:21.002Z</time></trkpt><trkpt lat="44.403952071234045" lon="11.393585000758232"><ele>111.0</ele><time>2026-04-18T09:07:22.002Z</time></trkpt><trkpt lat="44.403855224484715" lon="11.393501683374915"><ele>111.0</ele><time>2026-04-18T09:07:23.002Z</time></trkpt><trkpt lat="44.40376141374219" lon="11.393410913240114"><ele>111.0</ele><time>2026-04-18T09:07:24.002Z</time></trkpt><trkpt lat="44.40367595461259" lon="11.393309570128789"><ele>111.0</ele><time>2026-04-18T09:07:25.002Z</time></trkpt><trkpt lat="44.40359153556894" lon="11.393195348741248"><ele>111.0</ele><time>2026-04-18T09:07:26.002Z</time></trkpt><trkpt lat="44.403506640903274" lon="11.393067356636887"><ele>111.0</ele><time>2026-04-18T09:07:27.002Z</time></trkpt><trkpt lat="44.40341896044982" lon="11.392937331420972"><ele>111.25</ele><time>2026-04-18T09:07:28.002Z</time></trkpt><trkpt lat="44.403327994154026" lon="11.392792528963442"><ele>111.5</ele><time>2026-04-18T09:07:29.002Z</time></trkpt><trkpt lat="44.403234238231704" lon="11.39263702850461"><ele>111.75</ele><time>2026-04-18T09:07:30.002Z</time></trkpt><trkpt lat="44.40314355773933" lon="11.392477237822627"><ele>112.0</ele><time>2026-04-18T09:07:31.002Z</time></trkpt><trkpt lat="44.403049745524235" lon="11.39232336938537"><ele>111.75</ele><time>2026-04-18T09:07:32.002Z</time></trkpt><trkpt lat="44.402964911243565" lon="11.392177502395354"><ele>111.5</ele><time>2026-04-18T09:07:33.002Z</time></trkpt><trkpt lat="44.402878489920084" lon="11.39203566783487"><ele>111.25</ele><time>2026-04-18T09:07:34.002Z</time></trkpt><trkpt lat="44.40278920738679" lon="11.391901582707677"><ele>111.0</ele><time>2026-04-18T09:07:35.002Z</time></trkpt><trkpt lat="44.40269356146622" lon="11.391768829300794"><ele>111.5</ele><time>2026-04-18T09:07:36.002Z</time></trkpt><trkpt lat="44.40260045990745" lon="11.391641478416465"><ele>112.0</ele><time>2026-04-18T09:07:37.002Z</time></trkpt><trkpt lat="44.4025082214021" lon="11.391520231578538"><ele>112.5</ele><time>2026-04-18T09:07:38.002Z</time></trkpt><trkpt lat="44.402417062446546" lon="11.391400062319327"><ele>113.0</ele><time>2026-04-18T09:07:39.002Z</time></trkpt><trkpt lat="44.40231976308791" lon="11.3912775405848"><ele>114.25</ele><time>2026-04-18T09:07:40.002Z</time></trkpt><trkpt lat="44.40222216616923" lon="11.391155588527937"><ele>115.5</ele><time>2026-04-18T09:07:41.002Z</time></trkpt><trkpt lat="44.40212861684893" lon="11.39102325973687"><ele>116.75</ele><time>2026-04-18T09:07:42.002Z</time></trkpt><trkpt lat="44.402043104824564" lon="11.390874141172235"><ele>118.0</ele><time>2026-04-18T09:07:43.002Z</time></trkpt><trkpt lat="44.40196306747802" lon="11.390728424987753"><ele>118.0</ele><time>2026-04-18T09:07:44.002Z</time></trkpt><trkpt lat="44.4018870599985" lon="11.390582420450794"><ele>118.0</ele><time>2026-04-18T09:07:45.002Z</time></trkpt><trkpt lat="44.40180851695115" lon="11.390449727433026"><ele>118.0</ele><time>2026-04-18T09:07:46.002Z</time></trkpt><trkpt lat="44.40172524486678" lon="11.390330671278946"><ele>118.0</ele><time>2026-04-18T09:07:47.002Z</time></trkpt><trkpt lat="44.4016287921379" lon="11.390230699993053"><ele>119.25</ele><time>2026-04-18T09:07:48.002Z</time></trkpt><trkpt lat="44.40151189725568" lon="11.390176144488583"><ele>120.5</ele><time>2026-04-18T09:07:49.002Z</time></trkpt><trkpt lat="44.40140265396131" lon="11.390181527471622"><ele>121.75</ele><time>2026-04-18T09:07:50.002Z</time></trkpt><trkpt lat="44.40130651280573" lon="11.390251384820123"><ele>123.0</ele><time>2026-04-18T09:07:51.003Z</time></trkpt><trkpt lat="44.401240630887266" lon="11.390377877385369"><ele>122.2</ele><time>2026-04-18T09:07:52.003Z</time></trkpt><trkpt lat="44.401203408889515" lon="11.390514676328314"><ele>121.4</ele><time>2026-04-18T09:07:53.003Z</time></trkpt><trkpt lat="44.40117543729653" lon="11.39066002502942"><ele>120.60000000000001</ele><time>2026-04-18T09:07:54.001Z</time></trkpt><trkpt lat="44.40114703215304" lon="11.390814931825965"><ele>119.80000000000001</ele><time>2026-04-18T09:07:55.001Z</time></trkpt><trkpt lat="44.401103665696475" lon="11.390958971462904"><ele>119.0</ele><time>2026-04-18T09:07:56.001Z</time></trkpt><trkpt lat="44.40106882373545" lon="11.391099711972808"><ele>119.0</ele><time>2026-04-18T09:07:57.001Z</time></trkpt><trkpt lat="44.40103059907744" lon="11.391239799188634"><ele>119.0</ele><time>2026-04-18T09:07:58.001Z</time></trkpt><trkpt lat="44.40095871304401" lon="11.39136701154991"><ele>119.0</ele><time>2026-04-18T09:07:59.001Z</time></trkpt><trkpt lat="44.400865690091024" lon="11.39146578823673"><ele>119.0</ele><time>2026-04-18T09:08:00.001Z</time></trkpt><trkpt lat="44.40075505342901" lon="11.391543551897522"><ele>119.25</ele><time>2026-04-18T09:08:01.001Z</time></trkpt><trkpt lat="44.400639865065514" lon="11.391607938211365"><ele>119.5</ele><time>2026-04-18T09:08:02.001Z</time></trkpt><trkpt lat="44.40051348330641" lon="11.391661213129026"><ele>119.75</ele><time>2026-04-18T09:08:03.001Z</time></trkpt><trkpt lat="44.400383607290586" lon="11.391714846350677"><ele>120.0</ele><time>2026-04-18T09:08:04.001Z</time></trkpt><trkpt lat="44.400247240389255" lon="11.391772274407513"><ele>120.0</ele><time>2026-04-18T09:08:05.001Z</time></trkpt><trkpt lat="44.40011271823295" lon="11.39183044437717"><ele>120.0</ele><time>2026-04-18T09:08:06.001Z</time></trkpt><trkpt lat="44.39998218702606" lon="11.391887217862275"><ele>120.0</ele><time>2026-04-18T09:08:07.001Z</time></trkpt><trkpt lat="44.39984752528181" lon="11.391946387376581"><ele>120.0</ele><time>2026-04-18T09:08:08.001Z</time></trkpt><trkpt lat="44.399703917463604" lon="11.39200603885609"><ele>120.25</ele><time>2026-04-18T09:08:09.001Z</time></trkpt><trkpt lat="44.39956346570474" lon="11.392060228159156"><ele>120.5</ele><time>2026-04-18T09:08:10.001Z</time></trkpt><trkpt lat="44.39943340030294" lon="11.392110998133958"><ele>120.75</ele><time>2026-04-18T09:08:11.001Z</time></trkpt><trkpt lat="44.3992915801736" lon="11.392153618717739"><ele>121.0</ele><time>2026-04-18T09:08:12.001Z</time></trkpt><trkpt lat="44.39914985535611" lon="11.392202000952297"><ele>120.0</ele><time>2026-04-18T09:08:13.001Z</time></trkpt><trkpt lat="44.39901026801748" lon="11.392258414449055"><ele>119.0</ele><time>2026-04-18T09:08:14.001Z</time></trkpt><trkpt lat="44.3988710391711" lon="11.392320845112014"><ele>118.0</ele><time>2026-04-18T09:08:15.001Z</time></trkpt><trkpt lat="44.39873286106266" lon="11.39239055347263"><ele>117.0</ele><time>2026-04-18T09:08:16.001Z</time></trkpt><trkpt lat="44.39859644504532" lon="11.392456444128406"><ele>117.0</ele><time>2026-04-18T09:08:17.001Z</time></trkpt><trkpt lat="44.39846607815143" lon="11.39252312941503"><ele>117.0</ele><time>2026-04-18T09:08:18.001Z</time></trkpt><trkpt lat="44.39833694730923" lon="11.392585656107121"><ele>117.0</ele><time>2026-04-18T09:08:19.001Z</time></trkpt><trkpt lat="44.398207869441165" lon="11.392646269473433"><ele>117.0</ele><time>2026-04-18T09:08:20.001Z</time></trkpt><trkpt lat="44.398086542784675" lon="11.392708991249572"><ele>116.75</ele><time>2026-04-18T09:08:21.001Z</time></trkpt><trkpt lat="44.39797061148219" lon="11.392781131505098"><ele>116.5</ele><time>2026-04-18T09:08:22.001Z</time></trkpt><trkpt lat="44.39787759461606" lon="11.392880036025279"><ele>116.25</ele><time>2026-04-18T09:08:23.001Z</time></trkpt><trkpt lat="44.3978018241423" lon="11.39300485752725"><ele>116.0</ele><time>2026-04-18T09:08:24.001Z</time></trkpt><trkpt lat="44.3977342244716" lon="11.39311886934273"><ele>116.00000000000001</ele><time>2026-04-18T09:08:25.001Z</time></trkpt><trkpt lat="44.39766876769631" lon="11.39320895194827"><ele>116.0</ele><time>2026-04-18T09:08:26.001Z</time></trkpt><trkpt lat="44.397621955609296" lon="11.393292798219882"><ele>116.00000000000001</ele><time>2026-04-18T09:08:27.001Z</time></trkpt><trkpt lat="44.397580343600964" lon="11.393358940045678"><ele>116.00000000000001</ele><time>2026-04-18T09:08:28.001Z</time></trkpt><trkpt lat="44.39754081166051" lon="11.393437391618086"><ele>116.0</ele><time>2026-04-18T09:08:29.001Z</time></trkpt><trkpt lat="44.397496335249684" lon="11.393509228759212"><ele>116.00000000000001</ele><time>2026-04-18T09:08:30.001Z</time></trkpt><trkpt lat="44.39742887788018" lon="11.393515478941348"><ele>116.00000000000001</ele><time>2026-04-18T09:08:31.001Z</time></trkpt><trkpt lat="44.39730504950079" lon="11.393461384823453"><ele>116.0</ele><time>2026-04-18T09:08:33.001Z</time></trkpt><trkpt lat="44.39721616854631" lon="11.393428311476217"><ele>116.0</ele><time>2026-04-18T09:08:35.001Z</time></trkpt><trkpt lat="44.397151422698684" lon="11.393390870074965"><ele>122.0</ele><time>2026-04-18T09:08:37.001Z</time></trkpt><trkpt lat="44.39708251276864" lon="11.393350543733348"><ele>122.0</ele><time>2026-04-18T09:08:39.001Z</time></trkpt><trkpt lat="44.397014277124164" lon="11.393312682973825"><ele>122.0</ele><time>2026-04-18T09:08:42.001Z</time></trkpt></trkseg><trkseg><trkpt lat="44.39694932814494" lon="11.393476654491796"><ele>121.99999999999999</ele><time>2026-04-18T09:29:07Z</time></trkpt><trkpt lat="44.396983723913515" lon="11.393402707148839"><ele>122.0</ele><time>2026-04-18T09:29:38Z</time></trkpt><trkpt lat="44.396925904062044" lon="11.393299055578103"><ele>122.0</ele><time>2026-04-18T09:29:43Z</time></trkpt><trkpt lat="44.39686179836125" lon="11.393274730768512"><ele>122.0</ele><time>2026-04-18T09:29:44Z</time></trkpt><trkpt lat="44.39679214923456" lon="11.3932531134191"><ele>121.99999999999999</ele><time>2026-04-18T09:29:45Z</time></trkpt><trkpt lat="44.39671080988917" lon="11.393209834461905"><ele>122.0</ele><time>2026-04-18T09:29:46Z</time></trkpt><trkpt lat="44.396625967403104" lon="11.393168984833626"><ele>122.0</ele><time>2026-04-18T09:29:47Z</time></trkpt><trkpt lat="44.39654153210642" lon="11.393113641913507"><ele>121.99999999999999</ele><time>2026-04-18T09:29:48Z</time></trkpt><trkpt lat="44.39645183984859" lon="11.393055459963874"><ele>121.99999999999999</ele><time>2026-04-18T09:29:49Z</time></trkpt><trkpt lat="44.39636063176893" lon="11.392979952147284"><ele>122.0</ele><time>2026-04-18T09:29:50Z</time></trkpt><trkpt lat="44.396268593623134" lon="11.392892066804771"><ele>122.0</ele><time>2026-04-18T09:29:51Z</time></trkpt><trkpt lat="44.39618258601" lon="11.39278169063866"><ele>123.25</ele><time>2026-04-18T09:29:52Z</time></trkpt><trkpt lat="44.39610249962898" lon="11.392649851563279"><ele>124.5</ele><time>2026-04-18T09:29:53Z</time></trkpt><trkpt lat="44.39601277733433" lon="11.392511274193478"><ele>125.75</ele><time>2026-04-18T09:29:54Z</time></trkpt><trkpt lat="44.39591095670922" lon="11.392363988502513"><ele>127.0</ele><time>2026-04-18T09:29:55Z</time></trkpt><trkpt lat="44.39582552549834" lon="11.392230044749965"><ele>127.25</ele><time>2026-04-18T09:29:56Z</time></trkpt><trkpt lat="44.39573143300624" lon="11.392087223018258"><ele>127.5</ele><time>2026-04-18T09:29:57Z</time></trkpt><trkpt lat="44.395636634099226" lon="11.391942099675566"><ele>127.75</ele><time>2026-04-18T09:29:58Z</time></trkpt><trkpt lat="44.395538350913135" lon="11.391797093647224"><ele>128.0</ele><time>2026-04-18T09:29:59Z</time></trkpt><trkpt lat="44.39543538221919" lon="11.391647315336428"><ele>128.0</ele><time>2026-04-18T09:30:00Z</time></trkpt><trkpt lat="44.395342792905424" lon="11.391514662677029"><ele>128.0</ele><time>2026-04-18T09:30:01Z</time></trkpt><trkpt lat="44.39525720202398" lon="11.391403349379518"><ele>128.0</ele><time>2026-04-18T09:30:02Z</time></trkpt><trkpt lat="44.395174656385024" lon="11.391301151220006"><ele>128.0</ele><time>2026-04-18T09:30:03Z</time></trkpt><trkpt lat="44.395093664060134" lon="11.391202951558414"><ele>131.20000000000002</ele><time>2026-04-18T09:30:04Z</time></trkpt><trkpt lat="44.39501522036386" lon="11.391099808615644"><ele>134.4</ele><time>2026-04-18T09:30:05Z</time></trkpt><trkpt lat="44.394940853187016" lon="11.391004613715095"><ele>137.60000000000002</ele><time>2026-04-18T09:30:06Z</time></trkpt><trkpt lat="44.394870652733914" lon="11.390909285389302"><ele>140.8</ele><time>2026-04-18T09:30:07Z</time></trkpt><trkpt lat="44.39479963542949" lon="11.39081013201801"><ele>144.0</ele><time>2026-04-18T09:30:08Z</time></trkpt><trkpt lat="44.394729651638734" lon="11.390706526135533"><ele>143.8</ele><time>2026-04-18T09:30:09Z</time></trkpt><trkpt lat="44.3946573483852" lon="11.390598804637905"><ele>143.60000000000002</ele><time>2026-04-18T09:30:10Z</time></trkpt><trkpt lat="44.39458910257094" lon="11.390481782978892"><ele>143.4</ele><time>2026-04-18T09:30:11Z</time></trkpt><trkpt lat="44.39452673131106" lon="11.39035634960875"><ele>143.20000000000002</ele><time>2026-04-18T09:30:12Z</time></trkpt><trkpt lat="44.39447322399888" lon="11.390218446332788"><ele>143.0</ele><time>2026-04-18T09:30:13Z</time></trkpt><trkpt lat="44.39442727590789" lon="11.390074849401739"><ele>143.0</ele><time>2026-04-18T09:30:14Z</time></trkpt><trkpt lat="44.39439325504131" lon="11.389931349146481"><ele>143.0</ele><time>2026-04-18T09:30:15Z</time></trkpt><trkpt lat="44.39436634209418" lon="11.389787617748814"><ele>143.0</ele><time>2026-04-18T09:30:16Z</time></trkpt><trkpt lat="44.39433642310608" lon="11.389650340843694"><ele>143.0</ele><time>2026-04-18T09:30:17Z</time></trkpt><trkpt lat="44.39430827360614" lon="11.389515020999058"><ele>143.0</ele><time>2026-04-18T09:30:18Z</time></trkpt><trkpt lat="44.39428109784262" lon="11.38937643324196"><ele>144.6</ele><time>2026-04-18T09:30:19Z</time></trkpt><trkpt lat="44.39424844345629" lon="11.389237907745306"><ele>146.20000000000002</ele><time>2026-04-18T09:30:20Z</time></trkpt><trkpt lat="44.394216548887684" lon="11.389104821714044"><ele>147.8</ele><time>2026-04-18T09:30:21Z</time></trkpt><trkpt lat="44.39418694918156" lon="11.388963472842063"><ele>149.4</ele><time>2026-04-18T09:30:22Z</time></trkpt><trkpt lat="44.394157611143704" lon="11.388820435787466"><ele>151.0</ele><time>2026-04-18T09:30:23Z</time></trkpt><trkpt lat="44.39412649013933" lon="11.388679866787282"><ele>152.8</ele><time>2026-04-18T09:30:24Z</time></trkpt><trkpt lat="44.39409416823544" lon="11.388532166905426"><ele>154.6</ele><time>2026-04-18T09:30:25Z</time></trkpt><trkpt lat="44.3940615394654" lon="11.388388834743981"><ele>156.4</ele><time>2026-04-18T09:30:26Z</time></trkpt><trkpt lat="44.39403186607724" lon="11.388242700027712"><ele>158.2</ele><time>2026-04-18T09:30:27Z</time></trkpt><trkpt lat="44.39400102366573" lon="11.388109305615325"><ele>160.0</ele><time>2026-04-18T09:30:28Z</time></trkpt><trkpt lat="44.39397617971835" lon="11.387967362963149"><ele>160.5</ele><time>2026-04-18T09:30:29Z</time></trkpt><trkpt lat="44.39397257901102" lon="11.387814565185373"><ele>161.0</ele><time>2026-04-18T09:30:30Z</time></trkpt><trkpt lat="44.39397966925544" lon="11.387650364663509"><ele>161.5</ele><time>2026-04-18T09:30:31Z</time></trkpt><trkpt lat="44.394008770332086" lon="11.3874956539895"><ele>162.0</ele><time>2026-04-18T09:30:32Z</time></trkpt><trkpt lat="44.394051408212356" lon="11.387338330043036"><ele>162.0</ele><time>2026-04-18T09:30:33Z</time></trkpt><trkpt lat="44.39411300821395" lon="11.387201197586835"><ele>162.0</ele><time>2026-04-18T09:30:34Z</time></trkpt><trkpt lat="44.39418738738369" lon="11.387090611525453"><ele>162.0</ele><time>2026-04-18T09:30:35Z</time></trkpt><trkpt lat="44.39426955373922" lon="11.386993823747783"><ele>162.0</ele><time>2026-04-18T09:30:36Z</time></trkpt><trkpt lat="44.39436403950745" lon="11.386917670080143"><ele>162.0</ele><time>2026-04-18T09:30:37Z</time></trkpt><trkpt lat="44.39446345157412" lon="11.38685534031311"><ele>160.6</ele><time>2026-04-18T09:30:38Z</time></trkpt><trkpt lat="44.394571915879936" lon="11.386812168659306"><ele>159.2</ele><time>2026-04-18T09:30:39Z</time></trkpt><trkpt lat="44.394675000695315" lon="11.386772399302131"><ele>157.8</ele><time>2026-04-18T09:30:40Z</time></trkpt><trkpt lat="44.394776653424785" lon="11.386730290446105"><ele>156.4</ele><time>2026-04-18T09:30:41Z</time></trkpt><trkpt lat="44.39486743478564" lon="11.386680523072963"><ele>155.0</ele><time>2026-04-18T09:30:42Z</time></trkpt><trkpt lat="44.39495245610572" lon="11.386617723237638"><ele>157.4</ele><time>2026-04-18T09:30:43Z</time></trkpt><trkpt lat="44.39503166796829" lon="11.386534054050022"><ele>159.8</ele><time>2026-04-18T09:30:44Z</time></trkpt><trkpt lat="44.395107236022035" lon="11.38643624072852"><ele>162.2</ele><time>2026-04-18T09:30:45Z</time></trkpt><trkpt lat="44.395176970637046" lon="11.386321986850671"><ele>164.6</ele><time>2026-04-18T09:30:46Z</time></trkpt><trkpt lat="44.395224632264146" lon="11.38619423870657"><ele>167.0</ele><time>2026-04-18T09:30:47Z</time></trkpt><trkpt lat="44.39526451831006" lon="11.386063628619768"><ele>167.0</ele><time>2026-04-18T09:30:48Z</time></trkpt><trkpt lat="44.39530388278831" lon="11.385928625602503"><ele>167.0</ele><time>2026-04-18T09:30:49Z</time></trkpt><trkpt lat="44.39533974583352" lon="11.385788976694139"><ele>167.0</ele><time>2026-04-18T09:30:50Z</time></trkpt><trkpt lat="44.39537419795134" lon="11.3856483973579"><ele>167.0</ele><time>2026-04-18T09:30:51Z</time></trkpt><trkpt lat="44.395409220097484" lon="11.385507273559613"><ele>167.0</ele><time>2026-04-18T09:30:52Z</time></trkpt><trkpt lat="44.395442918408925" lon="11.385352663650611"><ele>168.2</ele><time>2026-04-18T09:30:53Z</time></trkpt><trkpt lat="44.3954734295629" lon="11.385210063931199"><ele>169.39999999999998</ele><time>2026-04-18T09:30:54Z</time></trkpt><trkpt lat="44.39551611450698" lon="11.385070178554638"><ele>170.60000000000002</ele><time>2026-04-18T09:30:55Z</time></trkpt><trkpt lat="44.39554405488254" lon="11.38492865457395"><ele>171.8</ele><time>2026-04-18T09:30:56Z</time></trkpt><trkpt lat="44.39553979019341" lon="11.384780612245198"><ele>173.0</ele><time>2026-04-18T09:30:57.001Z</time></trkpt><trkpt lat="44.39551015298479" lon="11.38463556150532"><ele>176.4</ele><time>2026-04-18T09:30:58.001Z</time></trkpt><trkpt lat="44.39546783602438" lon="11.384500731971857"><ele>179.8</ele><time>2026-04-18T09:30:59.001Z</time></trkpt><trkpt lat="44.39540066052251" lon="11.384390067833444"><ele>183.2</ele><time>2026-04-18T09:31:00Z</time></trkpt><trkpt lat="44.39531749342297" lon="11.384294423046217"><ele>186.6</ele><time>2026-04-18T09:31:01Z</time></trkpt><trkpt lat="44.3952196068911" lon="11.38423147999842"><ele>190.0</ele><time>2026-04-18T09:31:02Z</time></trkpt><trkpt lat="44.39511542887573" lon="11.384172729144447"><ele>190.0</ele><time>2026-04-18T09:31:03Z</time></trkpt><trkpt lat="44.39500978572938" lon="11.384125348574583"><ele>190.0</ele><time>2026-04-18T09:31:04Z</time></trkpt><trkpt lat="44.3949063703963" lon="11.384075581310967"><ele>190.0</ele><time>2026-04-18T09:31:05Z</time></trkpt><trkpt lat="44.39481199384862" lon="11.384021618608486"><ele>190.0</ele><time>2026-04-18T09:31:06Z</time></trkpt><trkpt lat="44.39472820034473" lon="11.383954730736122"><ele>190.0</ele><time>2026-04-18T09:31:07Z</time></trkpt><trkpt lat="44.394650736076294" lon="11.383864088882552"><ele>189.4</ele><time>2026-04-18T09:31:08Z</time></trkpt><trkpt lat="44.39459591803061" lon="11.38374758981515"><ele>188.8</ele><time>2026-04-18T09:31:09Z</time></trkpt><trkpt lat="44.39455863074707" lon="11.383610566123727"><ele>188.2</ele><time>2026-04-18T09:31:10Z</time></trkpt><trkpt lat="44.39454369403784" lon="11.383453335186994"><ele>187.6</ele><time>2026-04-18T09:31:11Z</time></trkpt><trkpt lat="44.394543013957716" lon="11.383288838646367"><ele>187.0</ele><time>2026-04-18T09:31:12Z</time></trkpt><trkpt lat="44.39453485548005" lon="11.383122806720236"><ele>187.75</ele><time>2026-04-18T09:31:13Z</time></trkpt><trkpt lat="44.39452833747443" lon="11.38295105379448"><ele>188.5</ele><time>2026-04-18T09:31:14Z</time></trkpt><trkpt lat="44.39452083512429" lon="11.382772815074874"><ele>189.25</ele><time>2026-04-18T09:31:15Z</time></trkpt><trkpt lat="44.394511649830505" lon="11.382601777112848"><ele>190.0</ele><time>2026-04-18T09:31:16Z</time></trkpt><trkpt lat="44.394498942128216" lon="11.38241980557321"><ele>190.0</ele><time>2026-04-18T09:31:17Z</time></trkpt><trkpt lat="44.39448033912475" lon="11.382242982384122"><ele>190.0</ele><time>2026-04-18T09:31:18Z</time></trkpt><trkpt lat="44.394452346464526" lon="11.382067089660866"><ele>190.0</ele><time>2026-04-18T09:31:19Z</time></trkpt><trkpt lat="44.394435186686174" lon="11.38188983142258"><ele>190.0</ele><time>2026-04-18T09:31:20Z</time></trkpt><trkpt lat="44.394428194818374" lon="11.381710027517164"><ele>192.0</ele><time>2026-04-18T09:31:21Z</time></trkpt><trkpt lat="44.394435150277154" lon="11.38152791128433"><ele>194.0</ele><time>2026-04-18T09:31:22Z</time></trkpt><trkpt lat="44.39445476051654" lon="11.381344516496313"><ele>196.0</ele><time>2026-04-18T09:31:23Z</time></trkpt><trkpt lat="44.39448103672172" lon="11.381167341271274"><ele>198.0</ele><time>2026-04-18T09:31:24Z</time></trkpt><trkpt lat="44.39452134633403" lon="11.380988543928035"><ele>198.25</ele><time>2026-04-18T09:31:25Z</time></trkpt><trkpt lat="44.39458159302586" lon="11.380811858277475"><ele>198.5</ele><time>2026-04-18T09:31:26Z</time></trkpt><trkpt lat="44.39465143027511" lon="11.380649323741"><ele>198.75</ele><time>2026-04-18T09:31:27Z</time></trkpt><trkpt lat="44.394727160684965" lon="11.380496556341916"><ele>199.0</ele><time>2026-04-18T09:31:28Z</time></trkpt><trkpt lat="44.39481677123065" lon="11.380359130201425"><ele>202.0</ele><time>2026-04-18T09:31:29Z</time></trkpt><trkpt lat="44.39491422247361" lon="11.380232203784228"><ele>205.0</ele><time>2026-04-18T09:31:30Z</time></trkpt><trkpt lat="44.39502113623408" lon="11.380122886542315"><ele>208.0</ele><time>2026-04-18T09:31:31Z</time></trkpt><trkpt lat="44.39513309708212" lon="11.380027186665004"><ele>211.0</ele><time>2026-04-18T09:31:32Z</time></trkpt><trkpt lat="44.39524830135919" lon="11.37993868531399"><ele>211.0</ele><time>2026-04-18T09:31:33Z</time></trkpt><trkpt lat="44.39536552639664" lon="11.379860897446745"><ele>211.0</ele><time>2026-04-18T09:31:34Z</time></trkpt><trkpt lat="44.39547966809964" lon="11.37977813565116"><ele>211.0</ele><time>2026-04-18T09:31:35Z</time></trkpt><trkpt lat="44.39559597816874" lon="11.379690860191658"><ele>211.0</ele><time>2026-04-18T09:31:36Z</time></trkpt><trkpt lat="44.395712889207225" lon="11.379605270223983"><ele>212.25</ele><time>2026-04-18T09:31:37Z</time></trkpt><trkpt lat="44.395825863128366" lon="11.379510459286447"><ele>213.5</ele><time>2026-04-18T09:31:38Z</time></trkpt><trkpt lat="44.395932594320506" lon="11.379398954597958"><ele>214.75</ele><time>2026-04-18T09:31:39Z</time></trkpt><trkpt lat="44.396037851168344" lon="11.379281887375567"><ele>216.0</ele><time>2026-04-18T09:31:40Z</time></trkpt><trkpt lat="44.39614238822331" lon="11.37915365443474"><ele>216.0</ele><time>2026-04-18T09:31:41Z</time></trkpt><trkpt lat="44.39625611956254" lon="11.379024376990664"><ele>216.0</ele><time>2026-04-18T09:31:42Z</time></trkpt><trkpt lat="44.3963672072707" lon="11.378895092709556"><ele>216.0</ele><time>2026-04-18T09:31:43Z</time></trkpt><trkpt lat="44.396478441134306" lon="11.378757411423003"><ele>216.0</ele><time>2026-04-18T09:31:44Z</time></trkpt><trkpt lat="44.39658407326192" lon="11.378636302270726"><ele>217.5</ele><time>2026-04-18T09:31:45Z</time></trkpt><trkpt lat="44.39668932730505" lon="11.378530023676744"><ele>219.0</ele><time>2026-04-18T09:31:46Z</time></trkpt><trkpt lat="44.39678798629538" lon="11.378411836364227"><ele>220.5</ele><time>2026-04-18T09:31:47Z</time></trkpt><trkpt lat="44.39688138375014" lon="11.378275558759457"><ele>222.0</ele><time>2026-04-18T09:31:48Z</time></trkpt><trkpt lat="44.39695440495296" lon="11.37812731494113"><ele>221.75</ele><time>2026-04-18T09:31:49Z</time></trkpt><trkpt lat="44.39700776653666" lon="11.377968946934175"><ele>221.5</ele><time>2026-04-18T09:31:50Z</time></trkpt><trkpt lat="44.397048679244214" lon="11.377800906993235"><ele>221.25</ele><time>2026-04-18T09:31:51Z</time></trkpt><trkpt lat="44.397070761978185" lon="11.377626893093272"><ele>221.0</ele><time>2026-04-18T09:31:52Z</time></trkpt><trkpt lat="44.39706580175489" lon="11.377443756561423"><ele>221.0</ele><time>2026-04-18T09:31:53Z</time></trkpt><trkpt lat="44.39704183619885" lon="11.377265114280947"><ele>221.0</ele><time>2026-04-18T09:31:54Z</time></trkpt><trkpt lat="44.39701504618763" lon="11.377087453735312"><ele>221.0</ele><time>2026-04-18T09:31:55Z</time></trkpt><trkpt lat="44.39698967343365" lon="11.376918103355303"><ele>221.0</ele><time>2026-04-18T09:31:56Z</time></trkpt><trkpt lat="44.39696216540086" lon="11.376744855897973"><ele>221.60000000000002</ele><time>2026-04-18T09:31:57Z</time></trkpt><trkpt lat="44.39693390464489" lon="11.376580097349837"><ele>222.20000000000002</ele><time>2026-04-18T09:31:58Z</time></trkpt><trkpt lat="44.39691031059152" lon="11.376432205479913"><ele>222.79999999999998</ele><time>2026-04-18T09:31:59Z</time></trkpt><trkpt lat="44.39688915382329" lon="11.376306684871548"><ele>223.39999999999998</ele><time>2026-04-18T09:32:00Z</time></trkpt><trkpt lat="44.39686711725245" lon="11.376189272408222"><ele>224.0</ele><time>2026-04-18T09:32:01Z</time></trkpt><trkpt lat="44.39685218038592" lon="11.376056646758036"><ele>225.79999999999998</ele><time>2026-04-18T09:32:02Z</time></trkpt><trkpt lat="44.39683296042911" lon="11.375918157456638"><ele>227.59999999999997</ele><time>2026-04-18T09:32:03Z</time></trkpt><trkpt lat="44.3968121002668" lon="11.37579353477717"><ele>229.4</ele><time>2026-04-18T09:32:04Z</time></trkpt><trkpt lat="44.396794151543574" lon="11.375674069903114"><ele>231.2</ele><time>2026-04-18T09:32:05Z</time></trkpt><trkpt lat="44.39677150863117" lon="11.375546416821015"><ele>233.0</ele><time>2026-04-18T09:32:06Z</time></trkpt><trkpt lat="44.396754975954906" lon="11.375403558184344"><ele>234.75</ele><time>2026-04-18T09:32:07Z</time></trkpt><trkpt lat="44.39674253689016" lon="11.37524850743843"><ele>236.5</ele><time>2026-04-18T09:32:08Z</time></trkpt><trkpt lat="44.39672072898233" lon="11.375086525798807"><ele>238.25</ele><time>2026-04-18T09:32:09Z</time></trkpt><trkpt lat="44.39669343945192" lon="11.374919797325893"><ele>240.0</ele><time>2026-04-18T09:32:10Z</time></trkpt><trkpt lat="44.39666551056532" lon="11.374730706669972"><ele>239.5</ele><time>2026-04-18T09:32:11Z</time></trkpt><trkpt lat="44.396634635179346" lon="11.374556514164137"><ele>239.0</ele><time>2026-04-18T09:32:12Z</time></trkpt><trkpt lat="44.39659295991092" lon="11.37439212643869"><ele>238.5</ele><time>2026-04-18T09:32:13Z</time></trkpt><trkpt lat="44.39653569841815" lon="11.374230221804826"><ele>238.0</ele><time>2026-04-18T09:32:14Z</time></trkpt><trkpt lat="44.3964698790697" lon="11.374074056676086"><ele>238.0</ele><time>2026-04-18T09:32:15Z</time></trkpt><trkpt lat="44.39639993557787" lon="11.373916223395398"><ele>238.0</ele><time>2026-04-18T09:32:16Z</time></trkpt><trkpt lat="44.39632878069131" lon="11.373749800409758"><ele>238.0</ele><time>2026-04-18T09:32:17Z</time></trkpt><trkpt lat="44.396267603464786" lon="11.373578447658877"><ele>238.0</ele><time>2026-04-18T09:32:18Z</time></trkpt><trkpt lat="44.39621670073157" lon="11.373403024956891"><ele>237.25</ele><time>2026-04-18T09:32:19Z</time></trkpt><trkpt lat="44.39617227529532" lon="11.373220019644098"><ele>236.5</ele><time>2026-04-18T09:32:20Z</time></trkpt><trkpt lat="44.396133347807165" lon="11.373019725206811"><ele>235.75</ele><time>2026-04-18T09:32:21Z</time></trkpt><trkpt lat="44.39610146968874" lon="11.372816769613587"><ele>235.0</ele><time>2026-04-18T09:32:22Z</time></trkpt><trkpt lat="44.396073918960546" lon="11.372605725272605"><ele>234.5</ele><time>2026-04-18T09:32:23Z</time></trkpt><trkpt lat="44.39605050924414" lon="11.372400351761934"><ele>234.0</ele><time>2026-04-18T09:32:24Z</time></trkpt><trkpt lat="44.39602548675157" lon="11.372197685960957"><ele>233.5</ele><time>2026-04-18T09:32:25Z</time></trkpt><trkpt lat="44.395999272740106" lon="11.372004866044765"><ele>233.0</ele><time>2026-04-18T09:32:26Z</time></trkpt><trkpt lat="44.395975637835605" lon="11.371818925892745"><ele>234.75</ele><time>2026-04-18T09:32:27Z</time></trkpt><trkpt lat="44.39595534660552" lon="11.37163890290323"><ele>236.5</ele><time>2026-04-18T09:32:28Z</time></trkpt><trkpt lat="44.39593620417446" lon="11.371471083588496"><ele>238.25</ele><time>2026-04-18T09:32:29Z</time></trkpt><trkpt lat="44.39591770231209" lon="11.371309651706913"><ele>240.0</ele><time>2026-04-18T09:32:30Z</time></trkpt><trkpt lat="44.39589606309347" lon="11.371156750794833"><ele>240.75</ele><time>2026-04-18T09:32:31Z</time></trkpt><trkpt lat="44.39587800930144" lon="11.370988431478521"><ele>241.5</ele><time>2026-04-18T09:32:32Z</time></trkpt><trkpt lat="44.39587005588528" lon="11.370819364096722"><ele>242.25</ele><time>2026-04-18T09:32:33Z</time></trkpt><trkpt lat="44.395866231730395" lon="11.37063909134781"><ele>243.0</ele><time>2026-04-18T09:32:34Z</time></trkpt><trkpt lat="44.39587682696745" lon="11.370460925551296"><ele>243.0</ele><time>2026-04-18T09:32:35Z</time></trkpt><trkpt lat="44.39589179317872" lon="11.37028692856949"><ele>243.0</ele><time>2026-04-18T09:32:36Z</time></trkpt><trkpt lat="44.39590122860516" lon="11.37011421411512"><ele>243.0</ele><time>2026-04-18T09:32:37Z</time></trkpt><trkpt lat="44.3959092681793" lon="11.369932402715254"><ele>243.0</ele><time>2026-04-18T09:32:38Z</time></trkpt><trkpt lat="44.39591758465529" lon="11.369758746919137"><ele>242.25</ele><time>2026-04-18T09:32:39Z</time></trkpt><trkpt lat="44.39592442428435" lon="11.369579625892234"><ele>241.5</ele><time>2026-04-18T09:32:40Z</time></trkpt><trkpt lat="44.395931932644906" lon="11.369402138636035"><ele>240.75</ele><time>2026-04-18T09:32:41Z</time></trkpt><trkpt lat="44.395936880058734" lon="11.369223087238126"><ele>240.0</ele><time>2026-04-18T09:32:42Z</time></trkpt><trkpt lat="44.39594426806694" lon="11.369037084948742"><ele>239.75</ele><time>2026-04-18T09:32:43Z</time></trkpt><trkpt lat="44.39595156637054" lon="11.368845760211544"><ele>239.5</ele><time>2026-04-18T09:32:44Z</time></trkpt><trkpt lat="44.395961822857984" lon="11.368649327229635"><ele>239.25</ele><time>2026-04-18T09:32:45Z</time></trkpt><trkpt lat="44.395972829145514" lon="11.368447065687992"><ele>239.0</ele><time>2026-04-18T09:32:46Z</time></trkpt><trkpt lat="44.39597887724351" lon="11.36824803724209"><ele>239.0</ele><time>2026-04-18T09:32:47Z</time></trkpt><trkpt lat="44.39598614305579" lon="11.36804508245292"><ele>239.0</ele><time>2026-04-18T09:32:48Z</time></trkpt><trkpt lat="44.39599523053485" lon="11.367848313966672"><ele>239.0</ele><time>2026-04-18T09:32:49Z</time></trkpt><trkpt lat="44.396002258482056" lon="11.367654274100746"><ele>239.0</ele><time>2026-04-18T09:32:50Z</time></trkpt><trkpt lat="44.39598773236303" lon="11.367467808226237"><ele>239.0</ele><time>2026-04-18T09:32:51Z</time></trkpt><trkpt lat="44.39594930040232" lon="11.367285842033331"><ele>239.0</ele><time>2026-04-18T09:32:52Z</time></trkpt><trkpt lat="44.39589377502487" lon="11.367104591669161"><ele>239.0</ele><time>2026-04-18T09:32:53Z</time></trkpt><trkpt lat="44.39581581505236" lon="11.366937425197253"><ele>239.0</ele><time>2026-04-18T09:32:54Z</time></trkpt><trkpt lat="44.395727342003944" lon="11.366774998214936"><ele>238.75</ele><time>2026-04-18T09:32:55Z</time></trkpt><trkpt lat="44.39564172312068" lon="11.36661184463954"><ele>238.5</ele><time>2026-04-18T09:32:56Z</time></trkpt><trkpt lat="44.39555920198011" lon="11.366452126013845"><ele>238.25</ele><time>2026-04-18T09:32:57Z</time></trkpt><trkpt lat="44.39547407480953" lon="11.366301332657505"><ele>238.0</ele><time>2026-04-18T09:32:58Z</time></trkpt><trkpt lat="44.395392990622256" lon="11.366153742469875"><ele>238.5</ele><time>2026-04-18T09:32:59Z</time></trkpt><trkpt lat="44.395311600844906" lon="11.36600794149833"><ele>239.0</ele><time>2026-04-18T09:33:00Z</time></trkpt><trkpt lat="44.39523016869442" lon="11.365861796479663"><ele>239.5</ele><time>2026-04-18T09:33:01Z</time></trkpt><trkpt lat="44.39514900596419" lon="11.365714701419181"><ele>240.0</ele><time>2026-04-18T09:33:02Z</time></trkpt><trkpt lat="44.39506969458519" lon="11.365567419410825"><ele>241.0</ele><time>2026-04-18T09:33:03Z</time></trkpt><trkpt lat="44.394991055080865" lon="11.365420134618965"><ele>242.0</ele><time>2026-04-18T09:33:04Z</time></trkpt><trkpt lat="44.394911440841696" lon="11.365274108139259"><ele>243.0</ele><time>2026-04-18T09:33:05Z</time></trkpt><trkpt lat="44.394829127883774" lon="11.365123274565935"><ele>244.0</ele><time>2026-04-18T09:33:05.999Z</time></trkpt><trkpt lat="44.394749921408426" lon="11.364974798838029"><ele>244.25</ele><time>2026-04-18T09:33:06.999Z</time></trkpt><trkpt lat="44.39466706246026" lon="11.36482115362171"><ele>244.5</ele><time>2026-04-18T09:33:07.999Z</time></trkpt><trkpt lat="44.39458338069083" lon="11.36466819870566"><ele>244.75</ele><time>2026-04-18T09:33:08.999Z</time></trkpt><trkpt lat="44.39450366833042" lon="11.364521323728068"><ele>245.0</ele><time>2026-04-18T09:33:09.999Z</time></trkpt><trkpt lat="44.39442863343653" lon="11.364382521522973"><ele>245.0</ele><time>2026-04-18T09:33:10.999Z</time></trkpt><trkpt lat="44.394360439167826" lon="11.3642370730329"><ele>245.0</ele><time>2026-04-18T09:33:11.999Z</time></trkpt><trkpt lat="44.39430339455238" lon="11.364082873041141"><ele>245.0</ele><time>2026-04-18T09:33:12.999Z</time></trkpt><trkpt lat="44.39426402865245" lon="11.363914681824738"><ele>245.0</ele><time>2026-04-18T09:33:13.999Z</time></trkpt><trkpt lat="44.394239996505725" lon="11.36373708576979"><ele>245.5</ele><time>2026-04-18T09:33:14.999Z</time></trkpt><trkpt lat="44.39423153964801" lon="11.363558051484826"><ele>246.0</ele><time>2026-04-18T09:33:15.999Z</time></trkpt><trkpt lat="44.394235847688996" lon="11.363378950739841"><ele>246.5</ele><time>2026-04-18T09:33:16.999Z</time></trkpt><trkpt lat="44.3942470249649" lon="11.363201172304555"><ele>247.0</ele><time>2026-04-18T09:33:17.999Z</time></trkpt><trkpt lat="44.39426192419635" lon="11.3630160778411"><ele>247.25</ele><time>2026-04-18T09:33:18.999Z</time></trkpt><trkpt lat="44.39427251950475" lon="11.362834890409484"><ele>247.5</ele><time>2026-04-18T09:33:19.999Z</time></trkpt><trkpt lat="44.394285560120366" lon="11.362652721853935"><ele>247.75</ele><time>2026-04-18T09:33:20.999Z</time></trkpt><trkpt lat="44.39429591129255" lon="11.362472606546753"><ele>248.0</ele><time>2026-04-18T09:33:21.999Z</time></trkpt><trkpt lat="44.39430765108958" lon="11.362288439599116"><ele>249.5</ele><time>2026-04-18T09:33:22.999Z</time></trkpt><trkpt lat="44.394319760912545" lon="11.362103499562963"><ele>251.0</ele><time>2026-04-18T09:33:23.999Z</time></trkpt><trkpt lat="44.394330081582915" lon="11.361920890414769"><ele>252.5</ele><time>2026-04-18T09:33:24.999Z</time></trkpt><trkpt lat="44.39434184672918" lon="11.361740865820565"><ele>254.0</ele><time>2026-04-18T09:33:25.999Z</time></trkpt><trkpt lat="44.394353859002905" lon="11.36156817494747"><ele>254.0</ele><time>2026-04-18T09:33:26.999Z</time></trkpt><trkpt lat="44.3943644934951" lon="11.361403757142664"><ele>254.0</ele><time>2026-04-18T09:33:27.999Z</time></trkpt><trkpt lat="44.394372162761876" lon="11.361245118866428"><ele>254.0</ele><time>2026-04-18T09:33:28.999Z</time></trkpt><trkpt lat="44.39437614109297" lon="11.361086641910562"><ele>254.0</ele><time>2026-04-18T09:33:29.999Z</time></trkpt><trkpt lat="44.39437279301227" lon="11.360927317224638"><ele>255.0</ele><time>2026-04-18T09:33:30.999Z</time></trkpt><trkpt lat="44.394365809142045" lon="11.360760953453429"><ele>256.0</ele><time>2026-04-18T09:33:31.999Z</time></trkpt><trkpt lat="44.3943528779568" lon="11.360589296112842"><ele>257.0</ele><time>2026-04-18T09:33:32.999Z</time></trkpt><trkpt lat="44.39433238039668" lon="11.360417919617847"><ele>258.0</ele><time>2026-04-18T09:33:33.999Z</time></trkpt><trkpt lat="44.39430491700298" lon="11.360243221111729"><ele>258.5</ele><time>2026-04-18T09:33:34.999Z</time></trkpt><trkpt lat="44.39427599648524" lon="11.360068760603944"><ele>259.0</ele><time>2026-04-18T09:33:35.999Z</time></trkpt><trkpt lat="44.39424950427625" lon="11.359892280463912"><ele>259.5</ele><time>2026-04-18T09:33:36.999Z</time></trkpt><trkpt lat="44.39423080985289" lon="11.359716555614478"><ele>260.0</ele><time>2026-04-18T09:33:37.999Z</time></trkpt><trkpt lat="44.39422448176004" lon="11.359539221509104"><ele>260.5</ele><time>2026-04-18T09:33:38.999Z</time></trkpt><trkpt lat="44.39422903396227" lon="11.359359142907923"><ele>261.0</ele><time>2026-04-18T09:33:40Z</time></trkpt><trkpt lat="44.39423937822651" lon="11.35918599003862"><ele>261.5</ele><time>2026-04-18T09:33:41Z</time></trkpt><trkpt lat="44.39425405503812" lon="11.359017324458852"><ele>262.0</ele><time>2026-04-18T09:33:42Z</time></trkpt><trkpt lat="44.39426924939477" lon="11.358851395364235"><ele>262.75</ele><time>2026-04-18T09:33:43Z</time></trkpt><trkpt lat="44.39429078542566" lon="11.358684056546064"><ele>263.5</ele><time>2026-04-18T09:33:44Z</time></trkpt><trkpt lat="44.394315270687386" lon="11.358517813675054"><ele>264.25</ele><time>2026-04-18T09:33:45Z</time></trkpt><trkpt lat="44.39434650485516" lon="11.35835304395456"><ele>265.0</ele><time>2026-04-18T09:33:46Z</time></trkpt><trkpt lat="44.39438718960754" lon="11.3581852401872"><ele>266.5</ele><time>2026-04-18T09:33:47Z</time></trkpt><trkpt lat="44.39443399745187" lon="11.358017846480736"><ele>268.0</ele><time>2026-04-18T09:33:48Z</time></trkpt><trkpt lat="44.3944851380349" lon="11.357851569733048"><ele>269.5</ele><time>2026-04-18T09:33:49Z</time></trkpt><trkpt lat="44.39453860981493" lon="11.357680369378018"><ele>271.0</ele><time>2026-04-18T09:33:50Z</time></trkpt><trkpt lat="44.394593511768214" lon="11.357506201303947"><ele>271.0</ele><time>2026-04-18T09:33:51Z</time></trkpt><trkpt lat="44.39464690801" lon="11.35733178275426"><ele>271.0</ele><time>2026-04-18T09:33:52Z</time></trkpt><trkpt lat="44.39470878465227" lon="11.357160668122756"><ele>271.0</ele><time>2026-04-18T09:33:53Z</time></trkpt><trkpt lat="44.39478174029075" lon="11.357003298581526"><ele>271.0</ele><time>2026-04-18T09:33:54Z</time></trkpt><trkpt lat="44.394871659503195" lon="11.356855060415342"><ele>270.5</ele><time>2026-04-18T09:33:55Z</time></trkpt><trkpt lat="44.39497020567593" lon="11.356725890844261"><ele>270.0</ele><time>2026-04-18T09:33:56Z</time></trkpt><trkpt lat="44.39507440608178" lon="11.356604410569469"><ele>269.5</ele><time>2026-04-18T09:33:57Z</time></trkpt><trkpt lat="44.395186415728375" lon="11.356493687175451"><ele>269.0</ele><time>2026-04-18T09:33:58Z</time></trkpt><trkpt lat="44.39529732077135" lon="11.356383230719388"><ele>268.5</ele><time>2026-04-18T09:33:59Z</time></trkpt><trkpt lat="44.395407756623996" lon="11.356281553745115"><ele>268.0</ele><time>2026-04-18T09:34:00Z</time></trkpt><trkpt lat="44.395523160712834" lon="11.356183567069982"><ele>267.5</ele><time>2026-04-18T09:34:01Z</time></trkpt><trkpt lat="44.39563665783168" lon="11.356099047400882"><ele>267.0</ele><time>2026-04-18T09:34:02Z</time></trkpt><trkpt lat="44.39575194758704" lon="11.356018272667592"><ele>267.0</ele><time>2026-04-18T09:34:03Z</time></trkpt><trkpt lat="44.39586319035421" lon="11.355948051053645"><ele>267.0</ele><time>2026-04-18T09:34:04Z</time></trkpt><trkpt lat="44.39597795980226" lon="11.355889915782319"><ele>267.0</ele><time>2026-04-18T09:34:05Z</time></trkpt><trkpt lat="44.39609015557808" lon="11.35582751814334"><ele>267.0</ele><time>2026-04-18T09:34:06Z</time></trkpt><trkpt lat="44.39618852938416" lon="11.355767342408232"><ele>267.0</ele><time>2026-04-18T09:34:07Z</time></trkpt><trkpt lat="44.39627373625502" lon="11.355702460095182"><ele>267.0</ele><time>2026-04-18T09:34:08Z</time></trkpt><trkpt lat="44.3963277692207" lon="11.355623072581402"><ele>267.0</ele><time>2026-04-18T09:34:09Z</time></trkpt><trkpt lat="44.396365344091535" lon="11.355527815741988"><ele>267.0</ele><time>2026-04-18T09:34:10Z</time></trkpt><trkpt lat="44.396372406254144" lon="11.355432542704428"><ele>267.0</ele><time>2026-04-18T09:34:11Z</time></trkpt><trkpt lat="44.396309402982155" lon="11.355339147095028"><ele>267.0</ele><time>2026-04-18T09:34:12Z</time></trkpt><trkpt lat="44.396222040133495" lon="11.355289509762779"><ele>266.25</ele><time>2026-04-18T09:34:13Z</time></trkpt><trkpt lat="44.39612181967773" lon="11.35523270803196"><ele>265.5</ele><time>2026-04-18T09:34:14Z</time></trkpt><trkpt lat="44.39600358417164" lon="11.355196314931264"><ele>264.75</ele><time>2026-04-18T09:34:15Z</time></trkpt><trkpt lat="44.39587494019166" lon="11.355148524006987"><ele>264.0</ele><time>2026-04-18T09:34:16Z</time></trkpt><trkpt lat="44.3957490560539" lon="11.355069429937489"><ele>264.0</ele><time>2026-04-18T09:34:17Z</time></trkpt><trkpt lat="44.395627695733396" lon="11.354962928636308"><ele>264.0</ele><time>2026-04-18T09:34:18Z</time></trkpt><trkpt lat="44.39550481672769" lon="11.354847317295079"><ele>264.0</ele><time>2026-04-18T09:34:19Z</time></trkpt><trkpt lat="44.395382204218556" lon="11.354723320169585"><ele>264.0</ele><time>2026-04-18T09:34:20Z</time></trkpt><trkpt lat="44.39525874557629" lon="11.354608273670667"><ele>260.25</ele><time>2026-04-18T09:34:21Z</time></trkpt><trkpt lat="44.395141100663615" lon="11.35449379655611"><ele>256.5</ele><time>2026-04-18T09:34:22Z</time></trkpt><trkpt lat="44.395016839292396" lon="11.35438086424549"><ele>252.75</ele><time>2026-04-18T09:34:23Z</time></trkpt><trkpt lat="44.39490989847394" lon="11.354265876477864"><ele>249.0</ele><time>2026-04-18T09:34:24Z</time></trkpt><trkpt lat="44.394821439781566" lon="11.354132456696377"><ele>249.0</ele><time>2026-04-18T09:34:25Z</time></trkpt><trkpt lat="44.39475105733109" lon="11.353984764735637"><ele>248.99999999999997</ele><time>2026-04-18T09:34:26Z</time></trkpt><trkpt lat="44.39470597701895" lon="11.353845692898435"><ele>248.99999999999997</ele><time>2026-04-18T09:34:27Z</time></trkpt><trkpt lat="44.394655259975174" lon="11.353717527970405"><ele>249.0</ele><time>2026-04-18T09:34:28Z</time></trkpt><trkpt lat="44.39458109186223" lon="11.353637424075584"><ele>249.0</ele><time>2026-04-18T09:34:29Z</time></trkpt><trkpt lat="44.39448139879488" lon="11.35359446727296"><ele>247.0</ele><time>2026-04-18T09:34:30Z</time></trkpt><trkpt lat="44.394370536291675" lon="11.353559762848569"><ele>244.99999999999997</ele><time>2026-04-18T09:34:31Z</time></trkpt><trkpt lat="44.39425989207121" lon="11.353582504185026"><ele>242.99999999999997</ele><time>2026-04-18T09:34:32Z</time></trkpt><trkpt lat="44.39415576877855" lon="11.35362453178965"><ele>241.0</ele><time>2026-04-18T09:34:33Z</time></trkpt><trkpt lat="44.39405486839375" lon="11.353648919613793"><ele>239.0</ele><time>2026-04-18T09:34:34Z</time></trkpt><trkpt lat="44.393950985957694" lon="11.35359331154872"><ele>239.25</ele><time>2026-04-18T09:34:35Z</time></trkpt><trkpt lat="44.39383475485506" lon="11.353494496747063"><ele>239.5</ele><time>2026-04-18T09:34:36Z</time></trkpt><trkpt lat="44.393724860045765" lon="11.353375106130764"><ele>239.75</ele><time>2026-04-18T09:34:37Z</time></trkpt><trkpt lat="44.3936464036976" lon="11.35328129953706"><ele>240.0</ele><time>2026-04-18T09:34:38Z</time></trkpt><trkpt lat="44.39356814727347" lon="11.35318589756106"><ele>240.0</ele><time>2026-04-18T09:34:39Z</time></trkpt><trkpt lat="44.39349290842395" lon="11.353109074701726"><ele>240.0</ele><time>2026-04-18T09:34:40Z</time></trkpt><trkpt lat="44.39341006870948" lon="11.353072402155826"><ele>240.0</ele><time>2026-04-18T09:34:41Z</time></trkpt><trkpt lat="44.39331507499074" lon="11.353089641987514"><ele>240.0</ele><time>2026-04-18T09:34:42Z</time></trkpt><trkpt lat="44.39321307147837" lon="11.353140578516022"><ele>240.0</ele><time>2026-04-18T09:34:43Z</time></trkpt><trkpt lat="44.393102866473484" lon="11.353203786400288"><ele>239.5</ele><time>2026-04-18T09:34:44Z</time></trkpt><trkpt lat="44.392982039161765" lon="11.353233521613259"><ele>239.0</ele><time>2026-04-18T09:34:45Z</time></trkpt><trkpt lat="44.39285919512022" lon="11.353218987338241"><ele>238.5</ele><time>2026-04-18T09:34:46Z</time></trkpt><trkpt lat="44.392736345185824" lon="11.353192117260749"><ele>238.0</ele><time>2026-04-18T09:34:47Z</time></trkpt><trkpt lat="44.392602993537736" lon="11.353162131948745"><ele>238.0</ele><time>2026-04-18T09:34:48Z</time></trkpt><trkpt lat="44.39247574408812" lon="11.353106721128714"><ele>238.0</ele><time>2026-04-18T09:34:49Z</time></trkpt><trkpt lat="44.39235326935493" lon="11.35302210377412"><ele>238.0</ele><time>2026-04-18T09:34:50Z</time></trkpt><trkpt lat="44.392236623762315" lon="11.35292133867862"><ele>238.0</ele><time>2026-04-18T09:34:51Z</time></trkpt><trkpt lat="44.39213112894382" lon="11.352794890201794"><ele>235.25</ele><time>2026-04-18T09:34:52Z</time></trkpt><trkpt lat="44.392036140903336" lon="11.35264731158336"><ele>232.5</ele><time>2026-04-18T09:34:53Z</time></trkpt><trkpt lat="44.391933733826036" lon="11.352503669992938"><ele>229.75</ele><time>2026-04-18T09:34:54Z</time></trkpt><trkpt lat="44.39182744773492" lon="11.352367211570742"><ele>227.0</ele><time>2026-04-18T09:34:55Z</time></trkpt><trkpt lat="44.391728201071174" lon="11.352232014208273"><ele>223.0</ele><time>2026-04-18T09:34:56Z</time></trkpt><trkpt lat="44.39162663670354" lon="11.352089953127168"><ele>219.0</ele><time>2026-04-18T09:34:57Z</time></trkpt><trkpt lat="44.39153685430463" lon="11.351968902645941"><ele>215.0</ele><time>2026-04-18T09:34:58Z</time></trkpt><trkpt lat="44.39145474417026" lon="11.351859100640366"><ele>211.0</ele><time>2026-04-18T09:34:59Z</time></trkpt><trkpt lat="44.391367074471574" lon="11.351768150724602"><ele>212.5</ele><time>2026-04-18T09:35:00Z</time></trkpt><trkpt lat="44.39126129558859" lon="11.351706024456757"><ele>214.0</ele><time>2026-04-18T09:35:01Z</time></trkpt><trkpt lat="44.39114235647942" lon="11.351678285288555"><ele>215.5</ele><time>2026-04-18T09:35:02Z</time></trkpt><trkpt lat="44.391012764715036" lon="11.351678293449972"><ele>217.0</ele><time>2026-04-18T09:35:03Z</time></trkpt><trkpt lat="44.390886641455275" lon="11.351660557214407"><ele>217.0</ele><time>2026-04-18T09:35:04Z</time></trkpt><trkpt lat="44.3907534393373" lon="11.351615640462386"><ele>217.0</ele><time>2026-04-18T09:35:05Z</time></trkpt><trkpt lat="44.39063427253451" lon="11.351560955467772"><ele>217.0</ele><time>2026-04-18T09:35:06Z</time></trkpt><trkpt lat="44.39051796751417" lon="11.35149462288228"><ele>217.0</ele><time>2026-04-18T09:35:07Z</time></trkpt><trkpt lat="44.39040595568919" lon="11.35142871230034"><ele>215.0</ele><time>2026-04-18T09:35:08Z</time></trkpt><trkpt lat="44.39030407543226" lon="11.351337079429653"><ele>213.0</ele><time>2026-04-18T09:35:09Z</time></trkpt><trkpt lat="44.390215198951296" lon="11.351224807642307"><ele>211.0</ele><time>2026-04-18T09:35:10Z</time></trkpt><trkpt lat="44.390131463037086" lon="11.351115246699859"><ele>209.0</ele><time>2026-04-18T09:35:11Z</time></trkpt><trkpt lat="44.39003484877214" lon="11.351037892522227"><ele>209.0</ele><time>2026-04-18T09:35:11.998Z</time></trkpt><trkpt lat="44.38991868029461" lon="11.35099405614562"><ele>209.0</ele><time>2026-04-18T09:35:12.998Z</time></trkpt><trkpt lat="44.38980158564254" lon="11.35096931947767"><ele>209.0</ele><time>2026-04-18T09:35:13.998Z</time></trkpt><trkpt lat="44.38968751784924" lon="11.35094156298542"><ele>209.0</ele><time>2026-04-18T09:35:14.998Z</time></trkpt><trkpt lat="44.389573949191664" lon="11.350902404045861"><ele>209.75</ele><time>2026-04-18T09:35:15.998Z</time></trkpt><trkpt lat="44.3894606015541" lon="11.350848491980438"><ele>210.5</ele><time>2026-04-18T09:35:16.998Z</time></trkpt><trkpt lat="44.38935808299673" lon="11.350768840304053"><ele>211.25</ele><time>2026-04-18T09:35:17.998Z</time></trkpt><trkpt lat="44.38925896288059" lon="11.35067749172661"><ele>212.0</ele><time>2026-04-18T09:35:18.998Z</time></trkpt><trkpt lat="44.389153329013965" lon="11.35060058477004"><ele>212.0</ele><time>2026-04-18T09:35:19.999Z</time></trkpt><trkpt lat="44.38903887469054" lon="11.350552426960718"><ele>212.0</ele><time>2026-04-18T09:35:20.999Z</time></trkpt><trkpt lat="44.38890406419789" lon="11.350528534850538"><ele>212.0</ele><time>2026-04-18T09:35:21.999Z</time></trkpt><trkpt lat="44.388774120873805" lon="11.35053067222227"><ele>212.0</ele><time>2026-04-18T09:35:22.999Z</time></trkpt><trkpt lat="44.388647971991205" lon="11.350526711598247"><ele>208.75</ele><time>2026-04-18T09:35:23.999Z</time></trkpt><trkpt lat="44.38852585245708" lon="11.350503201497203"><ele>205.5</ele><time>2026-04-18T09:35:24.999Z</time></trkpt><trkpt lat="44.3884101868439" lon="11.350445898627827"><ele>202.25</ele><time>2026-04-18T09:35:25.999Z</time></trkpt><trkpt lat="44.38829327861135" lon="11.350360422861204"><ele>199.0</ele><time>2026-04-18T09:35:26.999Z</time></trkpt><trkpt lat="44.38818321251372" lon="11.3502759192954"><ele>199.0</ele><time>2026-04-18T09:35:27.999Z</time></trkpt><trkpt lat="44.388077527422226" lon="11.350188918135924"><ele>199.0</ele><time>2026-04-18T09:35:28.999Z</time></trkpt><trkpt lat="44.38797622446796" lon="11.350106656949807"><ele>199.0</ele><time>2026-04-18T09:35:29.999Z</time></trkpt><trkpt lat="44.38788490499907" lon="11.350024730211665"><ele>199.0</ele><time>2026-04-18T09:35:30.999Z</time></trkpt><trkpt lat="44.38780735369771" lon="11.349957634264452"><ele>199.0</ele><time>2026-04-18T09:35:31.999Z</time></trkpt><trkpt lat="44.38772321687008" lon="11.34988284250435"><ele>199.16666666666666</ele><time>2026-04-18T09:35:32.999Z</time></trkpt><trkpt lat="44.387646907943875" lon="11.349817534200627"><ele>199.33333333333331</ele><time>2026-04-18T09:35:33.999Z</time></trkpt><trkpt lat="44.387579470212444" lon="11.349759854921333"><ele>199.5</ele><time>2026-04-18T09:35:34.999Z</time></trkpt><trkpt lat="44.38751309743596" lon="11.349696250446637"><ele>199.66666666666669</ele><time>2026-04-18T09:35:35.999Z</time></trkpt><trkpt lat="44.387461361516706" lon="11.349616199270923"><ele>199.83333333333334</ele><time>2026-04-18T09:35:36.999Z</time></trkpt><trkpt lat="44.38743007522569" lon="11.349529331066318"><ele>200.0</ele><time>2026-04-18T09:35:37.999Z</time></trkpt><trkpt lat="44.387454280985715" lon="11.34934406239469"><ele>200.00000000000003</ele><time>2026-04-18T09:35:39.999Z</time></trkpt><trkpt lat="44.387492269156844" lon="11.349258599458427"><ele>200.0</ele><time>2026-04-18T09:35:40.999Z</time></trkpt><trkpt lat="44.38753485403628" lon="11.349171014826984"><ele>200.0</ele><time>2026-04-18T09:35:41.999Z</time></trkpt><trkpt lat="44.387585376589115" lon="11.34908330581748"><ele>200.0</ele><time>2026-04-18T09:35:42.999Z</time></trkpt><trkpt lat="44.387630390138845" lon="11.348992262275654"><ele>200.00000000000003</ele><time>2026-04-18T09:35:43.999Z</time></trkpt><trkpt lat="44.38767757807713" lon="11.348908453476922"><ele>200.0</ele><time>2026-04-18T09:35:44.999Z</time></trkpt><trkpt lat="44.38772272446003" lon="11.34881965201413"><ele>200.00000000000003</ele><time>2026-04-18T09:35:45.999Z</time></trkpt><trkpt lat="44.38776008854027" lon="11.348740898914354"><ele>200.0</ele><time>2026-04-18T09:35:46.999Z</time></trkpt><trkpt lat="44.387812628187255" lon="11.34862562025515"><ele>200.0</ele><time>2026-04-18T09:35:48.999Z</time></trkpt><trkpt lat="44.38785221930416" lon="11.348534383608218"><ele>200.0</ele><time>2026-04-18T09:35:50.999Z</time></trkpt><trkpt lat="44.387906251111495" lon="11.348441552506767"><ele>200.00000000000003</ele><time>2026-04-18T09:35:53Z</time></trkpt><trkpt lat="44.38795541893088" lon="11.348355120583243"><ele>200.0</ele><time>2026-04-18T09:35:55Z</time></trkpt><trkpt lat="44.388015283685206" lon="11.348303729563922"><ele>199.0</ele><time>2026-04-18T09:35:57Z</time></trkpt><trkpt lat="44.38810946702047" lon="11.348399706168426"><ele>198.0</ele><time>2026-04-18T09:35:59Z</time></trkpt><trkpt lat="44.38815362008528" lon="11.348475553852872"><ele>197.0</ele><time>2026-04-18T09:36:00Z</time></trkpt><trkpt lat="44.388199787689224" lon="11.348555522215667"><ele>196.0</ele><time>2026-04-18T09:36:01Z</time></trkpt><trkpt lat="44.38830246745027" lon="11.348607095854035"><ele>195.0</ele><time>2026-04-18T09:36:03Z</time></trkpt><trkpt lat="44.388407777365586" lon="11.34847018297699"><ele>195.0</ele><time>2026-04-18T09:36:05Z</time></trkpt><trkpt lat="44.38847100735784" lon="11.348387048191213"><ele>195.0</ele><time>2026-04-18T09:36:06Z</time></trkpt><trkpt lat="44.38854525336385" lon="11.348300881506232"><ele>195.0</ele><time>2026-04-18T09:36:07Z</time></trkpt><trkpt lat="44.3886202475303" lon="11.34821574102806"><ele>195.0</ele><time>2026-04-18T09:36:08Z</time></trkpt><trkpt lat="44.388699730886884" lon="11.34812557221508"><ele>195.0</ele><time>2026-04-18T09:36:09Z</time></trkpt><trkpt lat="44.388779035433664" lon="11.348030031427319"><ele>194.6</ele><time>2026-04-18T09:36:10Z</time></trkpt><trkpt lat="44.388860720824994" lon="11.347938626940348"><ele>194.2</ele><time>2026-04-18T09:36:11Z</time></trkpt><trkpt lat="44.38894028806841" lon="11.347845812840921"><ele>193.8</ele><time>2026-04-18T09:36:12Z</time></trkpt><trkpt lat="44.38902293295508" lon="11.34775019644484"><ele>193.4</ele><time>2026-04-18T09:36:13Z</time></trkpt><trkpt lat="44.3891117857181" lon="11.347655585820908"><ele>193.0</ele><time>2026-04-18T09:36:14Z</time></trkpt><trkpt lat="44.38919735996283" lon="11.347562765280204"><ele>193.0</ele><time>2026-04-18T09:36:15Z</time></trkpt><trkpt lat="44.38928351605083" lon="11.347463701073476"><ele>193.0</ele><time>2026-04-18T09:36:16Z</time></trkpt><trkpt lat="44.38937090573095" lon="11.34736349769119"><ele>193.0</ele><time>2026-04-18T09:36:17Z</time></trkpt><trkpt lat="44.389455230583934" lon="11.34726590052899"><ele>193.0</ele><time>2026-04-18T09:36:18Z</time></trkpt><trkpt lat="44.38953717450078" lon="11.347168480043688"><ele>193.0</ele><time>2026-04-18T09:36:19Z</time></trkpt><trkpt lat="44.38963021450996" lon="11.34706828366909"><ele>191.4</ele><time>2026-04-18T09:36:20Z</time></trkpt><trkpt lat="44.389721179286845" lon="11.346967091613307"><ele>189.8</ele><time>2026-04-18T09:36:21Z</time></trkpt><trkpt lat="44.389808441686824" lon="11.34686413351611"><ele>188.2</ele><time>2026-04-18T09:36:22Z</time></trkpt><trkpt lat="44.38989277822644" lon="11.346766123027889"><ele>186.6</ele><time>2026-04-18T09:36:23Z</time></trkpt><trkpt lat="44.389972375596564" lon="11.346678041760308"><ele>185.0</ele><time>2026-04-18T09:36:24Z</time></trkpt><trkpt lat="44.390048663306665" lon="11.346594016175573"><ele>185.0</ele><time>2026-04-18T09:36:25Z</time></trkpt><trkpt lat="44.390121707072666" lon="11.346514834606799"><ele>185.0</ele><time>2026-04-18T09:36:26Z</time></trkpt><trkpt lat="44.39019258209813" lon="11.346428566107955"><ele>185.0</ele><time>2026-04-18T09:36:27Z</time></trkpt><trkpt lat="44.39026106930517" lon="11.346352712099531"><ele>185.0</ele><time>2026-04-18T09:36:28Z</time></trkpt><trkpt lat="44.39033782653633" lon="11.346275072156452"><ele>185.0</ele><time>2026-04-18T09:36:29Z</time></trkpt><trkpt lat="44.39039960099628" lon="11.346194661627662"><ele>185.2</ele><time>2026-04-18T09:36:30Z</time></trkpt><trkpt lat="44.39044507798525" lon="11.346082790917624"><ele>185.4</ele><time>2026-04-18T09:36:31Z</time></trkpt><trkpt lat="44.390489400733124" lon="11.345965074914746"><ele>185.60000000000002</ele><time>2026-04-18T09:36:32Z</time></trkpt><trkpt lat="44.39052725821818" lon="11.345826595757652"><ele>185.8</ele><time>2026-04-18T09:36:33Z</time></trkpt><trkpt lat="44.39055883925807" lon="11.34568959799561"><ele>186.0</ele><time>2026-04-18T09:36:34Z</time></trkpt><trkpt lat="44.39058043194154" lon="11.34554136116644"><ele>185.20000000000002</ele><time>2026-04-18T09:36:35Z</time></trkpt><trkpt lat="44.390630090695794" lon="11.345399440795479"><ele>184.4</ele><time>2026-04-18T09:36:36Z</time></trkpt><trkpt lat="44.39065554247486" lon="11.345250289296974"><ele>183.6</ele><time>2026-04-18T09:36:37Z</time></trkpt><trkpt lat="44.39068177913099" lon="11.345102288626418"><ele>182.8</ele><time>2026-04-18T09:36:38Z</time></trkpt><trkpt lat="44.39070936032329" lon="11.344955515101269"><ele>182.0</ele><time>2026-04-18T09:36:39Z</time></trkpt><trkpt lat="44.39073838285531" lon="11.344807571991682"><ele>182.0</ele><time>2026-04-18T09:36:40Z</time></trkpt><trkpt lat="44.39076770691337" lon="11.344654284302944"><ele>182.0</ele><time>2026-04-18T09:36:41Z</time></trkpt><trkpt lat="44.39079776304568" lon="11.344501820869157"><ele>182.0</ele><time>2026-04-18T09:36:42Z</time></trkpt><trkpt lat="44.39083292281025" lon="11.344344322955065"><ele>182.0</ele><time>2026-04-18T09:36:43Z</time></trkpt><trkpt lat="44.390866282488695" lon="11.344184530983942"><ele>182.0</ele><time>2026-04-18T09:36:44Z</time></trkpt><trkpt lat="44.39089645299483" lon="11.344030688831722"><ele>182.0</ele><time>2026-04-18T09:36:45Z</time></trkpt><trkpt lat="44.39092662866316" lon="11.343882107752496"><ele>182.0</ele><time>2026-04-18T09:36:46Z</time></trkpt><trkpt lat="44.39095276668734" lon="11.343731715451243"><ele>182.0</ele><time>2026-04-18T09:36:47Z</time></trkpt><trkpt lat="44.3909818084343" lon="11.343586429290431"><ele>182.0</ele><time>2026-04-18T09:36:48Z</time></trkpt><trkpt lat="44.39101006437462" lon="11.343437187711253"><ele>182.2</ele><time>2026-04-18T09:36:49Z</time></trkpt><trkpt lat="44.39103889796638" lon="11.343288531494487"><ele>182.39999999999998</ele><time>2026-04-18T09:36:50Z</time></trkpt><trkpt lat="44.39106739697989" lon="11.343141991070473"><ele>182.60000000000002</ele><time>2026-04-18T09:36:51Z</time></trkpt><trkpt lat="44.391094458771406" lon="11.342998481477144"><ele>182.8</ele><time>2026-04-18T09:36:52Z</time></trkpt><trkpt lat="44.391121359250214" lon="11.342860458938102"><ele>183.0</ele><time>2026-04-18T09:36:53Z</time></trkpt><trkpt lat="44.39114816516489" lon="11.342717746375092"><ele>183.0</ele><time>2026-04-18T09:36:54Z</time></trkpt><trkpt lat="44.39117739797549" lon="11.342570645420215"><ele>183.0</ele><time>2026-04-18T09:36:55Z</time></trkpt><trkpt lat="44.391200821393255" lon="11.342414004809742"><ele>183.0</ele><time>2026-04-18T09:36:56Z</time></trkpt><trkpt lat="44.39121688720134" lon="11.34225887902401"><ele>183.0</ele><time>2026-04-18T09:36:57Z</time></trkpt><trkpt lat="44.39121991650545" lon="11.34210417729049"><ele>183.0</ele><time>2026-04-18T09:36:58Z</time></trkpt><trkpt lat="44.39121371465346" lon="11.341966735990342"><ele>182.83333333333334</ele><time>2026-04-18T09:36:59Z</time></trkpt><trkpt lat="44.3912058343242" lon="11.34184292886657"><ele>182.66666666666666</ele><time>2026-04-18T09:37:00Z</time></trkpt><trkpt lat="44.391196310855115" lon="11.341741833657807"><ele>182.5</ele><time>2026-04-18T09:37:01Z</time></trkpt><trkpt lat="44.391183058131006" lon="11.341637404166729"><ele>182.33333333333331</ele><time>2026-04-18T09:37:03.001Z</time></trkpt><trkpt lat="44.391212829342145" lon="11.341493310656723"><ele>182.16666666666666</ele><time>2026-04-18T09:37:06.001Z</time></trkpt><trkpt lat="44.391245481582864" lon="11.341414584808822"><ele>182.0</ele><time>2026-04-18T09:37:07.001Z</time></trkpt><trkpt lat="44.391280155676796" lon="11.341320205625767"><ele>181.8</ele><time>2026-04-18T09:37:08.001Z</time></trkpt><trkpt lat="44.39133370037212" lon="11.34123538982784"><ele>181.6</ele><time>2026-04-18T09:37:09.001Z</time></trkpt><trkpt lat="44.391405018139665" lon="11.341159099701215"><ele>181.4</ele><time>2026-04-18T09:37:10.001Z</time></trkpt><trkpt lat="44.39149042848146" lon="11.3411033543228"><ele>181.20000000000002</ele><time>2026-04-18T09:37:11.001Z</time></trkpt><trkpt lat="44.3915867723764" lon="11.341060340855938"><ele>181.0</ele><time>2026-04-18T09:37:12.001Z</time></trkpt><trkpt lat="44.39169834464779" lon="11.341034972956892"><ele>181.0</ele><time>2026-04-18T09:37:13.001Z</time></trkpt><trkpt lat="44.39181112274783" lon="11.341021050233588"><ele>181.0</ele><time>2026-04-18T09:37:14.001Z</time></trkpt><trkpt lat="44.39192899495752" lon="11.341013311001657"><ele>181.0</ele><time>2026-04-18T09:37:15.001Z</time></trkpt><trkpt lat="44.39204422024795" lon="11.341010626953608"><ele>181.0</ele><time>2026-04-18T09:37:16.001Z</time></trkpt><trkpt lat="44.392163908657004" lon="11.341014259373296"><ele>181.0</ele><time>2026-04-18T09:37:17.001Z</time></trkpt><trkpt lat="44.39228508783192" lon="11.341015545459557"><ele>181.0</ele><time>2026-04-18T09:37:17.998Z</time></trkpt><trkpt lat="44.39240409386807" lon="11.34101940045732"><ele>181.0</ele><time>2026-04-18T09:37:18.998Z</time></trkpt><trkpt lat="44.39252674085924" lon="11.341022578986335"><ele>181.0</ele><time>2026-04-18T09:37:19.998Z</time></trkpt><trkpt lat="44.392653487503196" lon="11.341026173016713"><ele>181.0</ele><time>2026-04-18T09:37:20.998Z</time></trkpt><trkpt lat="44.39278049448718" lon="11.34102927802308"><ele>181.0</ele><time>2026-04-18T09:37:21.998Z</time></trkpt><trkpt lat="44.392918975030774" lon="11.341016240856362"><ele>181.0</ele><time>2026-04-18T09:37:22.998Z</time></trkpt><trkpt lat="44.39306624720283" lon="11.341000445726124"><ele>181.0</ele><time>2026-04-18T09:37:23.998Z</time></trkpt><trkpt lat="44.39320956150151" lon="11.340988927524261"><ele>180.5</ele><time>2026-04-18T09:37:24.999Z</time></trkpt><trkpt lat="44.393349191766276" lon="11.340973968335744"><ele>180.0</ele><time>2026-04-18T09:37:25.999Z</time></trkpt><trkpt lat="44.39348385979817" lon="11.340967777791816"><ele>179.5</ele><time>2026-04-18T09:37:26.999Z</time></trkpt><trkpt lat="44.39361869139916" lon="11.340968606081027"><ele>179.0</ele><time>2026-04-18T09:37:27.999Z</time></trkpt><trkpt lat="44.39375676701655" lon="11.340986830292909"><ele>177.5</ele><time>2026-04-18T09:37:28.999Z</time></trkpt><trkpt lat="44.39388666173082" lon="11.34103173721597"><ele>176.0</ele><time>2026-04-18T09:37:29.999Z</time></trkpt><trkpt lat="44.39402163316675" lon="11.341097560510981"><ele>174.5</ele><time>2026-04-18T09:37:30.999Z</time></trkpt><trkpt lat="44.39415426024179" lon="11.341184460946295"><ele>173.0</ele><time>2026-04-18T09:37:31.999Z</time></trkpt><trkpt lat="44.39428360655463" lon="11.341275429712812"><ele>173.0</ele><time>2026-04-18T09:37:32.999Z</time></trkpt><trkpt lat="44.39441288660484" lon="11.341369001137156"><ele>173.0</ele><time>2026-04-18T09:37:33.999Z</time></trkpt><trkpt lat="44.394539331621445" lon="11.341460348940249"><ele>173.0</ele><time>2026-04-18T09:37:34.999Z</time></trkpt><trkpt lat="44.39466897027938" lon="11.341553334404418"><ele>173.0</ele><time>2026-04-18T09:37:35.999Z</time></trkpt><trkpt lat="44.394791745921225" lon="11.341650858888974"><ele>172.5</ele><time>2026-04-18T09:37:36.999Z</time></trkpt><trkpt lat="44.39491825010685" lon="11.34175086748971"><ele>172.0</ele><time>2026-04-18T09:37:37.999Z</time></trkpt><trkpt lat="44.395055337489666" lon="11.341848973861431"><ele>171.5</ele><time>2026-04-18T09:37:38.999Z</time></trkpt><trkpt lat="44.39518619582862" lon="11.34194862552546"><ele>171.0</ele><time>2026-04-18T09:37:39.999Z</time></trkpt><trkpt lat="44.39531819713313" lon="11.342050820587163"><ele>171.0</ele><time>2026-04-18T09:37:40.999Z</time></trkpt><trkpt lat="44.39543987510697" lon="11.34214231579006"><ele>171.0</ele><time>2026-04-18T09:37:41.999Z</time></trkpt><trkpt lat="44.39555206743704" lon="11.342232854769073"><ele>171.0</ele><time>2026-04-18T09:37:42.999Z</time></trkpt><trkpt lat="44.39565666229295" lon="11.342313183928734"><ele>171.0</ele><time>2026-04-18T09:37:43.999Z</time></trkpt><trkpt lat="44.39575308530358" lon="11.342391913096456"><ele>171.5</ele><time>2026-04-18T09:37:44.999Z</time></trkpt><trkpt lat="44.39585803368212" lon="11.34247259642323"><ele>172.0</ele><time>2026-04-18T09:37:45.999Z</time></trkpt><trkpt lat="44.39595947699303" lon="11.342561088963889"><ele>172.5</ele><time>2026-04-18T09:37:46.999Z</time></trkpt><trkpt lat="44.39606346430439" lon="11.342650043051398"><ele>173.0</ele><time>2026-04-18T09:37:47.999Z</time></trkpt><trkpt lat="44.396171049032105" lon="11.342742765950394"><ele>173.0</ele><time>2026-04-18T09:37:49Z</time></trkpt><trkpt lat="44.39628138793773" lon="11.342837456147763"><ele>173.0</ele><time>2026-04-18T09:37:50Z</time></trkpt><trkpt lat="44.396381692247125" lon="11.34292446187805"><ele>173.0</ele><time>2026-04-18T09:37:51Z</time></trkpt><trkpt lat="44.396483246686984" lon="11.343012210191738"><ele>173.0</ele><time>2026-04-18T09:37:52Z</time></trkpt><trkpt lat="44.396578982188075" lon="11.343100292631156"><ele>172.60000000000002</ele><time>2026-04-18T09:37:53Z</time></trkpt><trkpt lat="44.39667527241363" lon="11.343178112274849"><ele>172.20000000000002</ele><time>2026-04-18T09:37:54Z</time></trkpt><trkpt lat="44.39675323682679" lon="11.343254685661202"><ele>171.8</ele><time>2026-04-18T09:37:55Z</time></trkpt><trkpt lat="44.39684899990321" lon="11.343328983190114"><ele>171.4</ele><time>2026-04-18T09:37:56Z</time></trkpt><trkpt lat="44.396932192968215" lon="11.343402410609144"><ele>171.0</ele><time>2026-04-18T09:37:57Z</time></trkpt><trkpt lat="44.397014805556765" lon="11.343477129427134"><ele>171.0</ele><time>2026-04-18T09:37:58Z</time></trkpt><trkpt lat="44.39710033853409" lon="11.343553586007825"><ele>171.0</ele><time>2026-04-18T09:37:59Z</time></trkpt><trkpt lat="44.39718938394577" lon="11.343635433217736"><ele>171.0</ele><time>2026-04-18T09:38:00Z</time></trkpt><trkpt lat="44.39727357758723" lon="11.34372152666361"><ele>171.0</ele><time>2026-04-18T09:38:01Z</time></trkpt><trkpt lat="44.39735920835852" lon="11.343800021017794"><ele>171.0</ele><time>2026-04-18T09:38:02Z</time></trkpt><trkpt lat="44.39745154799537" lon="11.34388037763228"><ele>170.8</ele><time>2026-04-18T09:38:03Z</time></trkpt><trkpt lat="44.39754363357474" lon="11.343965639899574"><ele>170.60000000000002</ele><time>2026-04-18T09:38:04Z</time></trkpt><trkpt lat="44.397635950649715" lon="11.344048451256079"><ele>170.4</ele><time>2026-04-18T09:38:05Z</time></trkpt><trkpt lat="44.39772740327156" lon="11.344123290238615"><ele>170.2</ele><time>2026-04-18T09:38:06Z</time></trkpt><trkpt lat="44.397825760994934" lon="11.3442058537102"><ele>170.0</ele><time>2026-04-18T09:38:07Z</time></trkpt><trkpt lat="44.39792904871044" lon="11.344294371887322"><ele>169.5</ele><time>2026-04-18T09:38:08Z</time></trkpt><trkpt lat="44.39803456932819" lon="11.344382910412937"><ele>169.0</ele><time>2026-04-18T09:38:09Z</time></trkpt><trkpt lat="44.3981389876771" lon="11.344474326503232"><ele>168.5</ele><time>2026-04-18T09:38:10Z</time></trkpt><trkpt lat="44.3982426543611" lon="11.344567357101715"><ele>168.0</ele><time>2026-04-18T09:38:11Z</time></trkpt><trkpt lat="44.39834967121862" lon="11.34466242621859"><ele>168.0</ele><time>2026-04-18T09:38:12Z</time></trkpt><trkpt lat="44.398453075516514" lon="11.344758617403514"><ele>168.0</ele><time>2026-04-18T09:38:13Z</time></trkpt><trkpt lat="44.39855723462224" lon="11.344854244640143"><ele>168.0</ele><time>2026-04-18T09:38:14Z</time></trkpt><trkpt lat="44.398662162672075" lon="11.344945479319733"><ele>168.0</ele><time>2026-04-18T09:38:15Z</time></trkpt><trkpt lat="44.398759628529234" lon="11.345030148126204"><ele>168.0</ele><time>2026-04-18T09:38:16Z</time></trkpt><trkpt lat="44.398854287288685" lon="11.345104398814925"><ele>168.0</ele><time>2026-04-18T09:38:17Z</time></trkpt><trkpt lat="44.39895411357559" lon="11.345183174775292"><ele>168.0</ele><time>2026-04-18T09:38:18Z</time></trkpt><trkpt lat="44.39905481191552" lon="11.345265076615746"><ele>168.0</ele><time>2026-04-18T09:38:19Z</time></trkpt><trkpt lat="44.39915801351296" lon="11.345339000024877"><ele>168.0</ele><time>2026-04-18T09:38:20Z</time></trkpt><trkpt lat="44.39926291213533" lon="11.345405681030067"><ele>168.0</ele><time>2026-04-18T09:38:21Z</time></trkpt><trkpt lat="44.39936459306026" lon="11.345465635199012"><ele>168.0</ele><time>2026-04-18T09:38:22Z</time></trkpt><trkpt lat="44.39946913899284" lon="11.345528338129686"><ele>168.0</ele><time>2026-04-18T09:38:23Z</time></trkpt><trkpt lat="44.39956683328791" lon="11.345593617383363"><ele>168.0</ele><time>2026-04-18T09:38:24Z</time></trkpt><trkpt lat="44.39965201140071" lon="11.345656429288049"><ele>167.60000000000002</ele><time>2026-04-18T09:38:25Z</time></trkpt><trkpt lat="44.399729327864435" lon="11.345709237672533"><ele>167.20000000000002</ele><time>2026-04-18T09:38:26Z</time></trkpt><trkpt lat="44.39979529095106" lon="11.345751544321816"><ele>166.8</ele><time>2026-04-18T09:38:27Z</time></trkpt><trkpt lat="44.39987612687853" lon="11.345826525174791"><ele>166.4</ele><time>2026-04-18T09:38:29Z</time></trkpt><trkpt lat="44.39996665004856" lon="11.345680694307884"><ele>166.0</ele><time>2026-04-18T09:38:31Z</time></trkpt><trkpt lat="44.40002260015916" lon="11.34552507359323"><ele>165.5</ele><time>2026-04-18T09:38:33Z</time></trkpt><trkpt lat="44.40005729922544" lon="11.345449434810956"><ele>165.0</ele><time>2026-04-18T09:38:34Z</time></trkpt><trkpt lat="44.40009595332935" lon="11.345367330977535"><ele>164.5</ele><time>2026-04-18T09:38:35Z</time></trkpt><trkpt lat="44.40013197266587" lon="11.345275928582808"><ele>164.0</ele><time>2026-04-18T09:38:36Z</time></trkpt><trkpt lat="44.400183603077075" lon="11.345183705593167"><ele>163.5</ele><time>2026-04-18T09:38:37.001Z</time></trkpt><trkpt lat="44.40021656761596" lon="11.345011942194057"><ele>163.0</ele><time>2026-04-18T09:38:39.001Z</time></trkpt><trkpt lat="44.4001882719368" lon="11.344912456165714"><ele>163.0</ele><time>2026-04-18T09:38:40.001Z</time></trkpt><trkpt lat="44.400137369779095" lon="11.344860052220112"><ele>163.0</ele><time>2026-04-18T09:38:41.001Z</time></trkpt><trkpt lat="44.40006296318148" lon="11.344759073624049"><ele>163.0</ele><time>2026-04-18T09:38:42.001Z</time></trkpt><trkpt lat="44.399974154927655" lon="11.344668730639485"><ele>163.0</ele><time>2026-04-18T09:38:43.001Z</time></trkpt><trkpt lat="44.39989295425522" lon="11.344569617502653"><ele>163.0</ele><time>2026-04-18T09:38:44.001Z</time></trkpt><trkpt lat="44.399813951023695" lon="11.344465329246237"><ele>162.8</ele><time>2026-04-18T09:38:45.001Z</time></trkpt><trkpt lat="44.39975178400605" lon="11.34435617307895"><ele>162.60000000000002</ele><time>2026-04-18T09:38:46.001Z</time></trkpt><trkpt lat="44.399708832581894" lon="11.344229080876529"><ele>162.39999999999998</ele><time>2026-04-18T09:38:47.001Z</time></trkpt><trkpt lat="44.39968569705926" lon="11.344082682690406"><ele>162.2</ele><time>2026-04-18T09:38:48.001Z</time></trkpt><trkpt lat="44.39966965628756" lon="11.343921895413072"><ele>162.0</ele><time>2026-04-18T09:38:49.001Z</time></trkpt><trkpt lat="44.39965324664278" lon="11.343767342678724"><ele>162.0</ele><time>2026-04-18T09:38:50.001Z</time></trkpt><trkpt lat="44.39963708018015" lon="11.343617898808207"><ele>162.0</ele><time>2026-04-18T09:38:51.001Z</time></trkpt><trkpt lat="44.39963310093844" lon="11.34346411407518"><ele>162.0</ele><time>2026-04-18T09:38:52.001Z</time></trkpt><trkpt lat="44.39966768576088" lon="11.343296034895653"><ele>162.0</ele><time>2026-04-18T09:38:53.001Z</time></trkpt><trkpt lat="44.399710180467515" lon="11.343159067348296"><ele>160.4</ele><time>2026-04-18T09:38:54.001Z</time></trkpt><trkpt lat="44.399759742753254" lon="11.34304442985105"><ele>158.79999999999998</ele><time>2026-04-18T09:38:55.001Z</time></trkpt><trkpt lat="44.39978390844137" lon="11.342923504025002"><ele>157.2</ele><time>2026-04-18T09:38:56.001Z</time></trkpt><trkpt lat="44.39976864522706" lon="11.342786814633705"><ele>155.6</ele><time>2026-04-18T09:38:57.001Z</time></trkpt><trkpt lat="44.399724987299194" lon="11.342666408064217"><ele>154.0</ele><time>2026-04-18T09:38:58.001Z</time></trkpt><trkpt lat="44.39966459071303" lon="11.342550048694726"><ele>154.0</ele><time>2026-04-18T09:38:59.001Z</time></trkpt><trkpt lat="44.39959676514192" lon="11.342427051222545"><ele>154.0</ele><time>2026-04-18T09:39:00.001Z</time></trkpt><trkpt lat="44.399510275363944" lon="11.34234620213267"><ele>154.0</ele><time>2026-04-18T09:39:01.001Z</time></trkpt><trkpt lat="44.39947445161469" lon="11.342205521869364"><ele>154.0</ele><time>2026-04-18T09:39:02.001Z</time></trkpt><trkpt lat="44.39941484005667" lon="11.342096540944665"><ele>154.0</ele><time>2026-04-18T09:39:03.001Z</time></trkpt><trkpt lat="44.39936577244137" lon="11.341985377531927"><ele>151.8</ele><time>2026-04-18T09:39:04.001Z</time></trkpt><trkpt lat="44.399337735129755" lon="11.341863020708875"><ele>149.60000000000002</ele><time>2026-04-18T09:39:05.001Z</time></trkpt><trkpt lat="44.39932909707977" lon="11.341728092980837"><ele>147.4</ele><time>2026-04-18T09:39:06.001Z</time></trkpt><trkpt lat="44.399340409815196" lon="11.34158475535478"><ele>145.20000000000002</ele><time>2026-04-18T09:39:07.001Z</time></trkpt><trkpt lat="44.39935835654602" lon="11.34144944593144"><ele>143.0</ele><time>2026-04-18T09:39:08.001Z</time></trkpt><trkpt lat="44.39937557646248" lon="11.341309690353356"><ele>142.4</ele><time>2026-04-18T09:39:09.001Z</time></trkpt><trkpt lat="44.39939317629245" lon="11.341177720210627"><ele>141.8</ele><time>2026-04-18T09:39:10.001Z</time></trkpt><trkpt lat="44.39941546644144" lon="11.341047983789743"><ele>141.2</ele><time>2026-04-18T09:39:11.001Z</time></trkpt><trkpt lat="44.399432627732594" lon="11.340935751348507"><ele>140.6</ele><time>2026-04-18T09:39:12.001Z</time></trkpt><trkpt lat="44.39945449614439" lon="11.340793514993685"><ele>140.0</ele><time>2026-04-18T09:39:14.001Z</time></trkpt><trkpt lat="44.39947261690655" lon="11.340679147678998"><ele>140.0</ele><time>2026-04-18T09:39:16.001Z</time></trkpt><trkpt lat="44.39948848004753" lon="11.340591368990724"><ele>140.0</ele><time>2026-04-18T09:39:18.001Z</time></trkpt><trkpt lat="44.39952138062889" lon="11.340494967635458"><ele>140.0</ele><time>2026-04-18T09:39:21.001Z</time></trkpt><trkpt lat="44.399462848978786" lon="11.340382587859663"><ele>140.0</ele><time>2026-04-18T09:39:23.999Z</time></trkpt><trkpt lat="44.399389515902946" lon="11.340367467533243"><ele>140.0</ele><time>2026-04-18T09:39:24.999Z</time></trkpt><trkpt lat="44.39931276833568" lon="11.340363947806217"><ele>140.0</ele><time>2026-04-18T09:39:25.999Z</time></trkpt><trkpt lat="44.39922639494809" lon="11.340358969163402"><ele>140.2</ele><time>2026-04-18T09:39:26.999Z</time></trkpt><trkpt lat="44.399130688021465" lon="11.34034657435499"><ele>140.4</ele><time>2026-04-18T09:39:27.999Z</time></trkpt><trkpt lat="44.3990266367428" lon="11.3403337994399"><ele>140.6</ele><time>2026-04-18T09:39:28.999Z</time></trkpt><trkpt lat="44.39892295748357" lon="11.340316528189014"><ele>140.8</ele><time>2026-04-18T09:39:29.999Z</time></trkpt><trkpt lat="44.39882577152638" lon="11.34030106995247"><ele>141.0</ele><time>2026-04-18T09:39:30.999Z</time></trkpt><trkpt lat="44.3987401460051" lon="11.340286994958172"><ele>141.8</ele><time>2026-04-18T09:39:31.999Z</time></trkpt><trkpt lat="44.39866705496031" lon="11.340279811352374"><ele>142.6</ele><time>2026-04-18T09:39:32.999Z</time></trkpt><trkpt lat="44.39855606212428" lon="11.340272803756333"><ele>143.4</ele><time>2026-04-18T09:39:34.999Z</time></trkpt><trkpt lat="44.39847433673673" lon="11.34022897802713"><ele>144.2</ele><time>2026-04-18T09:39:36.999Z</time></trkpt><trkpt lat="44.39844674510123" lon="11.340078775526777"><ele>145.0</ele><time>2026-04-18T09:39:38.999Z</time></trkpt><trkpt lat="44.39845918272955" lon="11.339983231114076"><ele>145.0</ele><time>2026-04-18T09:39:39.999Z</time></trkpt><trkpt lat="44.3984693011281" lon="11.339875994992699"><ele>145.0</ele><time>2026-04-18T09:39:40.999Z</time></trkpt><trkpt lat="44.3984807430232" lon="11.339753644764446"><ele>145.0</ele><time>2026-04-18T09:39:41.999Z</time></trkpt><trkpt lat="44.39849352247521" lon="11.33961445953961"><ele>145.0</ele><time>2026-04-18T09:39:42.999Z</time></trkpt><trkpt lat="44.39850506259081" lon="11.339471608195955"><ele>145.0</ele><time>2026-04-18T09:39:43.999Z</time></trkpt><trkpt lat="44.39851295334797" lon="11.339324963277745"><ele>144.8</ele><time>2026-04-18T09:39:44.999Z</time></trkpt><trkpt lat="44.39852082161001" lon="11.3391823375973"><ele>144.6</ele><time>2026-04-18T09:39:46Z</time></trkpt><trkpt lat="44.39853155854152" lon="11.339044846715607"><ele>144.4</ele><time>2026-04-18T09:39:47Z</time></trkpt><trkpt lat="44.3985448164901" lon="11.338923847079316"><ele>144.2</ele><time>2026-04-18T09:39:48Z</time></trkpt><trkpt lat="44.3985592388932" lon="11.338809948782053"><ele>144.0</ele><time>2026-04-18T09:39:49Z</time></trkpt><trkpt lat="44.39856894165152" lon="11.33870001983588"><ele>143.33333333333334</ele><time>2026-04-18T09:39:50Z</time></trkpt><trkpt lat="44.39856849152678" lon="11.338579494521841"><ele>142.66666666666666</ele><time>2026-04-18T09:39:51Z</time></trkpt><trkpt lat="44.398583210274204" lon="11.338463617913998"><ele>142.0</ele><time>2026-04-18T09:39:52Z</time></trkpt><trkpt lat="44.398595028272176" lon="11.338345593466778"><ele>141.33333333333331</ele><time>2026-04-18T09:39:53Z</time></trkpt><trkpt lat="44.39860489272453" lon="11.33823414743666"><ele>140.66666666666666</ele><time>2026-04-18T09:39:54Z</time></trkpt><trkpt lat="44.39861601664953" lon="11.33813426357241"><ele>140.0</ele><time>2026-04-18T09:39:55Z</time></trkpt><trkpt lat="44.3986305722908" lon="11.338001103892152"><ele>139.83333333333331</ele><time>2026-04-18T09:39:57Z</time></trkpt><trkpt lat="44.398635469651815" lon="11.33787598259203"><ele>139.66666666666666</ele><time>2026-04-18T09:40:11Z</time></trkpt><trkpt lat="44.398655370353815" lon="11.337754716299857"><ele>139.5</ele><time>2026-04-18T09:40:13Z</time></trkpt><trkpt lat="44.39874898141071" lon="11.33764102610838"><ele>139.33333333333334</ele><time>2026-04-18T09:40:15Z</time></trkpt><trkpt lat="44.398799552915264" lon="11.337571047151405"><ele>139.16666666666669</ele><time>2026-04-18T09:40:16Z</time></trkpt><trkpt lat="44.3988272700749" lon="11.33747622551992"><ele>139.0</ele><time>2026-04-18T09:40:17Z</time></trkpt><trkpt lat="44.398832742835" lon="11.337366211293915"><ele>139.0</ele><time>2026-04-18T09:40:18Z</time></trkpt><trkpt lat="44.398804297117884" lon="11.337240153855486"><ele>139.0</ele><time>2026-04-18T09:40:19Z</time></trkpt><trkpt lat="44.39876758402" lon="11.337138338091957"><ele>139.0</ele><time>2026-04-18T09:40:20Z</time></trkpt><trkpt lat="44.398741684209284" lon="11.33702090322263"><ele>139.0</ele><time>2026-04-18T09:40:21Z</time></trkpt><trkpt lat="44.39873998923994" lon="11.336887956469903"><ele>139.0</ele><time>2026-04-18T09:40:22Z</time></trkpt><trkpt lat="44.39875526139035" lon="11.336746665518689"><ele>139.5</ele><time>2026-04-18T09:40:23.001Z</time></trkpt><trkpt lat="44.39876433454238" lon="11.336594710636414"><ele>140.0</ele><time>2026-04-18T09:40:24.001Z</time></trkpt><trkpt lat="44.398773923327894" lon="11.336423866222027"><ele>140.5</ele><time>2026-04-18T09:40:25.001Z</time></trkpt><trkpt lat="44.398785349695075" lon="11.336246552383166"><ele>141.0</ele><time>2026-04-18T09:40:26.001Z</time></trkpt><trkpt lat="44.39879576618322" lon="11.336064075368478"><ele>143.25</ele><time>2026-04-18T09:40:27.001Z</time></trkpt><trkpt lat="44.39881368389313" lon="11.335885072700963"><ele>145.5</ele><time>2026-04-18T09:40:28.001Z</time></trkpt><trkpt lat="44.39883134460913" lon="11.335720850849764"><ele>147.75</ele><time>2026-04-18T09:40:29.001Z</time></trkpt><trkpt lat="44.39884464177708" lon="11.33556585829685"><ele>150.0</ele><time>2026-04-18T09:40:30.001Z</time></trkpt><trkpt lat="44.39886304326238" lon="11.335415234923987"><ele>151.2</ele><time>2026-04-18T09:40:31.001Z</time></trkpt><trkpt lat="44.39887444229874" lon="11.335268158338028"><ele>152.4</ele><time>2026-04-18T09:40:32.001Z</time></trkpt><trkpt lat="44.39885495831896" lon="11.335119825626938"><ele>153.6</ele><time>2026-04-18T09:40:33.001Z</time></trkpt><trkpt lat="44.39880692870031" lon="11.334980665872122"><ele>154.8</ele><time>2026-04-18T09:40:34.001Z</time></trkpt><trkpt lat="44.398719014736876" lon="11.334871614501653"><ele>156.0</ele><time>2026-04-18T09:40:35.001Z</time></trkpt><trkpt lat="44.39860284507837" lon="11.334776281454568"><ele>160.0</ele><time>2026-04-18T09:40:36.001Z</time></trkpt><trkpt lat="44.398463419803136" lon="11.33469834106164"><ele>164.0</ele><time>2026-04-18T09:40:37.001Z</time></trkpt><trkpt lat="44.398321902708346" lon="11.334611734956214"><ele>168.0</ele><time>2026-04-18T09:40:38.001Z</time></trkpt><trkpt lat="44.398172070505595" lon="11.33452066134105"><ele>168.0</ele><time>2026-04-18T09:40:39.001Z</time></trkpt><trkpt lat="44.398022891848555" lon="11.334412207067231"><ele>168.0</ele><time>2026-04-18T09:40:40.001Z</time></trkpt><trkpt lat="44.39786997197546" lon="11.334308023860233"><ele>168.0</ele><time>2026-04-18T09:40:41.001Z</time></trkpt><trkpt lat="44.39772057318805" lon="11.334207794167021"><ele>165.0</ele><time>2026-04-18T09:40:42.001Z</time></trkpt><trkpt lat="44.39756660370626" lon="11.334100224527086"><ele>162.0</ele><time>2026-04-18T09:40:43.001Z</time></trkpt><trkpt lat="44.39739827881419" lon="11.333996476995992"><ele>159.0</ele><time>2026-04-18T09:40:44.001Z</time></trkpt><trkpt lat="44.39722820750651" lon="11.333889970047956"><ele>160.33333333333334</ele><time>2026-04-18T09:40:45.001Z</time></trkpt><trkpt lat="44.39705825831561" lon="11.333768330359796"><ele>161.66666666666669</ele><time>2026-04-18T09:40:46.001Z</time></trkpt><trkpt lat="44.39688052075622" lon="11.333660956300582"><ele>163.0</ele><time>2026-04-18T09:40:47.001Z</time></trkpt><trkpt lat="44.39670482495041" lon="11.333545484529942"><ele>163.0</ele><time>2026-04-18T09:40:48.001Z</time></trkpt><trkpt lat="44.39652607257157" lon="11.333440020807942"><ele>163.0</ele><time>2026-04-18T09:40:49.001Z</time></trkpt><trkpt lat="44.396350589566566" lon="11.333330995528588"><ele>163.0</ele><time>2026-04-18T09:40:50.001Z</time></trkpt><trkpt lat="44.396176702377026" lon="11.333220749011184"><ele>163.0</ele><time>2026-04-18T09:40:51.001Z</time></trkpt><trkpt lat="44.39600140106466" lon="11.333105359955017"><ele>163.0</ele><time>2026-04-18T09:40:52.001Z</time></trkpt><trkpt lat="44.39583253779917" lon="11.332993383856778"><ele>163.0</ele><time>2026-04-18T09:40:53.001Z</time></trkpt><trkpt lat="44.39566201616809" lon="11.33289234064658"><ele>164.0</ele><time>2026-04-18T09:40:54.001Z</time></trkpt><trkpt lat="44.39549391923582" lon="11.332793099094054"><ele>165.0</ele><time>2026-04-18T09:40:55.001Z</time></trkpt><trkpt lat="44.39533111432395" lon="11.332691511152678"><ele>166.0</ele><time>2026-04-18T09:40:56.001Z</time></trkpt><trkpt lat="44.39517657921001" lon="11.33259180568502"><ele>166.0</ele><time>2026-04-18T09:40:57.001Z</time></trkpt><trkpt lat="44.39502585373728" lon="11.332493878197333"><ele>166.0</ele><time>2026-04-18T09:40:58.001Z</time></trkpt><trkpt lat="44.394877331885326" lon="11.332396641747142"><ele>166.0</ele><time>2026-04-18T09:40:59.001Z</time></trkpt><trkpt lat="44.39474027642465" lon="11.3323069474704"><ele>166.25</ele><time>2026-04-18T09:41:00.001Z</time></trkpt><trkpt lat="44.3946060513174" lon="11.332224850436287"><ele>166.5</ele><time>2026-04-18T09:41:01.001Z</time></trkpt><trkpt lat="44.39448755611174" lon="11.332140026268156"><ele>166.75</ele><time>2026-04-18T09:41:02.001Z</time></trkpt><trkpt lat="44.3943765991359" lon="11.332062094581433"><ele>167.0</ele><time>2026-04-18T09:41:03.001Z</time></trkpt><trkpt lat="44.39427282331646" lon="11.33196203751035"><ele>167.0</ele><time>2026-04-18T09:41:04.001Z</time></trkpt><trkpt lat="44.39418324485085" lon="11.331844866941964"><ele>167.0</ele><time>2026-04-18T09:41:05.001Z</time></trkpt><trkpt lat="44.39411722479604" lon="11.331681588575034"><ele>167.0</ele><time>2026-04-18T09:41:06.001Z</time></trkpt><trkpt lat="44.39406608346613" lon="11.331513448148444"><ele>167.0</ele><time>2026-04-18T09:41:07.001Z</time></trkpt><trkpt lat="44.39401174047532" lon="11.331335996270187"><ele>167.5</ele><time>2026-04-18T09:41:08.001Z</time></trkpt><trkpt lat="44.393947919585976" lon="11.33114925138179"><ele>168.0</ele><time>2026-04-18T09:41:09.001Z</time></trkpt><trkpt lat="44.393886025875204" lon="11.330967709589633"><ele>168.5</ele><time>2026-04-18T09:41:10.001Z</time></trkpt><trkpt lat="44.393833908854546" lon="11.330797596229974"><ele>169.0</ele><time>2026-04-18T09:41:11.001Z</time></trkpt><trkpt lat="44.39378712364253" lon="11.330642610668734"><ele>169.25</ele><time>2026-04-18T09:41:12.002Z</time></trkpt><trkpt lat="44.39373530027389" lon="11.330492504565719"><ele>169.5</ele><time>2026-04-18T09:41:13.002Z</time></trkpt><trkpt lat="44.39366234136826" lon="11.330362015967266"><ele>169.75</ele><time>2026-04-18T09:41:14.002Z</time></trkpt><trkpt lat="44.39356528291077" lon="11.330257822465258"><ele>170.0</ele><time>2026-04-18T09:41:15.002Z</time></trkpt><trkpt lat="44.39346095239378" lon="11.330165691436413"><ele>170.0</ele><time>2026-04-18T09:41:16.002Z</time></trkpt><trkpt lat="44.39334265604168" lon="11.330081155583217"><ele>170.0</ele><time>2026-04-18T09:41:17.002Z</time></trkpt><trkpt lat="44.39322601663504" lon="11.33000219859388"><ele>170.0</ele><time>2026-04-18T09:41:18.002Z</time></trkpt><trkpt lat="44.39310244656245" lon="11.329920139501649"><ele>170.0</ele><time>2026-04-18T09:41:19.002Z</time></trkpt><trkpt lat="44.39297487504152" lon="11.329841352833471"><ele>169.75</ele><time>2026-04-18T09:41:20.002Z</time></trkpt><trkpt lat="44.39284706913802" lon="11.329756555930357"><ele>169.5</ele><time>2026-04-18T09:41:21.002Z</time></trkpt><trkpt lat="44.39271622759125" lon="11.329674212571613"><ele>169.25</ele><time>2026-04-18T09:41:22.002Z</time></trkpt><trkpt lat="44.39258827102978" lon="11.329587654775128"><ele>169.0</ele><time>2026-04-18T09:41:23.002Z</time></trkpt><trkpt lat="44.39246752957468" lon="11.32950736367218"><ele>170.25</ele><time>2026-04-18T09:41:24.002Z</time></trkpt><trkpt lat="44.392352001942875" lon="11.329435837348306"><ele>171.5</ele><time>2026-04-18T09:41:25.002Z</time></trkpt><trkpt lat="44.39224707529572" lon="11.329362737908035"><ele>172.75</ele><time>2026-04-18T09:41:26.002Z</time></trkpt><trkpt lat="44.39212768784617" lon="11.329291380509712"><ele>174.0</ele><time>2026-04-18T09:41:27.002Z</time></trkpt><trkpt lat="44.392015780005934" lon="11.329218436688722"><ele>176.0</ele><time>2026-04-18T09:41:28.002Z</time></trkpt><trkpt lat="44.391904758762806" lon="11.329142061438274"><ele>178.0</ele><time>2026-04-18T09:41:29.002Z</time></trkpt><trkpt lat="44.39178983143736" lon="11.329065042513522"><ele>180.0</ele><time>2026-04-18T09:41:29.999Z</time></trkpt><trkpt lat="44.391666393060724" lon="11.328986439883783"><ele>182.0</ele><time>2026-04-18T09:41:30.999Z</time></trkpt><trkpt lat="44.39154693585638" lon="11.328895745729751"><ele>185.66666666666666</ele><time>2026-04-18T09:41:31.999Z</time></trkpt><trkpt lat="44.3914146181615" lon="11.328813444692086"><ele>189.33333333333331</ele><time>2026-04-18T09:41:32.999Z</time></trkpt><trkpt lat="44.391273492037215" lon="11.328732497244625"><ele>193.0</ele><time>2026-04-18T09:41:33.999Z</time></trkpt><trkpt lat="44.39113612777056" lon="11.328634363942747"><ele>193.25</ele><time>2026-04-18T09:41:34.999Z</time></trkpt><trkpt lat="44.39099585533358" lon="11.328543103681962"><ele>193.5</ele><time>2026-04-18T09:41:35.999Z</time></trkpt><trkpt lat="44.3908711171023" lon="11.328456487936519"><ele>193.75</ele><time>2026-04-18T09:41:36.999Z</time></trkpt><trkpt lat="44.39074316355439" lon="11.32837611540799"><ele>194.0</ele><time>2026-04-18T09:41:37.999Z</time></trkpt><trkpt lat="44.3906208684077" lon="11.32828568363784"><ele>192.5</ele><time>2026-04-18T09:41:38.999Z</time></trkpt><trkpt lat="44.3904991376628" lon="11.328197543861053"><ele>191.0</ele><time>2026-04-18T09:41:39.999Z</time></trkpt><trkpt lat="44.39037687144591" lon="11.328112630802432"><ele>189.5</ele><time>2026-04-18T09:41:40.999Z</time></trkpt><trkpt lat="44.390268180224666" lon="11.32803105211142"><ele>188.0</ele><time>2026-04-18T09:41:41.999Z</time></trkpt><trkpt lat="44.39016835018516" lon="11.327970211905148"><ele>190.5</ele><time>2026-04-18T09:41:42.999Z</time></trkpt><trkpt lat="44.39009064803129" lon="11.327903061852655"><ele>193.0</ele><time>2026-04-18T09:41:44Z</time></trkpt><trkpt lat="44.390045177806925" lon="11.327818055782668"><ele>195.5</ele><time>2026-04-18T09:41:45Z</time></trkpt><trkpt lat="44.390009349550326" lon="11.327723970287531"><ele>198.0</ele><time>2026-04-18T09:41:46Z</time></trkpt><trkpt lat="44.39002826702474" lon="11.327611800962107"><ele>200.50000000000003</ele><time>2026-04-18T09:41:47Z</time></trkpt><trkpt lat="44.39007408679428" lon="11.327513534519833"><ele>203.0</ele><time>2026-04-18T09:41:48Z</time></trkpt><trkpt lat="44.39014981635681" lon="11.327482794581146"><ele>203.0</ele><time>2026-04-18T09:41:49Z</time></trkpt><trkpt lat="44.39022744874707" lon="11.327523449394963"><ele>203.0</ele><time>2026-04-18T09:41:50Z</time></trkpt><trkpt lat="44.39031035689351" lon="11.327541909016844"><ele>203.0</ele><time>2026-04-18T09:41:51Z</time></trkpt><trkpt lat="44.39040295787401" lon="11.327575695943851"><ele>203.0</ele><time>2026-04-18T09:41:52Z</time></trkpt><trkpt lat="44.390497095552114" lon="11.327631486545805"><ele>203.0</ele><time>2026-04-18T09:41:53Z</time></trkpt><trkpt lat="44.39058861107993" lon="11.327712114097066"><ele>203.50000000000003</ele><time>2026-04-18T09:41:54Z</time></trkpt><trkpt lat="44.390678289674334" lon="11.327792310841097"><ele>204.0</ele><time>2026-04-18T09:41:55Z</time></trkpt><trkpt lat="44.39077058536386" lon="11.327831088182906"><ele>204.5</ele><time>2026-04-18T09:41:56Z</time></trkpt><trkpt lat="44.390856113536366" lon="11.327863517447874"><ele>205.0</ele><time>2026-04-18T09:41:57Z</time></trkpt><trkpt lat="44.39094416885773" lon="11.327851790519778"><ele>205.50000000000003</ele><time>2026-04-18T09:41:58Z</time></trkpt><trkpt lat="44.39098660379742" lon="11.327774723958276"><ele>206.0</ele><time>2026-04-18T09:41:59Z</time></trkpt><trkpt lat="44.391012255408626" lon="11.327662643535607"><ele>206.0</ele><time>2026-04-18T09:42:00Z</time></trkpt><trkpt lat="44.390971965733335" lon="11.32750371989688"><ele>206.0</ele><time>2026-04-18T09:42:01Z</time></trkpt><trkpt lat="44.39090570020951" lon="11.327383461076572"><ele>206.0</ele><time>2026-04-18T09:42:02Z</time></trkpt><trkpt lat="44.39083355629379" lon="11.32725498165887"><ele>206.0</ele><time>2026-04-18T09:42:03Z</time></trkpt><trkpt lat="44.39077107354919" lon="11.327143051305722"><ele>206.0</ele><time>2026-04-18T09:42:04Z</time></trkpt><trkpt lat="44.390710166765885" lon="11.327029688377195"><ele>207.60000000000002</ele><time>2026-04-18T09:42:05Z</time></trkpt><trkpt lat="44.39065305888801" lon="11.32691457175138"><ele>209.2</ele><time>2026-04-18T09:42:06Z</time></trkpt><trkpt lat="44.39059289662293" lon="11.326802045364202"><ele>210.79999999999998</ele><time>2026-04-18T09:42:07Z</time></trkpt><trkpt lat="44.390536765485244" lon="11.326701233066277"><ele>212.39999999999998</ele><time>2026-04-18T09:42:08Z</time></trkpt><trkpt lat="44.39047711894955" lon="11.326595266303547"><ele>214.0</ele><time>2026-04-18T09:42:09Z</time></trkpt><trkpt lat="44.390426372629065" lon="11.326494250217136"><ele>217.39999999999998</ele><time>2026-04-18T09:42:10Z</time></trkpt><trkpt lat="44.390372269709374" lon="11.326391867867606"><ele>220.79999999999998</ele><time>2026-04-18T09:42:11Z</time></trkpt><trkpt lat="44.39031309921651" lon="11.326294709533935"><ele>224.20000000000002</ele><time>2026-04-18T09:42:12Z</time></trkpt><trkpt lat="44.39023515844437" lon="11.32622202548536"><ele>227.60000000000002</ele><time>2026-04-18T09:42:13Z</time></trkpt><trkpt lat="44.390143004265596" lon="11.326180485668846"><ele>231.0</ele><time>2026-04-18T09:42:14Z</time></trkpt><trkpt lat="44.390046609911224" lon="11.326176781044289"><ele>231.0</ele><time>2026-04-18T09:42:15Z</time></trkpt><trkpt lat="44.38995896653002" lon="11.326208142990954"><ele>231.00000000000003</ele><time>2026-04-18T09:42:16Z</time></trkpt><trkpt lat="44.38986588264151" lon="11.326268975897692"><ele>231.00000000000003</ele><time>2026-04-18T09:42:17Z</time></trkpt><trkpt lat="44.38977447040897" lon="11.326344978615381"><ele>231.0</ele><time>2026-04-18T09:42:18Z</time></trkpt><trkpt lat="44.38970545890316" lon="11.326456252180694"><ele>231.0</ele><time>2026-04-18T09:42:19Z</time></trkpt><trkpt lat="44.38965130595507" lon="11.326582000382174"><ele>232.4</ele><time>2026-04-18T09:42:20Z</time></trkpt><trkpt lat="44.389584341306495" lon="11.326698915850645"><ele>233.8</ele><time>2026-04-18T09:42:21Z</time></trkpt><trkpt lat="44.38952988645047" lon="11.326799043306686"><ele>235.20000000000002</ele><time>2026-04-18T09:42:22.001Z</time></trkpt><trkpt lat="44.38946262959554" lon="11.32687566715751"><ele>236.60000000000002</ele><time>2026-04-18T09:42:23.001Z</time></trkpt><trkpt lat="44.38938207889682" lon="11.326961452201385"><ele>238.0</ele><time>2026-04-18T09:42:24.001Z</time></trkpt><trkpt lat="44.38927869383712" lon="11.327005119603362"><ele>238.0</ele><time>2026-04-18T09:42:25.001Z</time></trkpt><trkpt lat="44.38916964532677" lon="11.327038394726003"><ele>238.0</ele><time>2026-04-18T09:42:26.001Z</time></trkpt><trkpt lat="44.389058459121195" lon="11.327049358876954"><ele>238.0</ele><time>2026-04-18T09:42:27.001Z</time></trkpt><trkpt lat="44.38894428660185" lon="11.327066186040353"><ele>238.0</ele><time>2026-04-18T09:42:28.001Z</time></trkpt><trkpt lat="44.38884352802966" lon="11.327098331185649"><ele>238.0</ele><time>2026-04-18T09:42:29.001Z</time></trkpt><trkpt lat="44.38875165471515" lon="11.327142661451216"><ele>238.8</ele><time>2026-04-18T09:42:30.001Z</time></trkpt><trkpt lat="44.38864403699121" lon="11.327181271640274"><ele>239.60000000000002</ele><time>2026-04-18T09:42:31.001Z</time></trkpt><trkpt lat="44.38855663837141" lon="11.327240829440171"><ele>240.39999999999998</ele><time>2026-04-18T09:42:32.001Z</time></trkpt><trkpt lat="44.3884798312852" lon="11.327295519789686"><ele>241.2</ele><time>2026-04-18T09:42:33.001Z</time></trkpt><trkpt lat="44.388398727446976" lon="11.327346728450202"><ele>242.0</ele><time>2026-04-18T09:42:34.001Z</time></trkpt><trkpt lat="44.388311950356155" lon="11.327387762496205"><ele>242.0</ele><time>2026-04-18T09:42:35.001Z</time></trkpt><trkpt lat="44.38822159294079" lon="11.327371008125384"><ele>242.0</ele><time>2026-04-18T09:42:36.001Z</time></trkpt><trkpt lat="44.38815731011225" lon="11.327297474766825"><ele>242.0</ele><time>2026-04-18T09:42:37.001Z</time></trkpt><trkpt lat="44.38810968125182" lon="11.327201891212965"><ele>242.0</ele><time>2026-04-18T09:42:38.001Z</time></trkpt><trkpt lat="44.388075345044115" lon="11.327085407106397"><ele>242.0</ele><time>2026-04-18T09:42:39.001Z</time></trkpt><trkpt lat="44.388039824460506" lon="11.32695113742741"><ele>242.0</ele><time>2026-04-18T09:42:40.001Z</time></trkpt><trkpt lat="44.388027081227825" lon="11.326812024373355"><ele>242.0</ele><time>2026-04-18T09:42:41.001Z</time></trkpt><trkpt lat="44.38804721814775" lon="11.326672608084749"><ele>242.0</ele><time>2026-04-18T09:42:42.001Z</time></trkpt><trkpt lat="44.38809621966074" lon="11.326527384061865"><ele>242.0</ele><time>2026-04-18T09:42:43.001Z</time></trkpt><trkpt lat="44.38816817695775" lon="11.3263817784958"><ele>242.0</ele><time>2026-04-18T09:42:44.001Z</time></trkpt><trkpt lat="44.38822828544424" lon="11.326268738120985"><ele>243.2</ele><time>2026-04-18T09:42:45.001Z</time></trkpt><trkpt lat="44.38830024449196" lon="11.326158684909165"><ele>244.39999999999998</ele><time>2026-04-18T09:42:46.001Z</time></trkpt><trkpt lat="44.3883680086895" lon="11.326045184762394"><ele>245.60000000000002</ele><time>2026-04-18T09:42:47.001Z</time></trkpt><trkpt lat="44.38841757789726" lon="11.32592182742425"><ele>246.8</ele><time>2026-04-18T09:42:48.001Z</time></trkpt><trkpt lat="44.38845404245618" lon="11.325768528564941"><ele>248.0</ele><time>2026-04-18T09:42:49.001Z</time></trkpt><trkpt lat="44.38848871418056" lon="11.325604932548265"><ele>247.25</ele><time>2026-04-18T09:42:50.001Z</time></trkpt><trkpt lat="44.38854695504553" lon="11.325436974377212"><ele>246.5</ele><time>2026-04-18T09:42:51.001Z</time></trkpt><trkpt lat="44.388617145645775" lon="11.325284128361183"><ele>245.75</ele><time>2026-04-18T09:42:52.001Z</time></trkpt><trkpt lat="44.38868793443162" lon="11.32514935382326"><ele>245.0</ele><time>2026-04-18T09:42:53.001Z</time></trkpt><trkpt lat="44.38874124047331" lon="11.325016362618499"><ele>245.0</ele><time>2026-04-18T09:42:54.001Z</time></trkpt><trkpt lat="44.38876760042116" lon="11.32487012541603"><ele>245.0</ele><time>2026-04-18T09:42:55.001Z</time></trkpt><trkpt lat="44.388763107816615" lon="11.324714093448467"><ele>245.0</ele><time>2026-04-18T09:42:56.001Z</time></trkpt><trkpt lat="44.38875807272498" lon="11.324549119444011"><ele>245.0</ele><time>2026-04-18T09:42:57.001Z</time></trkpt><trkpt lat="44.38874906711873" lon="11.324374641168724"><ele>244.8</ele><time>2026-04-18T09:42:58.001Z</time></trkpt><trkpt lat="44.388736863683846" lon="11.324207326809967"><ele>244.6</ele><time>2026-04-18T09:42:59.001Z</time></trkpt><trkpt lat="44.388726970254744" lon="11.324057924796552"><ele>244.39999999999998</ele><time>2026-04-18T09:43:00.001Z</time></trkpt><trkpt lat="44.38871618286991" lon="11.323923885202287"><ele>244.2</ele><time>2026-04-18T09:43:01.001Z</time></trkpt><trkpt lat="44.38869895245132" lon="11.323808973794597"><ele>244.0</ele><time>2026-04-18T09:43:02.001Z</time></trkpt><trkpt lat="44.388682430010824" lon="11.32368721817621"><ele>244.79999999999998</ele><time>2026-04-18T09:43:03.001Z</time></trkpt><trkpt lat="44.388668889083306" lon="11.323560351630404"><ele>245.59999999999997</ele><time>2026-04-18T09:43:04.001Z</time></trkpt><trkpt lat="44.388660709023384" lon="11.323427925823648"><ele>246.4</ele><time>2026-04-18T09:43:05.001Z</time></trkpt><trkpt lat="44.3886654148411" lon="11.323295661702833"><ele>247.2</ele><time>2026-04-18T09:43:06.001Z</time></trkpt><trkpt lat="44.388686570921465" lon="11.323160339420214"><ele>248.0</ele><time>2026-04-18T09:43:07.002Z</time></trkpt><trkpt lat="44.38873892325029" lon="11.323032394276037"><ele>248.60000000000002</ele><time>2026-04-18T09:43:08.002Z</time></trkpt><trkpt lat="44.388800505471394" lon="11.322914908844739"><ele>249.20000000000002</ele><time>2026-04-18T09:43:09.002Z</time></trkpt><trkpt lat="44.388876651891806" lon="11.322817791768623"><ele>249.8</ele><time>2026-04-18T09:43:10.002Z</time></trkpt><trkpt lat="44.38894897623426" lon="11.322726476127936"><ele>250.4</ele><time>2026-04-18T09:43:11.002Z</time></trkpt><trkpt lat="44.38901957315964" lon="11.32264673823308"><ele>251.0</ele><time>2026-04-18T09:43:12.002Z</time></trkpt><trkpt lat="44.38907682545853" lon="11.32257212915505"><ele>253.33333333333334</ele><time>2026-04-18T09:43:13.002Z</time></trkpt><trkpt lat="44.38912100466252" lon="11.322504591651311"><ele>255.66666666666669</ele><time>2026-04-18T09:43:14.002Z</time></trkpt><trkpt lat="44.38915533839266" lon="11.322430068075864"><ele>258.0</ele><time>2026-04-18T09:43:15.002Z</time></trkpt><trkpt lat="44.38918713973027" lon="11.322307302094057"><ele>260.3333333333333</ele><time>2026-04-18T09:43:17.002Z</time></trkpt><trkpt lat="44.38922081746783" lon="11.322198372164667"><ele>262.66666666666663</ele><time>2026-04-18T09:43:19.002Z</time></trkpt><trkpt lat="44.38923435803688" lon="11.322108514842085"><ele>265.0</ele><time>2026-04-18T09:43:20.002Z</time></trkpt><trkpt lat="44.38926548360253" lon="11.321998311413461"><ele>265.0</ele><time>2026-04-18T09:43:21.002Z</time></trkpt><trkpt lat="44.38931782860255" lon="11.321873459114354"><ele>265.0</ele><time>2026-04-18T09:43:22.002Z</time></trkpt><trkpt lat="44.38938560035699" lon="11.32173839746571"><ele>265.0</ele><time>2026-04-18T09:43:23.002Z</time></trkpt><trkpt lat="44.389466880528495" lon="11.32159985848614"><ele>265.0</ele><time>2026-04-18T09:43:24.002Z</time></trkpt><trkpt lat="44.389571211382474" lon="11.321467651017398"><ele>266.5</ele><time>2026-04-18T09:43:25.002Z</time></trkpt><trkpt lat="44.38969679500766" lon="11.321350075638685"><ele>268.0</ele><time>2026-04-18T09:43:26.002Z</time></trkpt><trkpt lat="44.389831565801366" lon="11.321259564393866"><ele>269.5</ele><time>2026-04-18T09:43:27.002Z</time></trkpt><trkpt lat="44.389963737722326" lon="11.321188510418244"><ele>271.0</ele><time>2026-04-18T09:43:28.002Z</time></trkpt><trkpt lat="44.390093704089836" lon="11.321108479232576"><ele>271.0</ele><time>2026-04-18T09:43:29.002Z</time></trkpt><trkpt lat="44.390210466718045" lon="11.321007924627803"><ele>271.0</ele><time>2026-04-18T09:43:30.002Z</time></trkpt><trkpt lat="44.39031663325623" lon="11.320876553138117"><ele>271.0</ele><time>2026-04-18T09:43:31.002Z</time></trkpt><trkpt lat="44.390419405701415" lon="11.320728355767997"><ele>271.0</ele><time>2026-04-18T09:43:32.002Z</time></trkpt><trkpt lat="44.39052826259455" lon="11.320592958965412"><ele>273.25</ele><time>2026-04-18T09:43:33.002Z</time></trkpt><trkpt lat="44.39064614289451" lon="11.320480043920364"><ele>275.5</ele><time>2026-04-18T09:43:34.002Z</time></trkpt><trkpt lat="44.39075365823466" lon="11.32035768344996"><ele>277.75</ele><time>2026-04-18T09:43:35.002Z</time></trkpt><trkpt lat="44.390846718403054" lon="11.320193454706526"><ele>280.0</ele><time>2026-04-18T09:43:35.999Z</time></trkpt><trkpt lat="44.3909263949095" lon="11.31998979262751"><ele>280.0</ele><time>2026-04-18T09:43:36.999Z</time></trkpt><trkpt lat="44.391030917571555" lon="11.319791167203126"><ele>280.0</ele><time>2026-04-18T09:43:37.999Z</time></trkpt><trkpt lat="44.39114560578405" lon="11.319602197724077"><ele>280.0</ele><time>2026-04-18T09:43:38.999Z</time></trkpt><trkpt lat="44.391240730080554" lon="11.31939705482349"><ele>278.0</ele><time>2026-04-18T09:43:39.999Z</time></trkpt><trkpt lat="44.39133235895366" lon="11.319201144729126"><ele>276.0</ele><time>2026-04-18T09:43:40.999Z</time></trkpt><trkpt lat="44.39143115997644" lon="11.319018232890622"><ele>274.0</ele><time>2026-04-18T09:43:41.999Z</time></trkpt><trkpt lat="44.39153467380062" lon="11.31885992851465"><ele>277.25</ele><time>2026-04-18T09:43:42.999Z</time></trkpt><trkpt lat="44.39163009747839" lon="11.318710592695947"><ele>280.5</ele><time>2026-04-18T09:43:43.999Z</time></trkpt><trkpt lat="44.39172152193595" lon="11.318562737982838"><ele>283.75</ele><time>2026-04-18T09:43:44.999Z</time></trkpt><trkpt lat="44.39181252835219" lon="11.318412722999408"><ele>287.0</ele><time>2026-04-18T09:43:45.999Z</time></trkpt><trkpt lat="44.39189897712529" lon="11.318277325093904"><ele>287.0</ele><time>2026-04-18T09:43:46.999Z</time></trkpt><trkpt lat="44.391993737442355" lon="11.318157149070384"><ele>287.0</ele><time>2026-04-18T09:43:47.999Z</time></trkpt><trkpt lat="44.39206940755325" lon="11.318033813948986"><ele>287.0</ele><time>2026-04-18T09:43:48.999Z</time></trkpt><trkpt lat="44.39215422034165" lon="11.31793211637789"><ele>287.0</ele><time>2026-04-18T09:43:49.999Z</time></trkpt><trkpt lat="44.39225756756269" lon="11.317840805197728"><ele>289.25</ele><time>2026-04-18T09:43:51Z</time></trkpt><trkpt lat="44.392366170752275" lon="11.317737849437028"><ele>291.5</ele><time>2026-04-18T09:43:52Z</time></trkpt><trkpt lat="44.39246469900767" lon="11.31765273021922"><ele>293.75</ele><time>2026-04-18T09:43:53Z</time></trkpt><trkpt lat="44.39254427872497" lon="11.317526168749243"><ele>296.0</ele><time>2026-04-18T09:43:54Z</time></trkpt><trkpt lat="44.392600287577864" lon="11.31735384727353"><ele>296.0</ele><time>2026-04-18T09:43:55Z</time></trkpt><trkpt lat="44.39263754955596" lon="11.317183195654756"><ele>296.0</ele><time>2026-04-18T09:43:56Z</time></trkpt><trkpt lat="44.39269969973184" lon="11.317053878497678"><ele>296.0</ele><time>2026-04-18T09:43:57Z</time></trkpt><trkpt lat="44.39275121692243" lon="11.316925548729632"><ele>296.0</ele><time>2026-04-18T09:43:58Z</time></trkpt><trkpt lat="44.3928139304056" lon="11.316812270944911"><ele>296.0</ele><time>2026-04-18T09:43:59Z</time></trkpt><trkpt lat="44.392868599189086" lon="11.31670778741709"><ele>296.0</ele><time>2026-04-18T09:44:00Z</time></trkpt><trkpt lat="44.3929179527702" lon="11.316596891963249"><ele>296.0</ele><time>2026-04-18T09:44:01Z</time></trkpt><trkpt lat="44.392925177872215" lon="11.316470360245884"><ele>296.0</ele><time>2026-04-18T09:44:02Z</time></trkpt><trkpt lat="44.39293962988859" lon="11.316338234714653"><ele>296.0</ele><time>2026-04-18T09:44:03Z</time></trkpt><trkpt lat="44.39294723308993" lon="11.316196738509833"><ele>296.0</ele><time>2026-04-18T09:44:04Z</time></trkpt><trkpt lat="44.39295110843283" lon="11.316055124893"><ele>297.0</ele><time>2026-04-18T09:44:05Z</time></trkpt><trkpt lat="44.39295401388509" lon="11.315915194841576"><ele>298.0</ele><time>2026-04-18T09:44:06Z</time></trkpt><trkpt lat="44.392962230833504" lon="11.315760965232656"><ele>299.0</ele><time>2026-04-18T09:44:07Z</time></trkpt><trkpt lat="44.39298223085" lon="11.31561186570636"><ele>300.0</ele><time>2026-04-18T09:44:08Z</time></trkpt><trkpt lat="44.39301003179617" lon="11.315466382988719"><ele>301.0</ele><time>2026-04-18T09:44:09Z</time></trkpt><trkpt lat="44.393041873189176" lon="11.315308246688758"><ele>301.0</ele><time>2026-04-18T09:44:10Z</time></trkpt><trkpt lat="44.39307083891093" lon="11.315150655779323"><ele>301.0</ele><time>2026-04-18T09:44:11Z</time></trkpt><trkpt lat="44.393105336831006" lon="11.314988551965854"><ele>301.0</ele><time>2026-04-18T09:44:12Z</time></trkpt><trkpt lat="44.39314270091732" lon="11.314817847715522"><ele>301.0</ele><time>2026-04-18T09:44:13Z</time></trkpt><trkpt lat="44.39318107342552" lon="11.314642928299175"><ele>302.25</ele><time>2026-04-18T09:44:14Z</time></trkpt><trkpt lat="44.39321225658165" lon="11.314463505947783"><ele>303.5</ele><time>2026-04-18T09:44:15Z</time></trkpt><trkpt lat="44.3932470442985" lon="11.314278635781896"><ele>304.75</ele><time>2026-04-18T09:44:16Z</time></trkpt><trkpt lat="44.39328866084856" lon="11.314080787889248"><ele>306.0</ele><time>2026-04-18T09:44:17Z</time></trkpt><trkpt lat="44.39331545257076" lon="11.313898027983031"><ele>306.0</ele><time>2026-04-18T09:44:18Z</time></trkpt><trkpt lat="44.39333698030522" lon="11.313710178499953"><ele>306.0</ele><time>2026-04-18T09:44:19Z</time></trkpt><trkpt lat="44.39335918043963" lon="11.313510970197031"><ele>306.0</ele><time>2026-04-18T09:44:20Z</time></trkpt><trkpt lat="44.393364593808734" lon="11.313315760878877"><ele>306.0</ele><time>2026-04-18T09:44:21Z</time></trkpt><trkpt lat="44.393383410974984" lon="11.313096755851868"><ele>306.6666666666667</ele><time>2026-04-18T09:44:22.001Z</time></trkpt><trkpt lat="44.393402672537114" lon="11.312876763886091"><ele>307.33333333333337</ele><time>2026-04-18T09:44:23.001Z</time></trkpt><trkpt lat="44.39341892407968" lon="11.312656119003798"><ele>308.0</ele><time>2026-04-18T09:44:24.001Z</time></trkpt><trkpt lat="44.393440688887004" lon="11.312427442886564"><ele>309.25</ele><time>2026-04-18T09:44:25.001Z</time></trkpt><trkpt lat="44.39345416650223" lon="11.312215931361065"><ele>310.5</ele><time>2026-04-18T09:44:26.001Z</time></trkpt><trkpt lat="44.39344661413599" lon="11.312016853077727"><ele>311.75</ele><time>2026-04-18T09:44:27.001Z</time></trkpt><trkpt lat="44.39342011176857" lon="11.311814073904674"><ele>313.0</ele><time>2026-04-18T09:44:28.001Z</time></trkpt><trkpt lat="44.393378005113654" lon="11.311606422962097"><ele>316.66666666666663</ele><time>2026-04-18T09:44:29.001Z</time></trkpt><trkpt lat="44.39333511951249" lon="11.311396734763216"><ele>320.3333333333333</ele><time>2026-04-18T09:44:30.001Z</time></trkpt><trkpt lat="44.39329967049676" lon="11.311184839784138"><ele>324.0</ele><time>2026-04-18T09:44:31.001Z</time></trkpt><trkpt lat="44.39326064796951" lon="11.310977081987543"><ele>324.0</ele><time>2026-04-18T09:44:32.001Z</time></trkpt><trkpt lat="44.39322040353372" lon="11.310776898712184"><ele>324.0</ele><time>2026-04-18T09:44:33.001Z</time></trkpt><trkpt lat="44.39313983512126" lon="11.310605913371552"><ele>324.0</ele><time>2026-04-18T09:44:34.001Z</time></trkpt><trkpt lat="44.3930344699589" lon="11.310454321902121"><ele>324.0</ele><time>2026-04-18T09:44:35.001Z</time></trkpt><trkpt lat="44.392930006948525" lon="11.310315400441159"><ele>321.0</ele><time>2026-04-18T09:44:36.001Z</time></trkpt><trkpt lat="44.39282669048452" lon="11.310187154661577"><ele>318.0</ele><time>2026-04-18T09:44:37.001Z</time></trkpt><trkpt lat="44.39273344502362" lon="11.31007846127624"><ele>315.0</ele><time>2026-04-18T09:44:38.001Z</time></trkpt><trkpt lat="44.392637259162214" lon="11.3099966724947"><ele>312.0</ele><time>2026-04-18T09:44:39.001Z</time></trkpt><trkpt lat="44.392540925340995" lon="11.309935155509365"><ele>312.0</ele><time>2026-04-18T09:44:40.001Z</time></trkpt><trkpt lat="44.39246223099951" lon="11.309887224839036"><ele>312.0</ele><time>2026-04-18T09:44:41.001Z</time></trkpt><trkpt lat="44.39239075620606" lon="11.30984540123744"><ele>312.0</ele><time>2026-04-18T09:44:42.001Z</time></trkpt><trkpt lat="44.39233595738198" lon="11.309789220981736"><ele>312.0</ele><time>2026-04-18T09:44:43.001Z</time></trkpt><trkpt lat="44.392296684657694" lon="11.309716821932746"><ele>312.0</ele><time>2026-04-18T09:44:44.001Z</time></trkpt><trkpt lat="44.392320978058706" lon="11.309582137943881"><ele>312.0</ele><time>2026-04-18T09:44:45.001Z</time></trkpt><trkpt lat="44.39237169061598" lon="11.309476678439156"><ele>311.8</ele><time>2026-04-18T09:44:46.001Z</time></trkpt><trkpt lat="44.39244304617655" lon="11.309396982550842"><ele>311.6</ele><time>2026-04-18T09:44:47.001Z</time></trkpt><trkpt lat="44.39252031534057" lon="11.309320189597642"><ele>311.40000000000003</ele><time>2026-04-18T09:44:48.001Z</time></trkpt><trkpt lat="44.39260333592805" lon="11.309225369362826"><ele>311.2</ele><time>2026-04-18T09:44:49.001Z</time></trkpt><trkpt lat="44.39268862743405" lon="11.309129848854509"><ele>311.0</ele><time>2026-04-18T09:44:50.001Z</time></trkpt><trkpt lat="44.3927693197558" lon="11.309043103504262"><ele>311.0</ele><time>2026-04-18T09:44:51.001Z</time></trkpt><trkpt lat="44.39285114810529" lon="11.308955130792393"><ele>311.0</ele><time>2026-04-18T09:44:52.001Z</time></trkpt><trkpt lat="44.392932302524294" lon="11.30886727139328"><ele>311.0</ele><time>2026-04-18T09:44:53.001Z</time></trkpt><trkpt lat="44.39301815164607" lon="11.308789974951418"><ele>311.0</ele><time>2026-04-18T09:44:54.001Z</time></trkpt><trkpt lat="44.39310006835525" lon="11.308719074280043"><ele>311.0</ele><time>2026-04-18T09:44:55.001Z</time></trkpt><trkpt lat="44.393183292892445" lon="11.308659487267237"><ele>311.1666666666667</ele><time>2026-04-18T09:44:56.001Z</time></trkpt><trkpt lat="44.393260096098786" lon="11.308605703726416"><ele>311.33333333333337</ele><time>2026-04-18T09:44:57.001Z</time></trkpt><trkpt lat="44.393340263279335" lon="11.308566327968023"><ele>311.5</ele><time>2026-04-18T09:44:58.001Z</time></trkpt><trkpt lat="44.393418178752796" lon="11.3085280122286"><ele>311.6666666666667</ele><time>2026-04-18T09:44:59.001Z</time></trkpt><trkpt lat="44.39350283126809" lon="11.308483616147166"><ele>311.8333333333333</ele><time>2026-04-18T09:45:00.001Z</time></trkpt><trkpt lat="44.39358462153854" lon="11.308440602786606"><ele>312.0</ele><time>2026-04-18T09:45:01.001Z</time></trkpt><trkpt lat="44.39366413337817" lon="11.30840618924927"><ele>312.0</ele><time>2026-04-18T09:45:02.001Z</time></trkpt><trkpt lat="44.39373913183259" lon="11.308393124705503"><ele>312.0</ele><time>2026-04-18T09:45:03.002Z</time></trkpt><trkpt lat="44.393892049526535" lon="11.30839907649257"><ele>312.0</ele><time>2026-04-18T09:45:05.002Z</time></trkpt><trkpt lat="44.39397136623172" lon="11.30842183299414"><ele>312.0</ele><time>2026-04-18T09:45:06.002Z</time></trkpt><trkpt lat="44.394051651352896" lon="11.308469913316229"><ele>312.0</ele><time>2026-04-18T09:45:07.002Z</time></trkpt><trkpt lat="44.39413666041508" lon="11.308523753900388"><ele>312.6</ele><time>2026-04-18T09:45:08.002Z</time></trkpt><trkpt lat="44.39421858145275" lon="11.308594871017931"><ele>313.2</ele><time>2026-04-18T09:45:09.002Z</time></trkpt><trkpt lat="44.39430806125183" lon="11.30869136692304"><ele>313.8</ele><time>2026-04-18T09:45:10.002Z</time></trkpt><trkpt lat="44.3943948173549" lon="11.308783292914441"><ele>314.4</ele><time>2026-04-18T09:45:11.002Z</time></trkpt><trkpt lat="44.39447819723418" lon="11.308869434804901"><ele>315.0</ele><time>2026-04-18T09:45:12.002Z</time></trkpt><trkpt lat="44.39456941615358" lon="11.308948447203726"><ele>314.4</ele><time>2026-04-18T09:45:13.002Z</time></trkpt><trkpt lat="44.39466593553702" lon="11.309025166186045"><ele>313.8</ele><time>2026-04-18T09:45:14.002Z</time></trkpt><trkpt lat="44.3947628876383" lon="11.30910180467967"><ele>313.2</ele><time>2026-04-18T09:45:15.002Z</time></trkpt><trkpt lat="44.39486059507396" lon="11.30917428274469"><ele>312.6</ele><time>2026-04-18T09:45:16.002Z</time></trkpt><trkpt lat="44.394956184237316" lon="11.309259365936894"><ele>312.0</ele><time>2026-04-18T09:45:17.002Z</time></trkpt><trkpt lat="44.395057479871205" lon="11.309336659529313"><ele>312.0</ele><time>2026-04-18T09:45:18.002Z</time></trkpt><trkpt lat="44.39515833453602" lon="11.309401384580553"><ele>312.0</ele><time>2026-04-18T09:45:19.002Z</time></trkpt><trkpt lat="44.39526430331234" lon="11.309452721918008"><ele>312.0</ele><time>2026-04-18T09:45:20.002Z</time></trkpt><trkpt lat="44.39537873831981" lon="11.309490924472893"><ele>312.0</ele><time>2026-04-18T09:45:21.002Z</time></trkpt><trkpt lat="44.39548762547519" lon="11.30951687361492"><ele>309.8</ele><time>2026-04-18T09:45:22.002Z</time></trkpt><trkpt lat="44.39558378915169" lon="11.309540679862385"><ele>307.6</ele><time>2026-04-18T09:45:23.002Z</time></trkpt><trkpt lat="44.39568914507276" lon="11.309567663973922"><ele>305.40000000000003</ele><time>2026-04-18T09:45:24.002Z</time></trkpt><trkpt lat="44.39578293460698" lon="11.309592052862493"><ele>303.2</ele><time>2026-04-18T09:45:25.002Z</time></trkpt><trkpt lat="44.395875446223705" lon="11.309615125194197"><ele>301.0</ele><time>2026-04-18T09:45:26.002Z</time></trkpt><trkpt lat="44.395963717233016" lon="11.309641499755125"><ele>301.0</ele><time>2026-04-18T09:45:27.002Z</time></trkpt><trkpt lat="44.39605449341751" lon="11.30968909555569"><ele>301.0</ele><time>2026-04-18T09:45:28.002Z</time></trkpt><trkpt lat="44.39614134363905" lon="11.309758587210393"><ele>301.0</ele><time>2026-04-18T09:45:29.002Z</time></trkpt><trkpt lat="44.396216144308596" lon="11.309841566188158"><ele>301.0</ele><time>2026-04-18T09:45:30.002Z</time></trkpt><trkpt lat="44.39628464905754" lon="11.309933091369437"><ele>301.0</ele><time>2026-04-18T09:45:31.002Z</time></trkpt><trkpt lat="44.396358225665324" lon="11.310026645782933"><ele>304.0</ele><time>2026-04-18T09:45:32.002Z</time></trkpt><trkpt lat="44.39643577483352" lon="11.310122361606226"><ele>307.0</ele><time>2026-04-18T09:45:33.002Z</time></trkpt><trkpt lat="44.396512901935274" lon="11.31020432655504"><ele>310.0</ele><time>2026-04-18T09:45:34.002Z</time></trkpt><trkpt lat="44.39657743111742" lon="11.310321604641036"><ele>313.0</ele><time>2026-04-18T09:45:35.002Z</time></trkpt><trkpt lat="44.396648747405756" lon="11.310392622884214"><ele>316.0</ele><time>2026-04-18T09:45:36.002Z</time></trkpt><trkpt lat="44.39673141900553" lon="11.310470081612896"><ele>316.0</ele><time>2026-04-18T09:45:37.002Z</time></trkpt><trkpt lat="44.39682120506809" lon="11.310527053810004"><ele>316.0</ele><time>2026-04-18T09:45:38.002Z</time></trkpt><trkpt lat="44.396917599265194" lon="11.310553220425787"><ele>316.0</ele><time>2026-04-18T09:45:39.002Z</time></trkpt><trkpt lat="44.39701322431893" lon="11.310575661615884"><ele>316.0</ele><time>2026-04-18T09:45:40.002Z</time></trkpt><trkpt lat="44.39709307557688" lon="11.310578362232679"><ele>316.0</ele><time>2026-04-18T09:45:41.002Z</time></trkpt><trkpt lat="44.397199879501386" lon="11.310566092632524"><ele>316.2</ele><time>2026-04-18T09:45:42.999Z</time></trkpt><trkpt lat="44.397344862216116" lon="11.31050192775164"><ele>316.40000000000003</ele><time>2026-04-18T09:45:44.999Z</time></trkpt><trkpt lat="44.397441830169285" lon="11.310471480934064"><ele>316.6</ele><time>2026-04-18T09:45:45.999Z</time></trkpt><trkpt lat="44.39752421041151" lon="11.310436941176313"><ele>316.8</ele><time>2026-04-18T09:45:46.999Z</time></trkpt><trkpt lat="44.39759314317142" lon="11.31036821011462"><ele>317.0</ele><time>2026-04-18T09:45:47.999Z</time></trkpt><trkpt lat="44.39763573735348" lon="11.310264154609333"><ele>317.0</ele><time>2026-04-18T09:45:48.999Z</time></trkpt><trkpt lat="44.397638884409965" lon="11.310121315498536"><ele>317.0</ele><time>2026-04-18T09:45:49.999Z</time></trkpt><trkpt lat="44.39761733970901" lon="11.309962027451846"><ele>317.0</ele><time>2026-04-18T09:45:50.999Z</time></trkpt><trkpt lat="44.39759453842798" lon="11.309822307924067"><ele>317.0</ele><time>2026-04-18T09:45:51.999Z</time></trkpt><trkpt lat="44.39758852976328" lon="11.309674143507817"><ele>317.0</ele><time>2026-04-18T09:45:52.999Z</time></trkpt><trkpt lat="44.39763761165525" lon="11.309562832999935"><ele>317.5</ele><time>2026-04-18T09:45:53.999Z</time></trkpt><trkpt lat="44.3977138464778" lon="11.309502140278488"><ele>318.0</ele><time>2026-04-18T09:45:54.999Z</time></trkpt><trkpt lat="44.397803345435236" lon="11.309428386978169"><ele>318.5</ele><time>2026-04-18T09:45:55.999Z</time></trkpt><trkpt lat="44.39792916846291" lon="11.309379687915136"><ele>319.0</ele><time>2026-04-18T09:45:56.999Z</time></trkpt><trkpt lat="44.39805608345189" lon="11.309350892520623"><ele>319.0</ele><time>2026-04-18T09:45:57.999Z</time></trkpt><trkpt lat="44.398174329785874" lon="11.309364985986093"><ele>319.0</ele><time>2026-04-18T09:45:58.999Z</time></trkpt><trkpt lat="44.3982964919991" lon="11.309389127343783"><ele>319.0</ele><time>2026-04-18T09:45:59.999Z</time></trkpt><trkpt lat="44.39841567262884" lon="11.309454800379003"><ele>319.0</ele><time>2026-04-18T09:46:00.999Z</time></trkpt><trkpt lat="44.39851921365269" lon="11.30954260983014"><ele>319.0</ele><time>2026-04-18T09:46:02Z</time></trkpt><trkpt lat="44.398623391840395" lon="11.309615255990972"><ele>319.0</ele><time>2026-04-18T09:46:03Z</time></trkpt><trkpt lat="44.398724724244985" lon="11.309684404204654"><ele>319.0</ele><time>2026-04-18T09:46:04Z</time></trkpt><trkpt lat="44.39882451947237" lon="11.309751079029036"><ele>319.0</ele><time>2026-04-18T09:46:05Z</time></trkpt><trkpt lat="44.39893033091175" lon="11.309803722393049"><ele>318.0</ele><time>2026-04-18T09:46:06Z</time></trkpt><trkpt lat="44.39901897776418" lon="11.30986115046932"><ele>317.0</ele><time>2026-04-18T09:46:07Z</time></trkpt><trkpt lat="44.39911709164825" lon="11.309917125462283"><ele>316.0</ele><time>2026-04-18T09:46:08Z</time></trkpt><trkpt lat="44.39921172616621" lon="11.309958317608794"><ele>315.0</ele><time>2026-04-18T09:46:09Z</time></trkpt><trkpt lat="44.39930348019939" lon="11.309978645358939"><ele>314.0</ele><time>2026-04-18T09:46:10Z</time></trkpt><trkpt lat="44.399396888497044" lon="11.31001056267729"><ele>314.0</ele><time>2026-04-18T09:46:11Z</time></trkpt><trkpt lat="44.39950951282525" lon="11.309980426078951"><ele>314.0</ele><time>2026-04-18T09:46:12Z</time></trkpt><trkpt lat="44.39961844057172" lon="11.309962406427141"><ele>314.0</ele><time>2026-04-18T09:46:13Z</time></trkpt><trkpt lat="44.39972153427578" lon="11.309914695805565"><ele>314.0</ele><time>2026-04-18T09:46:14Z</time></trkpt><trkpt lat="44.399818439526925" lon="11.309848523357749"><ele>314.0</ele><time>2026-04-18T09:46:15Z</time></trkpt><trkpt lat="44.39991113686848" lon="11.309754573189345"><ele>315.75</ele><time>2026-04-18T09:46:16Z</time></trkpt><trkpt lat="44.399998564247625" lon="11.309643534318873"><ele>317.5</ele><time>2026-04-18T09:46:17Z</time></trkpt><trkpt lat="44.40009249135153" lon="11.3095565524433"><ele>319.25</ele><time>2026-04-18T09:46:18Z</time></trkpt><trkpt lat="44.40019916840326" lon="11.309502764970034"><ele>321.0</ele><time>2026-04-18T09:46:19Z</time></trkpt><trkpt lat="44.40031826277886" lon="11.309478051891274"><ele>321.0</ele><time>2026-04-18T09:46:20Z</time></trkpt><trkpt lat="44.40043470064239" lon="11.309480687106705"><ele>321.0</ele><time>2026-04-18T09:46:21Z</time></trkpt><trkpt lat="44.40054655061518" lon="11.30954360029692"><ele>321.0</ele><time>2026-04-18T09:46:22Z</time></trkpt><trkpt lat="44.400657248352914" lon="11.309626835441025"><ele>321.0</ele><time>2026-04-18T09:46:23Z</time></trkpt><trkpt lat="44.40074771136912" lon="11.30971596636105"><ele>316.75</ele><time>2026-04-18T09:46:24Z</time></trkpt><trkpt lat="44.40084465556436" lon="11.309774075797847"><ele>312.5</ele><time>2026-04-18T09:46:25Z</time></trkpt><trkpt lat="44.40095218557245" lon="11.309807689529709"><ele>308.25</ele><time>2026-04-18T09:46:26Z</time></trkpt><trkpt lat="44.40106660610897" lon="11.309812893290937"><ele>304.0</ele><time>2026-04-18T09:46:27Z</time></trkpt><trkpt lat="44.401190520922206" lon="11.30981095718367"><ele>304.0</ele><time>2026-04-18T09:46:28Z</time></trkpt><trkpt lat="44.4013193494268" lon="11.309820265748536"><ele>304.0</ele><time>2026-04-18T09:46:29Z</time></trkpt><trkpt lat="44.401453255558266" lon="11.309839809032432"><ele>304.0</ele><time>2026-04-18T09:46:30Z</time></trkpt><trkpt lat="44.40157912330364" lon="11.30986243810757"><ele>304.0</ele><time>2026-04-18T09:46:31Z</time></trkpt><trkpt lat="44.4017092066154" lon="11.309885417581198"><ele>305.75</ele><time>2026-04-18T09:46:32.001Z</time></trkpt><trkpt lat="44.40184033148122" lon="11.309915495791568"><ele>307.5</ele><time>2026-04-18T09:46:33.001Z</time></trkpt><trkpt lat="44.4019659601175" lon="11.309932324372406"><ele>309.25</ele><time>2026-04-18T09:46:34.001Z</time></trkpt><trkpt lat="44.402085314451725" lon="11.30995201244091"><ele>311.0</ele><time>2026-04-18T09:46:35.001Z</time></trkpt><trkpt lat="44.40219739185431" lon="11.309979036050379"><ele>312.0</ele><time>2026-04-18T09:46:36.001Z</time></trkpt><trkpt lat="44.402299173709274" lon="11.30999378228159"><ele>313.0</ele><time>2026-04-18T09:46:37.001Z</time></trkpt><trkpt lat="44.40241575949702" lon="11.310002040677512"><ele>314.0</ele><time>2026-04-18T09:46:38.001Z</time></trkpt><trkpt lat="44.40253516930733" lon="11.31001349641662"><ele>315.0</ele><time>2026-04-18T09:46:39.001Z</time></trkpt><trkpt lat="44.40266381721047" lon="11.309998121221538"><ele>315.0</ele><time>2026-04-18T09:46:40.001Z</time></trkpt><trkpt lat="44.40279256530488" lon="11.309963341778412"><ele>315.0</ele><time>2026-04-18T09:46:41.001Z</time></trkpt><trkpt lat="44.40292058777274" lon="11.309912992042227"><ele>315.0</ele><time>2026-04-18T09:46:42.001Z</time></trkpt><trkpt lat="44.40305275345656" lon="11.309853713544282"><ele>315.0</ele><time>2026-04-18T09:46:43.001Z</time></trkpt><trkpt lat="44.40317763759727" lon="11.30980826033316"><ele>313.5</ele><time>2026-04-18T09:46:44.001Z</time></trkpt><trkpt lat="44.40329658786617" lon="11.309765907738448"><ele>312.0</ele><time>2026-04-18T09:46:45.001Z</time></trkpt><trkpt lat="44.40340951698384" lon="11.30972906176871"><ele>310.5</ele><time>2026-04-18T09:46:46.001Z</time></trkpt><trkpt lat="44.40351507459265" lon="11.309684491152613"><ele>309.0</ele><time>2026-04-18T09:46:47.001Z</time></trkpt><trkpt lat="44.403625106357346" lon="11.309627586774159"><ele>309.0</ele><time>2026-04-18T09:46:48.001Z</time></trkpt><trkpt lat="44.40372254211604" lon="11.309540169620792"><ele>309.0</ele><time>2026-04-18T09:46:49.001Z</time></trkpt><trkpt lat="44.40381788124097" lon="11.309434066243643"><ele>309.0</ele><time>2026-04-18T09:46:50.001Z</time></trkpt><trkpt lat="44.40390013402441" lon="11.309309478147464"><ele>309.0</ele><time>2026-04-18T09:46:51.001Z</time></trkpt><trkpt lat="44.40397884264424" lon="11.30917752274335"><ele>312.5</ele><time>2026-04-18T09:46:52.001Z</time></trkpt><trkpt lat="44.40406246211826" lon="11.309057180639847"><ele>316.0</ele><time>2026-04-18T09:46:53.001Z</time></trkpt><trkpt lat="44.40411377946972" lon="11.308908041036771"><ele>319.5</ele><time>2026-04-18T09:46:54.001Z</time></trkpt><trkpt lat="44.40418529390595" lon="11.308777796599264"><ele>323.0</ele><time>2026-04-18T09:46:55.001Z</time></trkpt><trkpt lat="44.40424026907298" lon="11.30864621916113"><ele>323.0</ele><time>2026-04-18T09:46:56.001Z</time></trkpt><trkpt lat="44.40428920407766" lon="11.308504604992935"><ele>323.0</ele><time>2026-04-18T09:46:57.001Z</time></trkpt><trkpt lat="44.40434489435402" lon="11.308372437990865"><ele>323.0</ele><time>2026-04-18T09:46:58.001Z</time></trkpt><trkpt lat="44.404402831160354" lon="11.308236091813622"><ele>323.0</ele><time>2026-04-18T09:46:59.001Z</time></trkpt><trkpt lat="44.40446154970074" lon="11.30810154343401"><ele>323.0</ele><time>2026-04-18T09:47:00.001Z</time></trkpt><trkpt lat="44.40451447476677" lon="11.307978724000284"><ele>322.0</ele><time>2026-04-18T09:47:01.001Z</time></trkpt><trkpt lat="44.40456236172843" lon="11.307862443583556"><ele>321.0</ele><time>2026-04-18T09:47:02.001Z</time></trkpt><trkpt lat="44.40460591442158" lon="11.307754871918874"><ele>320.0</ele><time>2026-04-18T09:47:03.001Z</time></trkpt><trkpt lat="44.404648931277734" lon="11.307656625027409"><ele>319.0</ele><time>2026-04-18T09:47:04.001Z</time></trkpt><trkpt lat="44.40469863730105" lon="11.307558771586235"><ele>318.0</ele><time>2026-04-18T09:47:05.001Z</time></trkpt><trkpt lat="44.404754383941814" lon="11.307461729738957"><ele>317.0</ele><time>2026-04-18T09:47:06.001Z</time></trkpt><trkpt lat="44.40481414673255" lon="11.307368147635078"><ele>316.6666666666667</ele><time>2026-04-18T09:47:07.001Z</time></trkpt><trkpt lat="44.404886634293995" lon="11.307309469173333"><ele>316.33333333333337</ele><time>2026-04-18T09:47:08.001Z</time></trkpt><trkpt lat="44.40495083946509" lon="11.307252728727484"><ele>316.0</ele><time>2026-04-18T09:47:09.002Z</time></trkpt><trkpt lat="44.40502344744563" lon="11.307208808014751"><ele>315.6666666666667</ele><time>2026-04-18T09:47:10.002Z</time></trkpt><trkpt lat="44.40509061574785" lon="11.30719960799557"><ele>315.3333333333333</ele><time>2026-04-18T09:47:11.002Z</time></trkpt><trkpt lat="44.40522132540255" lon="11.307242917228855"><ele>315.0</ele><time>2026-04-18T09:47:13.002Z</time></trkpt><trkpt lat="44.405279909816905" lon="11.307309582721608"><ele>318.2</ele><time>2026-04-18T09:47:14.002Z</time></trkpt><trkpt lat="44.40532528786402" lon="11.307404549454562"><ele>321.4</ele><time>2026-04-18T09:47:15.002Z</time></trkpt><trkpt lat="44.40538965096134" lon="11.30749944459035"><ele>324.6</ele><time>2026-04-18T09:47:16.002Z</time></trkpt><trkpt lat="44.40545198379874" lon="11.307608516322293"><ele>327.8</ele><time>2026-04-18T09:47:17.002Z</time></trkpt><trkpt lat="44.40552898889397" lon="11.307673681655963"><ele>331.0</ele><time>2026-04-18T09:47:18.002Z</time></trkpt><trkpt lat="44.40561999285997" lon="11.30771659536968"><ele>331.75</ele><time>2026-04-18T09:47:19.002Z</time></trkpt><trkpt lat="44.40572716210147" lon="11.307776194971822"><ele>332.5</ele><time>2026-04-18T09:47:20.002Z</time></trkpt><trkpt lat="44.40584408701521" lon="11.307789730497104"><ele>333.25</ele><time>2026-04-18T09:47:21.002Z</time></trkpt><trkpt lat="44.40596774829115" lon="11.307849751190373"><ele>334.0</ele><time>2026-04-18T09:47:22.002Z</time></trkpt><trkpt lat="44.406071906114114" lon="11.30788336451618"><ele>334.0</ele><time>2026-04-18T09:47:23.002Z</time></trkpt><trkpt lat="44.40619534487784" lon="11.307915913595311"><ele>334.0</ele><time>2026-04-18T09:47:24.002Z</time></trkpt><trkpt lat="44.40633169083002" lon="11.30795095135702"><ele>334.0</ele><time>2026-04-18T09:47:25.002Z</time></trkpt><trkpt lat="44.40646732054845" lon="11.307989013394895"><ele>334.0</ele><time>2026-04-18T09:47:26.002Z</time></trkpt><trkpt lat="44.406605147045255" lon="11.308020149173686"><ele>332.25</ele><time>2026-04-18T09:47:27.002Z</time></trkpt><trkpt lat="44.40672488748638" lon="11.308063939535863"><ele>330.5</ele><time>2026-04-18T09:47:28.002Z</time></trkpt><trkpt lat="44.40686718877288" lon="11.30807749667407"><ele>328.75</ele><time>2026-04-18T09:47:29.002Z</time></trkpt><trkpt lat="44.40701217057177" lon="11.308107527238063"><ele>327.0</ele><time>2026-04-18T09:47:30.002Z</time></trkpt><trkpt lat="44.407155637662946" lon="11.308143973017271"><ele>330.0</ele><time>2026-04-18T09:47:31.002Z</time></trkpt><trkpt lat="44.407295770984035" lon="11.308166994989081"><ele>333.0</ele><time>2026-04-18T09:47:32.002Z</time></trkpt><trkpt lat="44.407419034180286" lon="11.308196683707038"><ele>336.0</ele><time>2026-04-18T09:47:33.002Z</time></trkpt><trkpt lat="44.40753309539389" lon="11.308217765199295"><ele>339.0</ele><time>2026-04-18T09:47:34.002Z</time></trkpt><trkpt lat="44.40763738260418" lon="11.308238635911447"><ele>339.0</ele><time>2026-04-18T09:47:35.002Z</time></trkpt><trkpt lat="44.407736809019305" lon="11.308263906788797"><ele>339.0</ele><time>2026-04-18T09:47:36.002Z</time></trkpt><trkpt lat="44.40783691544463" lon="11.308299652906568"><ele>339.0</ele><time>2026-04-18T09:47:37.002Z</time></trkpt><trkpt lat="44.40793056167975" lon="11.308353315371818"><ele>339.0</ele><time>2026-04-18T09:47:38.002Z</time></trkpt><trkpt lat="44.40802864656435" lon="11.308414769031597"><ele>339.0</ele><time>2026-04-18T09:47:39.002Z</time></trkpt><trkpt lat="44.40813473961353" lon="11.308487942241143"><ele>341.75</ele><time>2026-04-18T09:47:40.002Z</time></trkpt><trkpt lat="44.40824314590765" lon="11.3085721232852"><ele>344.5</ele><time>2026-04-18T09:47:41.002Z</time></trkpt><trkpt lat="44.40834638436005" lon="11.308660095639622"><ele>347.25</ele><time>2026-04-18T09:47:42.002Z</time></trkpt><trkpt lat="44.4084502635554" lon="11.308760606769809"><ele>350.0</ele><time>2026-04-18T09:47:43.002Z</time></trkpt><trkpt lat="44.408540981120915" lon="11.308864599086485"><ele>351.5</ele><time>2026-04-18T09:47:44.002Z</time></trkpt><trkpt lat="44.40862686046324" lon="11.308982614241994"><ele>353.0</ele><time>2026-04-18T09:47:45.002Z</time></trkpt><trkpt lat="44.40870781255421" lon="11.309096779646527"><ele>354.5</ele><time>2026-04-18T09:47:46.002Z</time></trkpt><trkpt lat="44.40879539324603" lon="11.309202657290456"><ele>356.0</ele><time>2026-04-18T09:47:47.003Z</time></trkpt><trkpt lat="44.4088914316628" lon="11.309304699595621"><ele>356.0</ele><time>2026-04-18T09:47:47.999Z</time></trkpt><trkpt lat="44.40897214203896" lon="11.309407200828554"><ele>356.0</ele><time>2026-04-18T09:47:48.999Z</time></trkpt><trkpt lat="44.409045003966185" lon="11.30949891005232"><ele>356.0</ele><time>2026-04-18T09:47:49.999Z</time></trkpt><trkpt lat="44.40913215309931" lon="11.309566704902931"><ele>356.0</ele><time>2026-04-18T09:47:50.999Z</time></trkpt><trkpt lat="44.40922614268449" lon="11.3096189521997"><ele>356.0</ele><time>2026-04-18T09:47:51.999Z</time></trkpt><trkpt lat="44.409313087937036" lon="11.309672951057975"><ele>356.0</ele><time>2026-04-18T09:47:52.999Z</time></trkpt><trkpt lat="44.40940451618477" lon="11.309719954625525"><ele>356.0</ele><time>2026-04-18T09:47:53.999Z</time></trkpt><trkpt lat="44.40952640832722" lon="11.30972709999465"><ele>356.0</ele><time>2026-04-18T09:47:54.999Z</time></trkpt><trkpt lat="44.409670173311405" lon="11.309751658351336"><ele>356.0</ele><time>2026-04-18T09:47:55.999Z</time></trkpt><trkpt lat="44.409809342094015" lon="11.309709980918624"><ele>358.75</ele><time>2026-04-18T09:47:56.999Z</time></trkpt><trkpt lat="44.40995140607429" lon="11.30966204474324"><ele>361.5</ele><time>2026-04-18T09:47:57.999Z</time></trkpt><trkpt lat="44.41007013931733" lon="11.309583542056238"><ele>364.25</ele><time>2026-04-18T09:47:58.999Z</time></trkpt><trkpt lat="44.410177014479984" lon="11.30954907608479"><ele>367.0</ele><time>2026-04-18T09:47:59.999Z</time></trkpt><trkpt lat="44.41029277155538" lon="11.309501730179289"><ele>367.0</ele><time>2026-04-18T09:48:00.999Z</time></trkpt><trkpt lat="44.41041999107582" lon="11.309506307955896"><ele>367.0</ele><time>2026-04-18T09:48:01.999Z</time></trkpt><trkpt lat="44.41054380659378" lon="11.309532942442535"><ele>367.0</ele><time>2026-04-18T09:48:02.999Z</time></trkpt><trkpt lat="44.4106626653954" lon="11.309567177191642"><ele>367.0</ele><time>2026-04-18T09:48:04Z</time></trkpt><trkpt lat="44.41079488972179" lon="11.3096120091359"><ele>369.5</ele><time>2026-04-18T09:48:05Z</time></trkpt><trkpt lat="44.41092428133643" lon="11.309666309797976"><ele>372.0</ele><time>2026-04-18T09:48:06Z</time></trkpt><trkpt lat="44.41105492334699" lon="11.30972302536729"><ele>374.5</ele><time>2026-04-18T09:48:07Z</time></trkpt><trkpt lat="44.411180757744106" lon="11.309785053275418"><ele>377.0</ele><time>2026-04-18T09:48:08Z</time></trkpt><trkpt lat="44.411302041057226" lon="11.309838958273305"><ele>373.6</ele><time>2026-04-18T09:48:09Z</time></trkpt><trkpt lat="44.41140410384604" lon="11.309883262660192"><ele>370.20000000000005</ele><time>2026-04-18T09:48:10Z</time></trkpt><trkpt lat="44.4114859310549" lon="11.309941422294873"><ele>366.8</ele><time>2026-04-18T09:48:11Z</time></trkpt><trkpt lat="44.411557633516146" lon="11.310014031309137"><ele>363.4</ele><time>2026-04-18T09:48:12Z</time></trkpt><trkpt lat="44.41165245702146" lon="11.31007287784783"><ele>360.0</ele><time>2026-04-18T09:48:13Z</time></trkpt><trkpt lat="44.41175174392845" lon="11.310103098560043"><ele>360.0</ele><time>2026-04-18T09:48:14Z</time></trkpt><trkpt lat="44.411844435070165" lon="11.310123694175074"><ele>360.0</ele><time>2026-04-18T09:48:15Z</time></trkpt><trkpt lat="44.41195312130224" lon="11.310115360976877"><ele>360.0</ele><time>2026-04-18T09:48:16Z</time></trkpt><trkpt lat="44.41206123154954" lon="11.310069005018484"><ele>360.0</ele><time>2026-04-18T09:48:17Z</time></trkpt><trkpt lat="44.41217025479759" lon="11.310011870000215"><ele>360.0</ele><time>2026-04-18T09:48:18Z</time></trkpt><trkpt lat="44.41228492704259" lon="11.309953449950333"><ele>360.5</ele><time>2026-04-18T09:48:19Z</time></trkpt><trkpt lat="44.41239632552661" lon="11.309892255343144"><ele>361.0</ele><time>2026-04-18T09:48:20Z</time></trkpt><trkpt lat="44.41250745519152" lon="11.30982509288138"><ele>361.5</ele><time>2026-04-18T09:48:21Z</time></trkpt><trkpt lat="44.412624475305975" lon="11.309762008534472"><ele>362.0</ele><time>2026-04-18T09:48:22Z</time></trkpt><trkpt lat="44.41274712258448" lon="11.309703626404106"><ele>361.0</ele><time>2026-04-18T09:48:23Z</time></trkpt><trkpt lat="44.412872042756746" lon="11.309646046146227"><ele>360.0</ele><time>2026-04-18T09:48:24Z</time></trkpt><trkpt lat="44.41300904742534" lon="11.309599912929485"><ele>359.0</ele><time>2026-04-18T09:48:25Z</time></trkpt><trkpt lat="44.413148923426796" lon="11.309547388966694"><ele>358.0</ele><time>2026-04-18T09:48:26Z</time></trkpt><trkpt lat="44.41328327546518" lon="11.30950328454285"><ele>358.0</ele><time>2026-04-18T09:48:27Z</time></trkpt><trkpt lat="44.41340559587987" lon="11.309461093488382"><ele>358.0</ele><time>2026-04-18T09:48:28Z</time></trkpt><trkpt lat="44.41352544792246" lon="11.309419968876536"><ele>358.0</ele><time>2026-04-18T09:48:29Z</time></trkpt><trkpt lat="44.41364341667069" lon="11.309389617775532"><ele>358.0</ele><time>2026-04-18T09:48:30Z</time></trkpt><trkpt lat="44.4137499282257" lon="11.309363008417916"><ele>356.75</ele><time>2026-04-18T09:48:31Z</time></trkpt><trkpt lat="44.413862156403795" lon="11.309314272786487"><ele>355.5</ele><time>2026-04-18T09:48:32.001Z</time></trkpt><trkpt lat="44.413960184543065" lon="11.309270621644073"><ele>354.25</ele><time>2026-04-18T09:48:33.001Z</time></trkpt><trkpt lat="44.41406538115739" lon="11.309247811182987"><ele>353.0</ele><time>2026-04-18T09:48:34.001Z</time></trkpt><trkpt lat="44.4141897764656" lon="11.309249713152264"><ele>353.0</ele><time>2026-04-18T09:48:35.001Z</time></trkpt><trkpt lat="44.4143202516014" lon="11.309269225906501"><ele>353.0</ele><time>2026-04-18T09:48:36.001Z</time></trkpt><trkpt lat="44.41443320531273" lon="11.309292395205262"><ele>353.0</ele><time>2026-04-18T09:48:37.001Z</time></trkpt><trkpt lat="44.41455345196421" lon="11.309334448693312"><ele>353.0</ele><time>2026-04-18T09:48:38.001Z</time></trkpt><trkpt lat="44.41466577753099" lon="11.309391389429383"><ele>352.75</ele><time>2026-04-18T09:48:39.001Z</time></trkpt><trkpt lat="44.41478091656019" lon="11.309451064439848"><ele>352.5</ele><time>2026-04-18T09:48:40.001Z</time></trkpt><trkpt lat="44.41489900439514" lon="11.309489259208268"><ele>352.25</ele><time>2026-04-18T09:48:41.001Z</time></trkpt><trkpt lat="44.415009450109174" lon="11.309477156038865"><ele>352.0</ele><time>2026-04-18T09:48:42.001Z</time></trkpt><trkpt lat="44.415129834574174" lon="11.309432550360135"><ele>352.0</ele><time>2026-04-18T09:48:43.001Z</time></trkpt><trkpt lat="44.41525260627023" lon="11.309384946003304"><ele>352.0</ele><time>2026-04-18T09:48:44.001Z</time></trkpt><trkpt lat="44.415376201886325" lon="11.30932445640798"><ele>352.0</ele><time>2026-04-18T09:48:45.001Z</time></trkpt><trkpt lat="44.415508562209986" lon="11.309267964308885"><ele>352.0</ele><time>2026-04-18T09:48:46.001Z</time></trkpt><trkpt lat="44.41563905110688" lon="11.309216067542813"><ele>348.75</ele><time>2026-04-18T09:48:47.001Z</time></trkpt><trkpt lat="44.41577225669975" lon="11.309165193029724"><ele>345.5</ele><time>2026-04-18T09:48:48.001Z</time></trkpt><trkpt lat="44.4159107330549" lon="11.309121366847268"><ele>342.25</ele><time>2026-04-18T09:48:49.001Z</time></trkpt><trkpt lat="44.416033630511" lon="11.309058268226394"><ele>339.0</ele><time>2026-04-18T09:48:50.001Z</time></trkpt><trkpt lat="44.416164171738586" lon="11.309027800833547"><ele>339.0</ele><time>2026-04-18T09:48:51.001Z</time></trkpt><trkpt lat="44.41627919672669" lon="11.308990454027283"><ele>339.0</ele><time>2026-04-18T09:48:52.001Z</time></trkpt><trkpt lat="44.41640254563623" lon="11.308980294265075"><ele>339.0</ele><time>2026-04-18T09:48:53.001Z</time></trkpt><trkpt lat="44.41651939338438" lon="11.30896787881983"><ele>339.0</ele><time>2026-04-18T09:48:54.001Z</time></trkpt><trkpt lat="44.416632497355266" lon="11.308964945432763"><ele>337.4</ele><time>2026-04-18T09:48:55.001Z</time></trkpt><trkpt lat="44.416746480064866" lon="11.308958023914892"><ele>335.79999999999995</ele><time>2026-04-18T09:48:56.001Z</time></trkpt><trkpt lat="44.41685731570458" lon="11.308953695196811"><ele>334.20000000000005</ele><time>2026-04-18T09:48:57.001Z</time></trkpt><trkpt lat="44.41696417524262" lon="11.308952031078377"><ele>332.6</ele><time>2026-04-18T09:48:58.001Z</time></trkpt><trkpt lat="44.417077552739435" lon="11.3089553289116"><ele>331.0</ele><time>2026-04-18T09:48:59.001Z</time></trkpt><trkpt lat="44.417193611899364" lon="11.308963321638155"><ele>330.75</ele><time>2026-04-18T09:49:00.001Z</time></trkpt><trkpt lat="44.417313577830235" lon="11.30898331064225"><ele>330.5</ele><time>2026-04-18T09:49:01.001Z</time></trkpt><trkpt lat="44.41743587687327" lon="11.309021179328125"><ele>330.25</ele><time>2026-04-18T09:49:02.001Z</time></trkpt><trkpt lat="44.41755568805953" lon="11.309061755306656"><ele>330.0</ele><time>2026-04-18T09:49:03.001Z</time></trkpt><trkpt lat="44.417667040474264" lon="11.309133564810002"><ele>330.0</ele><time>2026-04-18T09:49:04.001Z</time></trkpt><trkpt lat="44.41776867902612" lon="11.309240594910316"><ele>330.0</ele><time>2026-04-18T09:49:05.001Z</time></trkpt><trkpt lat="44.41785636366725" lon="11.309376768057078"><ele>330.0</ele><time>2026-04-18T09:49:06.001Z</time></trkpt><trkpt lat="44.41792616017124" lon="11.309535698683966"><ele>330.0</ele><time>2026-04-18T09:49:07.002Z</time></trkpt><trkpt lat="44.41798105594985" lon="11.309707626605707"><ele>324.0</ele><time>2026-04-18T09:49:08.002Z</time></trkpt><trkpt lat="44.41802382053473" lon="11.30989099498552"><ele>318.0</ele><time>2026-04-18T09:49:09.002Z</time></trkpt><trkpt lat="44.41803157385279" lon="11.310069863535842"><ele>312.0</ele><time>2026-04-18T09:49:10.002Z</time></trkpt><trkpt lat="44.41805984706432" lon="11.310228196916048"><ele>306.0</ele><time>2026-04-18T09:49:11.002Z</time></trkpt><trkpt lat="44.418066438667076" lon="11.310383848809588"><ele>306.0</ele><time>2026-04-18T09:49:12.002Z</time></trkpt><trkpt lat="44.41809762101863" lon="11.31053215817901"><ele>306.0</ele><time>2026-04-18T09:49:13.002Z</time></trkpt><trkpt lat="44.418126475693946" lon="11.310687758545914"><ele>306.0</ele><time>2026-04-18T09:49:14.002Z</time></trkpt><trkpt lat="44.418175866998446" lon="11.310837444318258"><ele>306.0</ele><time>2026-04-18T09:49:15.002Z</time></trkpt><trkpt lat="44.4182286508151" lon="11.310990115005833"><ele>306.0</ele><time>2026-04-18T09:49:16.002Z</time></trkpt><trkpt lat="44.41829321396017" lon="11.311140876151516"><ele>306.0</ele><time>2026-04-18T09:49:17.002Z</time></trkpt><trkpt lat="44.41834258756748" lon="11.31130917096257"><ele>306.0</ele><time>2026-04-18T09:49:18.002Z</time></trkpt><trkpt lat="44.41839333268614" lon="11.31146305791156"><ele>306.0</ele><time>2026-04-18T09:49:19.002Z</time></trkpt><trkpt lat="44.418448902087846" lon="11.311606107801179"><ele>306.75</ele><time>2026-04-18T09:49:20.002Z</time></trkpt><trkpt lat="44.41852025200527" lon="11.311726499830959"><ele>307.5</ele><time>2026-04-18T09:49:21.002Z</time></trkpt><trkpt lat="44.41860259429912" lon="11.311828904652511"><ele>308.25</ele><time>2026-04-18T09:49:22.002Z</time></trkpt><trkpt lat="44.41869942494253" lon="11.311910165396917"><ele>309.0</ele><time>2026-04-18T09:49:23.002Z</time></trkpt><trkpt lat="44.41880875064851" lon="11.311975254977778"><ele>305.0</ele><time>2026-04-18T09:49:24.002Z</time></trkpt><trkpt lat="44.41891585093594" lon="11.31204419308997"><ele>301.0</ele><time>2026-04-18T09:49:25.002Z</time></trkpt><trkpt lat="44.419034134878466" lon="11.312094204095457"><ele>297.0</ele><time>2026-04-18T09:49:26.002Z</time></trkpt><trkpt lat="44.4191522360761" lon="11.312153046934757"><ele>293.0</ele><time>2026-04-18T09:49:27.002Z</time></trkpt><trkpt lat="44.41926472235693" lon="11.31220973211346"><ele>295.25</ele><time>2026-04-18T09:49:28.002Z</time></trkpt><trkpt lat="44.41937533948053" lon="11.31226753332801"><ele>297.5</ele><time>2026-04-18T09:49:29.002Z</time></trkpt><trkpt lat="44.41949382670438" lon="11.312324712134373"><ele>299.75</ele><time>2026-04-18T09:49:30.002Z</time></trkpt><trkpt lat="44.419617263575255" lon="11.31238778842247"><ele>302.0</ele><time>2026-04-18T09:49:31.002Z</time></trkpt><trkpt lat="44.41973555949534" lon="11.312449513166687"><ele>302.0</ele><time>2026-04-18T09:49:32.002Z</time></trkpt><trkpt lat="44.41985423579198" lon="11.312509328220973"><ele>302.0</ele><time>2026-04-18T09:49:33.002Z</time></trkpt><trkpt lat="44.419974753340405" lon="11.312569278491331"><ele>302.0</ele><time>2026-04-18T09:49:34.002Z</time></trkpt><trkpt lat="44.42008547683716" lon="11.312642608530638"><ele>302.0</ele><time>2026-04-18T09:49:35.002Z</time></trkpt><trkpt lat="44.420207019918315" lon="11.312733538242162"><ele>302.0</ele><time>2026-04-18T09:49:36.002Z</time></trkpt><trkpt lat="44.42033376114941" lon="11.312822852641917"><ele>302.0</ele><time>2026-04-18T09:49:37.002Z</time></trkpt><trkpt lat="44.42046320590718" lon="11.312912347420959"><ele>302.0</ele><time>2026-04-18T09:49:38.002Z</time></trkpt><trkpt lat="44.42058488486653" lon="11.31300573921096"><ele>302.0</ele><time>2026-04-18T09:49:39.002Z</time></trkpt><trkpt lat="44.42070295332911" lon="11.313105952231364"><ele>302.25</ele><time>2026-04-18T09:49:40.002Z</time></trkpt><trkpt lat="44.420819446635576" lon="11.31320172285657"><ele>302.5</ele><time>2026-04-18T09:49:41.002Z</time></trkpt><trkpt lat="44.42093415795932" lon="11.313307816796831"><ele>302.75</ele><time>2026-04-18T09:49:42.002Z</time></trkpt><trkpt lat="44.42104554261364" lon="11.313426090079538"><ele>303.0</ele><time>2026-04-18T09:49:43.003Z</time></trkpt><trkpt lat="44.421145416341176" lon="11.313562657879363"><ele>303.0</ele><time>2026-04-18T09:49:44.003Z</time></trkpt><trkpt lat="44.42123387572425" lon="11.313719488576632"><ele>303.0</ele><time>2026-04-18T09:49:45.003Z</time></trkpt><trkpt lat="44.42130327228181" lon="11.313885188361361"><ele>303.0</ele><time>2026-04-18T09:49:46.003Z</time></trkpt><trkpt lat="44.421365643421005" lon="11.314050695266662"><ele>303.0</ele><time>2026-04-18T09:49:47.003Z</time></trkpt><trkpt lat="44.42140740612821" lon="11.314207885930795"><ele>302.8</ele><time>2026-04-18T09:49:48.003Z</time></trkpt><trkpt lat="44.42143502010348" lon="11.314364823912186"><ele>302.6</ele><time>2026-04-18T09:49:49.003Z</time></trkpt><trkpt lat="44.42146676835106" lon="11.314520672525248"><ele>302.4</ele><time>2026-04-18T09:49:50.003Z</time></trkpt><trkpt lat="44.421486577993655" lon="11.31466782639649"><ele>302.2</ele><time>2026-04-18T09:49:51.003Z</time></trkpt><trkpt lat="44.42150074049311" lon="11.314816832701222"><ele>302.0</ele><time>2026-04-18T09:49:52.003Z</time></trkpt><trkpt lat="44.42151258398776" lon="11.314968141035035"><ele>302.0</ele><time>2026-04-18T09:49:53.003Z</time></trkpt><trkpt lat="44.42152640732206" lon="11.315113974238967"><ele>302.0</ele><time>2026-04-18T09:49:54Z</time></trkpt><trkpt lat="44.421542591225005" lon="11.315267199015084"><ele>302.0</ele><time>2026-04-18T09:49:55Z</time></trkpt><trkpt lat="44.42157171654352" lon="11.315413225868008"><ele>302.0</ele><time>2026-04-18T09:49:56Z</time></trkpt><trkpt lat="44.42162445393859" lon="11.315546417105306"><ele>302.0</ele><time>2026-04-18T09:49:57Z</time></trkpt><trkpt lat="44.421678279432186" lon="11.315666131072483"><ele>301.8</ele><time>2026-04-18T09:49:58Z</time></trkpt><trkpt lat="44.42175447453185" lon="11.315751220906327"><ele>301.6</ele><time>2026-04-18T09:49:59Z</time></trkpt><trkpt lat="44.42185557654537" lon="11.315770825822483"><ele>301.40000000000003</ele><time>2026-04-18T09:50:00Z</time></trkpt><trkpt lat="44.42195777867255" lon="11.315756719112944"><ele>301.2</ele><time>2026-04-18T09:50:01Z</time></trkpt><trkpt lat="44.42207029192213" lon="11.315704640819941"><ele>301.0</ele><time>2026-04-18T09:50:02Z</time></trkpt><trkpt lat="44.42217426075608" lon="11.315629751801145"><ele>298.0</ele><time>2026-04-18T09:50:03Z</time></trkpt><trkpt lat="44.42227708045696" lon="11.31554923025832"><ele>295.0</ele><time>2026-04-18T09:50:04Z</time></trkpt><trkpt lat="44.422386718212024" lon="11.315491293585012"><ele>292.0</ele><time>2026-04-18T09:50:05Z</time></trkpt><trkpt lat="44.42250439239932" lon="11.315525570781666"><ele>289.0</ele><time>2026-04-18T09:50:06Z</time></trkpt><trkpt lat="44.42261958359898" lon="11.315560988132189"><ele>291.0</ele><time>2026-04-18T09:50:07Z</time></trkpt><trkpt lat="44.42272833669361" lon="11.31563225540253"><ele>293.0</ele><time>2026-04-18T09:50:08Z</time></trkpt><trkpt lat="44.422847083912025" lon="11.315702394020054"><ele>295.0</ele><time>2026-04-18T09:50:09Z</time></trkpt><trkpt lat="44.42296105405082" lon="11.315796991000887"><ele>297.0</ele><time>2026-04-18T09:50:10Z</time></trkpt><trkpt lat="44.42307149081262" lon="11.315889362627633"><ele>297.0</ele><time>2026-04-18T09:50:11Z</time></trkpt><trkpt lat="44.42318336804468" lon="11.315977887896645"><ele>297.0</ele><time>2026-04-18T09:50:12Z</time></trkpt><trkpt lat="44.42329579820868" lon="11.31606588792933"><ele>297.0</ele><time>2026-04-18T09:50:13Z</time></trkpt><trkpt lat="44.42339666125412" lon="11.31616793499572"><ele>297.0</ele><time>2026-04-18T09:50:14Z</time></trkpt><trkpt lat="44.42350082396808" lon="11.31625345584809"><ele>297.0</ele><time>2026-04-18T09:50:15Z</time></trkpt><trkpt lat="44.42362760343294" lon="11.316347923413907"><ele>297.0</ele><time>2026-04-18T09:50:16Z</time></trkpt><trkpt lat="44.42374712669153" lon="11.316436080867904"><ele>297.0</ele><time>2026-04-18T09:50:17Z</time></trkpt><trkpt lat="44.42386850021771" lon="11.316534628928487"><ele>297.0</ele><time>2026-04-18T09:50:18Z</time></trkpt><trkpt lat="44.42397909793736" lon="11.316609182637794"><ele>297.0</ele><time>2026-04-18T09:50:19Z</time></trkpt><trkpt lat="44.42408849918746" lon="11.316669550248623"><ele>297.0</ele><time>2026-04-18T09:50:20Z</time></trkpt><trkpt lat="44.42421053343634" lon="11.316697468279969"><ele>297.0</ele><time>2026-04-18T09:50:21Z</time></trkpt><trkpt lat="44.424322421806146" lon="11.316676155145839"><ele>297.0</ele><time>2026-04-18T09:50:22Z</time></trkpt><trkpt lat="44.42444126165169" lon="11.316628952183503"><ele>297.0</ele><time>2026-04-18T09:50:23Z</time></trkpt><trkpt lat="44.424562603664036" lon="11.316563758597548"><ele>297.0</ele><time>2026-04-18T09:50:24Z</time></trkpt><trkpt lat="44.42467693091843" lon="11.316474673628209"><ele>297.0</ele><time>2026-04-18T09:50:25Z</time></trkpt><trkpt lat="44.42478509974051" lon="11.316372603571043"><ele>297.0</ele><time>2026-04-18T09:50:26Z</time></trkpt><trkpt lat="44.424891647251435" lon="11.316266275052971"><ele>295.25</ele><time>2026-04-18T09:50:27Z</time></trkpt><trkpt lat="44.4250066245936" lon="11.316165572635933"><ele>293.5</ele><time>2026-04-18T09:50:28Z</time></trkpt><trkpt lat="44.425109973151095" lon="11.316028101897773"><ele>291.75</ele><time>2026-04-18T09:50:29Z</time></trkpt><trkpt lat="44.425208186603896" lon="11.315893415049754"><ele>290.0</ele><time>2026-04-18T09:50:30Z</time></trkpt><trkpt lat="44.42532017300703" lon="11.315772057664232"><ele>290.0</ele><time>2026-04-18T09:50:31.001Z</time></trkpt><trkpt lat="44.42544217347235" lon="11.315688099455516"><ele>290.0</ele><time>2026-04-18T09:50:32.001Z</time></trkpt><trkpt lat="44.4255546417456" lon="11.315638681409075"><ele>290.0</ele><time>2026-04-18T09:50:33.001Z</time></trkpt><trkpt lat="44.42567657375717" lon="11.315654537911657"><ele>290.0</ele><time>2026-04-18T09:50:34.001Z</time></trkpt><trkpt lat="44.42579137581647" lon="11.315650050059471"><ele>289.5</ele><time>2026-04-18T09:50:35.001Z</time></trkpt><trkpt lat="44.42591419257183" lon="11.315678192766693"><ele>289.0</ele><time>2026-04-18T09:50:36.001Z</time></trkpt><trkpt lat="44.42603644539861" lon="11.315704460824549"><ele>288.5</ele><time>2026-04-18T09:50:37.001Z</time></trkpt><trkpt lat="44.42615194634987" lon="11.315728376091949"><ele>288.0</ele><time>2026-04-18T09:50:38.001Z</time></trkpt><trkpt lat="44.42626444294315" lon="11.315756827754129"><ele>286.75</ele><time>2026-04-18T09:50:39.001Z</time></trkpt><trkpt lat="44.42637790252882" lon="11.315786882861751"><ele>285.5</ele><time>2026-04-18T09:50:40.001Z</time></trkpt><trkpt lat="44.426495665622326" lon="11.315817777871192"><ele>284.25</ele><time>2026-04-18T09:50:41.001Z</time></trkpt><trkpt lat="44.426615518104214" lon="11.315847484311051"><ele>283.0</ele><time>2026-04-18T09:50:42.001Z</time></trkpt><trkpt lat="44.42673771864425" lon="11.315881039820795"><ele>283.0</ele><time>2026-04-18T09:50:43.001Z</time></trkpt><trkpt lat="44.42686463060623" lon="11.31591688769025"><ele>283.0</ele><time>2026-04-18T09:50:44.001Z</time></trkpt><trkpt lat="44.42698453305833" lon="11.315949459561306"><ele>283.0</ele><time>2026-04-18T09:50:45.001Z</time></trkpt><trkpt lat="44.42710119665854" lon="11.315956730048763"><ele>283.0</ele><time>2026-04-18T09:50:46.001Z</time></trkpt><trkpt lat="44.42721739687179" lon="11.315941533751364"><ele>284.25</ele><time>2026-04-18T09:50:47.001Z</time></trkpt><trkpt lat="44.42734022274172" lon="11.315927145607043"><ele>285.5</ele><time>2026-04-18T09:50:48.001Z</time></trkpt><trkpt lat="44.42746712044573" lon="11.315894632786195"><ele>286.75</ele><time>2026-04-18T09:50:49.001Z</time></trkpt><trkpt lat="44.42758118365755" lon="11.315862546819044"><ele>288.0</ele><time>2026-04-18T09:50:50.001Z</time></trkpt><trkpt lat="44.427689870104366" lon="11.315833543400133"><ele>288.0</ele><time>2026-04-18T09:50:51.001Z</time></trkpt><trkpt lat="44.42780121457461" lon="11.315812271795535"><ele>288.0</ele><time>2026-04-18T09:50:52.001Z</time></trkpt><trkpt lat="44.4278968035495" lon="11.31578724994509"><ele>288.0</ele><time>2026-04-18T09:50:53.001Z</time></trkpt><trkpt lat="44.42798033298912" lon="11.31574431342461"><ele>288.0</ele><time>2026-04-18T09:50:54.001Z</time></trkpt><trkpt lat="44.42805538841207" lon="11.315669160207333"><ele>288.0</ele><time>2026-04-18T09:50:55.001Z</time></trkpt><trkpt lat="44.428116344378935" lon="11.315557669957983"><ele>290.3333333333333</ele><time>2026-04-18T09:50:56.001Z</time></trkpt><trkpt lat="44.42816167160336" lon="11.315435977408482"><ele>292.6666666666667</ele><time>2026-04-18T09:50:57.001Z</time></trkpt><trkpt lat="44.42820027110596" lon="11.31533172091584"><ele>295.0</ele><time>2026-04-18T09:50:58.001Z</time></trkpt><trkpt lat="44.42826950717499" lon="11.315276039275357"><ele>297.33333333333337</ele><time>2026-04-18T09:50:59.001Z</time></trkpt><trkpt lat="44.42835307422804" lon="11.3152689210274"><ele>299.6666666666667</ele><time>2026-04-18T09:51:00.001Z</time></trkpt><trkpt lat="44.42844102749649" lon="11.315290890973314"><ele>302.0</ele><time>2026-04-18T09:51:01.001Z</time></trkpt><trkpt lat="44.428535681935294" lon="11.315298838296176"><ele>302.0</ele><time>2026-04-18T09:51:02.001Z</time></trkpt><trkpt lat="44.42864357786401" lon="11.31529922913653"><ele>302.0</ele><time>2026-04-18T09:51:03.001Z</time></trkpt><trkpt lat="44.42874659969448" lon="11.315288168703088"><ele>302.0</ele><time>2026-04-18T09:51:04.002Z</time></trkpt><trkpt lat="44.42882879538973" lon="11.31525238639514"><ele>302.0</ele><time>2026-04-18T09:51:05.002Z</time></trkpt><trkpt lat="44.42889501720446" lon="11.315164883856763"><ele>302.0</ele><time>2026-04-18T09:51:06.002Z</time></trkpt><trkpt lat="44.42894592952328" lon="11.31504506844142"><ele>305.0</ele><time>2026-04-18T09:51:07.002Z</time></trkpt><trkpt lat="44.42897489683171" lon="11.314904295932672"><ele>308.0</ele><time>2026-04-18T09:51:08.002Z</time></trkpt><trkpt lat="44.42900185593107" lon="11.314755516309376"><ele>311.0</ele><time>2026-04-18T09:51:09.002Z</time></trkpt><trkpt lat="44.4290255545494" lon="11.314596449522277"><ele>314.0</ele><time>2026-04-18T09:51:10.002Z</time></trkpt><trkpt lat="44.42905774179238" lon="11.314443965178146"><ele>317.0</ele><time>2026-04-18T09:51:11.002Z</time></trkpt><trkpt lat="44.42909273426217" lon="11.314303485901522"><ele>317.0</ele><time>2026-04-18T09:51:12.002Z</time></trkpt><trkpt lat="44.42913395421816" lon="11.314157103144737"><ele>317.0</ele><time>2026-04-18T09:51:13.002Z</time></trkpt><trkpt lat="44.42917029871527" lon="11.314002882170916"><ele>317.0</ele><time>2026-04-18T09:51:14.002Z</time></trkpt><trkpt lat="44.4292110768093" lon="11.313843813657456"><ele>317.0</ele><time>2026-04-18T09:51:15.002Z</time></trkpt><trkpt lat="44.429251188445434" lon="11.313686800891555"><ele>316.0</ele><time>2026-04-18T09:51:16.002Z</time></trkpt><trkpt lat="44.429304402723375" lon="11.313527175596056"><ele>315.0</ele><time>2026-04-18T09:51:17.002Z</time></trkpt><trkpt lat="44.42936575412377" lon="11.313374592274227"><ele>314.0</ele><time>2026-04-18T09:51:18.002Z</time></trkpt><trkpt lat="44.429425881456226" lon="11.313221492318284"><ele>313.0</ele><time>2026-04-18T09:51:19.002Z</time></trkpt><trkpt lat="44.42949858926566" lon="11.313077389141233"><ele>310.75</ele><time>2026-04-18T09:51:20.002Z</time></trkpt><trkpt lat="44.429585587730756" lon="11.312943510492344"><ele>308.5</ele><time>2026-04-18T09:51:21.002Z</time></trkpt><trkpt lat="44.42967519154559" lon="11.312792592616908"><ele>306.25</ele><time>2026-04-18T09:51:22.002Z</time></trkpt><trkpt lat="44.42974950800616" lon="11.312618471349303"><ele>304.0</ele><time>2026-04-18T09:51:23.002Z</time></trkpt><trkpt lat="44.429809116283316" lon="11.312443277189404"><ele>307.75</ele><time>2026-04-18T09:51:24.002Z</time></trkpt><trkpt lat="44.42986238787753" lon="11.312262557742288"><ele>311.5</ele><time>2026-04-18T09:51:25.002Z</time></trkpt><trkpt lat="44.42992073110251" lon="11.31210256860385"><ele>315.25</ele><time>2026-04-18T09:51:26.002Z</time></trkpt><trkpt lat="44.4299684132189" lon="11.311941866402423"><ele>319.0</ele><time>2026-04-18T09:51:27.002Z</time></trkpt><trkpt lat="44.430018176061196" lon="11.311793676987001"><ele>319.0</ele><time>2026-04-18T09:51:28.002Z</time></trkpt><trkpt lat="44.43006777318397" lon="11.311674197731096"><ele>319.0</ele><time>2026-04-18T09:51:29.002Z</time></trkpt><trkpt lat="44.430125498949494" lon="11.31157716476277"><ele>319.0</ele><time>2026-04-18T09:51:30.002Z</time></trkpt><trkpt lat="44.4301967345447" lon="11.311496708205782"><ele>319.0</ele><time>2026-04-18T09:51:31.002Z</time></trkpt><trkpt lat="44.43029125198625" lon="11.311455685736904"><ele>319.0</ele><time>2026-04-18T09:51:32.002Z</time></trkpt><trkpt lat="44.43040114356205" lon="11.311451528657102"><ele>319.5</ele><time>2026-04-18T09:51:33.002Z</time></trkpt><trkpt lat="44.43051785424038" lon="11.311426604441204"><ele>320.0</ele><time>2026-04-18T09:51:34.002Z</time></trkpt><trkpt lat="44.430635715824955" lon="11.311442607177945"><ele>320.5</ele><time>2026-04-18T09:51:35.002Z</time></trkpt><trkpt lat="44.43074877010273" lon="11.311467097649821"><ele>321.0</ele><time>2026-04-18T09:51:36.002Z</time></trkpt><trkpt lat="44.430864041617795" lon="11.311494530211478"><ele>321.0</ele><time>2026-04-18T09:51:37.002Z</time></trkpt><trkpt lat="44.43098610068213" lon="11.311536854596753"><ele>321.0</ele><time>2026-04-18T09:51:38.003Z</time></trkpt><trkpt lat="44.43109696393153" lon="11.311592050606196"><ele>321.0</ele><time>2026-04-18T09:51:39.003Z</time></trkpt><trkpt lat="44.431187581045016" lon="11.311650013973761"><ele>321.0</ele><time>2026-04-18T09:51:40.003Z</time></trkpt><trkpt lat="44.4312645065997" lon="11.311707027453654"><ele>321.0</ele><time>2026-04-18T09:51:41.003Z</time></trkpt><trkpt lat="44.431331452449236" lon="11.311787220017447"><ele>320.8</ele><time>2026-04-18T09:51:42.003Z</time></trkpt><trkpt lat="44.431390630775866" lon="11.311890400146387"><ele>320.6</ele><time>2026-04-18T09:51:43.003Z</time></trkpt><trkpt lat="44.43144357251042" lon="11.312030518986196"><ele>320.4</ele><time>2026-04-18T09:51:44.003Z</time></trkpt><trkpt lat="44.431470086560715" lon="11.312176333641577"><ele>320.2</ele><time>2026-04-18T09:51:45.003Z</time></trkpt><trkpt lat="44.43146108792528" lon="11.312327936068051"><ele>320.0</ele><time>2026-04-18T09:51:46.003Z</time></trkpt><trkpt lat="44.43151030609874" lon="11.312439439614487"><ele>320.0</ele><time>2026-04-18T09:51:47.003Z</time></trkpt><trkpt lat="44.431594680318504" lon="11.312497610324828"><ele>320.0</ele><time>2026-04-18T09:51:48.003Z</time></trkpt><trkpt lat="44.431690713064654" lon="11.312495626438153"><ele>320.0</ele><time>2026-04-18T09:51:49.003Z</time></trkpt><trkpt lat="44.431811775726516" lon="11.31244234455434"><ele>320.0</ele><time>2026-04-18T09:51:50.003Z</time></trkpt><trkpt lat="44.431910973601966" lon="11.312344225293513"><ele>320.0</ele><time>2026-04-18T09:51:51.003Z</time></trkpt><trkpt lat="44.43199103354379" lon="11.312204300830045"><ele>319.75</ele><time>2026-04-18T09:51:52.003Z</time></trkpt><trkpt lat="44.43204848083535" lon="11.31204140999245"><ele>319.5</ele><time>2026-04-18T09:51:53.003Z</time></trkpt><trkpt lat="44.43212158940352" lon="11.311907745332185"><ele>319.25</ele><time>2026-04-18T09:51:54.003Z</time></trkpt><trkpt lat="44.43219275078359" lon="11.31174433605387"><ele>319.0</ele><time>2026-04-18T09:51:55.003Z</time></trkpt><trkpt lat="44.432267964008744" lon="11.311603337831272"><ele>319.0</ele><time>2026-04-18T09:51:56.003Z</time></trkpt><trkpt lat="44.43234272788718" lon="11.311476771204223"><ele>319.0</ele><time>2026-04-18T09:51:57.003Z</time></trkpt><trkpt lat="44.43242180098761" lon="11.31136642095141"><ele>319.0</ele><time>2026-04-18T09:51:58.003Z</time></trkpt><trkpt lat="44.43251726339834" lon="11.311287788114196"><ele>319.0</ele><time>2026-04-18T09:51:59.003Z</time></trkpt><trkpt lat="44.43262163107905" lon="11.311242957221193"><ele>319.0</ele><time>2026-04-18T09:52:00Z</time></trkpt><trkpt lat="44.43273239912605" lon="11.311199958363297"><ele>314.59999999999997</ele><time>2026-04-18T09:52:01Z</time></trkpt><trkpt lat="44.43285061854947" lon="11.311233898984266"><ele>310.2</ele><time>2026-04-18T09:52:02Z</time></trkpt><trkpt lat="44.43294519294189" lon="11.311316996888632"><ele>305.79999999999995</ele><time>2026-04-18T09:52:03Z</time></trkpt><trkpt lat="44.43300453718144" lon="11.311433221554427"><ele>301.4</ele><time>2026-04-18T09:52:04Z</time></trkpt><trkpt lat="44.43306871109981" lon="11.311540270235218"><ele>297.0</ele><time>2026-04-18T09:52:05Z</time></trkpt><trkpt lat="44.433113903966515" lon="11.311663395279423"><ele>297.0</ele><time>2026-04-18T09:52:06Z</time></trkpt><trkpt lat="44.433172784540055" lon="11.311786067116573"><ele>297.0</ele><time>2026-04-18T09:52:07Z</time></trkpt><trkpt lat="44.433240742033774" lon="11.311908795821985"><ele>297.0</ele><time>2026-04-18T09:52:08Z</time></trkpt><trkpt lat="44.43332608648569" lon="11.312022294365853"><ele>297.0</ele><time>2026-04-18T09:52:09Z</time></trkpt><trkpt lat="44.43342057241853" lon="11.312125301419979"><ele>301.5</ele><time>2026-04-18T09:52:10Z</time></trkpt><trkpt lat="44.433501331031415" lon="11.312257309565052"><ele>306.0</ele><time>2026-04-18T09:52:11Z</time></trkpt><trkpt lat="44.43358486193816" lon="11.312405035612567"><ele>310.5</ele><time>2026-04-18T09:52:12Z</time></trkpt><trkpt lat="44.433665414234724" lon="11.312570491330968"><ele>315.0</ele><time>2026-04-18T09:52:13Z</time></trkpt><trkpt lat="44.43375961159744" lon="11.312722233309483"><ele>311.6666666666667</ele><time>2026-04-18T09:52:14Z</time></trkpt><trkpt lat="44.43387522942556" lon="11.312866737331653"><ele>308.33333333333337</ele><time>2026-04-18T09:52:15Z</time></trkpt><trkpt lat="44.4340022899991" lon="11.312990805417755"><ele>305.0</ele><time>2026-04-18T09:52:16Z</time></trkpt><trkpt lat="44.43413022194539" lon="11.313112330413642"><ele>305.0</ele><time>2026-04-18T09:52:17Z</time></trkpt><trkpt lat="44.434257766106484" lon="11.313232775552654"><ele>305.0</ele><time>2026-04-18T09:52:18Z</time></trkpt><trkpt lat="44.43438207062138" lon="11.31335537287269"><ele>305.0</ele><time>2026-04-18T09:52:19Z</time></trkpt><trkpt lat="44.43450756838559" lon="11.313476090668443"><ele>305.0</ele><time>2026-04-18T09:52:20Z</time></trkpt><trkpt lat="44.43461921300307" lon="11.313581134571796"><ele>305.0</ele><time>2026-04-18T09:52:21Z</time></trkpt><trkpt lat="44.43472924918154" lon="11.313634577973543"><ele>305.0</ele><time>2026-04-18T09:52:22Z</time></trkpt><trkpt lat="44.43483769693329" lon="11.313660393602653"><ele>305.0</ele><time>2026-04-18T09:52:23Z</time></trkpt><trkpt lat="44.43495034994111" lon="11.31364987217533"><ele>301.6</ele><time>2026-04-18T09:52:24Z</time></trkpt><trkpt lat="44.435056466383244" lon="11.313580214148422"><ele>298.2</ele><time>2026-04-18T09:52:25Z</time></trkpt><trkpt lat="44.43513390212622" lon="11.313479402020448"><ele>294.8</ele><time>2026-04-18T09:52:26Z</time></trkpt><trkpt lat="44.4352171456986" lon="11.313382773989236"><ele>291.4</ele><time>2026-04-18T09:52:27Z</time></trkpt><trkpt lat="44.43532279843252" lon="11.313351894337213"><ele>288.0</ele><time>2026-04-18T09:52:28Z</time></trkpt><trkpt lat="44.43543052131055" lon="11.313322162379684"><ele>286.75</ele><time>2026-04-18T09:52:29Z</time></trkpt><trkpt lat="44.435542627963784" lon="11.313287037445095"><ele>285.5</ele><time>2026-04-18T09:52:30Z</time></trkpt><trkpt lat="44.43565823743212" lon="11.31326939031414"><ele>284.25</ele><time>2026-04-18T09:52:31Z</time></trkpt><trkpt lat="44.435773529043644" lon="11.313239047295685"><ele>283.0</ele><time>2026-04-18T09:52:32Z</time></trkpt><trkpt lat="44.435886265853966" lon="11.313192041044045"><ele>283.0</ele><time>2026-04-18T09:52:33Z</time></trkpt><trkpt lat="44.43599814400614" lon="11.31312135806054"><ele>283.0</ele><time>2026-04-18T09:52:34.001Z</time></trkpt><trkpt lat="44.43610811785574" lon="11.313034028509314"><ele>283.0</ele><time>2026-04-18T09:52:35.001Z</time></trkpt><trkpt lat="44.43621567173071" lon="11.3129296983321"><ele>283.0</ele><time>2026-04-18T09:52:36.001Z</time></trkpt><trkpt lat="44.43630912127615" lon="11.31280564518913"><ele>279.0</ele><time>2026-04-18T09:52:37.001Z</time></trkpt><trkpt lat="44.43638323958712" lon="11.312650551317327"><ele>275.0</ele><time>2026-04-18T09:52:38.001Z</time></trkpt><trkpt lat="44.4364367525329" lon="11.312491160885632"><ele>271.0</ele><time>2026-04-18T09:52:39.001Z</time></trkpt><trkpt lat="44.43647811738118" lon="11.31234182253072"><ele>267.0</ele><time>2026-04-18T09:52:40.001Z</time></trkpt><trkpt lat="44.436488383225466" lon="11.31219153671889"><ele>266.6</ele><time>2026-04-18T09:52:41.001Z</time></trkpt><trkpt lat="44.436463716557824" lon="11.31204291296707"><ele>266.2</ele><time>2026-04-18T09:52:42.001Z</time></trkpt><trkpt lat="44.43640951820513" lon="11.311914897611251"><ele>265.8</ele><time>2026-04-18T09:52:43.001Z</time></trkpt><trkpt lat="44.4363590001796" lon="11.311783339782764"><ele>265.4</ele><time>2026-04-18T09:52:44.001Z</time></trkpt><trkpt lat="44.43631347095892" lon="11.311646645016921"><ele>265.0</ele><time>2026-04-18T09:52:45.001Z</time></trkpt><trkpt lat="44.43628347273993" lon="11.31151416115116"><ele>265.8</ele><time>2026-04-18T09:52:46.001Z</time></trkpt><trkpt lat="44.43627525257378" lon="11.311378839127412"><ele>266.6</ele><time>2026-04-18T09:52:47.001Z</time></trkpt><trkpt lat="44.4362890382168" lon="11.31123401768831"><ele>267.4</ele><time>2026-04-18T09:52:48.001Z</time></trkpt><trkpt lat="44.43632677965694" lon="11.311100564020435"><ele>268.2</ele><time>2026-04-18T09:52:49.001Z</time></trkpt><trkpt lat="44.43639682663821" lon="11.31096570415983"><ele>269.0</ele><time>2026-04-18T09:52:50.001Z</time></trkpt><trkpt lat="44.436492733221066" lon="11.310839993401368"><ele>269.0</ele><time>2026-04-18T09:52:51.001Z</time></trkpt><trkpt lat="44.43660025438363" lon="11.310722759216036"><ele>269.0</ele><time>2026-04-18T09:52:52.001Z</time></trkpt><trkpt lat="44.43670823314891" lon="11.310599985735848"><ele>269.0</ele><time>2026-04-18T09:52:53.001Z</time></trkpt><trkpt lat="44.43680778134026" lon="11.310483231588986"><ele>269.0</ele><time>2026-04-18T09:52:54.001Z</time></trkpt><trkpt lat="44.43691040751831" lon="11.310372375396197"><ele>269.75</ele><time>2026-04-18T09:52:55.001Z</time></trkpt><trkpt lat="44.43701397341937" lon="11.310260052404272"><ele>270.5</ele><time>2026-04-18T09:52:56.001Z</time></trkpt><trkpt lat="44.43710921073338" lon="11.310141080138402"><ele>271.25</ele><time>2026-04-18T09:52:57.001Z</time></trkpt><trkpt lat="44.437200946769295" lon="11.310040370281026"><ele>272.0</ele><time>2026-04-18T09:52:58.001Z</time></trkpt><trkpt lat="44.437286696751976" lon="11.309938060636632"><ele>272.0</ele><time>2026-04-18T09:52:59.001Z</time></trkpt><trkpt lat="44.43737279354629" lon="11.309837152526805"><ele>272.0</ele><time>2026-04-18T09:53:00.001Z</time></trkpt><trkpt lat="44.4374583592114" lon="11.309737560017624"><ele>272.0</ele><time>2026-04-18T09:53:01.001Z</time></trkpt><trkpt lat="44.43754335730231" lon="11.309636378779421"><ele>272.0</ele><time>2026-04-18T09:53:02.001Z</time></trkpt><trkpt lat="44.437646504770605" lon="11.30957422718185"><ele>272.0</ele><time>2026-04-18T09:53:03.001Z</time></trkpt><trkpt lat="44.437749575461666" lon="11.309529695911966"><ele>270.75</ele><time>2026-04-18T09:53:04.001Z</time></trkpt><trkpt lat="44.43786020277134" lon="11.309520662159924"><ele>269.5</ele><time>2026-04-18T09:53:05.001Z</time></trkpt><trkpt lat="44.43797429949106" lon="11.309512813865714"><ele>268.25</ele><time>2026-04-18T09:53:06.001Z</time></trkpt><trkpt lat="44.438087514731365" lon="11.30953056097374"><ele>267.0</ele><time>2026-04-18T09:53:07.002Z</time></trkpt><trkpt lat="44.43820133769218" lon="11.309545099810485"><ele>269.6</ele><time>2026-04-18T09:53:08.002Z</time></trkpt><trkpt lat="44.438312991420304" lon="11.309558983110513"><ele>272.2</ele><time>2026-04-18T09:53:09.002Z</time></trkpt><trkpt lat="44.43842342851753" lon="11.309578564495789"><ele>274.8</ele><time>2026-04-18T09:53:10.002Z</time></trkpt><trkpt lat="44.43853092938087" lon="11.30958043904665"><ele>277.4</ele><time>2026-04-18T09:53:11.002Z</time></trkpt><trkpt lat="44.43863542113315" lon="11.30955413959706"><ele>280.0</ele><time>2026-04-18T09:53:12.002Z</time></trkpt><trkpt lat="44.438740878776876" lon="11.309512064036756"><ele>282.0</ele><time>2026-04-18T09:53:13.002Z</time></trkpt><trkpt lat="44.4388584189167" lon="11.309491719870373"><ele>284.0</ele><time>2026-04-18T09:53:14.002Z</time></trkpt><trkpt lat="44.438967070914416" lon="11.309427073328784"><ele>286.0</ele><time>2026-04-18T09:53:15.002Z</time></trkpt><trkpt lat="44.439080889398326" lon="11.309389009257504"><ele>288.0</ele><time>2026-04-18T09:53:16.002Z</time></trkpt><trkpt lat="44.43918837819939" lon="11.309346329348102"><ele>288.0</ele><time>2026-04-18T09:53:17.002Z</time></trkpt><trkpt lat="44.439290629369836" lon="11.309297157102117"><ele>288.0</ele><time>2026-04-18T09:53:18.002Z</time></trkpt><trkpt lat="44.43938806079613" lon="11.309236025339974"><ele>288.0</ele><time>2026-04-18T09:53:19.002Z</time></trkpt><trkpt lat="44.439471183525015" lon="11.309145409137939"><ele>288.0</ele><time>2026-04-18T09:53:20.002Z</time></trkpt><trkpt lat="44.43954584101318" lon="11.309030020340305"><ele>288.0</ele><time>2026-04-18T09:53:21.002Z</time></trkpt><trkpt lat="44.43961364731807" lon="11.308891441223464"><ele>288.25</ele><time>2026-04-18T09:53:22.002Z</time></trkpt><trkpt lat="44.4396901803227" lon="11.308749700753328"><ele>288.5</ele><time>2026-04-18T09:53:23.002Z</time></trkpt><trkpt lat="44.43977065812251" lon="11.308605003540915"><ele>288.75</ele><time>2026-04-18T09:53:24.002Z</time></trkpt><trkpt lat="44.4398615988939" lon="11.308469814231504"><ele>289.0</ele><time>2026-04-18T09:53:25.002Z</time></trkpt><trkpt lat="44.43996474619893" lon="11.308343600680768"><ele>289.0</ele><time>2026-04-18T09:53:26.002Z</time></trkpt><trkpt lat="44.44007549091488" lon="11.30822743470108"><ele>289.0</ele><time>2026-04-18T09:53:27.002Z</time></trkpt><trkpt lat="44.4401924363552" lon="11.308123943550546"><ele>289.0</ele><time>2026-04-18T09:53:28.002Z</time></trkpt><trkpt lat="44.440316065136436" lon="11.308033006322365"><ele>289.0</ele><time>2026-04-18T09:53:29.002Z</time></trkpt><trkpt lat="44.44043635811043" lon="11.307967441178699"><ele>284.5</ele><time>2026-04-18T09:53:30.002Z</time></trkpt><trkpt lat="44.44055281563454" lon="11.307924748551212"><ele>280.0</ele><time>2026-04-18T09:53:31.002Z</time></trkpt><trkpt lat="44.44067220997267" lon="11.30792641183091"><ele>275.5</ele><time>2026-04-18T09:53:32.002Z</time></trkpt><trkpt lat="44.44078379735026" lon="11.307970367846393"><ele>271.0</ele><time>2026-04-18T09:53:33.002Z</time></trkpt><trkpt lat="44.44089708692785" lon="11.307978789693765"><ele>271.0</ele><time>2026-04-18T09:53:34.002Z</time></trkpt><trkpt lat="44.4410054507753" lon="11.307945950737881"><ele>271.0</ele><time>2026-04-18T09:53:35.002Z</time></trkpt><trkpt lat="44.441122810851745" lon="11.307894577675004"><ele>271.0</ele><time>2026-04-18T09:53:36.002Z</time></trkpt><trkpt lat="44.44124441557605" lon="11.307906119859283"><ele>271.0</ele><time>2026-04-18T09:53:37.002Z</time></trkpt><trkpt lat="44.441363429638955" lon="11.307946681656547"><ele>268.6</ele><time>2026-04-18T09:53:38.002Z</time></trkpt><trkpt lat="44.441500600626156" lon="11.307981666672475"><ele>266.20000000000005</ele><time>2026-04-18T09:53:39.002Z</time></trkpt><trkpt lat="44.441603624448476" lon="11.308023870335452"><ele>263.79999999999995</ele><time>2026-04-18T09:53:40.003Z</time></trkpt><trkpt lat="44.441694108885656" lon="11.308055878183719"><ele>261.4</ele><time>2026-04-18T09:53:41.003Z</time></trkpt><trkpt lat="44.441779970536075" lon="11.308077049906874"><ele>259.0</ele><time>2026-04-18T09:53:42.003Z</time></trkpt><trkpt lat="44.44184532857876" lon="11.308097166473578"><ele>259.0</ele><time>2026-04-18T09:53:43.003Z</time></trkpt><trkpt lat="44.44195042711344" lon="11.308136738986304"><ele>259.0</ele><time>2026-04-18T09:53:45.003Z</time></trkpt><trkpt lat="44.44201610841268" lon="11.30816571257144"><ele>259.0</ele><time>2026-04-18T09:53:47.003Z</time></trkpt><trkpt lat="44.44208416590943" lon="11.30814565468249"><ele>259.0</ele><time>2026-04-18T09:53:53.003Z</time></trkpt><trkpt lat="44.4419739646593" lon="11.307835913051294"><ele>258.8</ele><time>2026-04-18T09:53:57.003Z</time></trkpt><trkpt lat="44.44193406363744" lon="11.307728469283273"><ele>258.59999999999997</ele><time>2026-04-18T09:53:58.003Z</time></trkpt><trkpt lat="44.441910469968846" lon="11.307610643584777"><ele>258.4</ele><time>2026-04-18T09:53:59.003Z</time></trkpt><trkpt lat="44.4419039211329" lon="11.307484476182214"><ele>258.2</ele><time>2026-04-18T09:54:00.003Z</time></trkpt><trkpt lat="44.44191005962111" lon="11.30734822705595"><ele>258.0</ele><time>2026-04-18T09:54:01.003Z</time></trkpt><trkpt lat="44.441917148375396" lon="11.307207776281894"><ele>258.6</ele><time>2026-04-18T09:54:02.003Z</time></trkpt><trkpt lat="44.441920632876325" lon="11.307053774234024"><ele>259.20000000000005</ele><time>2026-04-18T09:54:03.003Z</time></trkpt><trkpt lat="44.441918917883825" lon="11.306930447440152"><ele>259.8</ele><time>2026-04-18T09:54:04.003Z</time></trkpt><trkpt lat="44.44191421715789" lon="11.306792800608628"><ele>260.40000000000003</ele><time>2026-04-18T09:54:05.003Z</time></trkpt><trkpt lat="44.44191244927351" lon="11.306659727658474"><ele>261.0</ele><time>2026-04-18T09:54:06Z</time></trkpt><trkpt lat="44.441915781536316" lon="11.306520634948015"><ele>261.2</ele><time>2026-04-18T09:54:07Z</time></trkpt><trkpt lat="44.4419210965663" lon="11.30637647380973"><ele>261.40000000000003</ele><time>2026-04-18T09:54:08Z</time></trkpt><trkpt lat="44.44192887413675" lon="11.30622490487063"><ele>261.6</ele><time>2026-04-18T09:54:09Z</time></trkpt><trkpt lat="44.441935709790634" lon="11.306073421868632"><ele>261.8</ele><time>2026-04-18T09:54:10Z</time></trkpt><trkpt lat="44.44194345960087" lon="11.305921147209812"><ele>262.0</ele><time>2026-04-18T09:54:11Z</time></trkpt><trkpt lat="44.441951671975986" lon="11.3057718828549"><ele>262.0</ele><time>2026-04-18T09:54:12Z</time></trkpt><trkpt lat="44.44196214472969" lon="11.305621588296548"><ele>262.0</ele><time>2026-04-18T09:54:13Z</time></trkpt><trkpt lat="44.44197357219619" lon="11.305482772006807"><ele>262.0</ele><time>2026-04-18T09:54:14Z</time></trkpt><trkpt lat="44.44198804433014" lon="11.305348290795083"><ele>262.0</ele><time>2026-04-18T09:54:15Z</time></trkpt><trkpt lat="44.44200619101826" lon="11.305215584843351"><ele>262.0</ele><time>2026-04-18T09:54:16Z</time></trkpt><trkpt lat="44.44202665871666" lon="11.305090689317735"><ele>262.16666666666663</ele><time>2026-04-18T09:54:17Z</time></trkpt><trkpt lat="44.44204997241054" lon="11.304966641171564"><ele>262.3333333333333</ele><time>2026-04-18T09:54:18Z</time></trkpt><trkpt lat="44.44208282232723" lon="11.30484149658299"><ele>262.5</ele><time>2026-04-18T09:54:19Z</time></trkpt><trkpt lat="44.44211862248413" lon="11.304729699860376"><ele>262.6666666666667</ele><time>2026-04-18T09:54:20Z</time></trkpt><trkpt lat="44.44215201715015" lon="11.304631029039891"><ele>262.83333333333337</ele><time>2026-04-18T09:54:21Z</time></trkpt><trkpt lat="44.442179035573446" lon="11.304547285327862"><ele>263.0</ele><time>2026-04-18T09:54:22Z</time></trkpt><trkpt lat="44.44222122186145" lon="11.304437624130498"><ele>262.5</ele><time>2026-04-18T09:54:24Z</time></trkpt><trkpt lat="44.44225387548396" lon="11.304332047849828"><ele>262.0</ele><time>2026-04-18T09:54:27Z</time></trkpt><trkpt lat="44.44226512960368" lon="11.304200493112896"><ele>261.5</ele><time>2026-04-18T09:54:31Z</time></trkpt><trkpt lat="44.442261709634415" lon="11.304066954219827"><ele>261.0</ele><time>2026-04-18T09:54:33Z</time></trkpt><trkpt lat="44.44224767990935" lon="11.303974176325582"><ele>260.5</ele><time>2026-04-18T09:54:34.001Z</time></trkpt><trkpt lat="44.442236423328936" lon="11.303863863323507"><ele>260.0</ele><time>2026-04-18T09:54:35.001Z</time></trkpt><trkpt lat="44.44222407884407" lon="11.303757280092544"><ele>259.1666666666667</ele><time>2026-04-18T09:54:36.001Z</time></trkpt><trkpt lat="44.44221231617197" lon="11.303650313421807"><ele>258.33333333333337</ele><time>2026-04-18T09:54:37.001Z</time></trkpt><trkpt lat="44.44219866217575" lon="11.303558809321244"><ele>257.5</ele><time>2026-04-18T09:54:38.001Z</time></trkpt><trkpt lat="44.442200778529745" lon="11.303454538802207"><ele>256.6666666666667</ele><time>2026-04-18T09:54:39.001Z</time></trkpt><trkpt lat="44.4422166353511" lon="11.303342843720317"><ele>255.83333333333334</ele><time>2026-04-18T09:54:40.001Z</time></trkpt><trkpt lat="44.44223885400456" lon="11.30322571088596"><ele>255.0</ele><time>2026-04-18T09:54:41.001Z</time></trkpt><trkpt lat="44.44229226608395" lon="11.303130722417686"><ele>255.0</ele><time>2026-04-18T09:54:42.001Z</time></trkpt><trkpt lat="44.442376079908136" lon="11.303085281537081"><ele>255.0</ele><time>2026-04-18T09:54:43.001Z</time></trkpt><trkpt lat="44.4424683794628" lon="11.303052669512594"><ele>255.0</ele><time>2026-04-18T09:54:44.001Z</time></trkpt><trkpt lat="44.442563723237804" lon="11.303007802188464"><ele>255.0</ele><time>2026-04-18T09:54:45.001Z</time></trkpt><trkpt lat="44.44267381923234" lon="11.302983035015366"><ele>255.0</ele><time>2026-04-18T09:54:46.001Z</time></trkpt><trkpt lat="44.44276983458125" lon="11.302942484957297"><ele>253.75</ele><time>2026-04-18T09:54:47.001Z</time></trkpt><trkpt lat="44.44286241910622" lon="11.302883466202118"><ele>252.5</ele><time>2026-04-18T09:54:48.001Z</time></trkpt><trkpt lat="44.44295610191046" lon="11.302800529910364"><ele>251.25</ele><time>2026-04-18T09:54:49.001Z</time></trkpt><trkpt lat="44.44305244679605" lon="11.302709065056812"><ele>250.0</ele><time>2026-04-18T09:54:50.001Z</time></trkpt><trkpt lat="44.44314983922198" lon="11.30260542309157"><ele>250.0</ele><time>2026-04-18T09:54:51.001Z</time></trkpt><trkpt lat="44.44323023623512" lon="11.302492228625834"><ele>250.0</ele><time>2026-04-18T09:54:52.001Z</time></trkpt><trkpt lat="44.443296746384455" lon="11.302378629326274"><ele>250.0</ele><time>2026-04-18T09:54:53.001Z</time></trkpt><trkpt lat="44.44335584581415" lon="11.302252001237912"><ele>250.0</ele><time>2026-04-18T09:54:54.001Z</time></trkpt><trkpt lat="44.44341713916946" lon="11.302120771688406"><ele>250.0</ele><time>2026-04-18T09:54:55.001Z</time></trkpt><trkpt lat="44.44344513588226" lon="11.30197395345708"><ele>248.8</ele><time>2026-04-18T09:54:56.001Z</time></trkpt><trkpt lat="44.443495440405805" lon="11.301844870760263"><ele>247.6</ele><time>2026-04-18T09:54:57.001Z</time></trkpt><trkpt lat="44.443542983899135" lon="11.301729046282464"><ele>246.39999999999998</ele><time>2026-04-18T09:54:58.001Z</time></trkpt><trkpt lat="44.44360826226469" lon="11.301634195649122"><ele>245.2</ele><time>2026-04-18T09:54:59.001Z</time></trkpt><trkpt lat="44.44368147758444" lon="11.301556781472783"><ele>244.0</ele><time>2026-04-18T09:55:00.001Z</time></trkpt><trkpt lat="44.443756703703606" lon="11.301485526657828"><ele>244.79999999999998</ele><time>2026-04-18T09:55:01.001Z</time></trkpt><trkpt lat="44.44383637647805" lon="11.301422210426074"><ele>245.59999999999997</ele><time>2026-04-18T09:55:02.001Z</time></trkpt><trkpt lat="44.44392213046689" lon="11.30136671708727"><ele>246.4</ele><time>2026-04-18T09:55:03.001Z</time></trkpt><trkpt lat="44.44401043147133" lon="11.301295091063485"><ele>247.2</ele><time>2026-04-18T09:55:04.001Z</time></trkpt><trkpt lat="44.44409856219865" lon="11.301209317548459"><ele>248.0</ele><time>2026-04-18T09:55:05.001Z</time></trkpt><trkpt lat="44.44417312968795" lon="11.301085961450674"><ele>244.5</ele><time>2026-04-18T09:55:06.001Z</time></trkpt><trkpt lat="44.444235804406475" lon="11.300945851616897"><ele>241.0</ele><time>2026-04-18T09:55:07.002Z</time></trkpt><trkpt lat="44.44429005353376" lon="11.300788991242996"><ele>237.5</ele><time>2026-04-18T09:55:08.002Z</time></trkpt><trkpt lat="44.44434944410584" lon="11.300629939796634"><ele>234.0</ele><time>2026-04-18T09:55:09.002Z</time></trkpt><trkpt lat="44.44441339840412" lon="11.300484625853777"><ele>231.39999999999998</ele><time>2026-04-18T09:55:10.002Z</time></trkpt><trkpt lat="44.444478850610956" lon="11.30035071874893"><ele>228.79999999999998</ele><time>2026-04-18T09:55:11.002Z</time></trkpt><trkpt lat="44.4445419326748" lon="11.300226219538688"><ele>226.20000000000002</ele><time>2026-04-18T09:55:12.002Z</time></trkpt><trkpt lat="44.44460401425142" lon="11.30011643333762"><ele>223.60000000000002</ele><time>2026-04-18T09:55:13.002Z</time></trkpt><trkpt lat="44.44464818980405" lon="11.300027211366634"><ele>221.0</ele><time>2026-04-18T09:55:14.002Z</time></trkpt><trkpt lat="44.44466473485819" lon="11.299936146494016"><ele>221.00000000000003</ele><time>2026-04-18T09:55:15.002Z</time></trkpt><trkpt lat="44.44465513048959" lon="11.299848000866774"><ele>221.0</ele><time>2026-04-18T09:55:16.002Z</time></trkpt><trkpt lat="44.444610896746234" lon="11.299762064021367"><ele>221.0</ele><time>2026-04-18T09:55:17.002Z</time></trkpt><trkpt lat="44.44452523349213" lon="11.299712451948704"><ele>221.0</ele><time>2026-04-18T09:55:18.002Z</time></trkpt><trkpt lat="44.44447811628426" lon="11.299628165064599"><ele>221.00000000000003</ele><time>2026-04-18T09:55:19.002Z</time></trkpt><trkpt lat="44.44444962131144" lon="11.299505834793766"><ele>221.0</ele><time>2026-04-18T09:55:20.002Z</time></trkpt><trkpt lat="44.44446438598124" lon="11.299367868668996"><ele>218.0</ele><time>2026-04-18T09:55:21.002Z</time></trkpt><trkpt lat="44.444511533882604" lon="11.299232697502513"><ele>215.0</ele><time>2026-04-18T09:55:22.002Z</time></trkpt><trkpt lat="44.44456490772178" lon="11.29909786187347"><ele>212.0</ele><time>2026-04-18T09:55:23.002Z</time></trkpt><trkpt lat="44.444582454555196" lon="11.298945205744443"><ele>209.0</ele><time>2026-04-18T09:55:24.002Z</time></trkpt><trkpt lat="44.4445789752139" lon="11.298771428460217"><ele>208.0</ele><time>2026-04-18T09:55:25.002Z</time></trkpt><trkpt lat="44.444590567811474" lon="11.29859098280813"><ele>207.0</ele><time>2026-04-18T09:55:26.002Z</time></trkpt><trkpt lat="44.44460689216054" lon="11.29841304887856"><ele>206.0</ele><time>2026-04-18T09:55:27.002Z</time></trkpt><trkpt lat="44.44463343736932" lon="11.298266468339957"><ele>205.0</ele><time>2026-04-18T09:55:28.002Z</time></trkpt><trkpt lat="44.444651580803985" lon="11.298156946945985"><ele>204.0</ele><time>2026-04-18T09:55:29.002Z</time></trkpt><trkpt lat="44.44469051861446" lon="11.298057807409993"><ele>202.39999999999998</ele><time>2026-04-18T09:55:30.002Z</time></trkpt><trkpt lat="44.44473582444539" lon="11.297954574556542"><ele>200.8</ele><time>2026-04-18T09:55:31.002Z</time></trkpt><trkpt lat="44.44480208610388" lon="11.297859185143015"><ele>199.2</ele><time>2026-04-18T09:55:32.002Z</time></trkpt><trkpt lat="44.444863828638255" lon="11.29774680556683"><ele>197.60000000000002</ele><time>2026-04-18T09:55:33.002Z</time></trkpt><trkpt lat="44.44492778418299" lon="11.297622885285216"><ele>196.0</ele><time>2026-04-18T09:55:34.002Z</time></trkpt><trkpt lat="44.445015952748946" lon="11.29752073666649"><ele>196.0</ele><time>2026-04-18T09:55:35.002Z</time></trkpt><trkpt lat="44.445125422134446" lon="11.297461949934464"><ele>196.0</ele><time>2026-04-18T09:55:36.002Z</time></trkpt><trkpt lat="44.4452398802762" lon="11.297432263157958"><ele>196.0</ele><time>2026-04-18T09:55:37.002Z</time></trkpt><trkpt lat="44.44534516420201" lon="11.297375683711547"><ele>196.0</ele><time>2026-04-18T09:55:38.002Z</time></trkpt><trkpt lat="44.445443953863396" lon="11.297259706613843"><ele>194.5</ele><time>2026-04-18T09:55:39.002Z</time></trkpt><trkpt lat="44.44551878596036" lon="11.297087453610475"><ele>193.0</ele><time>2026-04-18T09:55:40.002Z</time></trkpt><trkpt lat="44.445589764675425" lon="11.296899405639886"><ele>191.5</ele><time>2026-04-18T09:55:41.003Z</time></trkpt><trkpt lat="44.445666447014816" lon="11.296730131311207"><ele>190.0</ele><time>2026-04-18T09:55:42.003Z</time></trkpt><trkpt lat="44.44575319013651" lon="11.296599264329403"><ele>190.0</ele><time>2026-04-18T09:55:43.003Z</time></trkpt><trkpt lat="44.44585194473967" lon="11.296526619576161"><ele>190.0</ele><time>2026-04-18T09:55:44.003Z</time></trkpt><trkpt lat="44.44595316794779" lon="11.296499958249736"><ele>190.0</ele><time>2026-04-18T09:55:45.003Z</time></trkpt><trkpt lat="44.44605623626259" lon="11.29652147782001"><ele>190.0</ele><time>2026-04-18T09:55:46.003Z</time></trkpt><trkpt lat="44.44615322004519" lon="11.296563511530952"><ele>190.0</ele><time>2026-04-18T09:55:47.003Z</time></trkpt><trkpt lat="44.44624794178256" lon="11.296605855069544"><ele>191.2</ele><time>2026-04-18T09:55:48.003Z</time></trkpt><trkpt lat="44.446335528093336" lon="11.296641866764155"><ele>192.4</ele><time>2026-04-18T09:55:49.003Z</time></trkpt><trkpt lat="44.44641723168267" lon="11.296673139392507"><ele>193.60000000000002</ele><time>2026-04-18T09:55:50.003Z</time></trkpt><trkpt lat="44.44650823343796" lon="11.296697134903464"><ele>194.8</ele><time>2026-04-18T09:55:51.003Z</time></trkpt><trkpt lat="44.446605453808345" lon="11.296714599729773"><ele>196.0</ele><time>2026-04-18T09:55:52.003Z</time></trkpt><trkpt lat="44.446716677971395" lon="11.29673738509515"><ele>196.0</ele><time>2026-04-18T09:55:53.003Z</time></trkpt><trkpt lat="44.44683631864707" lon="11.296744568445265"><ele>196.0</ele><time>2026-04-18T09:55:54.003Z</time></trkpt><trkpt lat="44.446963603509886" lon="11.296750610079503"><ele>196.0</ele><time>2026-04-18T09:55:55.003Z</time></trkpt><trkpt lat="44.447096481835835" lon="11.296770865883909"><ele>196.0</ele><time>2026-04-18T09:55:56.003Z</time></trkpt><trkpt lat="44.447231053993285" lon="11.296787021694492"><ele>198.75</ele><time>2026-04-18T09:55:57.003Z</time></trkpt><trkpt lat="44.447363000111494" lon="11.296794331528925"><ele>201.5</ele><time>2026-04-18T09:55:58.003Z</time></trkpt><trkpt lat="44.44749270683873" lon="11.2967972004624"><ele>204.25</ele><time>2026-04-18T09:55:59.003Z</time></trkpt><trkpt lat="44.447612043203314" lon="11.296798236511032"><ele>207.0</ele><time>2026-04-18T09:56:00.003Z</time></trkpt><trkpt lat="44.447725249375694" lon="11.296790057570547"><ele>207.0</ele><time>2026-04-18T09:56:01.003Z</time></trkpt><trkpt lat="44.4478248462281" lon="11.296772559064099"><ele>207.0</ele><time>2026-04-18T09:56:02.003Z</time></trkpt><trkpt lat="44.44793099894561" lon="11.296764745809778"><ele>207.0</ele><time>2026-04-18T09:56:03.003Z</time></trkpt><trkpt lat="44.44803049160255" lon="11.29674155153026"><ele>207.0</ele><time>2026-04-18T09:56:04.003Z</time></trkpt><trkpt lat="44.44814137474875" lon="11.296726160157911"><ele>207.0</ele><time>2026-04-18T09:56:05.003Z</time></trkpt><trkpt lat="44.44824919166825" lon="11.296703037483276"><ele>209.2</ele><time>2026-04-18T09:56:06.003Z</time></trkpt><trkpt lat="44.44835877009324" lon="11.296680137823817"><ele>211.39999999999998</ele><time>2026-04-18T09:56:07.003Z</time></trkpt><trkpt lat="44.44846311424116" lon="11.296651307135555"><ele>213.60000000000002</ele><time>2026-04-18T09:56:08.003Z</time></trkpt><trkpt lat="44.44856521159743" lon="11.296626517418632"><ele>215.8</ele><time>2026-04-18T09:56:09.003Z</time></trkpt><trkpt lat="44.44867020048524" lon="11.296603543406853"><ele>218.0</ele><time>2026-04-18T09:56:10.003Z</time></trkpt><trkpt lat="44.44877435865594" lon="11.296581033953085"><ele>219.4</ele><time>2026-04-18T09:56:11.003Z</time></trkpt><trkpt lat="44.44887721593385" lon="11.296554757377525"><ele>220.8</ele><time>2026-04-18T09:56:12Z</time></trkpt><trkpt lat="44.448979408915775" lon="11.296492503233301"><ele>222.2</ele><time>2026-04-18T09:56:13Z</time></trkpt><trkpt lat="44.449067716346114" lon="11.296404344764687"><ele>223.6</ele><time>2026-04-18T09:56:14Z</time></trkpt><trkpt lat="44.449145104149046" lon="11.296316812529417"><ele>225.0</ele><time>2026-04-18T09:56:15Z</time></trkpt><trkpt lat="44.44923844854444" lon="11.2962375619239"><ele>225.4</ele><time>2026-04-18T09:56:16Z</time></trkpt><trkpt lat="44.449335132087306" lon="11.296179299498133"><ele>225.8</ele><time>2026-04-18T09:56:17Z</time></trkpt><trkpt lat="44.449429772458075" lon="11.29614245267497"><ele>226.2</ele><time>2026-04-18T09:56:18Z</time></trkpt><trkpt lat="44.44953829123608" lon="11.296130215685572"><ele>226.6</ele><time>2026-04-18T09:56:19Z</time></trkpt><trkpt lat="44.44966478311223" lon="11.296134389853554"><ele>227.0</ele><time>2026-04-18T09:56:20Z</time></trkpt><trkpt lat="44.44978388527187" lon="11.296133157875085"><ele>227.25</ele><time>2026-04-18T09:56:21Z</time></trkpt><trkpt lat="44.4499149375387" lon="11.296131412531835"><ele>227.5</ele><time>2026-04-18T09:56:22Z</time></trkpt><trkpt lat="44.45004309969004" lon="11.296133658413197"><ele>227.75</ele><time>2026-04-18T09:56:23Z</time></trkpt><trkpt lat="44.45016009708344" lon="11.296137261270019"><ele>228.0</ele><time>2026-04-18T09:56:24Z</time></trkpt><trkpt lat="44.450268301461755" lon="11.296136955628377"><ele>228.0</ele><time>2026-04-18T09:56:25Z</time></trkpt><trkpt lat="44.45036653165125" lon="11.29613819510088"><ele>228.0</ele><time>2026-04-18T09:56:26Z</time></trkpt><trkpt lat="44.45045831613575" lon="11.296144227727332"><ele>228.0</ele><time>2026-04-18T09:56:27Z</time></trkpt><trkpt lat="44.4505497208608" lon="11.296154699929337"><ele>228.0</ele><time>2026-04-18T09:56:28Z</time></trkpt><trkpt lat="44.45063373253763" lon="11.296166587913607"><ele>228.0</ele><time>2026-04-18T09:56:29Z</time></trkpt><trkpt lat="44.45071422910413" lon="11.296184137613713"><ele>228.0</ele><time>2026-04-18T09:56:30Z</time></trkpt><trkpt lat="44.450793082690176" lon="11.296205842128497"><ele>228.66666666666666</ele><time>2026-04-18T09:56:31Z</time></trkpt><trkpt lat="44.45087103838357" lon="11.296225692326422"><ele>229.33333333333331</ele><time>2026-04-18T09:56:32Z</time></trkpt><trkpt lat="44.450946555577865" lon="11.296244535808128"><ele>230.0</ele><time>2026-04-18T09:56:33Z</time></trkpt><trkpt lat="44.45101915029379" lon="11.296263899687384"><ele>230.66666666666666</ele><time>2026-04-18T09:56:34Z</time></trkpt><trkpt lat="44.451142670725964" lon="11.29629210846802"><ele>231.33333333333331</ele><time>2026-04-18T09:56:36Z</time></trkpt><trkpt lat="44.451231754139776" lon="11.296322337341808"><ele>232.0</ele><time>2026-04-18T09:56:38.001Z</time></trkpt><trkpt lat="44.4513098176436" lon="11.296365499422253"><ele>232.83333333333331</ele><time>2026-04-18T09:56:40.001Z</time></trkpt><trkpt lat="44.451401567412475" lon="11.29644498282878"><ele>233.66666666666666</ele><time>2026-04-18T09:56:42.001Z</time></trkpt><trkpt lat="44.45145134771679" lon="11.296512138022104"><ele>234.5</ele><time>2026-04-18T09:56:43.001Z</time></trkpt><trkpt lat="44.45149780270164" lon="11.296596478221064"><ele>235.33333333333331</ele><time>2026-04-18T09:56:44.001Z</time></trkpt><trkpt lat="44.451548423440165" lon="11.296684274464253"><ele>236.16666666666666</ele><time>2026-04-18T09:56:45.001Z</time></trkpt><trkpt lat="44.45160229605576" lon="11.296776643146776"><ele>237.0</ele><time>2026-04-18T09:56:46.001Z</time></trkpt><trkpt lat="44.45165701320737" lon="11.296868935282426"><ele>237.0</ele><time>2026-04-18T09:56:47.001Z</time></trkpt><trkpt lat="44.45172825419552" lon="11.296946770568859"><ele>237.0</ele><time>2026-04-18T09:56:48.001Z</time></trkpt><trkpt lat="44.451812545631945" lon="11.297008927815005"><ele>237.0</ele><time>2026-04-18T09:56:49.001Z</time></trkpt><trkpt lat="44.45190444389266" lon="11.297076060679805"><ele>237.0</ele><time>2026-04-18T09:56:50.001Z</time></trkpt><trkpt lat="44.45200773238021" lon="11.29714538833631"><ele>237.0</ele><time>2026-04-18T09:56:51.001Z</time></trkpt><trkpt lat="44.45210803902689" lon="11.29720269405526"><ele>236.39999999999998</ele><time>2026-04-18T09:56:52.001Z</time></trkpt><trkpt lat="44.45220124096084" lon="11.297265623623725"><ele>235.79999999999998</ele><time>2026-04-18T09:56:53.001Z</time></trkpt><trkpt lat="44.45230566547091" lon="11.297325971837491"><ele>235.2</ele><time>2026-04-18T09:56:54.001Z</time></trkpt><trkpt lat="44.4524017850653" lon="11.297381856991057"><ele>234.6</ele><time>2026-04-18T09:56:55.001Z</time></trkpt><trkpt lat="44.45249843383528" lon="11.297441548204983"><ele>234.0</ele><time>2026-04-18T09:56:56.001Z</time></trkpt><trkpt lat="44.452587394615875" lon="11.297498259253702"><ele>234.0</ele><time>2026-04-18T09:56:57.001Z</time></trkpt><trkpt lat="44.4526779982602" lon="11.29755156943451"><ele>234.0</ele><time>2026-04-18T09:56:58.001Z</time></trkpt><trkpt lat="44.45276456684395" lon="11.297600303087938"><ele>234.0</ele><time>2026-04-18T09:56:59.001Z</time></trkpt><trkpt lat="44.452849337034905" lon="11.297650977316376"><ele>234.0</ele><time>2026-04-18T09:57:00.001Z</time></trkpt><trkpt lat="44.45292751891371" lon="11.297698415170734"><ele>234.0</ele><time>2026-04-18T09:57:01.001Z</time></trkpt><trkpt lat="44.45298069144516" lon="11.297756974710627"><ele>234.0</ele><time>2026-04-18T09:57:02.001Z</time></trkpt><trkpt lat="44.45303793303891" lon="11.29780140166734"><ele>234.5</ele><time>2026-04-18T09:57:03.001Z</time></trkpt><trkpt lat="44.45310066439255" lon="11.297845967669003"><ele>235.0</ele><time>2026-04-18T09:57:04.001Z</time></trkpt><trkpt lat="44.4531529199993" lon="11.2979038180279"><ele>235.5</ele><time>2026-04-18T09:57:05.001Z</time></trkpt><trkpt lat="44.45322384349956" lon="11.297960777856506"><ele>236.0</ele><time>2026-04-18T09:57:06.001Z</time></trkpt><trkpt lat="44.45330647399944" lon="11.298006073272266"><ele>236.5</ele><time>2026-04-18T09:57:07.001Z</time></trkpt><trkpt lat="44.45338768231841" lon="11.298007497446893"><ele>237.0</ele><time>2026-04-18T09:57:08.001Z</time></trkpt><trkpt lat="44.4534762206729" lon="11.297973111686913"><ele>237.0</ele><time>2026-04-18T09:57:09.001Z</time></trkpt><trkpt lat="44.453566910905245" lon="11.297929276993287"><ele>237.0</ele><time>2026-04-18T09:57:10.001Z</time></trkpt><trkpt lat="44.45365850616469" lon="11.29788748640852"><ele>237.0</ele><time>2026-04-18T09:57:11.001Z</time></trkpt><trkpt lat="44.453763386087545" lon="11.297826707300082"><ele>237.0</ele><time>2026-04-18T09:57:12.001Z</time></trkpt><trkpt lat="44.4538634047018" lon="11.297775307680787"><ele>237.0</ele><time>2026-04-18T09:57:13.001Z</time></trkpt><trkpt lat="44.45396081129589" lon="11.2977515877082"><ele>234.8</ele><time>2026-04-18T09:57:14.002Z</time></trkpt><trkpt lat="44.4540691109544" lon="11.297752871359638"><ele>232.6</ele><time>2026-04-18T09:57:15.002Z</time></trkpt><trkpt lat="44.45416679595976" lon="11.29777388842331"><ele>230.40000000000003</ele><time>2026-04-18T09:57:16.002Z</time></trkpt><trkpt lat="44.45426033095157" lon="11.297820066792022"><ele>228.20000000000002</ele><time>2026-04-18T09:57:17.002Z</time></trkpt><trkpt lat="44.4543480702407" lon="11.297879094381042"><ele>226.0</ele><time>2026-04-18T09:57:18.002Z</time></trkpt><trkpt lat="44.454425706322155" lon="11.297948068947829"><ele>226.0</ele><time>2026-04-18T09:57:19.002Z</time></trkpt><trkpt lat="44.45449014201138" lon="11.298030029406899"><ele>226.00000000000003</ele><time>2026-04-18T09:57:20.002Z</time></trkpt><trkpt lat="44.45455239122715" lon="11.298130838167097"><ele>226.00000000000003</ele><time>2026-04-18T09:57:21.002Z</time></trkpt><trkpt lat="44.45461656125789" lon="11.29822938470376"><ele>226.0</ele><time>2026-04-18T09:57:22.002Z</time></trkpt><trkpt lat="44.45468147959826" lon="11.298329422503892"><ele>226.0</ele><time>2026-04-18T09:57:23.002Z</time></trkpt><trkpt lat="44.45474511354042" lon="11.298426233635352"><ele>223.4</ele><time>2026-04-18T09:57:24.002Z</time></trkpt><trkpt lat="44.45480726615452" lon="11.29852360192052"><ele>220.8</ele><time>2026-04-18T09:57:25.002Z</time></trkpt><trkpt lat="44.45487377904925" lon="11.298630341262498"><ele>218.20000000000002</ele><time>2026-04-18T09:57:26.002Z</time></trkpt><trkpt lat="44.4549409858209" lon="11.298726226831233"><ele>215.60000000000002</ele><time>2026-04-18T09:57:27.002Z</time></trkpt><trkpt lat="44.45500741148892" lon="11.298827890492403"><ele>213.0</ele><time>2026-04-18T09:57:28.002Z</time></trkpt><trkpt lat="44.45507186839612" lon="11.298933299179168"><ele>212.8</ele><time>2026-04-18T09:57:29.002Z</time></trkpt><trkpt lat="44.455139513348826" lon="11.299051073521003"><ele>212.60000000000002</ele><time>2026-04-18T09:57:30.002Z</time></trkpt><trkpt lat="44.455205704307794" lon="11.299157681314396"><ele>212.39999999999998</ele><time>2026-04-18T09:57:31.002Z</time></trkpt><trkpt lat="44.455276661385234" lon="11.299269460824995"><ele>212.2</ele><time>2026-04-18T09:57:32.002Z</time></trkpt><trkpt lat="44.455351645528296" lon="11.299391312969524"><ele>212.0</ele><time>2026-04-18T09:57:33.002Z</time></trkpt><trkpt lat="44.45542739172412" lon="11.299512073236631"><ele>212.0</ele><time>2026-04-18T09:57:34.002Z</time></trkpt><trkpt lat="44.4555003857592" lon="11.299623534822736"><ele>212.0</ele><time>2026-04-18T09:57:35.002Z</time></trkpt><trkpt lat="44.45556055858269" lon="11.299712860488814"><ele>212.0</ele><time>2026-04-18T09:57:36.002Z</time></trkpt><trkpt lat="44.455639286677375" lon="11.299780622407283"><ele>212.0</ele><time>2026-04-18T09:57:37.002Z</time></trkpt><trkpt lat="44.4557197854984" lon="11.29983286461643"><ele>212.0</ele><time>2026-04-18T09:57:38.002Z</time></trkpt><trkpt lat="44.45580444166626" lon="11.299865681638067"><ele>212.0</ele><time>2026-04-18T09:57:39.002Z</time></trkpt><trkpt lat="44.45589152605662" lon="11.299882524100418"><ele>212.0</ele><time>2026-04-18T09:57:40.002Z</time></trkpt><trkpt lat="44.45599177120582" lon="11.29988860021919"><ele>212.0</ele><time>2026-04-18T09:57:41.002Z</time></trkpt><trkpt lat="44.4560997080432" lon="11.299883079798862"><ele>212.0</ele><time>2026-04-18T09:57:42.002Z</time></trkpt><trkpt lat="44.45620419938906" lon="11.29986003818414"><ele>212.0</ele><time>2026-04-18T09:57:43.002Z</time></trkpt><trkpt lat="44.45630222306019" lon="11.299827852724627"><ele>211.8</ele><time>2026-04-18T09:57:44.002Z</time></trkpt><trkpt lat="44.45639931423458" lon="11.299781266793657"><ele>211.6</ele><time>2026-04-18T09:57:45.002Z</time></trkpt><trkpt lat="44.456490894057985" lon="11.299720028677038"><ele>211.4</ele><time>2026-04-18T09:57:46.002Z</time></trkpt><trkpt lat="44.456571393047675" lon="11.299647075578841"><ele>211.20000000000002</ele><time>2026-04-18T09:57:47.002Z</time></trkpt><trkpt lat="44.4566445543152" lon="11.299555172416014"><ele>211.0</ele><time>2026-04-18T09:57:48.003Z</time></trkpt><trkpt lat="44.45671241337774" lon="11.299459514219295"><ele>210.83333333333331</ele><time>2026-04-18T09:57:49.003Z</time></trkpt><trkpt lat="44.4567746468738" lon="11.299380310585216"><ele>210.66666666666666</ele><time>2026-04-18T09:57:50.003Z</time></trkpt><trkpt lat="44.45684765650454" lon="11.299316889012141"><ele>210.5</ele><time>2026-04-18T09:57:51.003Z</time></trkpt><trkpt lat="44.456929656221284" lon="11.299276072215154"><ele>210.33333333333331</ele><time>2026-04-18T09:57:52.003Z</time></trkpt><trkpt lat="44.457008808005114" lon="11.29923928701659"><ele>210.16666666666666</ele><time>2026-04-18T09:57:53.003Z</time></trkpt><trkpt lat="44.45708454576004" lon="11.299195576005351"><ele>210.0</ele><time>2026-04-18T09:57:54.003Z</time></trkpt><trkpt lat="44.45715620545308" lon="11.29916492800527"><ele>210.0</ele><time>2026-04-18T09:57:55.003Z</time></trkpt><trkpt lat="44.45723699582774" lon="11.299138101232753"><ele>210.0</ele><time>2026-04-18T09:57:56.003Z</time></trkpt><trkpt lat="44.45732603581918" lon="11.299133857367927"><ele>210.0</ele><time>2026-04-18T09:57:57.003Z</time></trkpt><trkpt lat="44.45742213983908" lon="11.29915819773267"><ele>210.0</ele><time>2026-04-18T09:57:58.003Z</time></trkpt><trkpt lat="44.45752526973976" lon="11.299192390010935"><ele>210.0</ele><time>2026-04-18T09:57:59.003Z</time></trkpt><trkpt lat="44.457620615033086" lon="11.29923125008295"><ele>210.0</ele><time>2026-04-18T09:58:00.003Z</time></trkpt><trkpt lat="44.45770783763573" lon="11.299263235879163"><ele>210.0</ele><time>2026-04-18T09:58:01.003Z</time></trkpt><trkpt lat="44.45778707737405" lon="11.299298475215974"><ele>210.0</ele><time>2026-04-18T09:58:02.003Z</time></trkpt><trkpt lat="44.45786133750339" lon="11.29932470420643"><ele>210.0</ele><time>2026-04-18T09:58:03.003Z</time></trkpt><trkpt lat="44.45792576110562" lon="11.299349775009999"><ele>210.0</ele><time>2026-04-18T09:58:04.003Z</time></trkpt><trkpt lat="44.457997222154" lon="11.29936427157867"><ele>210.0</ele><time>2026-04-18T09:58:05.003Z</time></trkpt><trkpt lat="44.45807248532216" lon="11.299366158630566"><ele>210.5</ele><time>2026-04-18T09:58:06.003Z</time></trkpt><trkpt lat="44.45815883084307" lon="11.299351568810025"><ele>211.0</ele><time>2026-04-18T09:58:07.003Z</time></trkpt><trkpt lat="44.45823631668453" lon="11.299329351699697"><ele>211.5</ele><time>2026-04-18T09:58:08.003Z</time></trkpt><trkpt lat="44.4583125784965" lon="11.299292143927927"><ele>212.0</ele><time>2026-04-18T09:58:09.003Z</time></trkpt><trkpt lat="44.45839584876059" lon="11.29924820735626"><ele>212.5</ele><time>2026-04-18T09:58:10.003Z</time></trkpt><trkpt lat="44.458479704533666" lon="11.299199114343175"><ele>213.0</ele><time>2026-04-18T09:58:11.003Z</time></trkpt><trkpt lat="44.45855321874052" lon="11.299151542857647"><ele>213.0</ele><time>2026-04-18T09:58:12.003Z</time></trkpt><trkpt lat="44.45862044319547" lon="11.299098104050064"><ele>213.0</ele><time>2026-04-18T09:58:13.003Z</time></trkpt><trkpt lat="44.458690972384716" lon="11.299039005440028"><ele>213.0</ele><time>2026-04-18T09:58:14.003Z</time></trkpt><trkpt lat="44.45875761193225" lon="11.298963102318979"><ele>213.0</ele><time>2026-04-18T09:58:15.003Z</time></trkpt><trkpt lat="44.458826826545106" lon="11.298882589248613"><ele>213.0</ele><time>2026-04-18T09:58:16.003Z</time></trkpt><trkpt lat="44.458895621945985" lon="11.298796592596686"><ele>213.0</ele><time>2026-04-18T09:58:17.003Z</time></trkpt><trkpt lat="44.45895924799979" lon="11.2987031405713"><ele>214.83333333333334</ele><time>2026-04-18T09:58:18Z</time></trkpt><trkpt lat="44.45901911979874" lon="11.298599777725714"><ele>216.66666666666669</ele><time>2026-04-18T09:58:19Z</time></trkpt><trkpt lat="44.45907383968599" lon="11.298513951940787"><ele>218.5</ele><time>2026-04-18T09:58:20Z</time></trkpt><trkpt lat="44.45912150333357" lon="11.298438003205385"><ele>220.33333333333334</ele><time>2026-04-18T09:58:21Z</time></trkpt><trkpt lat="44.45917973309928" lon="11.29838778059284"><ele>222.16666666666669</ele><time>2026-04-18T09:58:22Z</time></trkpt><trkpt lat="44.45930865345856" lon="11.29841526853637"><ele>224.0</ele><time>2026-04-18T09:58:24Z</time></trkpt><trkpt lat="44.4593849355444" lon="11.298458774832532"><ele>224.0</ele><time>2026-04-18T09:58:25Z</time></trkpt><trkpt lat="44.4594515230129" lon="11.298518788371887"><ele>223.99999999999997</ele><time>2026-04-18T09:58:26Z</time></trkpt><trkpt lat="44.4595130103238" lon="11.298566151279177"><ele>223.99999999999997</ele><time>2026-04-18T09:58:27Z</time></trkpt><trkpt lat="44.45958911709611" lon="11.298588611859403"><ele>224.0</ele><time>2026-04-18T09:58:28Z</time></trkpt><trkpt lat="44.459699245402774" lon="11.298612532798607"><ele>224.0</ele><time>2026-04-18T09:58:30Z</time></trkpt><trkpt lat="44.459827182234044" lon="11.298649415346384"><ele>223.85714285714286</ele><time>2026-04-18T09:58:32Z</time></trkpt><trkpt lat="44.45988907248298" lon="11.298679778115053"><ele>223.71428571428572</ele><time>2026-04-18T09:58:33Z</time></trkpt><trkpt lat="44.459946062713094" lon="11.298721271598929"><ele>223.57142857142856</ele><time>2026-04-18T09:58:34Z</time></trkpt><trkpt lat="44.46000836403316" lon="11.298776781491398"><ele>223.42857142857144</ele><time>2026-04-18T09:58:35Z</time></trkpt><trkpt lat="44.46006012451252" lon="11.298844430291949"><ele>223.28571428571428</ele><time>2026-04-18T09:58:36Z</time></trkpt><trkpt lat="44.460114261018276" lon="11.298935341881338"><ele>223.14285714285714</ele><time>2026-04-18T09:58:37Z</time></trkpt><trkpt lat="44.460164447318604" lon="11.299034120650498"><ele>223.0</ele><time>2026-04-18T09:58:38Z</time></trkpt><trkpt lat="44.46021113699721" lon="11.299149332506667"><ele>224.33333333333331</ele><time>2026-04-18T09:58:39Z</time></trkpt><trkpt lat="44.46026791779311" lon="11.299248666607633"><ele>225.66666666666666</ele><time>2026-04-18T09:58:40Z</time></trkpt><trkpt lat="44.4603064639354" lon="11.299344215055623"><ele>227.0</ele><time>2026-04-18T09:58:41Z</time></trkpt><trkpt lat="44.46035040764144" lon="11.29942396214368"><ele>228.33333333333331</ele><time>2026-04-18T09:58:42Z</time></trkpt><trkpt lat="44.46040907253507" lon="11.299492266107302"><ele>229.66666666666666</ele><time>2026-04-18T09:58:43Z</time></trkpt><trkpt lat="44.460468989113075" lon="11.299564476154652"><ele>231.0</ele><time>2026-04-18T09:58:44Z</time></trkpt><trkpt lat="44.46053181322753" lon="11.299652878181732"><ele>231.0</ele><time>2026-04-18T09:58:45Z</time></trkpt><trkpt lat="44.46059274132736" lon="11.299725307033354"><ele>231.0</ele><time>2026-04-18T09:58:46Z</time></trkpt><trkpt lat="44.46066147260198" lon="11.299804342462334"><ele>231.0</ele><time>2026-04-18T09:58:47Z</time></trkpt><trkpt lat="44.46072684639591" lon="11.299883088101296"><ele>231.0</ele><time>2026-04-18T09:58:48Z</time></trkpt><trkpt lat="44.46079547882569" lon="11.299969086582582"><ele>231.0</ele><time>2026-04-18T09:58:49Z</time></trkpt><trkpt lat="44.46086181351084" lon="11.300047876246184"><ele>231.0</ele><time>2026-04-18T09:58:50Z</time></trkpt><trkpt lat="44.46093218552179" lon="11.300118019603858"><ele>232.16666666666666</ele><time>2026-04-18T09:58:51.001Z</time></trkpt><trkpt lat="44.46100321033236" lon="11.30019495266446"><ele>233.33333333333331</ele><time>2026-04-18T09:58:52.001Z</time></trkpt><trkpt lat="44.461067130228294" lon="11.300273428665854"><ele>234.5</ele><time>2026-04-18T09:58:53.001Z</time></trkpt><trkpt lat="44.46113197791735" lon="11.300346080040073"><ele>235.66666666666666</ele><time>2026-04-18T09:58:54.001Z</time></trkpt><trkpt lat="44.461190188874674" lon="11.300427988393546"><ele>236.83333333333331</ele><time>2026-04-18T09:58:55.001Z</time></trkpt><trkpt lat="44.46124991399272" lon="11.300505631152785"><ele>238.0</ele><time>2026-04-18T09:58:56.001Z</time></trkpt><trkpt lat="44.46131256460486" lon="11.300578919237799"><ele>240.16666666666666</ele><time>2026-04-18T09:58:57.001Z</time></trkpt><trkpt lat="44.461368753867966" lon="11.30065354110336"><ele>242.33333333333331</ele><time>2026-04-18T09:58:58.001Z</time></trkpt><trkpt lat="44.46142924558728" lon="11.300720422418435"><ele>244.5</ele><time>2026-04-18T09:58:59.001Z</time></trkpt><trkpt lat="44.4614927162888" lon="11.300770342559307"><ele>246.66666666666669</ele><time>2026-04-18T09:59:00.001Z</time></trkpt><trkpt lat="44.4615613347125" lon="11.300827641278158"><ele>248.83333333333334</ele><time>2026-04-18T09:59:01.001Z</time></trkpt><trkpt lat="44.46163865698957" lon="11.30087600696704"><ele>251.0</ele><time>2026-04-18T09:59:02.001Z</time></trkpt><trkpt lat="44.46171679970692" lon="11.300927554240172"><ele>251.0</ele><time>2026-04-18T09:59:03.001Z</time></trkpt><trkpt lat="44.46180285865954" lon="11.300980721457076"><ele>251.00000000000003</ele><time>2026-04-18T09:59:04.001Z</time></trkpt><trkpt lat="44.46190350606957" lon="11.301020776840044"><ele>251.00000000000003</ele><time>2026-04-18T09:59:05.001Z</time></trkpt><trkpt lat="44.46200995465231" lon="11.301048229836868"><ele>251.0</ele><time>2026-04-18T09:59:06.001Z</time></trkpt><trkpt lat="44.46211182764152" lon="11.301091144640742"><ele>251.0</ele><time>2026-04-18T09:59:07.001Z</time></trkpt><trkpt lat="44.4622105379141" lon="11.30113134554593"><ele>253.20000000000002</ele><time>2026-04-18T09:59:08.001Z</time></trkpt><trkpt lat="44.462294515526835" lon="11.301192104777472"><ele>255.40000000000003</ele><time>2026-04-18T09:59:09.001Z</time></trkpt><trkpt lat="44.46240960550682" lon="11.3012522587977"><ele>257.6</ele><time>2026-04-18T09:59:10.001Z</time></trkpt><trkpt lat="44.46250653821996" lon="11.301288330510012"><ele>259.8</ele><time>2026-04-18T09:59:11.001Z</time></trkpt><trkpt lat="44.46260262263592" lon="11.301286714119492"><ele>262.0</ele><time>2026-04-18T09:59:12.001Z</time></trkpt><trkpt lat="44.462710655671586" lon="11.3013282360223"><ele>262.0</ele><time>2026-04-18T09:59:13.001Z</time></trkpt><trkpt lat="44.46282920466862" lon="11.301306768489553"><ele>262.0</ele><time>2026-04-18T09:59:14.001Z</time></trkpt><trkpt lat="44.4629380266248" lon="11.30132142081847"><ele>262.0</ele><time>2026-04-18T09:59:15.001Z</time></trkpt><trkpt lat="44.46304511683561" lon="11.301317399697853"><ele>262.0</ele><time>2026-04-18T09:59:16.001Z</time></trkpt><trkpt lat="44.46315352565605" lon="11.301331261737362"><ele>262.0</ele><time>2026-04-18T09:59:17.001Z</time></trkpt><trkpt lat="44.463250522637" lon="11.30133260800664"><ele>261.8571428571429</ele><time>2026-04-18T09:59:18.001Z</time></trkpt><trkpt lat="44.46332589322276" lon="11.301322833237599"><ele>261.7142857142857</ele><time>2026-04-18T09:59:19.001Z</time></trkpt><trkpt lat="44.46340227846205" lon="11.301298170585744"><ele>261.57142857142856</ele><time>2026-04-18T09:59:20.001Z</time></trkpt><trkpt lat="44.463473341901846" lon="11.301261998315537"><ele>261.42857142857144</ele><time>2026-04-18T09:59:21.001Z</time></trkpt><trkpt lat="44.46353129756926" lon="11.301213977760124"><ele>261.2857142857143</ele><time>2026-04-18T09:59:22.001Z</time></trkpt><trkpt lat="44.46360017411904" lon="11.30118544778181"><ele>261.14285714285717</ele><time>2026-04-18T09:59:23.001Z</time></trkpt><trkpt lat="44.463672356802995" lon="11.301138249781834"><ele>261.0</ele><time>2026-04-18T09:59:24.001Z</time></trkpt><trkpt lat="44.463752493331015" lon="11.301071304047323"><ele>259.1666666666667</ele><time>2026-04-18T09:59:26.002Z</time></trkpt><trkpt lat="44.463829345710536" lon="11.301013643329595"><ele>257.3333333333333</ele><time>2026-04-18T09:59:28.002Z</time></trkpt><trkpt lat="44.46388850772957" lon="11.300973015251014"><ele>255.5</ele><time>2026-04-18T09:59:29.002Z</time></trkpt><trkpt lat="44.46395492861288" lon="11.30093219559178"><ele>253.66666666666666</ele><time>2026-04-18T09:59:30.002Z</time></trkpt><trkpt lat="44.464026200261586" lon="11.300894582099689"><ele>251.83333333333331</ele><time>2026-04-18T09:59:31.002Z</time></trkpt><trkpt lat="44.46410664791169" lon="11.300862828869052"><ele>250.0</ele><time>2026-04-18T09:59:32.002Z</time></trkpt><trkpt lat="44.46419354861948" lon="11.300848624844367"><ele>249.99999999999997</ele><time>2026-04-18T09:59:33.002Z</time></trkpt><trkpt lat="44.464282046810965" lon="11.300858552578976"><ele>250.0</ele><time>2026-04-18T09:59:34.002Z</time></trkpt><trkpt lat="44.46436507582575" lon="11.300872752504853"><ele>250.0</ele><time>2026-04-18T09:59:35.002Z</time></trkpt><trkpt lat="44.46444710760351" lon="11.300880636610147"><ele>250.0</ele><time>2026-04-18T09:59:36.002Z</time></trkpt><trkpt lat="44.464571751093494" lon="11.300885734479081"><ele>249.99999999999997</ele><time>2026-04-18T09:59:38.002Z</time></trkpt><trkpt lat="44.46463551139965" lon="11.300887146470684"><ele>250.0</ele><time>2026-04-18T09:59:39.002Z</time></trkpt><trkpt lat="44.46470201384489" lon="11.300877052190666"><ele>250.16666666666666</ele><time>2026-04-18T09:59:40.002Z</time></trkpt><trkpt lat="44.464777633812425" lon="11.300853314751661"><ele>250.33333333333331</ele><time>2026-04-18T09:59:41.002Z</time></trkpt><trkpt lat="44.46484691707468" lon="11.300843054799964"><ele>250.5</ele><time>2026-04-18T09:59:42.002Z</time></trkpt><trkpt lat="44.46491731330572" lon="11.300842887019325"><ele>250.66666666666669</ele><time>2026-04-18T09:59:43.002Z</time></trkpt><trkpt lat="44.465001464112405" lon="11.300849440854028"><ele>250.83333333333334</ele><time>2026-04-18T09:59:44.002Z</time></trkpt><trkpt lat="44.46509094296365" lon="11.300856813424202"><ele>251.0</ele><time>2026-04-18T09:59:45.002Z</time></trkpt><trkpt lat="44.46519337801782" lon="11.300859216021239"><ele>251.0</ele><time>2026-04-18T09:59:46.002Z</time></trkpt><trkpt lat="44.46529396712704" lon="11.300850399169775"><ele>251.00000000000003</ele><time>2026-04-18T09:59:47.002Z</time></trkpt><trkpt lat="44.46539421462251" lon="11.300836979165082"><ele>251.00000000000003</ele><time>2026-04-18T09:59:48.002Z</time></trkpt><trkpt lat="44.465488391521895" lon="11.300816503009619"><ele>251.0</ele><time>2026-04-18T09:59:49.002Z</time></trkpt><trkpt lat="44.46558730069275" lon="11.300767837445873"><ele>251.0</ele><time>2026-04-18T09:59:50.002Z</time></trkpt><trkpt lat="44.46567856867791" lon="11.300721143858583"><ele>250.83333333333334</ele><time>2026-04-18T09:59:51.002Z</time></trkpt><trkpt lat="44.46576019280155" lon="11.300667895681629"><ele>250.66666666666669</ele><time>2026-04-18T09:59:52.002Z</time></trkpt><trkpt lat="44.465825085305376" lon="11.300631632460803"><ele>250.5</ele><time>2026-04-18T09:59:53.002Z</time></trkpt><trkpt lat="44.465892242389586" lon="11.300596122891424"><ele>250.33333333333331</ele><time>2026-04-18T09:59:54.002Z</time></trkpt><trkpt lat="44.46597122050063" lon="11.300568250958555"><ele>250.16666666666666</ele><time>2026-04-18T09:59:55.002Z</time></trkpt><trkpt lat="44.466053824261635" lon="11.300539234804159"><ele>250.0</ele><time>2026-04-18T09:59:56.002Z</time></trkpt><trkpt lat="44.46613824164805" lon="11.300521947533495"><ele>250.4</ele><time>2026-04-18T09:59:57.002Z</time></trkpt><trkpt lat="44.46623024477969" lon="11.300531618592787"><ele>250.8</ele><time>2026-04-18T09:59:58.002Z</time></trkpt><trkpt lat="44.46631845647709" lon="11.300557179691697"><ele>251.2</ele><time>2026-04-18T09:59:59.002Z</time></trkpt><trkpt lat="44.46638646854218" lon="11.300581533695622"><ele>251.6</ele><time>2026-04-18T10:00:00.002Z</time></trkpt><trkpt lat="44.46650506206581" lon="11.300627266390599"><ele>252.0</ele><time>2026-04-18T10:00:02.003Z</time></trkpt><trkpt lat="44.4666172482914" lon="11.300675011843968"><ele>252.0</ele><time>2026-04-18T10:00:04.003Z</time></trkpt><trkpt lat="44.46672011310144" lon="11.300712710123825"><ele>252.0</ele><time>2026-04-18T10:00:06.003Z</time></trkpt><trkpt lat="44.46683758095342" lon="11.30072689131901"><ele>252.0</ele><time>2026-04-18T10:00:08.003Z</time></trkpt><trkpt lat="44.466951483321246" lon="11.300820116808916"><ele>252.0</ele><time>2026-04-18T10:00:10.003Z</time></trkpt><trkpt lat="44.4670131981137" lon="11.300897604232874"><ele>252.0</ele><time>2026-04-18T10:00:11.003Z</time></trkpt><trkpt lat="44.46708265006483" lon="11.300968979233621"><ele>254.39999999999998</ele><time>2026-04-18T10:00:12.003Z</time></trkpt><trkpt lat="44.467154501612214" lon="11.301044782766885"><ele>256.79999999999995</ele><time>2026-04-18T10:00:13.003Z</time></trkpt><trkpt lat="44.467229714994744" lon="11.30111723737665"><ele>259.2</ele><time>2026-04-18T10:00:14.003Z</time></trkpt><trkpt lat="44.46731094873341" lon="11.301180427458712"><ele>261.59999999999997</ele><time>2026-04-18T10:00:15.003Z</time></trkpt><trkpt lat="44.46739014751623" lon="11.301251848350013"><ele>264.0</ele><time>2026-04-18T10:00:16.003Z</time></trkpt><trkpt lat="44.467464996522146" lon="11.301342173488813"><ele>260.8</ele><time>2026-04-18T10:00:17.003Z</time></trkpt><trkpt lat="44.46754909580689" lon="11.30143154024793"><ele>257.59999999999997</ele><time>2026-04-18T10:00:18.003Z</time></trkpt><trkpt lat="44.46763133417448" lon="11.301519319018078"><ele>254.4</ele><time>2026-04-18T10:00:19.003Z</time></trkpt><trkpt lat="44.467709409060554" lon="11.301617850567828"><ele>251.2</ele><time>2026-04-18T10:00:20.003Z</time></trkpt><trkpt lat="44.46778054939909" lon="11.301702730501857"><ele>248.0</ele><time>2026-04-18T10:00:21.003Z</time></trkpt><trkpt lat="44.46784098465099" lon="11.301786083286503"><ele>248.00000000000003</ele><time>2026-04-18T10:00:22.003Z</time></trkpt><trkpt lat="44.467896799328635" lon="11.301870315151422"><ele>248.0</ele><time>2026-04-18T10:00:23.003Z</time></trkpt><trkpt lat="44.46794706336191" lon="11.301955570231575"><ele>248.0</ele><time>2026-04-18T10:00:23.999Z</time></trkpt><trkpt lat="44.46800179634273" lon="11.302048512556961"><ele>248.0</ele><time>2026-04-18T10:00:24.999Z</time></trkpt><trkpt lat="44.46804672777578" lon="11.302139638815557"><ele>248.00000000000003</ele><time>2026-04-18T10:00:25.999Z</time></trkpt><trkpt lat="44.468093658007746" lon="11.30221868859063"><ele>248.0</ele><time>2026-04-18T10:00:26.999Z</time></trkpt><trkpt lat="44.468149002218" lon="11.302303743170413"><ele>249.66666666666669</ele><time>2026-04-18T10:00:27.999Z</time></trkpt><trkpt lat="44.46819673755569" lon="11.30239776427337"><ele>251.33333333333334</ele><time>2026-04-18T10:00:28.999Z</time></trkpt><trkpt lat="44.46826118882747" lon="11.302470757306427"><ele>253.0</ele><time>2026-04-18T10:00:29.999Z</time></trkpt><trkpt lat="44.46832324618565" lon="11.302554268619422"><ele>254.66666666666669</ele><time>2026-04-18T10:00:30.999Z</time></trkpt><trkpt lat="44.46838464395174" lon="11.302633728659876"><ele>256.3333333333333</ele><time>2026-04-18T10:00:31.999Z</time></trkpt><trkpt lat="44.468444567490785" lon="11.302710815056479"><ele>258.0</ele><time>2026-04-18T10:00:32.999Z</time></trkpt><trkpt lat="44.468541142462065" lon="11.302789403426331"><ele>258.0</ele><time>2026-04-18T10:00:35Z</time></trkpt><trkpt lat="44.4686348928741" lon="11.30284936700863"><ele>258.0</ele><time>2026-04-18T10:00:37Z</time></trkpt><trkpt lat="44.46870436084938" lon="11.302888802256373"><ele>258.0</ele><time>2026-04-18T10:00:38Z</time></trkpt><trkpt lat="44.46878487802276" lon="11.302905990706266"><ele>258.0</ele><time>2026-04-18T10:00:39Z</time></trkpt><trkpt lat="44.46887052795435" lon="11.302900094569365"><ele>258.0</ele><time>2026-04-18T10:00:40Z</time></trkpt><trkpt lat="44.46894849947347" lon="11.302832101944272"><ele>258.0</ele><time>2026-04-18T10:00:41Z</time></trkpt><trkpt lat="44.46901469809015" lon="11.302736449870414"><ele>259.4</ele><time>2026-04-18T10:00:42Z</time></trkpt><trkpt lat="44.46907667072106" lon="11.302647073522635"><ele>260.8</ele><time>2026-04-18T10:00:43Z</time></trkpt><trkpt lat="44.46914361041559" lon="11.302542614146473"><ele>262.2</ele><time>2026-04-18T10:00:44Z</time></trkpt><trkpt lat="44.46921621277363" lon="11.302450095707886"><ele>263.6</ele><time>2026-04-18T10:00:45Z</time></trkpt><trkpt lat="44.469287210181406" lon="11.302357036755614"><ele>265.0</ele><time>2026-04-18T10:00:46Z</time></trkpt><trkpt lat="44.469346673074924" lon="11.302284763534715"><ele>265.8</ele><time>2026-04-18T10:00:47Z</time></trkpt><trkpt lat="44.46942001516965" lon="11.302200575685095"><ele>266.6</ele><time>2026-04-18T10:00:49Z</time></trkpt><trkpt lat="44.469468174624176" lon="11.302137917485245"><ele>267.4</ele><time>2026-04-18T10:00:50Z</time></trkpt><trkpt lat="44.46953271164076" lon="11.302054705416657"><ele>268.2</ele><time>2026-04-18T10:00:51Z</time></trkpt><trkpt lat="44.46962125534055" lon="11.301955724964419"><ele>269.0</ele><time>2026-04-18T10:00:52Z</time></trkpt><trkpt lat="44.46972327903461" lon="11.301856198925961"><ele>269.0</ele><time>2026-04-18T10:00:53Z</time></trkpt><trkpt lat="44.469839856754085" lon="11.301759751407372"><ele>269.0</ele><time>2026-04-18T10:00:54Z</time></trkpt><trkpt lat="44.46994136285655" lon="11.301683283237617"><ele>269.0</ele><time>2026-04-18T10:00:55Z</time></trkpt><trkpt lat="44.47002495392879" lon="11.301623507776943"><ele>269.0</ele><time>2026-04-18T10:00:56Z</time></trkpt><trkpt lat="44.470112348564385" lon="11.301565823823449"><ele>269.0</ele><time>2026-04-18T10:00:57Z</time></trkpt><trkpt lat="44.47020276230979" lon="11.301503662454762"><ele>268.59999999999997</ele><time>2026-04-18T10:00:58Z</time></trkpt><trkpt lat="44.470274454570664" lon="11.30141150070136"><ele>268.2</ele><time>2026-04-18T10:00:59Z</time></trkpt><trkpt lat="44.47031481889497" lon="11.301268742954257"><ele>267.79999999999995</ele><time>2026-04-18T10:01:00Z</time></trkpt><trkpt lat="44.47030828197388" lon="11.30111812462722"><ele>267.4</ele><time>2026-04-18T10:01:01.001Z</time></trkpt><trkpt lat="44.47032884777976" lon="11.30095728455299"><ele>267.0</ele><time>2026-04-18T10:01:02.001Z</time></trkpt><trkpt lat="44.47032588650483" lon="11.300783636608571"><ele>267.0</ele><time>2026-04-18T10:01:03.001Z</time></trkpt><trkpt lat="44.47031384663" lon="11.300611879976765"><ele>267.0</ele><time>2026-04-18T10:01:04.001Z</time></trkpt><trkpt lat="44.47027346005084" lon="11.300446976586269"><ele>267.0</ele><time>2026-04-18T10:01:05.001Z</time></trkpt><trkpt lat="44.470224156471595" lon="11.300291745761749"><ele>267.0</ele><time>2026-04-18T10:01:06.001Z</time></trkpt><trkpt lat="44.470177276968876" lon="11.300135972087498"><ele>264.6</ele><time>2026-04-18T10:01:07.001Z</time></trkpt><trkpt lat="44.4701226765253" lon="11.299990757082082"><ele>262.2</ele><time>2026-04-18T10:01:08.001Z</time></trkpt><trkpt lat="44.47007084579299" lon="11.299865733269632"><ele>259.8</ele><time>2026-04-18T10:01:09.001Z</time></trkpt><trkpt lat="44.47003110673355" lon="11.299756185285458"><ele>257.4</ele><time>2026-04-18T10:01:10.001Z</time></trkpt><trkpt lat="44.46998377438553" lon="11.2996596541437"><ele>255.0</ele><time>2026-04-18T10:01:11.001Z</time></trkpt><trkpt lat="44.46993878292511" lon="11.299561064297562"><ele>252.6</ele><time>2026-04-18T10:01:12.001Z</time></trkpt><trkpt lat="44.469893571619025" lon="11.299462740538099"><ele>250.2</ele><time>2026-04-18T10:01:13.001Z</time></trkpt><trkpt lat="44.46984345583979" lon="11.299362922751076"><ele>247.8</ele><time>2026-04-18T10:01:14.001Z</time></trkpt><trkpt lat="44.46979308656232" lon="11.299264063480008"><ele>245.4</ele><time>2026-04-18T10:01:15.001Z</time></trkpt><trkpt lat="44.46973543419879" lon="11.29916252997958"><ele>243.0</ele><time>2026-04-18T10:01:16.001Z</time></trkpt><trkpt lat="44.469664803713464" lon="11.299059477028234"><ele>243.0</ele><time>2026-04-18T10:01:17.001Z</time></trkpt><trkpt lat="44.46958345755515" lon="11.298946541988668"><ele>243.0</ele><time>2026-04-18T10:01:18.001Z</time></trkpt><trkpt lat="44.4694988537103" lon="11.298826528800294"><ele>243.0</ele><time>2026-04-18T10:01:19.001Z</time></trkpt><trkpt lat="44.469409976159874" lon="11.298701900913478"><ele>243.0</ele><time>2026-04-18T10:01:20.001Z</time></trkpt><trkpt lat="44.469328213744134" lon="11.298559065604266"><ele>243.0</ele><time>2026-04-18T10:01:21.001Z</time></trkpt><trkpt lat="44.46926920282694" lon="11.298422942481949"><ele>243.0</ele><time>2026-04-18T10:01:22.001Z</time></trkpt><trkpt lat="44.46922730362425" lon="11.298298353925132"><ele>243.0</ele><time>2026-04-18T10:01:23.001Z</time></trkpt><trkpt lat="44.469170341895186" lon="11.298184002482795"><ele>243.0</ele><time>2026-04-18T10:01:24.001Z</time></trkpt><trkpt lat="44.46908522962524" lon="11.298102681476152"><ele>243.0</ele><time>2026-04-18T10:01:25.001Z</time></trkpt><trkpt lat="44.46899437022815" lon="11.298035147359187"><ele>244.4</ele><time>2026-04-18T10:01:26.001Z</time></trkpt><trkpt lat="44.46890920602149" lon="11.297944990647418"><ele>245.8</ele><time>2026-04-18T10:01:27.001Z</time></trkpt><trkpt lat="44.46882921323121" lon="11.297850701375541"><ele>247.2</ele><time>2026-04-18T10:01:28.001Z</time></trkpt><trkpt lat="44.46874946397097" lon="11.297752459330507"><ele>248.6</ele><time>2026-04-18T10:01:29.001Z</time></trkpt><trkpt lat="44.46868859828511" lon="11.297623719796407"><ele>250.0</ele><time>2026-04-18T10:01:30.001Z</time></trkpt><trkpt lat="44.4686886560786" lon="11.297481611267028"><ele>249.99999999999997</ele><time>2026-04-18T10:01:31.001Z</time></trkpt><trkpt lat="44.46869396175348" lon="11.29736231427601"><ele>250.0</ele><time>2026-04-18T10:01:32.002Z</time></trkpt><trkpt lat="44.46868883884901" lon="11.297247104126939"><ele>250.0</ele><time>2026-04-18T10:01:33.002Z</time></trkpt><trkpt lat="44.46868855390185" lon="11.29711626517312"><ele>250.0</ele><time>2026-04-18T10:01:34.002Z</time></trkpt><trkpt lat="44.46868522831249" lon="11.296984934157082"><ele>249.99999999999997</ele><time>2026-04-18T10:01:35.002Z</time></trkpt><trkpt lat="44.46866323431264" lon="11.296869065044568"><ele>250.0</ele><time>2026-04-18T10:01:36.002Z</time></trkpt><trkpt lat="44.4686384534015" lon="11.296752524467156"><ele>248.85714285714283</ele><time>2026-04-18T10:01:37.002Z</time></trkpt><trkpt lat="44.46861684867489" lon="11.296645657332498"><ele>247.71428571428572</ele><time>2026-04-18T10:01:38.002Z</time></trkpt><trkpt lat="44.468590536825864" lon="11.296555009634325"><ele>246.57142857142856</ele><time>2026-04-18T10:01:39.002Z</time></trkpt><trkpt lat="44.46856639622038" lon="11.296453946867318"><ele>245.42857142857142</ele><time>2026-04-18T10:01:40.002Z</time></trkpt><trkpt lat="44.468536871163344" lon="11.296371111446025"><ele>244.28571428571428</ele><time>2026-04-18T10:01:41.002Z</time></trkpt><trkpt lat="44.468499793440714" lon="11.296291150588965"><ele>243.14285714285714</ele><time>2026-04-18T10:01:42.002Z</time></trkpt><trkpt lat="44.46845692307311" lon="11.29620369475799"><ele>242.0</ele><time>2026-04-18T10:01:43.002Z</time></trkpt><trkpt lat="44.468412885530135" lon="11.296130301494198"><ele>239.16666666666669</ele><time>2026-04-18T10:01:44.002Z</time></trkpt><trkpt lat="44.46836498693821" lon="11.296058560990517"><ele>236.33333333333334</ele><time>2026-04-18T10:01:45.002Z</time></trkpt><trkpt lat="44.468320632084655" lon="11.295992594099294"><ele>233.5</ele><time>2026-04-18T10:01:46.002Z</time></trkpt><trkpt lat="44.46828614739255" lon="11.295915771425214"><ele>230.66666666666669</ele><time>2026-04-18T10:01:47.002Z</time></trkpt><trkpt lat="44.468191195896566" lon="11.295795017114152"><ele>227.83333333333334</ele><time>2026-04-18T10:01:49.002Z</time></trkpt><trkpt lat="44.46813438031389" lon="11.295743209651597"><ele>225.0</ele><time>2026-04-18T10:01:50.002Z</time></trkpt><trkpt lat="44.46805962226121" lon="11.295728261855375"><ele>225.0</ele><time>2026-04-18T10:01:51.002Z</time></trkpt><trkpt lat="44.46796913335036" lon="11.29575053870347"><ele>225.0</ele><time>2026-04-18T10:01:52.002Z</time></trkpt><trkpt lat="44.4678805882614" lon="11.295806682090943"><ele>225.0</ele><time>2026-04-18T10:01:53.002Z</time></trkpt><trkpt lat="44.46779891490424" lon="11.295864621950082"><ele>225.0</ele><time>2026-04-18T10:01:54.002Z</time></trkpt><trkpt lat="44.467712453539264" lon="11.295909962411779"><ele>225.0</ele><time>2026-04-18T10:01:55.002Z</time></trkpt><trkpt lat="44.467632745422605" lon="11.29594694181339"><ele>224.83333333333334</ele><time>2026-04-18T10:01:56.002Z</time></trkpt><trkpt lat="44.467549218914186" lon="11.29596765329587"><ele>224.66666666666669</ele><time>2026-04-18T10:01:57.002Z</time></trkpt><trkpt lat="44.46746356772587" lon="11.2959773624127"><ele>224.5</ele><time>2026-04-18T10:01:58.002Z</time></trkpt><trkpt lat="44.46738182832969" lon="11.295963938968708"><ele>224.33333333333334</ele><time>2026-04-18T10:01:59.002Z</time></trkpt><trkpt lat="44.467305699916125" lon="11.295934872522974"><ele>224.16666666666669</ele><time>2026-04-18T10:02:00.002Z</time></trkpt><trkpt lat="44.46723287759421" lon="11.295894108108158"><ele>224.0</ele><time>2026-04-18T10:02:01.002Z</time></trkpt><trkpt lat="44.4671596144702" lon="11.295847013360465"><ele>225.16666666666669</ele><time>2026-04-18T10:02:02.002Z</time></trkpt><trkpt lat="44.46710526693304" lon="11.295771660861723"><ele>226.33333333333334</ele><time>2026-04-18T10:02:03.002Z</time></trkpt><trkpt lat="44.4670681035537" lon="11.295657838043907"><ele>227.5</ele><time>2026-04-18T10:02:04.002Z</time></trkpt><trkpt lat="44.467047365969115" lon="11.295553080569517"><ele>228.66666666666669</ele><time>2026-04-18T10:02:05.003Z</time></trkpt><trkpt lat="44.46703941300473" lon="11.295449517311189"><ele>229.83333333333334</ele><time>2026-04-18T10:02:06.003Z</time></trkpt><trkpt lat="44.467038211295545" lon="11.295350882437923"><ele>231.0</ele><time>2026-04-18T10:02:07.003Z</time></trkpt><trkpt lat="44.46703519001807" lon="11.295211939661455"><ele>231.0</ele><time>2026-04-18T10:02:08.003Z</time></trkpt><trkpt lat="44.46703119373724" lon="11.295102517615735"><ele>231.0</ele><time>2026-04-18T10:02:09.003Z</time></trkpt><trkpt lat="44.46703446318932" lon="11.29497930343356"><ele>231.0</ele><time>2026-04-18T10:02:10.003Z</time></trkpt><trkpt lat="44.46704037370627" lon="11.294854733624783"><ele>231.0</ele><time>2026-04-18T10:02:11.003Z</time></trkpt><trkpt lat="44.467038408448424" lon="11.294725627312522"><ele>231.0</ele><time>2026-04-18T10:02:12.003Z</time></trkpt><trkpt lat="44.467021297798524" lon="11.294601197806918"><ele>231.0</ele><time>2026-04-18T10:02:13.003Z</time></trkpt><trkpt lat="44.466990350495195" lon="11.29447017468228"><ele>228.60000000000002</ele><time>2026-04-18T10:02:14.003Z</time></trkpt><trkpt lat="44.46694323470109" lon="11.294344759581692"><ele>226.20000000000002</ele><time>2026-04-18T10:02:15.003Z</time></trkpt><trkpt lat="44.46688973312187" lon="11.294217368842357"><ele>223.79999999999998</ele><time>2026-04-18T10:02:16.003Z</time></trkpt><trkpt lat="44.46683375557849" lon="11.294086951842253"><ele>221.39999999999998</ele><time>2026-04-18T10:02:17.003Z</time></trkpt><trkpt lat="44.46677207771546" lon="11.293956596576644"><ele>219.0</ele><time>2026-04-18T10:02:18.003Z</time></trkpt><trkpt lat="44.466721002855365" lon="11.29382276676968"><ele>217.39999999999998</ele><time>2026-04-18T10:02:19.003Z</time></trkpt><trkpt lat="44.46666500612495" lon="11.29369717245479"><ele>215.79999999999998</ele><time>2026-04-18T10:02:20.003Z</time></trkpt><trkpt lat="44.46661433883216" lon="11.293574032771156"><ele>214.2</ele><time>2026-04-18T10:02:21.003Z</time></trkpt><trkpt lat="44.466563008445945" lon="11.293453307334754"><ele>212.60000000000002</ele><time>2026-04-18T10:02:22.003Z</time></trkpt><trkpt lat="44.466505804682214" lon="11.293347539817953"><ele>211.0</ele><time>2026-04-18T10:02:23.003Z</time></trkpt><trkpt lat="44.466453692272616" lon="11.293238311010544"><ele>210.99999999999997</ele><time>2026-04-18T10:02:24.003Z</time></trkpt><trkpt lat="44.46642102347953" lon="11.293119721633847"><ele>211.0</ele><time>2026-04-18T10:02:25.003Z</time></trkpt><trkpt lat="44.466416298205544" lon="11.293000898047003"><ele>211.0</ele><time>2026-04-18T10:02:26.003Z</time></trkpt><trkpt lat="44.4664320143203" lon="11.292880359096282"><ele>211.0</ele><time>2026-04-18T10:02:27.003Z</time></trkpt><trkpt lat="44.46645195136967" lon="11.29275511602099"><ele>210.99999999999997</ele><time>2026-04-18T10:02:28.003Z</time></trkpt><trkpt lat="44.46648510284678" lon="11.292637414778556"><ele>211.0</ele><time>2026-04-18T10:02:29.003Z</time></trkpt><trkpt lat="44.46653957538213" lon="11.292530310289756"><ele>210.16666666666666</ele><time>2026-04-18T10:02:29.999Z</time></trkpt><trkpt lat="44.46660866774662" lon="11.292439776503244"><ele>209.33333333333331</ele><time>2026-04-18T10:02:30.999Z</time></trkpt><trkpt lat="44.46667565095508" lon="11.292356061900191"><ele>208.5</ele><time>2026-04-18T10:02:31.999Z</time></trkpt><trkpt lat="44.46674622800974" lon="11.292276233574793"><ele>207.66666666666669</ele><time>2026-04-18T10:02:32.999Z</time></trkpt><trkpt lat="44.46681595344094" lon="11.292203204541655"><ele>206.83333333333334</ele><time>2026-04-18T10:02:33.999Z</time></trkpt><trkpt lat="44.46688152924338" lon="11.292128867251998"><ele>206.0</ele><time>2026-04-18T10:02:34.999Z</time></trkpt><trkpt lat="44.46694725399073" lon="11.292069335007675"><ele>205.20000000000002</ele><time>2026-04-18T10:02:35.999Z</time></trkpt><trkpt lat="44.46702415424817" lon="11.292016944346681"><ele>204.4</ele><time>2026-04-18T10:02:36.999Z</time></trkpt><trkpt lat="44.467111569664524" lon="11.291995672862985"><ele>203.6</ele><time>2026-04-18T10:02:37.999Z</time></trkpt><trkpt lat="44.46720280955319" lon="11.292027179250587"><ele>202.8</ele><time>2026-04-18T10:02:38.999Z</time></trkpt><trkpt lat="44.467301666296116" lon="11.292043152894767"><ele>202.0</ele><time>2026-04-18T10:02:39.999Z</time></trkpt><trkpt lat="44.46740388890208" lon="11.29206610129169"><ele>202.0</ele><time>2026-04-18T10:02:41Z</time></trkpt><trkpt lat="44.46749989191927" lon="11.292087134998207"><ele>202.0</ele><time>2026-04-18T10:02:42Z</time></trkpt><trkpt lat="44.4675974070472" lon="11.29211419589582"><ele>202.0</ele><time>2026-04-18T10:02:43Z</time></trkpt><trkpt lat="44.46768915777576" lon="11.292158649551428"><ele>202.0</ele><time>2026-04-18T10:02:44Z</time></trkpt><trkpt lat="44.467761399267445" lon="11.292226820687299"><ele>202.0</ele><time>2026-04-18T10:02:45Z</time></trkpt><trkpt lat="44.46782816059195" lon="11.292312327700639"><ele>202.6</ele><time>2026-04-18T10:02:46Z</time></trkpt><trkpt lat="44.46790184400524" lon="11.29237754566345"><ele>203.2</ele><time>2026-04-18T10:02:47Z</time></trkpt><trkpt lat="44.467972297981156" lon="11.292455340513856"><ele>203.8</ele><time>2026-04-18T10:02:48Z</time></trkpt><trkpt lat="44.468049263765955" lon="11.292537383405499"><ele>204.4</ele><time>2026-04-18T10:02:49Z</time></trkpt><trkpt lat="44.46814218956002" lon="11.292574085687395"><ele>205.0</ele><time>2026-04-18T10:02:50Z</time></trkpt><trkpt lat="44.468222540291954" lon="11.292628179555878"><ele>205.99999999999997</ele><time>2026-04-18T10:02:51Z</time></trkpt><trkpt lat="44.46829460249799" lon="11.292698423000369"><ele>207.0</ele><time>2026-04-18T10:02:52Z</time></trkpt><trkpt lat="44.46837694743417" lon="11.292747670534867"><ele>208.0</ele><time>2026-04-18T10:02:53Z</time></trkpt><trkpt lat="44.4684616624385" lon="11.292793001499366"><ele>209.0</ele><time>2026-04-18T10:02:54Z</time></trkpt><trkpt lat="44.46854860379882" lon="11.292831825695554"><ele>209.99999999999997</ele><time>2026-04-18T10:02:55Z</time></trkpt><trkpt lat="44.46862644904263" lon="11.292858554231707"><ele>211.0</ele><time>2026-04-18T10:02:56Z</time></trkpt><trkpt lat="44.46871192667198" lon="11.292876566814696"><ele>210.0</ele><time>2026-04-18T10:02:57Z</time></trkpt><trkpt lat="44.468805759579325" lon="11.292894247913178"><ele>209.0</ele><time>2026-04-18T10:02:58Z</time></trkpt><trkpt lat="44.46890012084856" lon="11.292867288053719"><ele>208.0</ele><time>2026-04-18T10:02:59Z</time></trkpt><trkpt lat="44.46899002987073" lon="11.292841533857823"><ele>207.0</ele><time>2026-04-18T10:03:00Z</time></trkpt><trkpt lat="44.46907807333315" lon="11.292805410712878"><ele>206.0</ele><time>2026-04-18T10:03:01Z</time></trkpt><trkpt lat="44.46916740627842" lon="11.292783102396248"><ele>206.00000000000003</ele><time>2026-04-18T10:03:02Z</time></trkpt><trkpt lat="44.46925034329244" lon="11.292766340861307"><ele>206.0</ele><time>2026-04-18T10:03:03Z</time></trkpt><trkpt lat="44.46933529280342" lon="11.292751673370205"><ele>206.0</ele><time>2026-04-18T10:03:04Z</time></trkpt><trkpt lat="44.46941746012986" lon="11.292735017151387"><ele>206.0</ele><time>2026-04-18T10:03:05.001Z</time></trkpt><trkpt lat="44.469496305442135" lon="11.29272807329384"><ele>206.00000000000003</ele><time>2026-04-18T10:03:06.001Z</time></trkpt><trkpt lat="44.46956940895167" lon="11.292704507739133"><ele>206.0</ele><time>2026-04-18T10:03:07.001Z</time></trkpt><trkpt lat="44.46963863221257" lon="11.292678228851981"><ele>207.16666666666669</ele><time>2026-04-18T10:03:08.001Z</time></trkpt><trkpt lat="44.46970688516796" lon="11.292639012911962"><ele>208.33333333333334</ele><time>2026-04-18T10:03:09.001Z</time></trkpt><trkpt lat="44.469777034350926" lon="11.292598779075503"><ele>209.5</ele><time>2026-04-18T10:03:10.001Z</time></trkpt><trkpt lat="44.46984425930262" lon="11.2925597318604"><ele>210.66666666666669</ele><time>2026-04-18T10:03:11.001Z</time></trkpt><trkpt lat="44.46990422525983" lon="11.2925186878416"><ele>211.83333333333334</ele><time>2026-04-18T10:03:12.001Z</time></trkpt><trkpt lat="44.47000090012178" lon="11.292469675248109"><ele>213.0</ele><time>2026-04-18T10:03:14.001Z</time></trkpt><trkpt lat="44.470072307203566" lon="11.292436723101943"><ele>213.0</ele><time>2026-04-18T10:03:16.001Z</time></trkpt><trkpt lat="44.470157331459724" lon="11.292450534392803"><ele>213.0</ele><time>2026-04-18T10:03:19.001Z</time></trkpt><trkpt lat="44.470222464401445" lon="11.292476114553377"><ele>213.0</ele><time>2026-04-18T10:03:21.001Z</time></trkpt><trkpt lat="44.47031277401223" lon="11.292540128233288"><ele>213.0</ele><time>2026-04-18T10:03:23.001Z</time></trkpt><trkpt lat="44.47036079194213" lon="11.29259737777507"><ele>213.0</ele><time>2026-04-18T10:03:24.001Z</time></trkpt><trkpt lat="44.47041543113744" lon="11.29265852167253"><ele>213.0</ele><time>2026-04-18T10:03:25.001Z</time></trkpt><trkpt lat="44.47046483772168" lon="11.29271808080404"><ele>213.0</ele><time>2026-04-18T10:03:26.001Z</time></trkpt><trkpt lat="44.4705485899592" lon="11.292843401432783"><ele>213.0</ele><time>2026-04-18T10:03:28.001Z</time></trkpt><trkpt lat="44.470644569746526" lon="11.292971600800522"><ele>213.0</ele><time>2026-04-18T10:03:30.001Z</time></trkpt><trkpt lat="44.470706235897865" lon="11.293033321007721"><ele>213.0</ele><time>2026-04-18T10:03:31.001Z</time></trkpt><trkpt lat="44.470774961608036" lon="11.29308686559364"><ele>213.0</ele><time>2026-04-18T10:03:32.001Z</time></trkpt><trkpt lat="44.47085169177612" lon="11.293137620897404"><ele>213.83333333333334</ele><time>2026-04-18T10:03:33.001Z</time></trkpt><trkpt lat="44.47091588822885" lon="11.293198514680963"><ele>214.66666666666669</ele><time>2026-04-18T10:03:34.001Z</time></trkpt><trkpt lat="44.4709814719654" lon="11.293249981693487"><ele>215.5</ele><time>2026-04-18T10:03:35.002Z</time></trkpt><trkpt lat="44.47105606572273" lon="11.29330661481578"><ele>216.33333333333334</ele><time>2026-04-18T10:03:36.002Z</time></trkpt><trkpt lat="44.4711314511735" lon="11.293369850413148"><ele>217.16666666666669</ele><time>2026-04-18T10:03:37.002Z</time></trkpt><trkpt lat="44.47120344066564" lon="11.293431203159834"><ele>218.0</ele><time>2026-04-18T10:03:38.002Z</time></trkpt><trkpt lat="44.47127913186365" lon="11.293487318510785"><ele>218.00000000000003</ele><time>2026-04-18T10:03:39.002Z</time></trkpt><trkpt lat="44.47135414708847" lon="11.293540644886416"><ele>218.0</ele><time>2026-04-18T10:03:40.002Z</time></trkpt><trkpt lat="44.471424935168244" lon="11.293577654451209"><ele>218.0</ele><time>2026-04-18T10:03:41.002Z</time></trkpt><trkpt lat="44.47149309486065" lon="11.29361005018008"><ele>218.0</ele><time>2026-04-18T10:03:42.002Z</time></trkpt><trkpt lat="44.47157073918599" lon="11.293655305830223"><ele>218.00000000000003</ele><time>2026-04-18T10:03:44.002Z</time></trkpt><trkpt lat="44.471634222843" lon="11.293676193983513"><ele>218.0</ele><time>2026-04-18T10:04:03.002Z</time></trkpt><trkpt lat="44.47175621439801" lon="11.293700283928471"><ele>218.0</ele><time>2026-04-18T10:04:05.002Z</time></trkpt><trkpt lat="44.47185131758435" lon="11.293707308928118"><ele>218.0</ele><time>2026-04-18T10:04:06.002Z</time></trkpt><trkpt lat="44.471959269512006" lon="11.293709362948295"><ele>218.0</ele><time>2026-04-18T10:04:07.002Z</time></trkpt><trkpt lat="44.47206675202318" lon="11.293701516696874"><ele>218.0</ele><time>2026-04-18T10:04:08.003Z</time></trkpt><trkpt lat="44.47216771694302" lon="11.293678459120276"><ele>218.0</ele><time>2026-04-18T10:04:09.003Z</time></trkpt><trkpt lat="44.47226412456115" lon="11.293649758136775"><ele>219.5</ele><time>2026-04-18T10:04:10.003Z</time></trkpt><trkpt lat="44.47235415530945" lon="11.293577163654929"><ele>221.0</ele><time>2026-04-18T10:04:11.003Z</time></trkpt><trkpt lat="44.47244035015477" lon="11.293481779334082"><ele>222.5</ele><time>2026-04-18T10:04:12.003Z</time></trkpt><trkpt lat="44.472536166569924" lon="11.293370642509212"><ele>224.0</ele><time>2026-04-18T10:04:13.003Z</time></trkpt><trkpt lat="44.47264331600793" lon="11.293256713147647"><ele>224.0</ele><time>2026-04-18T10:04:14.003Z</time></trkpt><trkpt lat="44.47274908972112" lon="11.293136738032953"><ele>224.0</ele><time>2026-04-18T10:04:15.003Z</time></trkpt><trkpt lat="44.47284693716338" lon="11.293030635778097"><ele>224.0</ele><time>2026-04-18T10:04:16.003Z</time></trkpt><trkpt lat="44.47293392231453" lon="11.29294327593869"><ele>224.0</ele><time>2026-04-18T10:04:17.003Z</time></trkpt><trkpt lat="44.47302075894963" lon="11.292881427280415"><ele>223.25</ele><time>2026-04-18T10:04:18.003Z</time></trkpt><trkpt lat="44.47311808090184" lon="11.292841238452292"><ele>222.5</ele><time>2026-04-18T10:04:19.003Z</time></trkpt><trkpt lat="44.47323417381143" lon="11.292820224362728"><ele>221.75</ele><time>2026-04-18T10:04:20.003Z</time></trkpt><trkpt lat="44.47336771191675" lon="11.292817132142925"><ele>221.0</ele><time>2026-04-18T10:04:21.003Z</time></trkpt><trkpt lat="44.47350716626072" lon="11.292845349937014"><ele>221.0</ele><time>2026-04-18T10:04:22.003Z</time></trkpt><trkpt lat="44.473670197142106" lon="11.29285494917588"><ele>221.0</ele><time>2026-04-18T10:04:23.003Z</time></trkpt><trkpt lat="44.47383367602149" lon="11.292883102661495"><ele>221.0</ele><time>2026-04-18T10:04:24.003Z</time></trkpt><trkpt lat="44.473981533360664" lon="11.292927504110363"><ele>221.0</ele><time>2026-04-18T10:04:25.003Z</time></trkpt><trkpt lat="44.47412435907231" lon="11.292955232737278"><ele>221.0</ele><time>2026-04-18T10:04:26.003Z</time></trkpt><trkpt lat="44.47427177536479" lon="11.29297570254027"><ele>221.0</ele><time>2026-04-18T10:04:27.003Z</time></trkpt><trkpt lat="44.474404955475606" lon="11.29299368303964"><ele>221.0</ele><time>2026-04-18T10:04:28.003Z</time></trkpt><trkpt lat="44.474524835089895" lon="11.293009596861026"><ele>222.20000000000002</ele><time>2026-04-18T10:04:29.003Z</time></trkpt><trkpt lat="44.47464176709296" lon="11.293002363082659"><ele>223.40000000000003</ele><time>2026-04-18T10:04:30.003Z</time></trkpt><trkpt lat="44.47476085938827" lon="11.293031657611047"><ele>224.6</ele><time>2026-04-18T10:04:31.003Z</time></trkpt><trkpt lat="44.47486520393152" lon="11.293036386277116"><ele>225.8</ele><time>2026-04-18T10:04:32.003Z</time></trkpt><trkpt lat="44.474951731264085" lon="11.293059353326473"><ele>227.0</ele><time>2026-04-18T10:04:33.003Z</time></trkpt><trkpt lat="44.47502492613973" lon="11.293099598700104"><ele>229.16666666666669</ele><time>2026-04-18T10:04:34.003Z</time></trkpt><trkpt lat="44.47508726605604" lon="11.293131903591947"><ele>231.33333333333334</ele><time>2026-04-18T10:04:35.003Z</time></trkpt><trkpt lat="44.47515487464602" lon="11.29320926000427"><ele>233.5</ele><time>2026-04-18T10:04:36.999Z</time></trkpt><trkpt lat="44.47521497204632" lon="11.29328753924442"><ele>235.66666666666669</ele><time>2026-04-18T10:04:38.999Z</time></trkpt><trkpt lat="44.47526912192632" lon="11.293347669764403"><ele>237.83333333333334</ele><time>2026-04-18T10:04:39.999Z</time></trkpt><trkpt lat="44.475342509546266" lon="11.293420057253044"><ele>240.0</ele><time>2026-04-18T10:04:41Z</time></trkpt><trkpt lat="44.47541635285895" lon="11.293495774046784"><ele>241.2</ele><time>2026-04-18T10:04:42Z</time></trkpt><trkpt lat="44.47550105956617" lon="11.293590060006409"><ele>242.4</ele><time>2026-04-18T10:04:43Z</time></trkpt><trkpt lat="44.47559702481474" lon="11.293684506884537"><ele>243.60000000000002</ele><time>2026-04-18T10:04:44Z</time></trkpt><trkpt lat="44.475672526789786" lon="11.293794902415442"><ele>244.8</ele><time>2026-04-18T10:04:45Z</time></trkpt><trkpt lat="44.47576153555461" lon="11.293887376329767"><ele>246.0</ele><time>2026-04-18T10:04:46Z</time></trkpt><trkpt lat="44.47583351712532" lon="11.294001569452078"><ele>246.0</ele><time>2026-04-18T10:04:47Z</time></trkpt><trkpt lat="44.47589059132946" lon="11.294107745839364"><ele>246.0</ele><time>2026-04-18T10:04:48Z</time></trkpt><trkpt lat="44.47593169975689" lon="11.294201937463438"><ele>246.0</ele><time>2026-04-18T10:04:49Z</time></trkpt><trkpt lat="44.47597027428982" lon="11.294307210127567"><ele>246.0</ele><time>2026-04-18T10:04:51Z</time></trkpt><trkpt lat="44.47600296934188" lon="11.294387838996174"><ele>246.0</ele><time>2026-04-18T10:04:54Z</time></trkpt><trkpt lat="44.47605247922727" lon="11.294497853311105"><ele>246.0</ele><time>2026-04-18T10:04:57Z</time></trkpt><trkpt lat="44.476104118438336" lon="11.294572585242113"><ele>246.0</ele><time>2026-04-18T10:04:59Z</time></trkpt><trkpt lat="44.476182282732395" lon="11.294629211501354"><ele>246.00000000000003</ele><time>2026-04-18T10:05:01Z</time></trkpt><trkpt lat="44.47629494920789" lon="11.294669331173036"><ele>246.00000000000003</ele><time>2026-04-18T10:05:03Z</time></trkpt><trkpt lat="44.47636771667404" lon="11.294684966500286"><ele>246.0</ele><time>2026-04-18T10:05:04Z</time></trkpt><trkpt lat="44.47645702548119" lon="11.294725096326118"><ele>246.0</ele><time>2026-04-18T10:05:05Z</time></trkpt><trkpt lat="44.476557903522696" lon="11.294747789207621"><ele>247.75</ele><time>2026-04-18T10:05:06Z</time></trkpt><trkpt lat="44.476671857224574" lon="11.294770460664797"><ele>249.5</ele><time>2026-04-18T10:05:07Z</time></trkpt><trkpt lat="44.47678784468529" lon="11.294803062995896"><ele>251.25</ele><time>2026-04-18T10:05:08Z</time></trkpt><trkpt lat="44.476905169689424" lon="11.294815432642407"><ele>253.0</ele><time>2026-04-18T10:05:09Z</time></trkpt><trkpt lat="44.47702326792724" lon="11.294803203081782"><ele>252.99999999999997</ele><time>2026-04-18T10:05:10.001Z</time></trkpt><trkpt lat="44.477123134625735" lon="11.294777644775655"><ele>253.0</ele><time>2026-04-18T10:05:11.001Z</time></trkpt><trkpt lat="44.47719722108318" lon="11.294744893432641"><ele>253.0</ele><time>2026-04-18T10:05:12.001Z</time></trkpt><trkpt lat="44.477263832572085" lon="11.294710224270467"><ele>253.0</ele><time>2026-04-18T10:05:13.001Z</time></trkpt><trkpt lat="44.47732885285764" lon="11.294679068013028"><ele>252.99999999999997</ele><time>2026-04-18T10:05:14.001Z</time></trkpt><trkpt lat="44.477389468924464" lon="11.294650283111073"><ele>253.0</ele><time>2026-04-18T10:05:15.001Z</time></trkpt><trkpt lat="44.47749828356685" lon="11.294611665388363"><ele>254.33333333333331</ele><time>2026-04-18T10:05:17.001Z</time></trkpt><trkpt lat="44.47758763781983" lon="11.294589326017556"><ele>255.66666666666666</ele><time>2026-04-18T10:05:19.001Z</time></trkpt><trkpt lat="44.47767765351304" lon="11.29457387477613"><ele>257.0</ele><time>2026-04-18T10:05:21.001Z</time></trkpt><trkpt lat="44.47779776622046" lon="11.294570825020187"><ele>258.3333333333333</ele><time>2026-04-18T10:05:23.001Z</time></trkpt><trkpt lat="44.47786377391167" lon="11.294572046032691"><ele>259.6666666666667</ele><time>2026-04-18T10:05:24.001Z</time></trkpt><trkpt lat="44.477939259337596" lon="11.294581510746955"><ele>261.0</ele><time>2026-04-18T10:05:26.001Z</time></trkpt><trkpt lat="44.478018097320486" lon="11.294583531264543"><ele>261.6666666666667</ele><time>2026-04-18T10:05:31.001Z</time></trkpt><trkpt lat="44.478134295210744" lon="11.29457770518003"><ele>262.3333333333333</ele><time>2026-04-18T10:05:34.001Z</time></trkpt><trkpt lat="44.47820107658984" lon="11.294582570134654"><ele>263.0</ele><time>2026-04-18T10:05:35.001Z</time></trkpt><trkpt lat="44.47827446983212" lon="11.294606064961275"><ele>263.66666666666663</ele><time>2026-04-18T10:05:36.001Z</time></trkpt><trkpt lat="44.47835193557883" lon="11.294646603869893"><ele>264.3333333333333</ele><time>2026-04-18T10:05:37.001Z</time></trkpt><trkpt lat="44.478426386864626" lon="11.294691460565542"><ele>265.0</ele><time>2026-04-18T10:05:38.001Z</time></trkpt><trkpt lat="44.478501315177915" lon="11.294740509655346"><ele>264.6</ele><time>2026-04-18T10:05:39.001Z</time></trkpt><trkpt lat="44.47856770590224" lon="11.294783360566639"><ele>264.2</ele><time>2026-04-18T10:05:40.001Z</time></trkpt><trkpt lat="44.4786270465328" lon="11.294819984907194"><ele>263.8</ele><time>2026-04-18T10:05:41.002Z</time></trkpt><trkpt lat="44.47868454883054" lon="11.294857175463036"><ele>263.4</ele><time>2026-04-18T10:05:42.002Z</time></trkpt><trkpt lat="44.478783706619375" lon="11.294950067764761"><ele>263.0</ele><time>2026-04-18T10:05:44.002Z</time></trkpt><trkpt lat="44.47889145150946" lon="11.295059327859912"><ele>263.5</ele><time>2026-04-18T10:05:46.002Z</time></trkpt><trkpt lat="44.47894126175869" lon="11.295143811636065"><ele>264.0</ele><time>2026-04-18T10:05:47.002Z</time></trkpt><trkpt lat="44.4789845854546" lon="11.295224286783473"><ele>264.5</ele><time>2026-04-18T10:05:48.002Z</time></trkpt><trkpt lat="44.47903176935362" lon="11.295313264665543"><ele>265.0</ele><time>2026-04-18T10:05:49.002Z</time></trkpt><trkpt lat="44.479084072914524" lon="11.29540439218374"><ele>265.5</ele><time>2026-04-18T10:05:50.002Z</time></trkpt><trkpt lat="44.47913622290799" lon="11.295502170276707"><ele>266.0</ele><time>2026-04-18T10:05:51.002Z</time></trkpt><trkpt lat="44.47918550947824" lon="11.295607002701532"><ele>266.0</ele><time>2026-04-18T10:05:52.002Z</time></trkpt><trkpt lat="44.4792351672418" lon="11.2957065196523"><ele>266.0</ele><time>2026-04-18T10:05:53.002Z</time></trkpt><trkpt lat="44.47926744788874" lon="11.295805269121695"><ele>266.0</ele><time>2026-04-18T10:05:54.002Z</time></trkpt><trkpt lat="44.479293539923276" lon="11.295899533686212"><ele>266.0</ele><time>2026-04-18T10:05:55.002Z</time></trkpt><trkpt lat="44.47931477481162" lon="11.295986955165816"><ele>266.0</ele><time>2026-04-18T10:05:56.002Z</time></trkpt><trkpt lat="44.47933181186832" lon="11.296074938921489"><ele>266.0</ele><time>2026-04-18T10:05:57.002Z</time></trkpt><trkpt lat="44.479353062434825" lon="11.29624599726585"><ele>266.0</ele><time>2026-04-18T10:05:59.002Z</time></trkpt><trkpt lat="44.479357417951356" lon="11.29634109794816"><ele>266.0</ele><time>2026-04-18T10:06:00.002Z</time></trkpt><trkpt lat="44.47936187382204" lon="11.29644425130759"><ele>266.0</ele><time>2026-04-18T10:06:01.002Z</time></trkpt><trkpt lat="44.479367867592146" lon="11.296539726222479"><ele>266.0</ele><time>2026-04-18T10:06:02.002Z</time></trkpt><trkpt lat="44.47937083657505" lon="11.29663205333246"><ele>266.0</ele><time>2026-04-18T10:06:03.002Z</time></trkpt><trkpt lat="44.47939436159616" lon="11.296784041511858"><ele>266.0</ele><time>2026-04-18T10:06:05.002Z</time></trkpt><trkpt lat="44.47942449431966" lon="11.29690721371822"><ele>265.1666666666667</ele><time>2026-04-18T10:06:08.002Z</time></trkpt><trkpt lat="44.4794769388404" lon="11.29706877627155"><ele>264.33333333333337</ele><time>2026-04-18T10:06:10.002Z</time></trkpt><trkpt lat="44.479522072449306" lon="11.297162842508662"><ele>263.5</ele><time>2026-04-18T10:06:11.002Z</time></trkpt><trkpt lat="44.47956660078633" lon="11.297251500305926"><ele>262.6666666666667</ele><time>2026-04-18T10:06:12.002Z</time></trkpt><trkpt lat="44.479610282342676" lon="11.297343808426618"><ele>261.8333333333333</ele><time>2026-04-18T10:06:13.002Z</time></trkpt><trkpt lat="44.47965358394933" lon="11.297441816936653"><ele>261.0</ele><time>2026-04-18T10:06:14.003Z</time></trkpt><trkpt lat="44.47967817143062" lon="11.297539482203295"><ele>259.3333333333333</ele><time>2026-04-18T10:06:15.003Z</time></trkpt><trkpt lat="44.47969582104597" lon="11.29763227099398"><ele>257.6666666666667</ele><time>2026-04-18T10:06:16.003Z</time></trkpt><trkpt lat="44.479693704432556" lon="11.297734863380036"><ele>256.0</ele><time>2026-04-18T10:06:17.003Z</time></trkpt><trkpt lat="44.47968207535747" lon="11.297831531932076"><ele>254.33333333333334</ele><time>2026-04-18T10:06:18.003Z</time></trkpt><trkpt lat="44.47966752046843" lon="11.297935337307146"><ele>252.66666666666669</ele><time>2026-04-18T10:06:19.003Z</time></trkpt><trkpt lat="44.47965323885328" lon="11.298050499016648"><ele>251.0</ele><time>2026-04-18T10:06:20.003Z</time></trkpt><trkpt lat="44.479642348215094" lon="11.298170800237312"><ele>251.00000000000003</ele><time>2026-04-18T10:06:21.003Z</time></trkpt><trkpt lat="44.47964472190528" lon="11.298278979254665"><ele>251.0</ele><time>2026-04-18T10:06:22.003Z</time></trkpt><trkpt lat="44.479665392110164" lon="11.298450836053998"><ele>251.0</ele><time>2026-04-18T10:06:24.003Z</time></trkpt><trkpt lat="44.47968284479423" lon="11.29853908873142"><ele>251.0</ele><time>2026-04-18T10:06:25.003Z</time></trkpt><trkpt lat="44.4797049495323" lon="11.29863298496492"><ele>251.00000000000003</ele><time>2026-04-18T10:06:26.003Z</time></trkpt><trkpt lat="44.47972685107707" lon="11.298739636188195"><ele>251.0</ele><time>2026-04-18T10:06:27.003Z</time></trkpt><trkpt lat="44.479751507574576" lon="11.298846417959616"><ele>250.4285714285714</ele><time>2026-04-18T10:06:28.003Z</time></trkpt><trkpt lat="44.47978861337372" lon="11.298949584266126"><ele>249.85714285714283</ele><time>2026-04-18T10:06:29.003Z</time></trkpt><trkpt lat="44.479802319969494" lon="11.299056145511747"><ele>249.28571428571428</ele><time>2026-04-18T10:06:30.003Z</time></trkpt><trkpt lat="44.4798376390491" lon="11.29913988085142"><ele>248.7142857142857</ele><time>2026-04-18T10:06:31.003Z</time></trkpt><trkpt lat="44.47986168142201" lon="11.29923325605159"><ele>248.1428571428571</ele><time>2026-04-18T10:06:32.003Z</time></trkpt><trkpt lat="44.47989234150438" lon="11.299322333600054"><ele>247.57142857142858</ele><time>2026-04-18T10:06:33.003Z</time></trkpt><trkpt lat="44.479914751900566" lon="11.299414900255018"><ele>247.0</ele><time>2026-04-18T10:06:34.003Z</time></trkpt><trkpt lat="44.47994008924441" lon="11.2995065763532"><ele>246.99999999999997</ele><time>2026-04-18T10:06:35.003Z</time></trkpt><trkpt lat="44.47996230814103" lon="11.29959094153641"><ele>247.0</ele><time>2026-04-18T10:06:36.003Z</time></trkpt><trkpt lat="44.48003042940455" lon="11.299742947456819"><ele>247.0</ele><time>2026-04-18T10:06:38.003Z</time></trkpt><trkpt lat="44.48008423483588" lon="11.299803489424347"><ele>247.0</ele><time>2026-04-18T10:06:39.003Z</time></trkpt><trkpt lat="44.480134446586895" lon="11.299870370545909"><ele>246.99999999999997</ele><time>2026-04-18T10:06:40.003Z</time></trkpt><trkpt lat="44.480189385268034" lon="11.29993688559971"><ele>247.0</ele><time>2026-04-18T10:06:41.003Z</time></trkpt><trkpt lat="44.48024430155518" lon="11.300001729541044"><ele>246.42857142857144</ele><time>2026-04-18T10:06:42Z</time></trkpt><trkpt lat="44.48029968904945" lon="11.300069614780739"><ele>245.85714285714283</ele><time>2026-04-18T10:06:43Z</time></trkpt><trkpt lat="44.48035236303463" lon="11.300129381628848"><ele>245.28571428571428</ele><time>2026-04-18T10:06:44Z</time></trkpt><trkpt lat="44.48040089132664" lon="11.300187611952305"><ele>244.71428571428572</ele><time>2026-04-18T10:06:45Z</time></trkpt><trkpt lat="44.480453291565496" lon="11.300242758809258"><ele>244.14285714285717</ele><time>2026-04-18T10:06:46Z</time></trkpt><trkpt lat="44.48050481109474" lon="11.300303098480843"><ele>243.57142857142856</ele><time>2026-04-18T10:06:47Z</time></trkpt><trkpt lat="44.48056612834935" lon="11.300365556423124"><ele>243.0</ele><time>2026-04-18T10:06:48Z</time></trkpt><trkpt lat="44.48067123071284" lon="11.300459534481949"><ele>242.2</ele><time>2026-04-18T10:06:50Z</time></trkpt><trkpt lat="44.480711891305766" lon="11.300539182195854"><ele>241.4</ele><time>2026-04-18T10:06:51Z</time></trkpt><trkpt lat="44.48078826365267" lon="11.30066391024645"><ele>240.59999999999997</ele><time>2026-04-18T10:06:53Z</time></trkpt><trkpt lat="44.48088333315498" lon="11.30078529040039"><ele>239.79999999999998</ele><time>2026-04-18T10:06:55Z</time></trkpt><trkpt lat="44.480943738198626" lon="11.300851642104446"><ele>239.0</ele><time>2026-04-18T10:06:56Z</time></trkpt><trkpt lat="44.48101350646817" lon="11.30092352534878"><ele>239.00000000000003</ele><time>2026-04-18T10:06:57Z</time></trkpt><trkpt lat="44.481075587476056" lon="11.301004553193657"><ele>239.0</ele><time>2026-04-18T10:06:58Z</time></trkpt><trkpt lat="44.48114231300465" lon="11.301085588892088"><ele>239.0</ele><time>2026-04-18T10:06:59Z</time></trkpt><trkpt lat="44.48120762521437" lon="11.301165902309025"><ele>239.0</ele><time>2026-04-18T10:07:00Z</time></trkpt><trkpt lat="44.48126955887493" lon="11.301243728414326"><ele>239.00000000000003</ele><time>2026-04-18T10:07:01Z</time></trkpt><trkpt lat="44.48133405683144" lon="11.301316723627323"><ele>239.0</ele><time>2026-04-18T10:07:02Z</time></trkpt><trkpt lat="44.4813870737498" lon="11.301382742370064"><ele>238.50000000000003</ele><time>2026-04-18T10:07:03Z</time></trkpt><trkpt lat="44.48146666031251" lon="11.30147425844439"><ele>238.0</ele><time>2026-04-18T10:07:05Z</time></trkpt><trkpt lat="44.481518714364114" lon="11.30152694114317"><ele>237.5</ele><time>2026-04-18T10:07:08Z</time></trkpt><trkpt lat="44.48157741047621" lon="11.301603725218614"><ele>237.0</ele><time>2026-04-18T10:07:15.001Z</time></trkpt><trkpt lat="44.48163668697586" lon="11.301685184433886"><ele>236.50000000000003</ele><time>2026-04-18T10:07:18.001Z</time></trkpt><trkpt lat="44.48163110149005" lon="11.301776538916922"><ele>236.0</ele><time>2026-04-18T10:07:20.001Z</time></trkpt><trkpt lat="44.481674904784335" lon="11.30193091824729"><ele>236.00000000000003</ele><time>2026-04-18T10:07:22.001Z</time></trkpt><trkpt lat="44.48173787992364" lon="11.302005096979647"><ele>236.0</ele><time>2026-04-18T10:07:23.001Z</time></trkpt><trkpt lat="44.48179534187281" lon="11.302070542577683"><ele>236.0</ele><time>2026-04-18T10:07:24.001Z</time></trkpt><trkpt lat="44.48186657944348" lon="11.302154621695793"><ele>236.0</ele><time>2026-04-18T10:07:25.001Z</time></trkpt><trkpt lat="44.48192075372817" lon="11.302254272576409"><ele>236.00000000000003</ele><time>2026-04-18T10:07:26.001Z</time></trkpt><trkpt lat="44.48198541328766" lon="11.302326403469529"><ele>236.0</ele><time>2026-04-18T10:07:27.001Z</time></trkpt><trkpt lat="44.48204116586315" lon="11.302396907016073"><ele>234.28571428571428</ele><time>2026-04-18T10:07:28.001Z</time></trkpt><trkpt lat="44.48209019978562" lon="11.302460268275384"><ele>232.57142857142858</ele><time>2026-04-18T10:07:29.001Z</time></trkpt><trkpt lat="44.482139949100684" lon="11.302525461799085"><ele>230.85714285714286</ele><time>2026-04-18T10:07:30.001Z</time></trkpt><trkpt lat="44.48219212109986" lon="11.302583742670674"><ele>229.14285714285714</ele><time>2026-04-18T10:07:31.001Z</time></trkpt><trkpt lat="44.48224848964372" lon="11.302638743213324"><ele>227.42857142857144</ele><time>2026-04-18T10:07:32.001Z</time></trkpt><trkpt lat="44.4823085995099" lon="11.302713779221808"><ele>225.71428571428572</ele><time>2026-04-18T10:07:33.001Z</time></trkpt><trkpt lat="44.48237158657749" lon="11.302790485116299"><ele>224.0</ele><time>2026-04-18T10:07:34.001Z</time></trkpt><trkpt lat="44.48249602169353" lon="11.302875043370662"><ele>223.0</ele><time>2026-04-18T10:07:36.001Z</time></trkpt><trkpt lat="44.48260129511752" lon="11.302855977045041"><ele>221.99999999999997</ele><time>2026-04-18T10:07:37.001Z</time></trkpt><trkpt lat="44.48269452335871" lon="11.302824792787142"><ele>220.99999999999997</ele><time>2026-04-18T10:07:38.001Z</time></trkpt><trkpt lat="44.48281117903895" lon="11.30277938233736"><ele>220.0</ele><time>2026-04-18T10:07:39.001Z</time></trkpt><trkpt lat="44.482917630077424" lon="11.302755151673427"><ele>219.0</ele><time>2026-04-18T10:07:40.001Z</time></trkpt><trkpt lat="44.483036295386306" lon="11.302717622980607"><ele>215.75</ele><time>2026-04-18T10:07:41.001Z</time></trkpt><trkpt lat="44.483146496714056" lon="11.302682081772826"><ele>212.5</ele><time>2026-04-18T10:07:42.001Z</time></trkpt><trkpt lat="44.48326069221806" lon="11.302659308552343"><ele>209.25</ele><time>2026-04-18T10:07:43.001Z</time></trkpt><trkpt lat="44.483371843064134" lon="11.30262888694392"><ele>206.0</ele><time>2026-04-18T10:07:44.001Z</time></trkpt><trkpt lat="44.48349103277755" lon="11.302596591214034"><ele>206.0</ele><time>2026-04-18T10:07:45.001Z</time></trkpt><trkpt lat="44.48361321250548" lon="11.302557109869534"><ele>206.0</ele><time>2026-04-18T10:07:46.002Z</time></trkpt><trkpt lat="44.483727541390046" lon="11.302525577536022"><ele>206.0</ele><time>2026-04-18T10:07:47.002Z</time></trkpt><trkpt lat="44.48381637660081" lon="11.302500768627318"><ele>206.0</ele><time>2026-04-18T10:07:48.002Z</time></trkpt><trkpt lat="44.48389965669587" lon="11.302473803486464"><ele>206.0</ele><time>2026-04-18T10:07:49.002Z</time></trkpt><trkpt lat="44.48398601025735" lon="11.3024472506258"><ele>203.20000000000002</ele><time>2026-04-18T10:07:50.002Z</time></trkpt><trkpt lat="44.484076183852764" lon="11.302422188749267"><ele>200.4</ele><time>2026-04-18T10:07:51.002Z</time></trkpt><trkpt lat="44.48416385473907" lon="11.302391383084466"><ele>197.6</ele><time>2026-04-18T10:07:52.002Z</time></trkpt><trkpt lat="44.48425182456875" lon="11.30236410291437"><ele>194.8</ele><time>2026-04-18T10:07:53.002Z</time></trkpt><trkpt lat="44.48433969049864" lon="11.302334983889498"><ele>192.0</ele><time>2026-04-18T10:07:54.002Z</time></trkpt><trkpt lat="44.48443408730831" lon="11.302305241693553"><ele>192.0</ele><time>2026-04-18T10:07:55.002Z</time></trkpt><trkpt lat="44.48453326312098" lon="11.30227025323948"><ele>192.0</ele><time>2026-04-18T10:07:56.002Z</time></trkpt><trkpt lat="44.48462516364791" lon="11.302245744761768"><ele>192.0</ele><time>2026-04-18T10:07:57.002Z</time></trkpt><trkpt lat="44.48470774705585" lon="11.302218679432755"><ele>192.0</ele><time>2026-04-18T10:07:58.002Z</time></trkpt><trkpt lat="44.48478353763665" lon="11.302196550568981"><ele>192.0</ele><time>2026-04-18T10:07:59.002Z</time></trkpt><trkpt lat="44.48489906053929" lon="11.302156653861644"><ele>187.8</ele><time>2026-04-18T10:08:01.002Z</time></trkpt><trkpt lat="44.485002802140386" lon="11.302124042124811"><ele>183.6</ele><time>2026-04-18T10:08:03.002Z</time></trkpt><trkpt lat="44.485100640261436" lon="11.30210764347284"><ele>179.4</ele><time>2026-04-18T10:08:05.002Z</time></trkpt><trkpt lat="44.48513287588244" lon="11.302186020381953"><ele>175.20000000000002</ele><time>2026-04-18T10:08:07.002Z</time></trkpt><trkpt lat="44.48514009544566" lon="11.302302875656254"><ele>171.0</ele><time>2026-04-18T10:08:09.002Z</time></trkpt><trkpt lat="44.48521284562219" lon="11.302402261501506"><ele>171.0</ele><time>2026-04-18T10:08:11.002Z</time></trkpt><trkpt lat="44.48529777317924" lon="11.302400692686604"><ele>171.0</ele><time>2026-04-18T10:08:13.002Z</time></trkpt><trkpt lat="44.485358185476116" lon="11.302271650431887"><ele>171.0</ele><time>2026-04-18T10:08:14.002Z</time></trkpt><trkpt lat="44.48541115201181" lon="11.302195515003906"><ele>171.0</ele><time>2026-04-18T10:08:15.002Z</time></trkpt><trkpt lat="44.48545962084172" lon="11.302126157004958"><ele>171.0</ele><time>2026-04-18T10:08:16.002Z</time></trkpt><trkpt lat="44.48552265455815" lon="11.30205151012973"><ele>171.0</ele><time>2026-04-18T10:08:18.002Z</time></trkpt><trkpt lat="44.4855989504333" lon="11.302051030107368"><ele>168.4</ele><time>2026-04-18T10:08:20.003Z</time></trkpt><trkpt lat="44.4856647892594" lon="11.302180215827462"><ele>165.8</ele><time>2026-04-18T10:08:22.003Z</time></trkpt><trkpt lat="44.48571495991842" lon="11.302253785499223"><ele>163.20000000000002</ele><time>2026-04-18T10:08:23.003Z</time></trkpt><trkpt lat="44.48577331126012" lon="11.302338995123206"><ele>160.60000000000002</ele><time>2026-04-18T10:08:24.003Z</time></trkpt><trkpt lat="44.48584657840435" lon="11.30244138327096"><ele>158.0</ele><time>2026-04-18T10:08:25.003Z</time></trkpt><trkpt lat="44.48592522793912" lon="11.302556593704898"><ele>158.0</ele><time>2026-04-18T10:08:26.003Z</time></trkpt><trkpt lat="44.48600725582252" lon="11.302654295098884"><ele>158.0</ele><time>2026-04-18T10:08:27.003Z</time></trkpt><trkpt lat="44.486085358207774" lon="11.302754873609011"><ele>158.0</ele><time>2026-04-18T10:08:28.003Z</time></trkpt><trkpt lat="44.48614089286143" lon="11.30285883637504"><ele>158.0</ele><time>2026-04-18T10:08:29.003Z</time></trkpt><trkpt lat="44.48619504099714" lon="11.302969273878562"><ele>158.0</ele><time>2026-04-18T10:08:30.003Z</time></trkpt><trkpt lat="44.48626641519125" lon="11.303067474196196"><ele>154.6</ele><time>2026-04-18T10:08:31.003Z</time></trkpt><trkpt lat="44.48634369811742" lon="11.303160750840346"><ele>151.20000000000002</ele><time>2026-04-18T10:08:32.003Z</time></trkpt><trkpt lat="44.48642023598402" lon="11.303259435272647"><ele>147.8</ele><time>2026-04-18T10:08:33.003Z</time></trkpt><trkpt lat="44.486494080281446" lon="11.303359841703548"><ele>144.4</ele><time>2026-04-18T10:08:34.003Z</time></trkpt><trkpt lat="44.48656363650297" lon="11.303457805558201"><ele>141.0</ele><time>2026-04-18T10:08:35.003Z</time></trkpt><trkpt lat="44.4866355508381" lon="11.303554690911824"><ele>141.0</ele><time>2026-04-18T10:08:36.003Z</time></trkpt><trkpt lat="44.4867061531564" lon="11.303663660095218"><ele>141.0</ele><time>2026-04-18T10:08:37.003Z</time></trkpt><trkpt lat="44.48677578972355" lon="11.303752259828622"><ele>141.0</ele><time>2026-04-18T10:08:38.003Z</time></trkpt><trkpt lat="44.486840082371785" lon="11.30384269790276"><ele>141.0</ele><time>2026-04-18T10:08:39.003Z</time></trkpt><trkpt lat="44.486905074108805" lon="11.303939468039076"><ele>141.0</ele><time>2026-04-18T10:08:40.003Z</time></trkpt><trkpt lat="44.48697484855141" lon="11.304035349751482"><ele>141.8</ele><time>2026-04-18T10:08:41.003Z</time></trkpt><trkpt lat="44.48704664940958" lon="11.304130593968567"><ele>142.6</ele><time>2026-04-18T10:08:42.003Z</time></trkpt><trkpt lat="44.487117062314894" lon="11.304220151992666"><ele>143.4</ele><time>2026-04-18T10:08:43.003Z</time></trkpt><trkpt lat="44.487191237485064" lon="11.304315390045067"><ele>144.2</ele><time>2026-04-18T10:08:44.003Z</time></trkpt><trkpt lat="44.487262273655915" lon="11.304410662044347"><ele>145.0</ele><time>2026-04-18T10:08:45.003Z</time></trkpt><trkpt lat="44.4873362930952" lon="11.304507586520815"><ele>143.4</ele><time>2026-04-18T10:08:46.003Z</time></trkpt><trkpt lat="44.48738788409878" lon="11.30462586082613"><ele>141.8</ele><time>2026-04-18T10:08:47.003Z</time></trkpt><trkpt lat="44.48743180112083" lon="11.304730467057041"><ele>140.2</ele><time>2026-04-18T10:08:47.999Z</time></trkpt><trkpt lat="44.48747510377876" lon="11.304845970331783"><ele>138.6</ele><time>2026-04-18T10:08:48.999Z</time></trkpt><trkpt lat="44.487509716555174" lon="11.304975355865334"><ele>137.0</ele><time>2026-04-18T10:08:50Z</time></trkpt><trkpt lat="44.48754136742735" lon="11.30508316059308"><ele>137.0</ele><time>2026-04-18T10:08:51Z</time></trkpt><trkpt lat="44.48756956060695" lon="11.305197449420302"><ele>137.0</ele><time>2026-04-18T10:08:52Z</time></trkpt><trkpt lat="44.48760362538655" lon="11.305313050687463"><ele>137.0</ele><time>2026-04-18T10:08:53Z</time></trkpt><trkpt lat="44.487634278309514" lon="11.305429536888266"><ele>137.0</ele><time>2026-04-18T10:08:54Z</time></trkpt><trkpt lat="44.487668321749275" lon="11.305547048968958"><ele>137.0</ele><time>2026-04-18T10:08:55Z</time></trkpt><trkpt lat="44.48770042421573" lon="11.3056620224998"><ele>137.0</ele><time>2026-04-18T10:08:56Z</time></trkpt><trkpt lat="44.48773088026849" lon="11.305771368437037"><ele>136.4</ele><time>2026-04-18T10:08:57Z</time></trkpt><trkpt lat="44.48776547290004" lon="11.305879467375947"><ele>135.79999999999998</ele><time>2026-04-18T10:08:58Z</time></trkpt><trkpt lat="44.487806044445115" lon="11.305993208405871"><ele>135.2</ele><time>2026-04-18T10:08:59Z</time></trkpt><trkpt lat="44.48784639400374" lon="11.306118879633805"><ele>134.6</ele><time>2026-04-18T10:09:00Z</time></trkpt><trkpt lat="44.487886969511834" lon="11.306245954246155"><ele>134.0</ele><time>2026-04-18T10:09:01Z</time></trkpt><trkpt lat="44.48792605437966" lon="11.306371204344256"><ele>130.6</ele><time>2026-04-18T10:09:02Z</time></trkpt><trkpt lat="44.48794711639139" lon="11.306514948502395"><ele>127.2</ele><time>2026-04-18T10:09:03Z</time></trkpt><trkpt lat="44.487988728628096" lon="11.306653318118208"><ele>123.79999999999998</ele><time>2026-04-18T10:09:04Z</time></trkpt><trkpt lat="44.48802915064962" lon="11.306791881747527"><ele>120.39999999999999</ele><time>2026-04-18T10:09:05Z</time></trkpt><trkpt lat="44.48807111215742" lon="11.306939519219183"><ele>117.0</ele><time>2026-04-18T10:09:06Z</time></trkpt><trkpt lat="44.4881157491568" lon="11.30709708434103"><ele>115.0</ele><time>2026-04-18T10:09:07Z</time></trkpt><trkpt lat="44.4881637989368" lon="11.307259765989654"><ele>113.0</ele><time>2026-04-18T10:09:08Z</time></trkpt><trkpt lat="44.488210565764376" lon="11.30742598157298"><ele>111.0</ele><time>2026-04-18T10:09:09Z</time></trkpt><trkpt lat="44.488263186036136" lon="11.307578370302002"><ele>109.0</ele><time>2026-04-18T10:09:10Z</time></trkpt><trkpt lat="44.48830904417121" lon="11.307728584478438"><ele>109.0</ele><time>2026-04-18T10:09:11Z</time></trkpt><trkpt lat="44.488355599527424" lon="11.307862580972433"><ele>109.0</ele><time>2026-04-18T10:09:12Z</time></trkpt><trkpt lat="44.488392260157674" lon="11.307989485515122"><ele>109.0</ele><time>2026-04-18T10:09:13Z</time></trkpt><trkpt lat="44.48842836973704" lon="11.3081224364128"><ele>109.0</ele><time>2026-04-18T10:09:14Z</time></trkpt><trkpt lat="44.48846198857338" lon="11.308245007943068"><ele>109.0</ele><time>2026-04-18T10:09:15Z</time></trkpt><trkpt lat="44.48850590145782" lon="11.30835346516781"><ele>108.2</ele><time>2026-04-18T10:09:16Z</time></trkpt><trkpt lat="44.488559958725084" lon="11.308450014765539"><ele>107.4</ele><time>2026-04-18T10:09:17Z</time></trkpt><trkpt lat="44.488639120199736" lon="11.308543564981946"><ele>106.6</ele><time>2026-04-18T10:09:18Z</time></trkpt><trkpt lat="44.48873000900362" lon="11.308613239790779"><ele>105.8</ele><time>2026-04-18T10:09:19Z</time></trkpt><trkpt lat="44.48882619136165" lon="11.30868301677221"><ele>105.0</ele><time>2026-04-18T10:09:20Z</time></trkpt><trkpt lat="44.48892094682197" lon="11.308747636996728"><ele>103.6</ele><time>2026-04-18T10:09:21Z</time></trkpt><trkpt lat="44.48901278559254" lon="11.308815067525453"><ele>102.2</ele><time>2026-04-18T10:09:22Z</time></trkpt><trkpt lat="44.48911363934843" lon="11.30888909314982"><ele>100.80000000000001</ele><time>2026-04-18T10:09:23.001Z</time></trkpt><trkpt lat="44.48922421795098" lon="11.308974239105813"><ele>99.4</ele><time>2026-04-18T10:09:24.001Z</time></trkpt><trkpt lat="44.489318673850306" lon="11.309039515301201"><ele>98.0</ele><time>2026-04-18T10:09:25.001Z</time></trkpt><trkpt lat="44.489400143353706" lon="11.30911134989389"><ele>98.0</ele><time>2026-04-18T10:09:26.001Z</time></trkpt><trkpt lat="44.48948576399033" lon="11.309176922847907"><ele>98.0</ele><time>2026-04-18T10:09:27.001Z</time></trkpt><trkpt lat="44.48957907403648" lon="11.309260618833772"><ele>98.0</ele><time>2026-04-18T10:09:28.001Z</time></trkpt><trkpt lat="44.48963658996514" lon="11.309378889000833"><ele>98.0</ele><time>2026-04-18T10:09:29.001Z</time></trkpt><trkpt lat="44.48965926994377" lon="11.309502610015828"><ele>98.0</ele><time>2026-04-18T10:09:30.001Z</time></trkpt><trkpt lat="44.48969466134377" lon="11.30962274353695"><ele>93.99999999999999</ele><time>2026-04-18T10:09:31.001Z</time></trkpt><trkpt lat="44.48973849014329" lon="11.309716696236585"><ele>90.0</ele><time>2026-04-18T10:09:32.001Z</time></trkpt><trkpt lat="44.48978880481763" lon="11.309818644310969"><ele>86.0</ele><time>2026-04-18T10:09:33.001Z</time></trkpt><trkpt lat="44.48983787621542" lon="11.309925387152818"><ele>82.0</ele><time>2026-04-18T10:09:34.001Z</time></trkpt><trkpt lat="44.48987309560977" lon="11.310029607084086"><ele>78.0</ele><time>2026-04-18T10:09:35.001Z</time></trkpt><trkpt lat="44.48991332897091" lon="11.310127916039157"><ele>74.0</ele><time>2026-04-18T10:09:37.001Z</time></trkpt><trkpt lat="44.48995651756223" lon="11.310254818220066"><ele>74.0</ele><time>2026-04-18T10:09:40.001Z</time></trkpt><trkpt lat="44.48998406486522" lon="11.310348072410525"><ele>74.0</ele><time>2026-04-18T10:10:16.002Z</time></trkpt><trkpt lat="44.49000876173416" lon="11.310450786370575"><ele>74.0</ele><time>2026-04-18T10:10:22.002Z</time></trkpt><trkpt lat="44.49004659450792" lon="11.310552466426802"><ele>74.0</ele><time>2026-04-18T10:10:26.002Z</time></trkpt><trkpt lat="44.49007326564193" lon="11.31065060929028"><ele>74.0</ele><time>2026-04-18T10:10:29.003Z</time></trkpt><trkpt lat="44.490075983029854" lon="11.31074508488143"><ele>74.0</ele><time>2026-04-18T10:10:31.003Z</time></trkpt><trkpt lat="44.490097698543075" lon="11.310837178758883"><ele>74.0</ele><time>2026-04-18T10:10:33.003Z</time></trkpt><trkpt lat="44.490116249431644" lon="11.31096301767341"><ele>74.0</ele><time>2026-04-18T10:10:35.003Z</time></trkpt><trkpt lat="44.49009853896298" lon="11.311054647709812"><ele>74.0</ele><time>2026-04-18T10:10:36.003Z</time></trkpt><trkpt lat="44.490087800574464" lon="11.311214475558355"><ele>74.0</ele><time>2026-04-18T10:10:38.003Z</time></trkpt><trkpt lat="44.49006606441618" lon="11.311381478257251"><ele>74.0</ele><time>2026-04-18T10:10:40.003Z</time></trkpt><trkpt lat="44.490056309816325" lon="11.311486027937084"><ele>74.0</ele><time>2026-04-18T10:10:41.003Z</time></trkpt><trkpt lat="44.49004878789427" lon="11.31161080629352"><ele>74.0</ele><time>2026-04-18T10:10:43.003Z</time></trkpt><trkpt lat="44.490214681632075" lon="11.311613971813335"><ele>74.0</ele><time>2026-04-18T10:10:46.003Z</time></trkpt><trkpt lat="44.490294980117504" lon="11.311601633857883"><ele>74.0</ele><time>2026-04-18T10:10:47.003Z</time></trkpt><trkpt lat="44.49037190791211" lon="11.311649525571658"><ele>74.0</ele><time>2026-04-18T10:10:48.003Z</time></trkpt><trkpt lat="44.49044852508828" lon="11.311700603016394"><ele>74.0</ele><time>2026-04-18T10:10:50.003Z</time></trkpt><trkpt lat="44.49051731630332" lon="11.311720709506593"><ele>73.33333333333334</ele><time>2026-04-18T10:10:54Z</time></trkpt><trkpt lat="44.49058060604447" lon="11.311779886130285"><ele>72.66666666666667</ele><time>2026-04-18T10:11:02Z</time></trkpt><trkpt lat="44.4906923595709" lon="11.311832088003957"><ele>72.0</ele><time>2026-04-18T10:11:04Z</time></trkpt><trkpt lat="44.49075521460122" lon="11.31186107097827"><ele>71.33333333333333</ele><time>2026-04-18T10:11:05Z</time></trkpt><trkpt lat="44.49081471987727" lon="11.311892701326183"><ele>70.66666666666666</ele><time>2026-04-18T10:11:06Z</time></trkpt><trkpt lat="44.49087681729721" lon="11.311932743615234"><ele>70.0</ele><time>2026-04-18T10:11:07Z</time></trkpt><trkpt lat="44.49094714059338" lon="11.31196627038088"><ele>70.0</ele><time>2026-04-18T10:11:09Z</time></trkpt><trkpt lat="44.49102018556345" lon="11.312010160129853"><ele>70.0</ele><time>2026-04-18T10:11:16Z</time></trkpt><trkpt lat="44.49106398879713" lon="11.311845502930936"><ele>70.0</ele><time>2026-04-18T10:11:18Z</time></trkpt><trkpt lat="44.49105796437151" lon="11.311692657188377"><ele>70.0</ele><time>2026-04-18T10:11:20Z</time></trkpt><trkpt lat="44.49105564727685" lon="11.31157259023243"><ele>70.0</ele><time>2026-04-18T10:11:22Z</time></trkpt><trkpt lat="44.49103561091544" lon="11.311449498159297"><ele>69.6</ele><time>2026-04-18T10:11:25.001Z</time></trkpt><trkpt lat="44.49101448073941" lon="11.311321832694798"><ele>69.2</ele><time>2026-04-18T10:11:29.001Z</time></trkpt><trkpt lat="44.491123587743665" lon="11.311304831996608"><ele>68.8</ele><time>2026-04-18T10:11:30.001Z</time></trkpt><trkpt lat="44.4912376618272" lon="11.311317663113138"><ele>68.4</ele><time>2026-04-18T10:11:32.001Z</time></trkpt><trkpt lat="44.491299822487996" lon="11.311341736593864"><ele>68.0</ele><time>2026-04-18T10:11:33.001Z</time></trkpt><trkpt lat="44.49137878160377" lon="11.311307549840384"><ele>74.0</ele><time>2026-04-18T10:11:35.001Z</time></trkpt><trkpt lat="44.490421290438896" lon="11.3116227972182"><ele>73.2</ele><time>2026-04-18T10:19:19.001Z</time></trkpt><trkpt lat="44.49050342632863" lon="11.311671299368028"><ele>72.4</ele><time>2026-04-18T10:19:21.001Z</time></trkpt><trkpt lat="44.49058742575314" lon="11.311742233829506"><ele>71.6</ele><time>2026-04-18T10:19:23.001Z</time></trkpt><trkpt lat="44.49064332618631" lon="11.311786253960454"><ele>70.8</ele><time>2026-04-18T10:19:24.001Z</time></trkpt><trkpt lat="44.49074410963485" lon="11.311855063078298"><ele>70.0</ele><time>2026-04-18T10:19:26.001Z</time></trkpt><trkpt lat="44.490828609887615" lon="11.3119208995618"><ele>70.0</ele><time>2026-04-18T10:19:28.001Z</time></trkpt><trkpt lat="44.490921090080484" lon="11.311967837680257"><ele>70.0</ele><time>2026-04-18T10:19:30.001Z</time></trkpt><trkpt lat="44.491012820809786" lon="11.312028576943232"><ele>70.0</ele><time>2026-04-18T10:19:32.001Z</time></trkpt><trkpt lat="44.49109352918997" lon="11.31208767001868"><ele>70.0</ele><time>2026-04-18T10:19:34.001Z</time></trkpt><trkpt lat="44.491175818388314" lon="11.312151430532975"><ele>70.0</ele><time>2026-04-18T10:19:36.001Z</time></trkpt><trkpt lat="44.491244701360266" lon="11.312196478481136"><ele>69.83333333333333</ele><time>2026-04-18T10:19:38.001Z</time></trkpt><trkpt lat="44.49131403505075" lon="11.312243372446385"><ele>69.66666666666666</ele><time>2026-04-18T10:19:41.001Z</time></trkpt><trkpt lat="44.49139361484102" lon="11.312270882310004"><ele>69.5</ele><time>2026-04-18T10:19:45.001Z</time></trkpt><trkpt lat="44.49145054754088" lon="11.3123211153536"><ele>69.33333333333333</ele><time>2026-04-18T10:19:47.001Z</time></trkpt><trkpt lat="44.491522089608075" lon="11.312366561150807"><ele>69.16666666666667</ele><time>2026-04-18T10:19:49.001Z</time></trkpt><trkpt lat="44.491615792052364" lon="11.31242608345172"><ele>69.0</ele><time>2026-04-18T10:19:51.001Z</time></trkpt><trkpt lat="44.49168922420236" lon="11.312473137358225"><ele>69.0</ele><time>2026-04-18T10:19:52.001Z</time></trkpt><trkpt lat="44.491770134101294" lon="11.312524795827626"><ele>69.0</ele><time>2026-04-18T10:19:53.001Z</time></trkpt><trkpt lat="44.49184419606302" lon="11.312548627679428"><ele>69.0</ele><time>2026-04-18T10:19:54.001Z</time></trkpt><trkpt lat="44.49190318958114" lon="11.312606047205158"><ele>69.0</ele><time>2026-04-18T10:19:55.001Z</time></trkpt><trkpt lat="44.491960011934786" lon="11.312653583706432"><ele>69.0</ele><time>2026-04-18T10:19:56.001Z</time></trkpt><trkpt lat="44.49202033121789" lon="11.31269268920144"><ele>69.0</ele><time>2026-04-18T10:19:57.001Z</time></trkpt><trkpt lat="44.492080497946525" lon="11.312729959080453"><ele>69.0</ele><time>2026-04-18T10:19:58.001Z</time></trkpt><trkpt lat="44.49214892401554" lon="11.312748020448268"><ele>68.0</ele><time>2026-04-18T10:19:59.001Z</time></trkpt><trkpt lat="44.49224043782291" lon="11.312826582950366"><ele>67.0</ele><time>2026-04-18T10:20:01.001Z</time></trkpt><trkpt lat="44.49234923495749" lon="11.312887317477307"><ele>66.0</ele><time>2026-04-18T10:20:03.001Z</time></trkpt><trkpt lat="44.492439888325" lon="11.31296042474013"><ele>65.0</ele><time>2026-04-18T10:20:05.001Z</time></trkpt><trkpt lat="44.49250691539689" lon="11.31303111879193"><ele>64.0</ele><time>2026-04-18T10:20:08.001Z</time></trkpt><trkpt lat="44.4925978848981" lon="11.313071823503423"><ele>63.99999999999999</ele><time>2026-04-18T10:20:11.001Z</time></trkpt><trkpt lat="44.49266295829543" lon="11.313111227644749"><ele>64.0</ele><time>2026-04-18T10:20:20.001Z</time></trkpt><trkpt lat="44.49275542409082" lon="11.313165452222867"><ele>64.0</ele><time>2026-04-18T10:20:22.001Z</time></trkpt><trkpt lat="44.49283398665565" lon="11.313206967001694"><ele>64.0</ele><time>2026-04-18T10:20:24.001Z</time></trkpt><trkpt lat="44.492923288845795" lon="11.313239646767869"><ele>63.99999999999999</ele><time>2026-04-18T10:20:26.001Z</time></trkpt><trkpt lat="44.493011590895534" lon="11.313303184266085"><ele>64.0</ele><time>2026-04-18T10:20:28.001Z</time></trkpt><trkpt lat="44.49310613248952" lon="11.313373761238818"><ele>62.800000000000004</ele><time>2026-04-18T10:20:30.001Z</time></trkpt><trkpt lat="44.49320186169926" lon="11.313436475698927"><ele>61.60000000000001</ele><time>2026-04-18T10:20:32.001Z</time></trkpt><trkpt lat="44.493293258831265" lon="11.313502580929876"><ele>60.4</ele><time>2026-04-18T10:20:34.001Z</time></trkpt><trkpt lat="44.49337411670639" lon="11.313571773364117"><ele>59.2</ele><time>2026-04-18T10:20:36.001Z</time></trkpt><trkpt lat="44.493457061502696" lon="11.31360989847677"><ele>58.0</ele><time>2026-04-18T10:20:38.001Z</time></trkpt><trkpt lat="44.493518864090206" lon="11.313640607573822"><ele>57.99999999999999</ele><time>2026-04-18T10:20:40.001Z</time></trkpt><trkpt lat="44.493611321725574" lon="11.31369016486277"><ele>58.0</ele><time>2026-04-18T10:20:58.002Z</time></trkpt><trkpt lat="44.493691287858915" lon="11.313727597667018"><ele>58.0</ele><time>2026-04-18T10:21:00.002Z</time></trkpt><trkpt lat="44.49377038321271" lon="11.313762378408425"><ele>58.0</ele><time>2026-04-18T10:21:02.002Z</time></trkpt><trkpt lat="44.49384280238365" lon="11.313808081564247"><ele>57.99999999999999</ele><time>2026-04-18T10:21:04.002Z</time></trkpt><trkpt lat="44.49393947671612" lon="11.313858828312194"><ele>58.0</ele><time>2026-04-18T10:21:07.002Z</time></trkpt><trkpt lat="44.49399841214281" lon="11.313903075571798"><ele>57.99999999999999</ele><time>2026-04-18T10:21:09.002Z</time></trkpt><trkpt lat="44.49406650280603" lon="11.313985833167266"><ele>58.0</ele><time>2026-04-18T10:21:12.002Z</time></trkpt><trkpt lat="44.49414621626547" lon="11.314017187092306"><ele>58.0</ele><time>2026-04-18T10:21:15.002Z</time></trkpt><trkpt lat="44.49420669484748" lon="11.314063186821137"><ele>58.0</ele><time>2026-04-18T10:21:18.002Z</time></trkpt><trkpt lat="44.49427239677202" lon="11.314123540432785"><ele>57.99999999999999</ele><time>2026-04-18T10:21:21.002Z</time></trkpt><trkpt lat="44.49432379492286" lon="11.314180648921408"><ele>58.0</ele><time>2026-04-18T10:21:24.999Z</time></trkpt><trkpt lat="44.49439094219068" lon="11.31421226064219"><ele>57.99999999999999</ele><time>2026-04-18T10:21:33.999Z</time></trkpt><trkpt lat="44.494458750485904" lon="11.31427261500951"><ele>58.0</ele><time>2026-04-18T10:21:35.999Z</time></trkpt><trkpt lat="44.49451574135292" lon="11.314360050335186"><ele>58.0</ele><time>2026-04-18T10:21:41.999Z</time></trkpt><trkpt lat="44.49455112857419" lon="11.31447845783845"><ele>58.0</ele><time>2026-04-18T10:21:44.999Z</time></trkpt><trkpt lat="44.494634041794114" lon="11.31453265055524"><ele>57.99999999999999</ele><time>2026-04-18T10:21:47Z</time></trkpt><trkpt lat="44.49470750783605" lon="11.314488933344684"><ele>58.0</ele><time>2026-04-18T10:21:49Z</time></trkpt><trkpt lat="44.49477198541364" lon="11.314483050797014"><ele>58.14285714285715</ele><time>2026-04-18T10:21:51Z</time></trkpt><trkpt lat="44.494850715190175" lon="11.314507457829215"><ele>58.28571428571429</ele><time>2026-04-18T10:21:53Z</time></trkpt><trkpt lat="44.49492423209037" lon="11.314546397864572"><ele>58.42857142857143</ele><time>2026-04-18T10:21:56Z</time></trkpt><trkpt lat="44.494984622645454" lon="11.314583851283667"><ele>58.57142857142858</ele><time>2026-04-18T10:21:58Z</time></trkpt><trkpt lat="44.495052226450376" lon="11.31458185809481"><ele>58.71428571428572</ele><time>2026-04-18T10:22:01Z</time></trkpt><trkpt lat="44.495123866486665" lon="11.314590213775006"><ele>58.857142857142854</ele><time>2026-04-18T10:22:16Z</time></trkpt><trkpt lat="44.49516748413831" lon="11.314665849230368"><ele>59.0</ele><time>2026-04-18T10:22:18Z</time></trkpt><trkpt lat="44.495227907347925" lon="11.314703236057131"><ele>59.16666666666667</ele><time>2026-04-18T10:22:20Z</time></trkpt><trkpt lat="44.49530128675534" lon="11.314748641285409"><ele>59.333333333333336</ele><time>2026-04-18T10:22:22Z</time></trkpt><trkpt lat="44.495363490420594" lon="11.314787129788845"><ele>59.5</ele><time>2026-04-18T10:22:25Z</time></trkpt><trkpt lat="44.495441685458005" lon="11.314841451315656"><ele>59.66666666666667</ele><time>2026-04-18T10:22:28.001Z</time></trkpt><trkpt lat="44.49549008673932" lon="11.314901894065091"><ele>59.833333333333336</ele><time>2026-04-18T10:22:45.001Z</time></trkpt><trkpt lat="44.49557036258935" lon="11.314963054550285"><ele>60.0</ele><time>2026-04-18T10:22:49.001Z</time></trkpt><trkpt lat="44.495683611572524" lon="11.315014132935609"><ele>60.166666666666664</ele><time>2026-04-18T10:22:51.001Z</time></trkpt><trkpt lat="44.49578061266151" lon="11.315074446247431"><ele>60.33333333333333</ele><time>2026-04-18T10:22:53.001Z</time></trkpt><trkpt lat="44.49584053692985" lon="11.315103288733882"><ele>60.5</ele><time>2026-04-18T10:22:54.001Z</time></trkpt><trkpt lat="44.495920681257914" lon="11.315158292452761"><ele>60.666666666666664</ele><time>2026-04-18T10:22:56.001Z</time></trkpt><trkpt lat="44.495984395681376" lon="11.315190661685842"><ele>60.83333333333333</ele><time>2026-04-18T10:23:05.001Z</time></trkpt><trkpt lat="44.49608132547504" lon="11.315218649320784"><ele>61.0</ele><time>2026-04-18T10:23:07.001Z</time></trkpt><trkpt lat="44.49616246625648" lon="11.31528700615194"><ele>60.99999999999999</ele><time>2026-04-18T10:23:10.001Z</time></trkpt><trkpt lat="44.49622303052409" lon="11.315343880462152"><ele>61.0</ele><time>2026-04-18T10:23:12.001Z</time></trkpt><trkpt lat="44.4962951416702" lon="11.315373336828054"><ele>61.0</ele><time>2026-04-18T10:23:20.001Z</time></trkpt><trkpt lat="44.49635529792413" lon="11.315416834305594"><ele>61.0</ele><time>2026-04-18T10:23:28.002Z</time></trkpt><trkpt lat="44.49641598096972" lon="11.31545313868858"><ele>60.99999999999999</ele><time>2026-04-18T10:23:39.999Z</time></trkpt><trkpt lat="44.49650555331231" lon="11.315510444534445"><ele>61.0</ele><time>2026-04-18T10:23:41.999Z</time></trkpt><trkpt lat="44.496579434783044" lon="11.315557957852796"><ele>60.99999999999999</ele><time>2026-04-18T10:23:43.999Z</time></trkpt><trkpt lat="44.49665635541874" lon="11.315603816246025"><ele>61.0</ele><time>2026-04-18T10:23:45.999Z</time></trkpt><trkpt lat="44.49673021436153" lon="11.31565190692088"><ele>61.0</ele><time>2026-04-18T10:23:47.999Z</time></trkpt><trkpt lat="44.496805307492146" lon="11.315704776835842"><ele>61.0</ele><time>2026-04-18T10:23:49.999Z</time></trkpt><trkpt lat="44.49688093843895" lon="11.315766314545089"><ele>60.99999999999999</ele><time>2026-04-18T10:23:52Z</time></trkpt><trkpt lat="44.49695575965559" lon="11.315815982882484"><ele>61.0</ele><time>2026-04-18T10:23:54Z</time></trkpt><trkpt lat="44.497032961901624" lon="11.315841858274329"><ele>59.666666666666664</ele><time>2026-04-18T10:23:56Z</time></trkpt><trkpt lat="44.497089770038755" lon="11.315883758624626"><ele>58.33333333333333</ele><time>2026-04-18T10:23:58Z</time></trkpt><trkpt lat="44.4971638258864" lon="11.315930425393622"><ele>57.0</ele><time>2026-04-18T10:25:57Z</time></trkpt><trkpt lat="44.49727565830397" lon="11.316001779581653"><ele>55.66666666666667</ele><time>2026-04-18T10:25:59Z</time></trkpt><trkpt lat="44.49736577871398" lon="11.316059381255865"><ele>54.333333333333336</ele><time>2026-04-18T10:26:01Z</time></trkpt><trkpt lat="44.49742988940592" lon="11.3161003585061"><ele>53.0</ele><time>2026-04-18T10:26:03Z</time></trkpt><trkpt lat="44.49756656875611" lon="11.315848811014744"><ele>53.0</ele><time>2026-04-18T10:26:08Z</time></trkpt><trkpt lat="44.497565952726475" lon="11.315729697413198"><ele>53.0</ele><time>2026-04-18T10:26:09.001Z</time></trkpt><trkpt lat="44.49757384047466" lon="11.315598542142252"><ele>53.0</ele><time>2026-04-18T10:26:10.001Z</time></trkpt><trkpt lat="44.49758935721573" lon="11.315436996591195"><ele>53.0</ele><time>2026-04-18T10:26:11.001Z</time></trkpt><trkpt lat="44.49760211063573" lon="11.315261892037237"><ele>53.0</ele><time>2026-04-18T10:26:12.001Z</time></trkpt><trkpt lat="44.497622683842444" lon="11.315068414164411"><ele>53.0</ele><time>2026-04-18T10:26:13.001Z</time></trkpt><trkpt lat="44.49764589648691" lon="11.31486533304765"><ele>53.0</ele><time>2026-04-18T10:26:14.001Z</time></trkpt><trkpt lat="44.49766517818271" lon="11.314672266683118"><ele>53.0</ele><time>2026-04-18T10:26:15.001Z</time></trkpt><trkpt lat="44.49769990343938" lon="11.31448179781072"><ele>53.0</ele><time>2026-04-18T10:26:16.001Z</time></trkpt><trkpt lat="44.49773055212482" lon="11.314296800091077"><ele>53.0</ele><time>2026-04-18T10:26:17.001Z</time></trkpt><trkpt lat="44.4977633239415" lon="11.314119580351566"><ele>53.0</ele><time>2026-04-18T10:26:18.001Z</time></trkpt><trkpt lat="44.49779582779008" lon="11.313945929282388"><ele>53.0</ele><time>2026-04-18T10:26:19.001Z</time></trkpt><trkpt lat="44.49781292645607" lon="11.313761286529996"><ele>53.0</ele><time>2026-04-18T10:26:20.001Z</time></trkpt><trkpt lat="44.4978435257081" lon="11.313594991800718"><ele>52.25</ele><time>2026-04-18T10:26:21.001Z</time></trkpt><trkpt lat="44.49787990946101" lon="11.313420391775436"><ele>51.5</ele><time>2026-04-18T10:26:22.001Z</time></trkpt><trkpt lat="44.4979207170986" lon="11.31323391292961"><ele>50.75</ele><time>2026-04-18T10:26:23.001Z</time></trkpt><trkpt lat="44.49796926864155" lon="11.313047280180754"><ele>50.0</ele><time>2026-04-18T10:26:24.001Z</time></trkpt><trkpt lat="44.49802189459788" lon="11.3128750604073"><ele>49.75</ele><time>2026-04-18T10:26:25.001Z</time></trkpt><trkpt lat="44.498070850289345" lon="11.312707472882478"><ele>49.5</ele><time>2026-04-18T10:26:26.001Z</time></trkpt><trkpt lat="44.49811648078745" lon="11.312543935207401"><ele>49.25</ele><time>2026-04-18T10:26:27.001Z</time></trkpt><trkpt lat="44.49815752358293" lon="11.312372455043617"><ele>49.0</ele><time>2026-04-18T10:26:28.001Z</time></trkpt><trkpt lat="44.49819671975288" lon="11.312224073532612"><ele>48.400000000000006</ele><time>2026-04-18T10:26:29.001Z</time></trkpt><trkpt lat="44.498236544624035" lon="11.312086776746245"><ele>47.8</ele><time>2026-04-18T10:26:30.001Z</time></trkpt><trkpt lat="44.49827334504401" lon="11.311960291270154"><ele>47.2</ele><time>2026-04-18T10:26:31.001Z</time></trkpt><trkpt lat="44.49832258490715" lon="11.311835686676643"><ele>46.599999999999994</ele><time>2026-04-18T10:26:32.001Z</time></trkpt><trkpt lat="44.49836232083703" lon="11.311713193956749"><ele>46.0</ele><time>2026-04-18T10:26:33.001Z</time></trkpt><trkpt lat="44.49840038870852" lon="11.311594717060837"><ele>46.0</ele><time>2026-04-18T10:26:34.001Z</time></trkpt><trkpt lat="44.49842624069428" lon="11.311474947077958"><ele>46.0</ele><time>2026-04-18T10:26:35.001Z</time></trkpt><trkpt lat="44.498453986604275" lon="11.311373950401512"><ele>46.0</ele><time>2026-04-18T10:26:36.001Z</time></trkpt><trkpt lat="44.49848122841891" lon="11.311274788520185"><ele>46.0</ele><time>2026-04-18T10:26:37.001Z</time></trkpt><trkpt lat="44.498507726845205" lon="11.31118694637179"><ele>46.0</ele><time>2026-04-18T10:26:38.001Z</time></trkpt><trkpt lat="44.4985469877437" lon="11.311038778931794"><ele>46.0</ele><time>2026-04-18T10:26:40.001Z</time></trkpt><trkpt lat="44.498574459275964" lon="11.310951287100119"><ele>46.142857142857146</ele><time>2026-04-18T10:26:42.001Z</time></trkpt><trkpt lat="44.498603909780044" lon="11.310845676623485"><ele>46.285714285714285</ele><time>2026-04-18T10:26:50.001Z</time></trkpt><trkpt lat="44.49862791162084" lon="11.310758170887796"><ele>46.42857142857143</ele><time>2026-04-18T10:27:16.002Z</time></trkpt><trkpt lat="44.49866529466836" lon="11.31064694946209"><ele>46.57142857142857</ele><time>2026-04-18T10:27:18.002Z</time></trkpt><trkpt lat="44.49868837944953" lon="11.310562492275984"><ele>46.71428571428571</ele><time>2026-04-18T10:27:19.002Z</time></trkpt><trkpt lat="44.4987112950435" lon="11.310475210251466"><ele>46.857142857142854</ele><time>2026-04-18T10:27:20.002Z</time></trkpt><trkpt lat="44.49873464855821" lon="11.310386584306661"><ele>47.0</ele><time>2026-04-18T10:27:21.002Z</time></trkpt><trkpt lat="44.498760863527934" lon="11.310289271696156"><ele>47.0</ele><time>2026-04-18T10:27:22.002Z</time></trkpt><trkpt lat="44.49878956389454" lon="11.310185859455737"><ele>47.0</ele><time>2026-04-18T10:27:23.002Z</time></trkpt><trkpt lat="44.4988148769921" lon="11.310075817961385"><ele>47.0</ele><time>2026-04-18T10:27:24.002Z</time></trkpt><trkpt lat="44.49884481420682" lon="11.309956667249331"><ele>47.0</ele><time>2026-04-18T10:27:25.002Z</time></trkpt><trkpt lat="44.49887994977143" lon="11.309833266259371"><ele>47.0</ele><time>2026-04-18T10:27:26.002Z</time></trkpt><trkpt lat="44.4989141722025" lon="11.309713182394688"><ele>47.0</ele><time>2026-04-18T10:27:27.002Z</time></trkpt><trkpt lat="44.49894906684119" lon="11.309588369152358"><ele>47.0</ele><time>2026-04-18T10:27:28.002Z</time></trkpt><trkpt lat="44.498982738987266" lon="11.309466142479323"><ele>47.0</ele><time>2026-04-18T10:27:29.002Z</time></trkpt><trkpt lat="44.49901219255362" lon="11.309338913261548"><ele>47.0</ele><time>2026-04-18T10:27:30.002Z</time></trkpt><trkpt lat="44.499047050192615" lon="11.30920335817644"><ele>47.0</ele><time>2026-04-18T10:27:31.002Z</time></trkpt><trkpt lat="44.49908945415265" lon="11.309067308156132"><ele>47.0</ele><time>2026-04-18T10:27:32.002Z</time></trkpt><trkpt lat="44.49912855322746" lon="11.308927257133968"><ele>46.75</ele><time>2026-04-18T10:27:33.002Z</time></trkpt><trkpt lat="44.49916689649706" lon="11.308791391789065"><ele>46.5</ele><time>2026-04-18T10:27:34.002Z</time></trkpt><trkpt lat="44.49920612195017" lon="11.308648156939398"><ele>46.25</ele><time>2026-04-18T10:27:35.002Z</time></trkpt><trkpt lat="44.49925274892573" lon="11.30849056542967"><ele>46.0</ele><time>2026-04-18T10:27:36.002Z</time></trkpt><trkpt lat="44.49929537500683" lon="11.308338875895835"><ele>46.0</ele><time>2026-04-18T10:27:37.002Z</time></trkpt><trkpt lat="44.49932393551828" lon="11.308176353499887"><ele>46.0</ele><time>2026-04-18T10:27:38.002Z</time></trkpt><trkpt lat="44.49936824537122" lon="11.308033016023847"><ele>46.0</ele><time>2026-04-18T10:27:39.002Z</time></trkpt><trkpt lat="44.4994062444677" lon="11.30789001526201"><ele>46.0</ele><time>2026-04-18T10:27:40.002Z</time></trkpt><trkpt lat="44.499444448048095" lon="11.307751154409734"><ele>46.0</ele><time>2026-04-18T10:27:41.002Z</time></trkpt><trkpt lat="44.499481840263336" lon="11.307616462085376"><ele>46.0</ele><time>2026-04-18T10:27:42Z</time></trkpt><trkpt lat="44.49951802958007" lon="11.307490236116521"><ele>46.0</ele><time>2026-04-18T10:27:43Z</time></trkpt><trkpt lat="44.499551350726094" lon="11.307370440841346"><ele>46.0</ele><time>2026-04-18T10:27:44Z</time></trkpt><trkpt lat="44.49958484327504" lon="11.30725042571303"><ele>46.0</ele><time>2026-04-18T10:27:45Z</time></trkpt><trkpt lat="44.4996186777126" lon="11.307130025466828"><ele>46.0</ele><time>2026-04-18T10:27:46Z</time></trkpt><trkpt lat="44.499650445528616" lon="11.30701313146328"><ele>46.0</ele><time>2026-04-18T10:27:47Z</time></trkpt><trkpt lat="44.49969085742982" lon="11.30689765783498"><ele>46.0</ele><time>2026-04-18T10:27:48Z</time></trkpt><trkpt lat="44.49974320432002" lon="11.306789347702791"><ele>46.0</ele><time>2026-04-18T10:27:49Z</time></trkpt><trkpt lat="44.49980717832902" lon="11.306689991516748"><ele>46.0</ele><time>2026-04-18T10:27:50Z</time></trkpt><trkpt lat="44.49987860637653" lon="11.306602047723475"><ele>46.0</ele><time>2026-04-18T10:27:51Z</time></trkpt><trkpt lat="44.49996045227963" lon="11.306524689870036"><ele>46.0</ele><time>2026-04-18T10:27:52Z</time></trkpt><trkpt lat="44.50005473527051" lon="11.306463904645199"><ele>46.0</ele><time>2026-04-18T10:27:53Z</time></trkpt><trkpt lat="44.50015688055555" lon="11.306391124086812"><ele>46.0</ele><time>2026-04-18T10:27:54Z</time></trkpt><trkpt lat="44.50029084433296" lon="11.306352930855997"><ele>46.0</ele><time>2026-04-18T10:27:55Z</time></trkpt><trkpt lat="44.50041425233676" lon="11.306349507526475"><ele>45.75</ele><time>2026-04-18T10:27:56Z</time></trkpt><trkpt lat="44.50052721903383" lon="11.306333905455505"><ele>45.5</ele><time>2026-04-18T10:27:57Z</time></trkpt><trkpt lat="44.50065511233546" lon="11.306299931930264"><ele>45.25</ele><time>2026-04-18T10:27:58Z</time></trkpt><trkpt lat="44.5007829955314" lon="11.306323120486066"><ele>45.0</ele><time>2026-04-18T10:27:59Z</time></trkpt><trkpt lat="44.500908659334186" lon="11.306327237775989"><ele>45.0</ele><time>2026-04-18T10:28:00Z</time></trkpt><trkpt lat="44.5010447834734" lon="11.306352623472657"><ele>45.0</ele><time>2026-04-18T10:28:01Z</time></trkpt><trkpt lat="44.501175757911746" lon="11.306417110225349"><ele>45.0</ele><time>2026-04-18T10:28:02Z</time></trkpt><trkpt lat="44.501295539523866" lon="11.30652140825872"><ele>45.0</ele><time>2026-04-18T10:28:03Z</time></trkpt><trkpt lat="44.50141452508423" lon="11.306631361946785"><ele>45.5</ele><time>2026-04-18T10:28:04Z</time></trkpt><trkpt lat="44.50152414690603" lon="11.30676420216723"><ele>46.0</ele><time>2026-04-18T10:28:05Z</time></trkpt><trkpt lat="44.501649039066976" lon="11.306886859827554"><ele>46.5</ele><time>2026-04-18T10:28:06Z</time></trkpt><trkpt lat="44.50175448408163" lon="11.306988429266099"><ele>47.0</ele><time>2026-04-18T10:28:07Z</time></trkpt><trkpt lat="44.50184349383766" lon="11.307066558536794"><ele>47.0</ele><time>2026-04-18T10:28:08Z</time></trkpt><trkpt lat="44.501901444387556" lon="11.30713726357524"><ele>47.0</ele><time>2026-04-18T10:28:09Z</time></trkpt><trkpt lat="44.5019734420301" lon="11.307198073511186"><ele>47.0</ele><time>2026-04-18T10:28:10Z</time></trkpt><trkpt lat="44.50203678257053" lon="11.307252114289904"><ele>47.0</ele><time>2026-04-18T10:28:11Z</time></trkpt><trkpt lat="44.50209624198924" lon="11.307304770798973"><ele>47.0</ele><time>2026-04-18T10:28:12Z</time></trkpt><trkpt lat="44.502154020727424" lon="11.307349861120375"><ele>47.0</ele><time>2026-04-18T10:28:13Z</time></trkpt><trkpt lat="44.50221884992199" lon="11.307396956857666"><ele>47.0</ele><time>2026-04-18T10:28:14Z</time></trkpt><trkpt lat="44.50227637794064" lon="11.30745180319107"><ele>46.5</ele><time>2026-04-18T10:28:15Z</time></trkpt><trkpt lat="44.5023747765196" lon="11.30751704794049"><ele>46.0</ele><time>2026-04-18T10:28:17Z</time></trkpt><trkpt lat="44.50246499351524" lon="11.307585778266912"><ele>45.5</ele><time>2026-04-18T10:28:19.001Z</time></trkpt><trkpt lat="44.502526525348514" lon="11.307612398718087"><ele>45.0</ele><time>2026-04-18T10:28:21.001Z</time></trkpt><trkpt lat="44.50258930886511" lon="11.30764612010663"><ele>44.5</ele><time>2026-04-18T10:28:24.001Z</time></trkpt><trkpt lat="44.50266902883136" lon="11.30771167958882"><ele>44.0</ele><time>2026-04-18T10:28:28.001Z</time></trkpt><trkpt lat="44.50272407091894" lon="11.307765013431426"><ele>44.0</ele><time>2026-04-18T10:28:30.001Z</time></trkpt><trkpt lat="44.50278649279916" lon="11.307822653806536"><ele>44.0</ele><time>2026-04-18T10:28:32.001Z</time></trkpt><trkpt lat="44.502848197732035" lon="11.307862650580716"><ele>44.0</ele><time>2026-04-18T10:28:34.001Z</time></trkpt><trkpt lat="44.50291692016796" lon="11.307916714323476"><ele>44.0</ele><time>2026-04-18T10:28:36.001Z</time></trkpt><trkpt lat="44.502994701162855" lon="11.307976652857686"><ele>44.0</ele><time>2026-04-18T10:28:38.001Z</time></trkpt><trkpt lat="44.503066603696176" lon="11.308029095849955"><ele>44.0</ele><time>2026-04-18T10:28:40.001Z</time></trkpt><trkpt lat="44.503155960197645" lon="11.3080911210866"><ele>44.33333333333333</ele><time>2026-04-18T10:28:42.001Z</time></trkpt><trkpt lat="44.50324781482807" lon="11.308164952165331"><ele>44.666666666666664</ele><time>2026-04-18T10:28:44.001Z</time></trkpt><trkpt lat="44.50332209941327" lon="11.308213516459706"><ele>45.0</ele><time>2026-04-18T10:28:46.001Z</time></trkpt><trkpt lat="44.50338404027842" lon="11.30826123699349"><ele>45.333333333333336</ele><time>2026-04-18T10:28:48.001Z</time></trkpt><trkpt lat="44.50345218035163" lon="11.308301589781221"><ele>45.66666666666667</ele><time>2026-04-18T10:28:50.001Z</time></trkpt><trkpt lat="44.503518100933135" lon="11.30834659020754"><ele>46.0</ele><time>2026-04-18T10:28:53.001Z</time></trkpt><trkpt lat="44.503598719430336" lon="11.308415169812811"><ele>46.0</ele><time>2026-04-18T10:29:01.001Z</time></trkpt><trkpt lat="44.50366298286771" lon="11.30846410477393"><ele>46.0</ele><time>2026-04-18T10:29:04.001Z</time></trkpt><trkpt lat="44.50371238718713" lon="11.308532842689194"><ele>46.0</ele><time>2026-04-18T10:30:50.001Z</time></trkpt><trkpt lat="44.50379313242008" lon="11.308592044239322"><ele>46.0</ele><time>2026-04-18T10:30:52.001Z</time></trkpt><trkpt lat="44.50385494310996" lon="11.308617412278329"><ele>46.0</ele><time>2026-04-18T10:30:53.001Z</time></trkpt><trkpt lat="44.50396921927813" lon="11.308659236501466"><ele>46.0</ele><time>2026-04-18T10:30:55.001Z</time></trkpt><trkpt lat="44.50407271251753" lon="11.308686441559937"><ele>45.66666666666667</ele><time>2026-04-18T10:30:57.001Z</time></trkpt><trkpt lat="44.504148518905964" lon="11.308705998880354"><ele>45.333333333333336</ele><time>2026-04-18T10:31:00.001Z</time></trkpt><trkpt lat="44.504219221435804" lon="11.308725732973752"><ele>45.0</ele><time>2026-04-18T10:31:05.001Z</time></trkpt><trkpt lat="44.504300882418455" lon="11.30874286952523"><ele>44.666666666666664</ele><time>2026-04-18T10:31:08.001Z</time></trkpt><trkpt lat="44.50438394293852" lon="11.308756244434678"><ele>44.33333333333333</ele><time>2026-04-18T10:31:10.001Z</time></trkpt><trkpt lat="44.504475612497174" lon="11.308789114994761"><ele>44.0</ele><time>2026-04-18T10:31:13.001Z</time></trkpt><trkpt lat="44.504540435974704" lon="11.308813840249092"><ele>44.166666666666664</ele><time>2026-04-18T10:31:15.001Z</time></trkpt><trkpt lat="44.5046148684819" lon="11.308842329422633"><ele>44.33333333333333</ele><time>2026-04-18T10:31:18.001Z</time></trkpt><trkpt lat="44.50468631779451" lon="11.308870245593758"><ele>44.5</ele><time>2026-04-18T10:31:22.001Z</time></trkpt><trkpt lat="44.504753286354926" lon="11.308889354664442"><ele>44.666666666666664</ele><time>2026-04-18T10:31:25.001Z</time></trkpt><trkpt lat="44.50481716312781" lon="11.30892709782416"><ele>44.833333333333336</ele><time>2026-04-18T10:31:28.002Z</time></trkpt><trkpt lat="44.504895886860716" lon="11.308960181610487"><ele>45.0</ele><time>2026-04-18T10:33:39.002Z</time></trkpt><trkpt lat="44.50497421663877" lon="11.309008087525738"><ele>44.666666666666664</ele><time>2026-04-18T10:33:41.002Z</time></trkpt><trkpt lat="44.505082840958224" lon="11.309075949666"><ele>44.333333333333336</ele><time>2026-04-18T10:33:43.002Z</time></trkpt><trkpt lat="44.50514508759082" lon="11.309115977996422"><ele>44.0</ele><time>2026-04-18T10:33:44.002Z</time></trkpt><trkpt lat="44.50520909140138" lon="11.309159344135516"><ele>43.66666666666667</ele><time>2026-04-18T10:33:45.002Z</time></trkpt><trkpt lat="44.50528495094719" lon="11.309205690106499"><ele>43.333333333333336</ele><time>2026-04-18T10:33:46.002Z</time></trkpt><trkpt lat="44.505360907717176" lon="11.30925533084371"><ele>43.0</ele><time>2026-04-18T10:33:47.002Z</time></trkpt><trkpt lat="44.505440076410686" lon="11.309304044126478"><ele>42.8</ele><time>2026-04-18T10:33:48.002Z</time></trkpt><trkpt lat="44.50551829745665" lon="11.309352984424754"><ele>42.599999999999994</ele><time>2026-04-18T10:33:49.002Z</time></trkpt><trkpt lat="44.50559394911846" lon="11.309398763820358"><ele>42.400000000000006</ele><time>2026-04-18T10:33:50.002Z</time></trkpt><trkpt lat="44.50567386745354" lon="11.309445242441091"><ele>42.2</ele><time>2026-04-18T10:33:51.002Z</time></trkpt><trkpt lat="44.50576365805939" lon="11.309500827446172"><ele>42.0</ele><time>2026-04-18T10:33:52.002Z</time></trkpt><trkpt lat="44.50587439945073" lon="11.3095650060632"><ele>42.0</ele><time>2026-04-18T10:33:53.002Z</time></trkpt><trkpt lat="44.50601189466202" lon="11.30964093153442"><ele>42.0</ele><time>2026-04-18T10:33:54.002Z</time></trkpt><trkpt lat="44.50616987538655" lon="11.309729192242578"><ele>42.0</ele><time>2026-04-18T10:33:55.002Z</time></trkpt><trkpt lat="44.50633344469736" lon="11.309821644407627"><ele>42.0</ele><time>2026-04-18T10:33:56.003Z</time></trkpt><trkpt lat="44.50649481987577" lon="11.309901873444625"><ele>42.0</ele><time>2026-04-18T10:33:57.003Z</time></trkpt><trkpt lat="44.5066482902995" lon="11.309983589961083"><ele>42.0</ele><time>2026-04-18T10:33:58.003Z</time></trkpt><trkpt lat="44.50678303643243" lon="11.310055539861587"><ele>42.0</ele><time>2026-04-18T10:33:59.003Z</time></trkpt><trkpt lat="44.50689990569787" lon="11.310116150527477"><ele>42.0</ele><time>2026-04-18T10:34:00.001Z</time></trkpt><trkpt lat="44.50701196412731" lon="11.31017036265371"><ele>42.0</ele><time>2026-04-18T10:34:01.001Z</time></trkpt><trkpt lat="44.507119911389964" lon="11.310225990816496"><ele>42.0</ele><time>2026-04-18T10:34:02.001Z</time></trkpt><trkpt lat="44.50722372221796" lon="11.310289303523124"><ele>42.0</ele><time>2026-04-18T10:34:03.001Z</time></trkpt><trkpt lat="44.50732335150618" lon="11.31036131360291"><ele>42.0</ele><time>2026-04-18T10:34:04.001Z</time></trkpt><trkpt lat="44.50739827724099" lon="11.310430048143003"><ele>42.0</ele><time>2026-04-18T10:34:05.001Z</time></trkpt><trkpt lat="44.50745781058051" lon="11.310489657719"><ele>42.0</ele><time>2026-04-18T10:34:06.001Z</time></trkpt><trkpt lat="44.50750657636083" lon="11.310553199965682"><ele>42.0</ele><time>2026-04-18T10:34:07.001Z</time></trkpt><trkpt lat="44.50754293849552" lon="11.3106313296762"><ele>42.0</ele><time>2026-04-18T10:34:08.001Z</time></trkpt><trkpt lat="44.50756927664348" lon="11.310724805553232"><ele>41.666666666666664</ele><time>2026-04-18T10:34:09.001Z</time></trkpt><trkpt lat="44.50758297962457" lon="11.310830046036434"><ele>41.333333333333336</ele><time>2026-04-18T10:34:10.001Z</time></trkpt><trkpt lat="44.50759506255887" lon="11.310946338847211"><ele>41.0</ele><time>2026-04-18T10:34:11.001Z</time></trkpt><trkpt lat="44.507616906674485" lon="11.31105601502779"><ele>40.66666666666667</ele><time>2026-04-18T10:34:12.001Z</time></trkpt><trkpt lat="44.50765689104331" lon="11.311152480439734"><ele>40.333333333333336</ele><time>2026-04-18T10:34:13.001Z</time></trkpt><trkpt lat="44.50771043076662" lon="11.311220074971976"><ele>40.0</ele><time>2026-04-18T10:34:14.001Z</time></trkpt><trkpt lat="44.50777603701636" lon="11.3112718548124"><ele>40.0</ele><time>2026-04-18T10:34:15.001Z</time></trkpt><trkpt lat="44.50786093985212" lon="11.311292469675394"><ele>40.0</ele><time>2026-04-18T10:34:16.001Z</time></trkpt><trkpt lat="44.507955372392" lon="11.311271495840405"><ele>40.0</ele><time>2026-04-18T10:34:17.001Z</time></trkpt><trkpt lat="44.50804788267519" lon="11.311215889372425"><ele>40.0</ele><time>2026-04-18T10:34:18.001Z</time></trkpt><trkpt lat="44.50814961062117" lon="11.311162961308106"><ele>40.0</ele><time>2026-04-18T10:34:19.001Z</time></trkpt><trkpt lat="44.50824813722982" lon="11.31117212980267"><ele>40.5</ele><time>2026-04-18T10:34:20.001Z</time></trkpt><trkpt lat="44.50836886105788" lon="11.31123214459107"><ele>41.0</ele><time>2026-04-18T10:34:21.001Z</time></trkpt><trkpt lat="44.50850548928014" lon="11.31130393987084"><ele>41.5</ele><time>2026-04-18T10:34:22.001Z</time></trkpt><trkpt lat="44.508661114526255" lon="11.31139054530284"><ele>42.0</ele><time>2026-04-18T10:34:23.001Z</time></trkpt><trkpt lat="44.50880693161615" lon="11.31146846052464"><ele>41.0</ele><time>2026-04-18T10:34:24.001Z</time></trkpt><trkpt lat="44.508938026271665" lon="11.31153931351993"><ele>40.0</ele><time>2026-04-18T10:34:25.001Z</time></trkpt><trkpt lat="44.50906069612756" lon="11.311599457487839"><ele>39.0</ele><time>2026-04-18T10:34:26.001Z</time></trkpt><trkpt lat="44.50917732659657" lon="11.311659481385679"><ele>38.0</ele><time>2026-04-18T10:34:27.001Z</time></trkpt><trkpt lat="44.50929685390425" lon="11.31172142795044"><ele>38.0</ele><time>2026-04-18T10:34:28.001Z</time></trkpt><trkpt lat="44.50941562679972" lon="11.311782777684176"><ele>38.0</ele><time>2026-04-18T10:34:29.001Z</time></trkpt><trkpt lat="44.509527806582874" lon="11.311845028813645"><ele>38.0</ele><time>2026-04-18T10:34:30.001Z</time></trkpt><trkpt lat="44.509639918241284" lon="11.31190545155051"><ele>38.0</ele><time>2026-04-18T10:34:31.001Z</time></trkpt><trkpt lat="44.50975368201662" lon="11.311963238106719"><ele>38.199999999999996</ele><time>2026-04-18T10:34:32.001Z</time></trkpt><trkpt lat="44.50985592050508" lon="11.312014658464127"><ele>38.4</ele><time>2026-04-18T10:34:33.001Z</time></trkpt><trkpt lat="44.50995271189472" lon="11.312069441448187"><ele>38.599999999999994</ele><time>2026-04-18T10:34:34.001Z</time></trkpt><trkpt lat="44.510049357383565" lon="11.31211789996685"><ele>38.8</ele><time>2026-04-18T10:34:35.001Z</time></trkpt><trkpt lat="44.51014712559467" lon="11.312171942785103"><ele>39.0</ele><time>2026-04-18T10:34:36.001Z</time></trkpt><trkpt lat="44.51024015396481" lon="11.312223657972053"><ele>39.0</ele><time>2026-04-18T10:34:37.001Z</time></trkpt><trkpt lat="44.51033427405233" lon="11.312276144404942"><ele>39.0</ele><time>2026-04-18T10:34:38.001Z</time></trkpt><trkpt lat="44.510429831989974" lon="11.312329769550798"><ele>39.0</ele><time>2026-04-18T10:34:39.001Z</time></trkpt><trkpt lat="44.51053051613651" lon="11.312386991938666"><ele>39.0</ele><time>2026-04-18T10:34:40.001Z</time></trkpt><trkpt lat="44.510639199513506" lon="11.312442759835042"><ele>39.0</ele><time>2026-04-18T10:34:41.001Z</time></trkpt><trkpt lat="44.510751436135024" lon="11.31250627971622"><ele>39.0</ele><time>2026-04-18T10:34:42.001Z</time></trkpt><trkpt lat="44.510870066379994" lon="11.312572916126339"><ele>39.0</ele><time>2026-04-18T10:34:43.001Z</time></trkpt><trkpt lat="44.51099727716826" lon="11.31264300094411"><ele>39.0</ele><time>2026-04-18T10:34:44.019Z</time></trkpt><trkpt lat="44.51112616225559" lon="11.312712641555388"><ele>39.0</ele><time>2026-04-18T10:34:45.017Z</time></trkpt><trkpt lat="44.51125433108458" lon="11.312781942411522"><ele>39.0</ele><time>2026-04-18T10:34:46.022Z</time></trkpt><trkpt lat="44.511379917758795" lon="11.312848496498361"><ele>39.0</ele><time>2026-04-18T10:34:47.023Z</time></trkpt><trkpt lat="44.511505175727414" lon="11.312914312585066"><ele>39.0</ele><time>2026-04-18T10:34:48.021Z</time></trkpt><trkpt lat="44.51425504874858" lon="11.314330101023721"><ele>38.5</ele><time>2026-04-18T10:35:06.002Z</time></trkpt><trkpt lat="44.514411183752856" lon="11.314403676845965"><ele>38.0</ele><time>2026-04-18T10:35:07.002Z</time></trkpt><trkpt lat="44.514537115486554" lon="11.314496431461349"><ele>37.5</ele><time>2026-04-18T10:35:08.002Z</time></trkpt><trkpt lat="44.51463423324839" lon="11.31460820020739"><ele>37.0</ele><time>2026-04-18T10:35:09.002Z</time></trkpt><trkpt lat="44.51461807299031" lon="11.314888562587798"><ele>36.333333333333336</ele><time>2026-04-18T10:35:10.002Z</time></trkpt><trkpt lat="44.51474597224109" lon="11.315015560235787"><ele>35.666666666666664</ele><time>2026-04-18T10:35:11.002Z</time></trkpt><trkpt lat="44.51458766326004" lon="11.315291114476421"><ele>35.0</ele><time>2026-04-18T10:35:12.002Z</time></trkpt><trkpt lat="44.5145373092193" lon="11.315460839802169"><ele>35.5</ele><time>2026-04-18T10:35:13.002Z</time></trkpt><trkpt lat="44.514485643407454" lon="11.315628865834304"><ele>36.0</ele><time>2026-04-18T10:35:14.002Z</time></trkpt><trkpt lat="44.51436576719205" lon="11.315782231397327"><ele>36.5</ele><time>2026-04-18T10:35:15.002Z</time></trkpt><trkpt lat="44.51428039162391" lon="11.3159563398901"><ele>37.0</ele><time>2026-04-18T10:35:16.002Z</time></trkpt><trkpt lat="44.51419307018272" lon="11.316103847984431"><ele>37.0</ele><time>2026-04-18T10:35:17.002Z</time></trkpt><trkpt lat="44.51410712042137" lon="11.31624651053483"><ele>37.0</ele><time>2026-04-18T10:35:18.002Z</time></trkpt><trkpt lat="44.51403172499545" lon="11.31636866777015"><ele>37.0</ele><time>2026-04-18T10:35:19.002Z</time></trkpt><trkpt lat="44.51395453405559" lon="11.316493877892277"><ele>37.0</ele><time>2026-04-18T10:35:20.002Z</time></trkpt><trkpt lat="44.51387940445209" lon="11.31661348214102"><ele>37.0</ele><time>2026-04-18T10:35:21.002Z</time></trkpt><trkpt lat="44.51380027142149" lon="11.316729042136977"><ele>37.0</ele><time>2026-04-18T10:35:22.002Z</time></trkpt><trkpt lat="44.513719253343616" lon="11.316846007133003"><ele>37.0</ele><time>2026-04-18T10:35:23.002Z</time></trkpt><trkpt lat="44.51363072726316" lon="11.316960795095085"><ele>37.0</ele><time>2026-04-18T10:35:24.002Z</time></trkpt><trkpt lat="44.51354714806127" lon="11.317059440342952"><ele>37.0</ele><time>2026-04-18T10:35:25.002Z</time></trkpt><trkpt lat="44.513475958037134" lon="11.31713403048817"><ele>37.0</ele><time>2026-04-18T10:35:26.002Z</time></trkpt><trkpt lat="44.513404215120154" lon="11.317193612101141"><ele>37.0</ele><time>2026-04-18T10:35:27.002Z</time></trkpt><trkpt lat="44.51332608226369" lon="11.31723110001045"><ele>37.0</ele><time>2026-04-18T10:35:28.002Z</time></trkpt><trkpt lat="44.51323814745103" lon="11.317248291031628"><ele>37.0</ele><time>2026-04-18T10:35:29.002Z</time></trkpt><trkpt lat="44.51315280139146" lon="11.31726624023311"><ele>37.0</ele><time>2026-04-18T10:35:30.002Z</time></trkpt><trkpt lat="44.51308185432508" lon="11.317336237081298"><ele>37.0</ele><time>2026-04-18T10:35:31.002Z</time></trkpt><trkpt lat="44.5130424831048" lon="11.31743344447773"><ele>37.0</ele><time>2026-04-18T10:35:32.002Z</time></trkpt><trkpt lat="44.51302652100155" lon="11.317549774786816"><ele>37.0</ele><time>2026-04-18T10:35:33.002Z</time></trkpt><trkpt lat="44.51303984478197" lon="11.317657881947673"><ele>37.0</ele><time>2026-04-18T10:35:34.002Z</time></trkpt><trkpt lat="44.513079342662735" lon="11.317763556721234"><ele>37.0</ele><time>2026-04-18T10:35:35.002Z</time></trkpt><trkpt lat="44.513143169024595" lon="11.317840416010373"><ele>37.0</ele><time>2026-04-18T10:35:36.002Z</time></trkpt><trkpt lat="44.51321704718958" lon="11.31790766111279"><ele>37.0</ele><time>2026-04-18T10:35:37.002Z</time></trkpt><trkpt lat="44.513285866556814" lon="11.317982398610054"><ele>37.0</ele><time>2026-04-18T10:35:38.002Z</time></trkpt><trkpt lat="44.51335165021138" lon="11.318091155352196"><ele>37.0</ele><time>2026-04-18T10:35:39.002Z</time></trkpt><trkpt lat="44.513427776230955" lon="11.318205042413405"><ele>37.0</ele><time>2026-04-18T10:35:40.002Z</time></trkpt><trkpt lat="44.51352531959953" lon="11.318321834083504"><ele>37.0</ele><time>2026-04-18T10:35:41.002Z</time></trkpt><trkpt lat="44.513615984002485" lon="11.318424275288612"><ele>37.0</ele><time>2026-04-18T10:35:42.002Z</time></trkpt><trkpt lat="44.513707466290136" lon="11.318521686212156"><ele>37.0</ele><time>2026-04-18T10:35:43.002Z</time></trkpt><trkpt lat="44.51379861442001" lon="11.318614429163308"><ele>37.0</ele><time>2026-04-18T10:35:44.002Z</time></trkpt><trkpt lat="44.51388663064552" lon="11.318706234591632"><ele>37.0</ele><time>2026-04-18T10:35:45.002Z</time></trkpt><trkpt lat="44.51398137316556" lon="11.318800879151075"><ele>37.0</ele><time>2026-04-18T10:35:46.003Z</time></trkpt><trkpt lat="44.51407378207693" lon="11.318900004656832"><ele>37.0</ele><time>2026-04-18T10:35:47.003Z</time></trkpt><trkpt lat="44.514167281986566" lon="11.318993363015577"><ele>37.0</ele><time>2026-04-18T10:35:48.003Z</time></trkpt><trkpt lat="44.514253424040184" lon="11.319086355228979"><ele>37.0</ele><time>2026-04-18T10:35:49.003Z</time></trkpt><trkpt lat="44.51433962582015" lon="11.31917757664121"><ele>37.0</ele><time>2026-04-18T10:35:50.003Z</time></trkpt><trkpt lat="44.51442493586383" lon="11.319265432077728"><ele>37.0</ele><time>2026-04-18T10:35:51.003Z</time></trkpt><trkpt lat="44.51451192155464" lon="11.319360306653945"><ele>37.0</ele><time>2026-04-18T10:35:52.003Z</time></trkpt><trkpt lat="44.51460048753912" lon="11.319453846879728"><ele>37.0</ele><time>2026-04-18T10:35:53.003Z</time></trkpt><trkpt lat="44.51469443067202" lon="11.31955380853008"><ele>37.0</ele><time>2026-04-18T10:35:54.003Z</time></trkpt><trkpt lat="44.51478795080042" lon="11.319653045609702"><ele>36.6</ele><time>2026-04-18T10:35:55.003Z</time></trkpt><trkpt lat="44.51487629415792" lon="11.319745481195653"><ele>36.2</ele><time>2026-04-18T10:35:56.003Z</time></trkpt><trkpt lat="44.51496145811249" lon="11.319834170886608"><ele>35.8</ele><time>2026-04-18T10:35:57.003Z</time></trkpt><trkpt lat="44.5150298143102" lon="11.319905358543698"><ele>35.4</ele><time>2026-04-18T10:35:58.003Z</time></trkpt><trkpt lat="44.515101373030475" lon="11.319974189927759"><ele>35.0</ele><time>2026-04-18T10:35:59.003Z</time></trkpt><trkpt lat="44.51516389294222" lon="11.320046828416585"><ele>35.0</ele><time>2026-04-18T10:36:00.003Z</time></trkpt><trkpt lat="44.5152074233335" lon="11.320141751605064"><ele>35.0</ele><time>2026-04-18T10:36:01.003Z</time></trkpt><trkpt lat="44.51523416840406" lon="11.320239042147229"><ele>35.0</ele><time>2026-04-18T10:36:02.003Z</time></trkpt><trkpt lat="44.51522393994278" lon="11.320354229960977"><ele>35.0</ele><time>2026-04-18T10:36:03.003Z</time></trkpt><trkpt lat="44.515200753056114" lon="11.320481362570563"><ele>35.0</ele><time>2026-04-18T10:36:04.003Z</time></trkpt><trkpt lat="44.515185379752715" lon="11.320613939890869"><ele>35.0</ele><time>2026-04-18T10:36:05.003Z</time></trkpt><trkpt lat="44.515158482052925" lon="11.320741035387051"><ele>35.25</ele><time>2026-04-18T10:36:06Z</time></trkpt><trkpt lat="44.51510861765194" lon="11.320865832426533"><ele>35.5</ele><time>2026-04-18T10:36:07Z</time></trkpt><trkpt lat="44.51506224904913" lon="11.320995533231267"><ele>35.75</ele><time>2026-04-18T10:36:08Z</time></trkpt><trkpt lat="44.514945134583414" lon="11.321084521549212"><ele>36.0</ele><time>2026-04-18T10:36:09Z</time></trkpt><trkpt lat="44.514859218521295" lon="11.32119627218009"><ele>36.0</ele><time>2026-04-18T10:36:10Z</time></trkpt><trkpt lat="44.51478005323457" lon="11.321308646658693"><ele>36.0</ele><time>2026-04-18T10:36:11Z</time></trkpt><trkpt lat="44.514697821883445" lon="11.321421798049306"><ele>36.0</ele><time>2026-04-18T10:36:12Z</time></trkpt><trkpt lat="44.51461330939941" lon="11.321536704891987"><ele>36.0</ele><time>2026-04-18T10:36:13Z</time></trkpt><trkpt lat="44.51452243667845" lon="11.321658279990233"><ele>36.75</ele><time>2026-04-18T10:36:14Z</time></trkpt><trkpt lat="44.51442411154573" lon="11.321791072697273"><ele>37.5</ele><time>2026-04-18T10:36:15Z</time></trkpt><trkpt lat="44.51431773049381" lon="11.321935083356237"><ele>38.25</ele><time>2026-04-18T10:36:16Z</time></trkpt><trkpt lat="44.514204217966956" lon="11.322086675034225"><ele>39.0</ele><time>2026-04-18T10:36:17Z</time></trkpt><trkpt lat="44.51409951118561" lon="11.322232804139414"><ele>39.0</ele><time>2026-04-18T10:36:18Z</time></trkpt><trkpt lat="44.51401321144903" lon="11.32237402706792"><ele>39.0</ele><time>2026-04-18T10:36:19Z</time></trkpt><trkpt lat="44.51393573274218" lon="11.3225239321359"><ele>39.0</ele><time>2026-04-18T10:36:20Z</time></trkpt><trkpt lat="44.51386790091836" lon="11.322689181122962"><ele>39.0</ele><time>2026-04-18T10:36:21Z</time></trkpt><trkpt lat="44.513803886737705" lon="11.322853983122258"><ele>39.0</ele><time>2026-04-18T10:36:22Z</time></trkpt><trkpt lat="44.51375677538601" lon="11.32302823665871"><ele>39.0</ele><time>2026-04-18T10:36:23Z</time></trkpt><trkpt lat="44.51370624022288" lon="11.323207961099975"><ele>39.0</ele><time>2026-04-18T10:36:24Z</time></trkpt><trkpt lat="44.51363825095876" lon="11.323388349137815"><ele>39.0</ele><time>2026-04-18T10:36:25Z</time></trkpt><trkpt lat="44.51359652109436" lon="11.323557833876992"><ele>39.0</ele><time>2026-04-18T10:36:26Z</time></trkpt><trkpt lat="44.513561414725366" lon="11.323712605584163"><ele>39.0</ele><time>2026-04-18T10:36:27Z</time></trkpt><trkpt lat="44.51352859025524" lon="11.323877166917711"><ele>39.0</ele><time>2026-04-18T10:36:28Z</time></trkpt><trkpt lat="44.51349659160867" lon="11.324036244363462"><ele>39.0</ele><time>2026-04-18T10:36:29Z</time></trkpt><trkpt lat="44.513455771642946" lon="11.324214377403006"><ele>39.0</ele><time>2026-04-18T10:36:30Z</time></trkpt><trkpt lat="44.513413617672754" lon="11.324395863785545"><ele>39.0</ele><time>2026-04-18T10:36:31Z</time></trkpt><trkpt lat="44.513372805673704" lon="11.324579286376178"><ele>39.0</ele><time>2026-04-18T10:36:32Z</time></trkpt><trkpt lat="44.51333240047629" lon="11.32475379555538"><ele>39.0</ele><time>2026-04-18T10:36:33Z</time></trkpt><trkpt lat="44.51329412040804" lon="11.324918594546975"><ele>39.2</ele><time>2026-04-18T10:36:34Z</time></trkpt><trkpt lat="44.513260356592845" lon="11.325064367915505"><ele>39.4</ele><time>2026-04-18T10:36:35Z</time></trkpt><trkpt lat="44.51323300249422" lon="11.325209854853995"><ele>39.6</ele><time>2026-04-18T10:36:36Z</time></trkpt><trkpt lat="44.5131929339367" lon="11.325364185993143"><ele>39.8</ele><time>2026-04-18T10:36:37Z</time></trkpt><trkpt lat="44.51316853547119" lon="11.325499885428677"><ele>40.0</ele><time>2026-04-18T10:36:38Z</time></trkpt><trkpt lat="44.513152120437475" lon="11.325643639554581"><ele>40.2</ele><time>2026-04-18T10:36:39Z</time></trkpt><trkpt lat="44.51315115611923" lon="11.325789454605385"><ele>40.4</ele><time>2026-04-18T10:36:40Z</time></trkpt><trkpt lat="44.51316265213739" lon="11.32594512933988"><ele>40.599999999999994</ele><time>2026-04-18T10:36:41Z</time></trkpt><trkpt lat="44.51318315424558" lon="11.326105204399955"><ele>40.8</ele><time>2026-04-18T10:36:42Z</time></trkpt><trkpt lat="44.51320845785954" lon="11.326251315221642"><ele>41.0</ele><time>2026-04-18T10:36:43Z</time></trkpt><trkpt lat="44.51323530886237" lon="11.326396309621831"><ele>41.0</ele><time>2026-04-18T10:36:44Z</time></trkpt><trkpt lat="44.51326389686069" lon="11.326528435708745"><ele>41.0</ele><time>2026-04-18T10:36:45Z</time></trkpt><trkpt lat="44.513282710265344" lon="11.32663225125303"><ele>41.0</ele><time>2026-04-18T10:36:46Z</time></trkpt><trkpt lat="44.513303161760795" lon="11.326738343659327"><ele>41.0</ele><time>2026-04-18T10:36:48Z</time></trkpt><trkpt lat="44.513302857541454" lon="11.326826787153164"><ele>41.0</ele><time>2026-04-18T10:36:53.001Z</time></trkpt><trkpt lat="44.51329344533054" lon="11.326938638362922"><ele>41.0</ele><time>2026-04-18T10:36:59.001Z</time></trkpt><trkpt lat="44.513244251460044" lon="11.327061553577655"><ele>41.0</ele><time>2026-04-18T10:37:01.001Z</time></trkpt><trkpt lat="44.51320158082297" lon="11.327134919874998"><ele>41.0</ele><time>2026-04-18T10:37:02.001Z</time></trkpt><trkpt lat="44.513186381149" lon="11.32722121628886"><ele>41.0</ele><time>2026-04-18T10:37:03.001Z</time></trkpt><trkpt lat="44.513222390163975" lon="11.327376732184213"><ele>41.0</ele><time>2026-04-18T10:37:05.001Z</time></trkpt><trkpt lat="44.51332565404395" lon="11.327464813600992"><ele>41.0</ele><time>2026-04-18T10:37:07.001Z</time></trkpt><trkpt lat="44.5133995550112" lon="11.327483661107062"><ele>41.0</ele><time>2026-04-18T10:37:08.001Z</time></trkpt><trkpt lat="44.513474702496026" lon="11.327486894074072"><ele>40.8</ele><time>2026-04-18T10:37:09.001Z</time></trkpt><trkpt lat="44.5135574415092" lon="11.327482204195064"><ele>40.599999999999994</ele><time>2026-04-18T10:37:10.001Z</time></trkpt><trkpt lat="44.51364466885163" lon="11.32749363430533"><ele>40.4</ele><time>2026-04-18T10:37:11.001Z</time></trkpt><trkpt lat="44.513735337487866" lon="11.327513058686279"><ele>40.2</ele><time>2026-04-18T10:37:12.001Z</time></trkpt><trkpt lat="44.51382275833471" lon="11.327535747091098"><ele>40.0</ele><time>2026-04-18T10:37:13.001Z</time></trkpt><trkpt lat="44.51393115925124" lon="11.327557627221635"><ele>40.0</ele><time>2026-04-18T10:37:14.001Z</time></trkpt><trkpt lat="44.514067786502814" lon="11.32758930608562"><ele>40.0</ele><time>2026-04-18T10:37:15.001Z</time></trkpt><trkpt lat="44.51422586630681" lon="11.327639056033817"><ele>40.0</ele><time>2026-04-18T10:37:16.001Z</time></trkpt><trkpt lat="44.51437961455565" lon="11.327677852832274"><ele>40.0</ele><time>2026-04-18T10:37:17.001Z</time></trkpt><trkpt lat="44.51455221293616" lon="11.3277236620239"><ele>40.0</ele><time>2026-04-18T10:37:18.001Z</time></trkpt><trkpt lat="44.51472277115679" lon="11.327773723721295"><ele>40.0</ele><time>2026-04-18T10:37:19.001Z</time></trkpt><trkpt lat="44.514884382600904" lon="11.327812752005345"><ele>39.25</ele><time>2026-04-18T10:37:20.001Z</time></trkpt><trkpt lat="44.51502368690654" lon="11.327846610000075"><ele>38.5</ele><time>2026-04-18T10:37:21.001Z</time></trkpt><trkpt lat="44.51514998529669" lon="11.327878220660663"><ele>37.75</ele><time>2026-04-18T10:37:22.001Z</time></trkpt><trkpt lat="44.51525759588311" lon="11.327906551885603"><ele>37.0</ele><time>2026-04-18T10:37:23.001Z</time></trkpt><trkpt lat="44.51534823262718" lon="11.327931524142107"><ele>37.16666666666667</ele><time>2026-04-18T10:37:24.001Z</time></trkpt><trkpt lat="44.515429657190786" lon="11.327956341219059"><ele>37.333333333333336</ele><time>2026-04-18T10:37:25.001Z</time></trkpt><trkpt lat="44.515497465434194" lon="11.327976029239471"><ele>37.5</ele><time>2026-04-18T10:37:26.001Z</time></trkpt><trkpt lat="44.51556746863116" lon="11.327996857314853"><ele>37.666666666666664</ele><time>2026-04-18T10:37:27.001Z</time></trkpt><trkpt lat="44.51563774819479" lon="11.328017269864459"><ele>37.83333333333333</ele><time>2026-04-18T10:37:28.002Z</time></trkpt><trkpt lat="44.515699924875605" lon="11.32803403027483"><ele>38.0</ele><time>2026-04-18T10:37:29.002Z</time></trkpt><trkpt lat="44.51580367838821" lon="11.328063131527047"><ele>38.599999999999994</ele><time>2026-04-18T10:37:31.002Z</time></trkpt><trkpt lat="44.5159265719091" lon="11.328083177168379"><ele>39.199999999999996</ele><time>2026-04-18T10:37:33.002Z</time></trkpt><trkpt lat="44.51599939472745" lon="11.328099349672094"><ele>39.8</ele><time>2026-04-18T10:37:34.002Z</time></trkpt><trkpt lat="44.51612539831548" lon="11.328080871531371"><ele>40.4</ele><time>2026-04-18T10:37:36.002Z</time></trkpt><trkpt lat="44.51619936569749" lon="11.328157994145364"><ele>41.0</ele><time>2026-04-18T10:37:37.002Z</time></trkpt><trkpt lat="44.51628198298497" lon="11.328177262174876"><ele>41.5</ele><time>2026-04-18T10:37:38.002Z</time></trkpt><trkpt lat="44.5163631308174" lon="11.328194180734874"><ele>42.0</ele><time>2026-04-18T10:37:39.002Z</time></trkpt><trkpt lat="44.516445759683485" lon="11.328214452965888"><ele>42.5</ele><time>2026-04-18T10:37:40.002Z</time></trkpt><trkpt lat="44.51652216014772" lon="11.328227037142478"><ele>43.0</ele><time>2026-04-18T10:37:41.002Z</time></trkpt><trkpt lat="44.516594723441614" lon="11.328248755255553"><ele>43.5</ele><time>2026-04-18T10:37:42.002Z</time></trkpt><trkpt lat="44.51667299226108" lon="11.328269797578812"><ele>44.0</ele><time>2026-04-18T10:37:43.002Z</time></trkpt><trkpt lat="44.516752458621966" lon="11.328287470090398"><ele>44.0</ele><time>2026-04-18T10:37:44.002Z</time></trkpt><trkpt lat="44.51681904695135" lon="11.328304918407582"><ele>44.0</ele><time>2026-04-18T10:37:45.002Z</time></trkpt><trkpt lat="44.51688289757871" lon="11.328328069918308"><ele>44.0</ele><time>2026-04-18T10:37:46.002Z</time></trkpt><trkpt lat="44.5169498493993" lon="11.328350742594674"><ele>44.0</ele><time>2026-04-18T10:37:47.002Z</time></trkpt><trkpt lat="44.51705773678911" lon="11.328401786342015"><ele>44.0</ele><time>2026-04-18T10:37:49.002Z</time></trkpt><trkpt lat="44.51713215587797" lon="11.328448343513408"><ele>44.0</ele><time>2026-04-18T10:37:51.002Z</time></trkpt><trkpt lat="44.51718763821846" lon="11.328520638828937"><ele>42.800000000000004</ele><time>2026-04-18T10:37:53.002Z</time></trkpt><trkpt lat="44.51725117715447" lon="11.328665816212327"><ele>41.6</ele><time>2026-04-18T10:37:55.002Z</time></trkpt><trkpt lat="44.51727041797085" lon="11.32876845012873"><ele>40.4</ele><time>2026-04-18T10:37:56.002Z</time></trkpt><trkpt lat="44.51723290513863" lon="11.328876619326762"><ele>39.2</ele><time>2026-04-18T10:37:57.002Z</time></trkpt><trkpt lat="44.517219791758386" lon="11.328995823903982"><ele>38.0</ele><time>2026-04-18T10:37:58.002Z</time></trkpt><trkpt lat="44.517205538733336" lon="11.329121709424044"><ele>38.0</ele><time>2026-04-18T10:37:59.002Z</time></trkpt><trkpt lat="44.51718828681809" lon="11.329253338313586"><ele>38.0</ele><time>2026-04-18T10:38:00.002Z</time></trkpt><trkpt lat="44.51717121745198" lon="11.329381548481539"><ele>38.0</ele><time>2026-04-18T10:38:01.002Z</time></trkpt><trkpt lat="44.5171566803347" lon="11.32949908173679"><ele>38.0</ele><time>2026-04-18T10:38:02.002Z</time></trkpt><trkpt lat="44.51714167417468" lon="11.329616124784401"><ele>38.0</ele><time>2026-04-18T10:38:03.002Z</time></trkpt><trkpt lat="44.5171242861366" lon="11.329734628371979"><ele>38.0</ele><time>2026-04-18T10:38:04.002Z</time></trkpt><trkpt lat="44.51711132265973" lon="11.329852194432393"><ele>38.0</ele><time>2026-04-18T10:38:05.002Z</time></trkpt><trkpt lat="44.51709701632673" lon="11.329964420390368"><ele>38.0</ele><time>2026-04-18T10:38:06.002Z</time></trkpt><trkpt lat="44.51708992063229" lon="11.330078534686082"><ele>38.0</ele><time>2026-04-18T10:38:07.003Z</time></trkpt><trkpt lat="44.51708082488574" lon="11.330211799750606"><ele>38.0</ele><time>2026-04-18T10:38:08.003Z</time></trkpt><trkpt lat="44.51707382000566" lon="11.33035560804576"><ele>38.0</ele><time>2026-04-18T10:38:09.003Z</time></trkpt><trkpt lat="44.517066368173026" lon="11.330499231380188"><ele>38.33333333333333</ele><time>2026-04-18T10:38:10.003Z</time></trkpt><trkpt lat="44.51706210505162" lon="11.330625386979344"><ele>38.666666666666664</ele><time>2026-04-18T10:38:11.003Z</time></trkpt><trkpt lat="44.517057645209135" lon="11.330744313094538"><ele>39.0</ele><time>2026-04-18T10:38:11.999Z</time></trkpt><trkpt lat="44.51705473078642" lon="11.330842742388423"><ele>39.333333333333336</ele><time>2026-04-18T10:38:12.999Z</time></trkpt><trkpt lat="44.51705414018954" lon="11.33093991729794"><ele>39.66666666666667</ele><time>2026-04-18T10:38:13.999Z</time></trkpt><trkpt lat="44.517058003571634" lon="11.33104731953676"><ele>40.0</ele><time>2026-04-18T10:38:14.999Z</time></trkpt><trkpt lat="44.51705291084573" lon="11.331161259048807"><ele>40.0</ele><time>2026-04-18T10:38:15.999Z</time></trkpt><trkpt lat="44.51705425147648" lon="11.331282366359689"><ele>40.0</ele><time>2026-04-18T10:38:16.999Z</time></trkpt><trkpt lat="44.51705419833046" lon="11.331399538719486"><ele>40.0</ele><time>2026-04-18T10:38:17.999Z</time></trkpt><trkpt lat="44.517048045066716" lon="11.331516453245628"><ele>40.0</ele><time>2026-04-18T10:38:18.999Z</time></trkpt><trkpt lat="44.51705084417312" lon="11.331634357485118"><ele>40.0</ele><time>2026-04-18T10:38:19.999Z</time></trkpt><trkpt lat="44.51704874706534" lon="11.331756938752578"><ele>40.0</ele><time>2026-04-18T10:38:20.999Z</time></trkpt><trkpt lat="44.517050983819544" lon="11.331873481786971"><ele>39.8</ele><time>2026-04-18T10:38:21.999Z</time></trkpt><trkpt lat="44.5170354590911" lon="11.332004631161013"><ele>39.6</ele><time>2026-04-18T10:38:22.999Z</time></trkpt><trkpt lat="44.51705511676757" lon="11.332154259290213"><ele>39.4</ele><time>2026-04-18T10:38:23.999Z</time></trkpt><trkpt lat="44.51705452598771" lon="11.33231503849833"><ele>39.2</ele><time>2026-04-18T10:38:24.999Z</time></trkpt><trkpt lat="44.51704838584148" lon="11.332475618347473"><ele>39.0</ele><time>2026-04-18T10:38:25.999Z</time></trkpt><trkpt lat="44.5170417509939" lon="11.33264364143787"><ele>38.4</ele><time>2026-04-18T10:38:26.999Z</time></trkpt><trkpt lat="44.51703891685576" lon="11.332805784918207"><ele>37.8</ele><time>2026-04-18T10:38:27.999Z</time></trkpt><trkpt lat="44.5170407239608" lon="11.332958097422686"><ele>37.2</ele><time>2026-04-18T10:38:28.999Z</time></trkpt><trkpt lat="44.51704179645851" lon="11.33310546661236"><ele>36.6</ele><time>2026-04-18T10:38:29.999Z</time></trkpt><trkpt lat="44.517040762274135" lon="11.333255579537052"><ele>36.0</ele><time>2026-04-18T10:38:30.999Z</time></trkpt><trkpt lat="44.51703449454296" lon="11.33341569162208"><ele>35.8</ele><time>2026-04-18T10:38:31.999Z</time></trkpt><trkpt lat="44.51703446349071" lon="11.333565259614328"><ele>35.6</ele><time>2026-04-18T10:38:32.999Z</time></trkpt><trkpt lat="44.517028913881546" lon="11.333710427936552"><ele>35.4</ele><time>2026-04-18T10:38:34Z</time></trkpt><trkpt lat="44.51702894674605" lon="11.333840702820883"><ele>35.2</ele><time>2026-04-18T10:38:35Z</time></trkpt><trkpt lat="44.517027125428115" lon="11.333966482611435"><ele>35.0</ele><time>2026-04-18T10:38:36Z</time></trkpt><trkpt lat="44.51702671103163" lon="11.334103213188154"><ele>35.0</ele><time>2026-04-18T10:38:37Z</time></trkpt><trkpt lat="44.51703105828789" lon="11.334236009528352"><ele>35.0</ele><time>2026-04-18T10:38:38Z</time></trkpt><trkpt lat="44.517029835858125" lon="11.334370990818362"><ele>35.0</ele><time>2026-04-18T10:38:39Z</time></trkpt><trkpt lat="44.51703256668906" lon="11.33449865608933"><ele>35.0</ele><time>2026-04-18T10:38:40Z</time></trkpt><trkpt lat="44.517030876135046" lon="11.334627266685136"><ele>35.0</ele><time>2026-04-18T10:38:41Z</time></trkpt><trkpt lat="44.517017087611876" lon="11.334772740213891"><ele>35.5</ele><time>2026-04-18T10:38:42Z</time></trkpt><trkpt lat="44.51701756679771" lon="11.334899574167814"><ele>36.0</ele><time>2026-04-18T10:38:43Z</time></trkpt><trkpt lat="44.51701856529441" lon="11.335029792288744"><ele>36.5</ele><time>2026-04-18T10:38:44Z</time></trkpt><trkpt lat="44.51701780161069" lon="11.33515484567641"><ele>37.0</ele><time>2026-04-18T10:38:45Z</time></trkpt><trkpt lat="44.51701293465969" lon="11.33526710801208"><ele>37.5</ele><time>2026-04-18T10:38:46Z</time></trkpt><trkpt lat="44.5170110022367" lon="11.335361262640385"><ele>38.0</ele><time>2026-04-18T10:38:47Z</time></trkpt><trkpt lat="44.517005493447265" lon="11.335497282441187"><ele>38.166666666666664</ele><time>2026-04-18T10:38:49Z</time></trkpt><trkpt lat="44.51700143441199" lon="11.33559595689798"><ele>38.33333333333333</ele><time>2026-04-18T10:38:52Z</time></trkpt><trkpt lat="44.516981004570326" lon="11.335705162713749"><ele>38.5</ele><time>2026-04-18T10:38:57Z</time></trkpt><trkpt lat="44.51698947044554" lon="11.335818787645442"><ele>38.666666666666664</ele><time>2026-04-18T10:39:01Z</time></trkpt><trkpt lat="44.51697534690813" lon="11.335943049549533"><ele>38.833333333333336</ele><time>2026-04-18T10:39:03.001Z</time></trkpt><trkpt lat="44.51691474305971" lon="11.336072719859008"><ele>39.0</ele><time>2026-04-18T10:39:05.001Z</time></trkpt><trkpt lat="44.51685031528692" lon="11.336175662156204"><ele>39.0</ele><time>2026-04-18T10:39:07.001Z</time></trkpt><trkpt lat="44.51677600086928" lon="11.336248643761571"><ele>39.0</ele><time>2026-04-18T10:39:13.001Z</time></trkpt><trkpt lat="44.51668524015828" lon="11.33630555581022"><ele>39.0</ele><time>2026-04-18T10:39:15.001Z</time></trkpt><trkpt lat="44.51661716053266" lon="11.336341635619974"><ele>39.0</ele><time>2026-04-18T10:39:16.001Z</time></trkpt><trkpt lat="44.51652211476286" lon="11.336379290644041"><ele>39.0</ele><time>2026-04-18T10:39:17.001Z</time></trkpt><trkpt lat="44.51642097476659" lon="11.33642470106701"><ele>38.75</ele><time>2026-04-18T10:39:18.001Z</time></trkpt><trkpt lat="44.51629291879062" lon="11.336480875901305"><ele>38.5</ele><time>2026-04-18T10:39:19.001Z</time></trkpt><trkpt lat="44.51616567594093" lon="11.336543486063817"><ele>38.25</ele><time>2026-04-18T10:39:20.001Z</time></trkpt><trkpt lat="44.516040391127774" lon="11.33661340067038"><ele>38.0</ele><time>2026-04-18T10:39:21.001Z</time></trkpt><trkpt lat="44.515909662149205" lon="11.33670075451587"><ele>38.0</ele><time>2026-04-18T10:39:22.001Z</time></trkpt><trkpt lat="44.51576561581472" lon="11.336801416930816"><ele>38.0</ele><time>2026-04-18T10:39:23.001Z</time></trkpt><trkpt lat="44.51561687375764" lon="11.336900759535826"><ele>38.0</ele><time>2026-04-18T10:39:24.001Z</time></trkpt><trkpt lat="44.51547515017608" lon="11.336997071040095"><ele>37.75</ele><time>2026-04-18T10:39:25.001Z</time></trkpt><trkpt lat="44.515352326055456" lon="11.337087943352174"><ele>37.5</ele><time>2026-04-18T10:39:26.001Z</time></trkpt><trkpt lat="44.51524136099721" lon="11.337168192071447"><ele>37.25</ele><time>2026-04-18T10:39:27.001Z</time></trkpt><trkpt lat="44.51514891456803" lon="11.337229314848042"><ele>37.0</ele><time>2026-04-18T10:39:28.001Z</time></trkpt><trkpt lat="44.51505900470912" lon="11.337291854951184"><ele>37.4</ele><time>2026-04-18T10:39:29.001Z</time></trkpt><trkpt lat="44.514980625307736" lon="11.337386860305802"><ele>37.800000000000004</ele><time>2026-04-18T10:39:30.001Z</time></trkpt><trkpt lat="44.51490059129597" lon="11.337490995716218"><ele>38.2</ele><time>2026-04-18T10:39:31.001Z</time></trkpt><trkpt lat="44.5148151865136" lon="11.337567182528728"><ele>38.6</ele><time>2026-04-18T10:39:32.001Z</time></trkpt><trkpt lat="44.51473512379642" lon="11.337636885152412"><ele>39.0</ele><time>2026-04-18T10:39:33.001Z</time></trkpt><trkpt lat="44.51465947487265" lon="11.337702147888978"><ele>39.0</ele><time>2026-04-18T10:39:34.001Z</time></trkpt><trkpt lat="44.51459808888027" lon="11.33776967036979"><ele>39.0</ele><time>2026-04-18T10:39:35.001Z</time></trkpt><trkpt lat="44.514544041378706" lon="11.337835838602137"><ele>39.0</ele><time>2026-04-18T10:39:36.001Z</time></trkpt><trkpt lat="44.51446450890004" lon="11.337938415318257"><ele>39.0</ele><time>2026-04-18T10:39:38.002Z</time></trkpt><trkpt lat="44.514409909527096" lon="11.338002371776074"><ele>39.0</ele><time>2026-04-18T10:39:40.002Z</time></trkpt><trkpt lat="44.51435151840386" lon="11.338084898280288"><ele>39.0</ele><time>2026-04-18T10:39:43.002Z</time></trkpt><trkpt lat="44.51429964217945" lon="11.338151294643385"><ele>38.6</ele><time>2026-04-18T10:39:45.002Z</time></trkpt><trkpt lat="44.514241528086984" lon="11.33823744171245"><ele>38.2</ele><time>2026-04-18T10:39:47.002Z</time></trkpt><trkpt lat="44.51415888844151" lon="11.338358336108122"><ele>37.800000000000004</ele><time>2026-04-18T10:39:49.002Z</time></trkpt><trkpt lat="44.514112380594" lon="11.338430725656272"><ele>37.4</ele><time>2026-04-18T10:39:50.002Z</time></trkpt><trkpt lat="44.51404003337334" lon="11.338549271254132"><ele>37.0</ele><time>2026-04-18T10:39:52.002Z</time></trkpt><trkpt lat="44.5139663584434" lon="11.338675944041455"><ele>37.0</ele><time>2026-04-18T10:39:54.002Z</time></trkpt><trkpt lat="44.51390750241039" lon="11.338766810035024"><ele>37.0</ele><time>2026-04-18T10:39:55.002Z</time></trkpt><trkpt lat="44.51385723288626" lon="11.338835003467027"><ele>37.0</ele><time>2026-04-18T10:39:56.002Z</time></trkpt><trkpt lat="44.513783091870415" lon="11.338934403718143"><ele>37.0</ele><time>2026-04-18T10:39:58.002Z</time></trkpt><trkpt lat="44.513715279573496" lon="11.339020825135853"><ele>37.0</ele><time>2026-04-18T10:40:00.002Z</time></trkpt><trkpt lat="44.51361309271381" lon="11.339110840141885"><ele>37.5</ele><time>2026-04-18T10:40:02.002Z</time></trkpt><trkpt lat="44.51354217120679" lon="11.339118820555546"><ele>38.0</ele><time>2026-04-18T10:40:03.002Z</time></trkpt><trkpt lat="44.51347091250213" lon="11.339122065985478"><ele>38.5</ele><time>2026-04-18T10:40:04.002Z</time></trkpt><trkpt lat="44.51339663845097" lon="11.339114545249918"><ele>39.0</ele><time>2026-04-18T10:40:05.002Z</time></trkpt><trkpt lat="44.51331795212559" lon="11.339089573256206"><ele>39.5</ele><time>2026-04-18T10:40:06.002Z</time></trkpt><trkpt lat="44.51323790635493" lon="11.339068121161295"><ele>40.0</ele><time>2026-04-18T10:40:07.002Z</time></trkpt><trkpt lat="44.51315415622187" lon="11.339049467115464"><ele>40.0</ele><time>2026-04-18T10:40:08.002Z</time></trkpt><trkpt lat="44.51306771663805" lon="11.339029143415678"><ele>40.0</ele><time>2026-04-18T10:40:09.002Z</time></trkpt><trkpt lat="44.51298528317954" lon="11.339008207347243"><ele>40.0</ele><time>2026-04-18T10:40:10.002Z</time></trkpt><trkpt lat="44.512903901987706" lon="11.338989361679934"><ele>40.0</ele><time>2026-04-18T10:40:11.002Z</time></trkpt><trkpt lat="44.51282657006694" lon="11.338966862305227"><ele>40.0</ele><time>2026-04-18T10:40:12.002Z</time></trkpt><trkpt lat="44.51274511886928" lon="11.33894059407684"><ele>40.0</ele><time>2026-04-18T10:40:13.003Z</time></trkpt><trkpt lat="44.5126630533474" lon="11.3389192410517"><ele>40.0</ele><time>2026-04-18T10:40:14.003Z</time></trkpt><trkpt lat="44.51257597204162" lon="11.338899186589249"><ele>40.0</ele><time>2026-04-18T10:40:15.003Z</time></trkpt><trkpt lat="44.51248601762541" lon="11.338878325493308"><ele>40.0</ele><time>2026-04-18T10:40:16.003Z</time></trkpt><trkpt lat="44.51239013334302" lon="11.338855396655195"><ele>40.0</ele><time>2026-04-18T10:40:17.003Z</time></trkpt><trkpt lat="44.51228866147125" lon="11.338829450586344"><ele>40.0</ele><time>2026-04-18T10:40:17.999Z</time></trkpt><trkpt lat="44.51218902851639" lon="11.338803951820909"><ele>40.2</ele><time>2026-04-18T10:40:18.999Z</time></trkpt><trkpt lat="44.51209570973595" lon="11.338777757749428"><ele>40.4</ele><time>2026-04-18T10:40:19.999Z</time></trkpt><trkpt lat="44.51198992879283" lon="11.33876560762906"><ele>40.599999999999994</ele><time>2026-04-18T10:40:20.999Z</time></trkpt><trkpt lat="44.51189500004188" lon="11.338741960425414"><ele>40.8</ele><time>2026-04-18T10:40:21.999Z</time></trkpt><trkpt lat="44.51180550752003" lon="11.338717109893778"><ele>41.0</ele><time>2026-04-18T10:40:22.999Z</time></trkpt><trkpt lat="44.51171808611254" lon="11.338696746334458"><ele>39.0</ele><time>2026-04-18T10:40:23.999Z</time></trkpt><trkpt lat="44.51163458267212" lon="11.33867821802168"><ele>39.0</ele><time>2026-04-18T10:40:24.999Z</time></trkpt><trkpt lat="44.51147541466604" lon="11.33864110796331"><ele>39.0</ele><time>2026-04-18T10:40:26.999Z</time></trkpt><trkpt lat="44.51140992837433" lon="11.338621307891424"><ele>39.0</ele><time>2026-04-18T10:40:27.999Z</time></trkpt><trkpt lat="44.51131720422994" lon="11.338594251286708"><ele>39.0</ele><time>2026-04-18T10:40:29.999Z</time></trkpt></trkseg></trk></gpx>